<?xml version="1.0" encoding="UTF-8" standalone="no" ?><gpx xmlns="http://www.topografix.com/GPX/1/1" xmlns:gpxx="http://www.garmin.com/xmlschemas/GpxExtensions/v3" xmlns:wptx1="http://www.garmin.com/xmlschemas/WaypointExtension/v1" xmlns:gpxtpx="http://www.garmin.com/xmlschemas/TrackPointExtension/v1" creator="Astro 320" version="1.1" xmlns:xsi="http://www.w3.org/2001/XMLSchema-instance" xsi:schemaLocation="http://www.topografix.com/GPX/1/1 http://www.topografix.com/GPX/1/1/gpx.xsd http://www.garmin.com/xmlschemas/GpxExtensions/v3 http://www8.garmin.com/xmlschemas/GpxExtensionsv3.xsd http://www.garmin.com/xmlschemas/WaypointExtension/v1 http://www8.garmin.com/xmlschemas/WaypointExtensionv1.xsd http://www.garmin.com/xmlschemas/TrackPointExtension/v1 http://www.garmin.com/xmlschemas/TrackPointExtensionv1.xsd"><metadata><link href="http://www.garmin.com"><text>Garmin International</text></link><time>2026-08-20T13:27:19Z</time></metadata><trk><name>2026-08-20 16:27:17</name><extensions><gpxx:TrackExtension><gpxx:DisplayColor>Cyan</gpxx:DisplayColor></gpxx:TrackExtension></extensions><trkseg><trkpt lat="60.1134730596" lon="30.5175011884"><ele>41.47</ele><time>2026-08-19T10:52:32Z</time></trkpt><trkpt lat="60.1134855486" lon="30.5173289403"><ele>41.47</ele><time>2026-08-19T10:52:44Z</time></trkpt><trkpt lat="60.1134653483" lon="30.5172372423"><ele>41.47</ele><time>2026-08-19T10:52:50Z</time></trkpt></trkseg><trkseg><trkpt lat="60.1134649292" lon="30.5170854460"><ele>41.47</ele><time>2026-08-19T10:52:59Z</time></trkpt><trkpt lat="60.1134377718" lon="30.5170239229"><ele>41.47</ele><time>2026-08-19T10:53:04Z</time></trkpt><trkpt lat="60.1134134643" lon="30.5168460589"><ele>41.47</ele><time>2026-08-19T10:53:14Z</time></trkpt><trkpt lat="60.1133760810" lon="30.5166236870"><ele>41.47</ele><time>2026-08-19T10:53:26Z</time></trkpt><trkpt lat="60.1133360155" lon="30.5164112896"><ele>41.47</ele><time>2026-08-19T10:53:38Z</time></trkpt><trkpt lat="60.1132784318" lon="30.5162315816"><ele>40.99</ele><time>2026-08-19T10:53:51Z</time></trkpt><trkpt lat="60.1132512745" lon="30.5161928572"><ele>40.99</ele><time>2026-08-19T10:53:55Z</time></trkpt><trkpt lat="60.1131883264" lon="30.5160251353"><ele>40.99</ele><time>2026-08-19T10:54:07Z</time></trkpt><trkpt lat="60.1131681260" lon="30.5159788672"><ele>40.99</ele><time>2026-08-19T10:54:10Z</time></trkpt><trkpt lat="60.1131547149" lon="30.5157183576"><ele>40.51</ele><time>2026-08-19T10:54:22Z</time></trkpt><trkpt lat="60.1131487638" lon="30.5156525597"><ele>40.51</ele><time>2026-08-19T10:54:25Z</time></trkpt><trkpt lat="60.1131650247" lon="30.5154764559"><ele>40.51</ele><time>2026-08-19T10:54:33Z</time></trkpt><trkpt lat="60.1131088659" lon="30.5151881184"><ele>40.03</ele><time>2026-08-19T10:54:48Z</time></trkpt><trkpt lat="60.1130938623" lon="30.5149805825"><ele>40.03</ele><time>2026-08-19T10:55:00Z</time></trkpt><trkpt lat="60.1130787749" lon="30.5148105137"><ele>39.55</ele><time>2026-08-19T10:55:12Z</time></trkpt><trkpt lat="60.1130815409" lon="30.5147590488"><ele>39.55</ele><time>2026-08-19T10:55:15Z</time></trkpt><trkpt lat="60.1130817086" lon="30.5144967791"><ele>39.55</ele><time>2026-08-19T10:55:31Z</time></trkpt><trkpt lat="60.1130827144" lon="30.5143990461"><ele>39.07</ele><time>2026-08-19T10:55:44Z</time></trkpt><trkpt lat="60.1130901743" lon="30.5143920053"><ele>38.59</ele><time>2026-08-19T10:56:13Z</time></trkpt><trkpt lat="60.1131513622" lon="30.5144282151"><ele>38.11</ele><time>2026-08-19T10:56:37Z</time></trkpt><trkpt lat="60.1131536253" lon="30.5144887324"><ele>38.11</ele><time>2026-08-19T10:56:54Z</time></trkpt><trkpt lat="60.1131615881" lon="30.5145288818"><ele>37.63</ele><time>2026-08-19T10:57:16Z</time></trkpt><trkpt lat="60.1131498534" lon="30.5144553725"><ele>37.63</ele><time>2026-08-19T10:57:42Z</time></trkpt><trkpt lat="60.1131263003" lon="30.5142410472"><ele>37.63</ele><time>2026-08-19T10:57:55Z</time></trkpt><trkpt lat="60.1131087821" lon="30.5139736645"><ele>37.63</ele><time>2026-08-19T10:58:07Z</time></trkpt><trkpt lat="60.1130905934" lon="30.5137205310"><ele>37.63</ele><time>2026-08-19T10:58:19Z</time></trkpt><trkpt lat="60.1130669564" lon="30.5134117417"><ele>37.63</ele><time>2026-08-19T10:58:35Z</time></trkpt><trkpt lat="60.1130641904" lon="30.5133883562"><ele>37.63</ele><time>2026-08-19T10:58:36Z</time></trkpt><trkpt lat="60.1130605862" lon="30.5131056346"><ele>37.15</ele><time>2026-08-19T10:58:52Z</time></trkpt><trkpt lat="60.1130213588" lon="30.5128442869"><ele>37.15</ele><time>2026-08-19T10:59:03Z</time></trkpt><trkpt lat="60.1130030863" lon="30.5127256829"><ele>37.15</ele><time>2026-08-19T10:59:09Z</time></trkpt><trkpt lat="60.1129822992" lon="30.5125859566"><ele>37.15</ele><time>2026-08-19T10:59:15Z</time></trkpt><trkpt lat="60.1130066905" lon="30.5122711323"><ele>37.15</ele><time>2026-08-19T10:59:28Z</time></trkpt><trkpt lat="60.1129894238" lon="30.5121951085"><ele>37.15</ele><time>2026-08-19T10:59:31Z</time></trkpt><trkpt lat="60.1129527949" lon="30.5119577330"><ele>36.67</ele><time>2026-08-19T10:59:42Z</time></trkpt><trkpt lat="60.1129269786" lon="30.5117595010"><ele>36.67</ele><time>2026-08-19T10:59:50Z</time></trkpt><trkpt lat="60.1129194349" lon="30.5116001610"><ele>36.67</ele><time>2026-08-19T10:59:57Z</time></trkpt><trkpt lat="60.1128680538" lon="30.5114277452"><ele>36.67</ele><time>2026-08-19T11:00:04Z</time></trkpt><trkpt lat="60.1128474344" lon="30.5111376476"><ele>36.67</ele><time>2026-08-19T11:00:16Z</time></trkpt><trkpt lat="60.1128390525" lon="30.5110871047"><ele>36.67</ele><time>2026-08-19T11:00:18Z</time></trkpt><trkpt lat="60.1128252223" lon="30.5110558402"><ele>36.67</ele><time>2026-08-19T11:00:20Z</time></trkpt><trkpt lat="60.1127867494" lon="30.5109612085"><ele>36.19</ele><time>2026-08-19T11:00:25Z</time></trkpt><trkpt lat="60.1127744280" lon="30.5109158624"><ele>36.19</ele><time>2026-08-19T11:00:27Z</time></trkpt><trkpt lat="60.1127639506" lon="30.5107188877"><ele>36.19</ele><time>2026-08-19T11:00:36Z</time></trkpt><trkpt lat="60.1127577480" lon="30.5106406007"><ele>36.19</ele><time>2026-08-19T11:00:39Z</time></trkpt><trkpt lat="60.1127067022" lon="30.5102314800"><ele>35.71</ele><time>2026-08-19T11:00:55Z</time></trkpt><trkpt lat="60.1127024274" lon="30.5100773368"><ele>35.71</ele><time>2026-08-19T11:01:03Z</time></trkpt><trkpt lat="60.1127001643" lon="30.5097453296"><ele>35.23</ele><time>2026-08-19T11:01:16Z</time></trkpt><trkpt lat="60.1126926206" lon="30.5096767657"><ele>35.23</ele><time>2026-08-19T11:01:19Z</time></trkpt><trkpt lat="60.1126848254" lon="30.5095538031"><ele>35.23</ele><time>2026-08-19T11:01:23Z</time></trkpt><trkpt lat="60.1126693189" lon="30.5094182678"><ele>35.23</ele><time>2026-08-19T11:01:29Z</time></trkpt><trkpt lat="60.1126719173" lon="30.5092611909"><ele>35.23</ele><time>2026-08-19T11:01:36Z</time></trkpt><trkpt lat="60.1126941293" lon="30.5091933813"><ele>34.74</ele><time>2026-08-19T11:01:38Z</time></trkpt><trkpt lat="60.1126965601" lon="30.5088504776"><ele>34.74</ele><time>2026-08-19T11:01:53Z</time></trkpt><trkpt lat="60.1126989909" lon="30.5087510683"><ele>34.74</ele><time>2026-08-19T11:01:57Z</time></trkpt><trkpt lat="60.1125958934" lon="30.5084822606"><ele>34.74</ele><time>2026-08-19T11:02:10Z</time></trkpt><trkpt lat="60.1125821471" lon="30.5083644111"><ele>34.26</ele><time>2026-08-19T11:02:16Z</time></trkpt><trkpt lat="60.1125562470" lon="30.5081949290"><ele>34.26</ele><time>2026-08-19T11:02:24Z</time></trkpt><trkpt lat="60.1125401538" lon="30.5078719743"><ele>34.26</ele><time>2026-08-19T11:02:38Z</time></trkpt><trkpt lat="60.1125036087" lon="30.5077371094"><ele>33.78</ele><time>2026-08-19T11:02:46Z</time></trkpt><trkpt lat="60.1124972384" lon="30.5076936074"><ele>33.78</ele><time>2026-08-19T11:02:48Z</time></trkpt><trkpt lat="60.1124929637" lon="30.5076193437"><ele>33.78</ele><time>2026-08-19T11:02:51Z</time></trkpt><trkpt lat="60.1124966517" lon="30.5075423978"><ele>33.78</ele><time>2026-08-19T11:02:54Z</time></trkpt><trkpt lat="60.1124348771" lon="30.5073255580"><ele>33.78</ele><time>2026-08-19T11:03:06Z</time></trkpt><trkpt lat="60.1124257408" lon="30.5072541442"><ele>33.78</ele><time>2026-08-19T11:03:10Z</time></trkpt><trkpt lat="60.1124290936" lon="30.5071737617"><ele>33.78</ele><time>2026-08-19T11:03:13Z</time></trkpt><trkpt lat="60.1124116592" lon="30.5067914631"><ele>33.30</ele><time>2026-08-19T11:03:27Z</time></trkpt><trkpt lat="60.1123736054" lon="30.5065799039"><ele>33.30</ele><time>2026-08-19T11:03:39Z</time></trkpt><trkpt lat="60.1123398263" lon="30.5063274410"><ele>33.30</ele><time>2026-08-19T11:03:51Z</time></trkpt><trkpt lat="60.1123247389" lon="30.5062779039"><ele>33.30</ele><time>2026-08-19T11:03:57Z</time></trkpt><trkpt lat="60.1123056281" lon="30.5062214937"><ele>33.30</ele><time>2026-08-19T11:04:01Z</time></trkpt><trkpt lat="60.1122602820" lon="30.5060681049"><ele>33.30</ele><time>2026-08-19T11:04:11Z</time></trkpt><trkpt lat="60.1122249104" lon="30.5058727227"><ele>33.30</ele><time>2026-08-19T11:04:17Z</time></trkpt><trkpt lat="60.1122138463" lon="30.5057861377"><ele>33.30</ele><time>2026-08-19T11:04:20Z</time></trkpt><trkpt lat="60.1121581066" lon="30.5055459961"><ele>33.30</ele><time>2026-08-19T11:04:30Z</time></trkpt><trkpt lat="60.1121444441" lon="30.5053973850"><ele>33.30</ele><time>2026-08-19T11:04:37Z</time></trkpt><trkpt lat="60.1121213939" lon="30.5051403120"><ele>33.30</ele><time>2026-08-19T11:04:47Z</time></trkpt><trkpt lat="60.1120872796" lon="30.5050207023"><ele>33.30</ele><time>2026-08-19T11:04:52Z</time></trkpt><trkpt lat="60.1120922249" lon="30.5049311835"><ele>33.30</ele><time>2026-08-19T11:04:55Z</time></trkpt><trkpt lat="60.1120985951" lon="30.5048900284"><ele>33.30</ele><time>2026-08-19T11:04:57Z</time></trkpt><trkpt lat="60.1120986789" lon="30.5048430897"><ele>33.30</ele><time>2026-08-19T11:04:59Z</time></trkpt><trkpt lat="60.1120866928" lon="30.5046926346"><ele>33.30</ele><time>2026-08-19T11:05:07Z</time></trkpt><trkpt lat="60.1120892912" lon="30.5045876093"><ele>33.30</ele><time>2026-08-19T11:05:11Z</time></trkpt><trkpt lat="60.1120754611" lon="30.5045244936"><ele>33.30</ele><time>2026-08-19T11:05:14Z</time></trkpt><trkpt lat="60.1120007783" lon="30.5042582005"><ele>33.30</ele><time>2026-08-19T11:05:28Z</time></trkpt><trkpt lat="60.1119296160" lon="30.5040500779"><ele>33.30</ele><time>2026-08-19T11:05:38Z</time></trkpt><trkpt lat="60.1119032968" lon="30.5039013829"><ele>33.30</ele><time>2026-08-19T11:05:45Z</time></trkpt><trkpt lat="60.1118909754" lon="30.5036855489"><ele>33.30</ele><time>2026-08-19T11:05:55Z</time></trkpt><trkpt lat="60.1118680928" lon="30.5033713114"><ele>33.30</ele><time>2026-08-19T11:06:09Z</time></trkpt><trkpt lat="60.1118111797" lon="30.5029991549"><ele>33.30</ele><time>2026-08-19T11:06:26Z</time></trkpt><trkpt lat="60.1118447911" lon="30.5028585065"><ele>33.30</ele><time>2026-08-19T11:06:34Z</time></trkpt><trkpt lat="60.1118376665" lon="30.5027917027"><ele>33.30</ele><time>2026-08-19T11:06:36Z</time></trkpt><trkpt lat="60.1118248422" lon="30.5026093964"><ele>33.30</ele><time>2026-08-19T11:06:46Z</time></trkpt><trkpt lat="60.1118035521" lon="30.5025370605"><ele>33.30</ele><time>2026-08-19T11:06:50Z</time></trkpt><trkpt lat="60.1118010376" lon="30.5025074724"><ele>33.30</ele><time>2026-08-19T11:06:51Z</time></trkpt><trkpt lat="60.1118020434" lon="30.5024503078"><ele>33.30</ele><time>2026-08-19T11:06:53Z</time></trkpt><trkpt lat="60.1118036360" lon="30.5024242401"><ele>33.30</ele><time>2026-08-19T11:06:54Z</time></trkpt><trkpt lat="60.1118074916" lon="30.5022892915"><ele>33.30</ele><time>2026-08-19T11:06:59Z</time></trkpt><trkpt lat="60.1118039712" lon="30.5021683406"><ele>33.30</ele><time>2026-08-19T11:07:04Z</time></trkpt><trkpt lat="60.1118080784" lon="30.5021407641"><ele>33.30</ele><time>2026-08-19T11:07:05Z</time></trkpt><trkpt lat="60.1118093356" lon="30.5021174625"><ele>33.30</ele><time>2026-08-19T11:07:06Z</time></trkpt><trkpt lat="60.1118080784" lon="30.5020937417"><ele>33.30</ele><time>2026-08-19T11:07:07Z</time></trkpt><trkpt lat="60.1118186396" lon="30.5020597111"><ele>33.30</ele><time>2026-08-19T11:07:09Z</time></trkpt><trkpt lat="60.1118280273" lon="30.5020488985"><ele>33.30</ele><time>2026-08-19T11:07:10Z</time></trkpt><trkpt lat="60.1118383370" lon="30.5020398460"><ele>33.30</ele><time>2026-08-19T11:07:11Z</time></trkpt><trkpt lat="60.1119395066" lon="30.5019968469"><ele>33.30</ele><time>2026-08-19T11:07:22Z</time></trkpt><trkpt lat="60.1119486429" lon="30.5019941647"><ele>33.30</ele><time>2026-08-19T11:07:23Z</time></trkpt><trkpt lat="60.1121393312" lon="30.5020580348"><ele>33.30</ele><time>2026-08-19T11:07:38Z</time></trkpt><trkpt lat="60.1122384891" lon="30.5021099187"><ele>33.30</ele><time>2026-08-19T11:07:48Z</time></trkpt><trkpt lat="60.1122926362" lon="30.5021426920"><ele>33.30</ele><time>2026-08-19T11:07:54Z</time></trkpt><trkpt lat="60.1123582665" lon="30.5021364056"><ele>33.30</ele><time>2026-08-19T11:08:00Z</time></trkpt><trkpt lat="60.1124061272" lon="30.5023032054"><ele>33.30</ele><time>2026-08-19T11:08:13Z</time></trkpt><trkpt lat="60.1123979129" lon="30.5023238249"><ele>33.30</ele><time>2026-08-19T11:08:25Z</time></trkpt><trkpt lat="60.1123921294" lon="30.5023192149"><ele>33.30</ele><time>2026-08-19T11:08:42Z</time></trkpt><trkpt lat="60.1123956498" lon="30.5023234058"><ele>33.30</ele><time>2026-08-19T11:09:01Z</time></trkpt><trkpt lat="60.1124077197" lon="30.5023263395"><ele>33.30</ele><time>2026-08-19T11:09:17Z</time></trkpt><trkpt lat="60.1123912912" lon="30.5022351444"><ele>33.30</ele><time>2026-08-19T11:09:32Z</time></trkpt><trkpt lat="60.1123837475" lon="30.5022178777"><ele>33.30</ele><time>2026-08-19T11:09:47Z</time></trkpt><trkpt lat="60.1123876870" lon="30.5022462923"><ele>33.30</ele><time>2026-08-19T11:09:59Z</time></trkpt><trkpt lat="60.1123923808" lon="30.5022788979"><ele>33.78</ele><time>2026-08-19T11:10:10Z</time></trkpt><trkpt lat="60.1123776287" lon="30.5022735335"><ele>33.78</ele><time>2026-08-19T11:10:30Z</time></trkpt><trkpt lat="60.1123674028" lon="30.5022653192"><ele>33.78</ele><time>2026-08-19T11:11:09Z</time></trkpt><trkpt lat="60.1123659778" lon="30.5022649001"><ele>33.78</ele><time>2026-08-19T11:11:47Z</time></trkpt><trkpt lat="60.1123577636" lon="30.5022770539"><ele>33.78</ele><time>2026-08-19T11:12:27Z</time></trkpt><trkpt lat="60.1123601105" lon="30.5022757966"><ele>33.78</ele><time>2026-08-19T11:12:59Z</time></trkpt><trkpt lat="60.1123597752" lon="30.5022765510"><ele>33.78</ele><time>2026-08-19T11:13:27Z</time></trkpt><trkpt lat="60.1123606134" lon="30.5022676662"><ele>34.26</ele><time>2026-08-19T11:13:55Z</time></trkpt><trkpt lat="60.1123665646" lon="30.5022419337"><ele>34.26</ele><time>2026-08-19T11:14:18Z</time></trkpt><trkpt lat="60.1124989986" lon="30.5022548418"><ele>34.26</ele><time>2026-08-19T11:14:37Z</time></trkpt><trkpt lat="60.1128454227" lon="30.5022716057"><ele>34.26</ele><time>2026-08-19T11:14:48Z</time></trkpt><trkpt lat="60.1134837046" lon="30.5025306903"><ele>34.26</ele><time>2026-08-19T11:14:57Z</time></trkpt><trkpt lat="60.1150264777" lon="30.5033256300"><ele>34.26</ele><time>2026-08-19T11:15:10Z</time></trkpt><trkpt lat="60.1156438049" lon="30.5036429688"><ele>34.26</ele><time>2026-08-19T11:15:17Z</time></trkpt><trkpt lat="60.1167710032" lon="30.5043694284"><ele>34.74</ele><time>2026-08-19T11:15:31Z</time></trkpt><trkpt lat="60.1178007200" lon="30.5058728065"><ele>34.74</ele><time>2026-08-19T11:15:40Z</time></trkpt><trkpt lat="60.1193889230" lon="30.5077453237"><ele>34.74</ele><time>2026-08-19T11:15:53Z</time></trkpt><trkpt lat="60.1206267625" lon="30.5089249928"><ele>35.23</ele><time>2026-08-19T11:16:03Z</time></trkpt><trkpt lat="60.1220795140" lon="30.5102667678"><ele>35.23</ele><time>2026-08-19T11:16:15Z</time></trkpt><trkpt lat="60.1229935605" lon="30.5116439145"><ele>35.23</ele><time>2026-08-19T11:16:24Z</time></trkpt><trkpt lat="60.1240011491" lon="30.5134558305"><ele>35.71</ele><time>2026-08-19T11:16:34Z</time></trkpt><trkpt lat="60.1248518284" lon="30.5145634152"><ele>35.71</ele><time>2026-08-19T11:16:42Z</time></trkpt><trkpt lat="60.1248947438" lon="30.5146642495"><ele>35.71</ele><time>2026-08-19T11:16:43Z</time></trkpt><trkpt lat="60.1249321271" lon="30.5147736333"><ele>35.71</ele><time>2026-08-19T11:16:44Z</time></trkpt><trkpt lat="60.1249586977" lon="30.5148939975"><ele>35.71</ele><time>2026-08-19T11:16:45Z</time></trkpt><trkpt lat="60.1249793172" lon="30.5150205642"><ele>35.71</ele><time>2026-08-19T11:16:46Z</time></trkpt><trkpt lat="60.1251592766" lon="30.5166362599"><ele>36.19</ele><time>2026-08-19T11:17:01Z</time></trkpt><trkpt lat="60.1253736857" lon="30.5172534194"><ele>36.67</ele><time>2026-08-19T11:17:13Z</time></trkpt><trkpt lat="60.1253570896" lon="30.5166932568"><ele>37.15</ele><time>2026-08-19T11:17:30Z</time></trkpt><trkpt lat="60.1253728475" lon="30.5166234355"><ele>37.63</ele><time>2026-08-19T11:18:07Z</time></trkpt><trkpt lat="60.1253901143" lon="30.5165843759"><ele>38.59</ele><time>2026-08-19T11:18:45Z</time></trkpt><trkpt lat="60.1253936347" lon="30.5165859684"><ele>39.07</ele><time>2026-08-19T11:19:11Z</time></trkpt><trkpt lat="60.1253938861" lon="30.5166102760"><ele>39.55</ele><time>2026-08-19T11:19:35Z</time></trkpt><trkpt lat="60.1253974065" lon="30.5166427977"><ele>40.03</ele><time>2026-08-19T11:20:06Z</time></trkpt><trkpt lat="60.1253874321" lon="30.5166676920"><ele>40.51</ele><time>2026-08-19T11:20:35Z</time></trkpt><trkpt lat="60.1253724284" lon="30.5166866351"><ele>40.99</ele><time>2026-08-19T11:21:00Z</time></trkpt><trkpt lat="60.1253686566" lon="30.5167039018"><ele>40.99</ele><time>2026-08-19T11:21:22Z</time></trkpt><trkpt lat="60.1253701653" lon="30.5167129543"><ele>41.47</ele><time>2026-08-19T11:21:48Z</time></trkpt><trkpt lat="60.1253736019" lon="30.5166951846"><ele>41.95</ele><time>2026-08-19T11:22:11Z</time></trkpt><trkpt lat="60.1253744401" lon="30.5167010520"><ele>42.44</ele><time>2026-08-19T11:22:36Z</time></trkpt><trkpt lat="60.1253747754" lon="30.5167006329"><ele>42.92</ele><time>2026-08-19T11:23:05Z</time></trkpt><trkpt lat="60.1253738534" lon="30.5167017225"><ele>43.40</ele><time>2026-08-19T11:23:31Z</time></trkpt><trkpt lat="60.1253735181" lon="30.5167020578"><ele>43.88</ele><time>2026-08-19T11:24:03Z</time></trkpt><trkpt lat="60.1253749430" lon="30.5167040695"><ele>44.36</ele><time>2026-08-19T11:24:26Z</time></trkpt><trkpt lat="60.1253803913" lon="30.5166919995"><ele>44.84</ele><time>2026-08-19T11:25:02Z</time></trkpt><trkpt lat="60.1253828220" lon="30.5166923348"><ele>45.32</ele><time>2026-08-19T11:25:31Z</time></trkpt></trkseg><trkseg><trkpt lat="60.1252879389" lon="30.5164196715"><ele>19999.88</ele><time>2026-08-20T09:18:53Z</time></trkpt><trkpt lat="60.1252905373" lon="30.5164387822"><ele>19999.88</ele><time>2026-08-20T09:19:24Z</time></trkpt><trkpt lat="60.1253311057" lon="30.5166321527"><ele>19329.85</ele><time>2026-08-20T09:19:31Z</time></trkpt><trkpt lat="60.1253361348" lon="30.5166295543"><ele>18688.17</ele><time>2026-08-20T09:19:32Z</time></trkpt><trkpt lat="60.1253430080" lon="30.5166256987"><ele>18067.64</ele><time>2026-08-20T09:19:33Z</time></trkpt><trkpt lat="60.1253492106" lon="30.5166205019"><ele>17467.77</ele><time>2026-08-20T09:19:34Z</time></trkpt><trkpt lat="60.1253549103" lon="30.5166132934"><ele>16887.62</ele><time>2026-08-20T09:19:35Z</time></trkpt><trkpt lat="60.1253591012" lon="30.5166075099"><ele>16327.17</ele><time>2026-08-20T09:19:36Z</time></trkpt><trkpt lat="60.1253642142" lon="30.5166008882"><ele>15785.46</ele><time>2026-08-20T09:19:37Z</time></trkpt><trkpt lat="60.1253705844" lon="30.5165917519"><ele>15261.55</ele><time>2026-08-20T09:19:38Z</time></trkpt><trkpt lat="60.1253732666" lon="30.5165834539"><ele>14755.41</ele><time>2026-08-20T09:19:39Z</time></trkpt><trkpt lat="60.1253719255" lon="30.5165767483"><ele>14266.10</ele><time>2026-08-20T09:19:40Z</time></trkpt><trkpt lat="60.1253709197" lon="30.5165722221"><ele>13792.65</ele><time>2026-08-20T09:19:41Z</time></trkpt><trkpt lat="60.1253730990" lon="30.5165656842"><ele>13335.55</ele><time>2026-08-20T09:19:42Z</time></trkpt><trkpt lat="60.1253712550" lon="30.5165617447"><ele>12893.34</ele><time>2026-08-20T09:19:43Z</time></trkpt><trkpt lat="60.1253696624" lon="30.5165584758"><ele>12466.03</ele><time>2026-08-20T09:19:44Z</time></trkpt><trkpt lat="60.1253701653" lon="30.5165528599"><ele>12053.15</ele><time>2026-08-20T09:19:45Z</time></trkpt><trkpt lat="60.1253701653" lon="30.5165473279"><ele>11653.72</ele><time>2026-08-20T09:19:46Z</time></trkpt><trkpt lat="60.1253697462" lon="30.5165417120"><ele>11267.75</ele><time>2026-08-20T09:19:47Z</time></trkpt><trkpt lat="60.1253694110" lon="30.5165375210"><ele>10894.76</ele><time>2026-08-20T09:19:48Z</time></trkpt><trkpt lat="60.1253672317" lon="30.5165366828"><ele>10534.26</ele><time>2026-08-20T09:19:49Z</time></trkpt><trkpt lat="60.1253663935" lon="30.5165358447"><ele>10185.79</ele><time>2026-08-20T09:19:50Z</time></trkpt><trkpt lat="60.1253639627" lon="30.5165345035"><ele>9848.84</ele><time>2026-08-20T09:19:51Z</time></trkpt><trkpt lat="60.1253596041" lon="30.5165379401"><ele>9522.96</ele><time>2026-08-20T09:19:52Z</time></trkpt><trkpt lat="60.1253534853" lon="30.5165441427"><ele>9208.12</ele><time>2026-08-20T09:19:53Z</time></trkpt><trkpt lat="60.1253465284" lon="30.5165519379"><ele>8903.87</ele><time>2026-08-20T09:19:54Z</time></trkpt><trkpt lat="60.1253347099" lon="30.5165670253"><ele>8609.71</ele><time>2026-08-20T09:19:55Z</time></trkpt><trkpt lat="60.1253233105" lon="30.5165806878"><ele>8325.16</ele><time>2026-08-20T09:19:56Z</time></trkpt><trkpt lat="60.1253161859" lon="30.5165907461"><ele>8050.22</ele><time>2026-08-20T09:19:57Z</time></trkpt><trkpt lat="60.1253119111" lon="30.5165948533"><ele>7784.41</ele><time>2026-08-20T09:19:58Z</time></trkpt><trkpt lat="60.1253083907" lon="30.5165966135"><ele>7527.74</ele><time>2026-08-20T09:19:59Z</time></trkpt><trkpt lat="60.1253052056" lon="30.5165983737"><ele>7279.24</ele><time>2026-08-20T09:20:00Z</time></trkpt><trkpt lat="60.1253000088" lon="30.5165981222"><ele>7039.39</ele><time>2026-08-20T09:20:01Z</time></trkpt><trkpt lat="60.1252983324" lon="30.5165994633"><ele>6807.23</ele><time>2026-08-20T09:20:02Z</time></trkpt><trkpt lat="60.1252964046" lon="30.5166020617"><ele>6582.77</ele><time>2026-08-20T09:20:03Z</time></trkpt><trkpt lat="60.1252937224" lon="30.5166060850"><ele>6365.99</ele><time>2026-08-20T09:20:04Z</time></trkpt><trkpt lat="60.1252914593" lon="30.5166088510"><ele>6156.42</ele><time>2026-08-20T09:20:05Z</time></trkpt><trkpt lat="60.1252893638" lon="30.5166111980"><ele>5953.58</ele><time>2026-08-20T09:20:06Z</time></trkpt><trkpt lat="60.1252885256" lon="30.5166142993"><ele>5757.95</ele><time>2026-08-20T09:20:07Z</time></trkpt><trkpt lat="60.1252871007" lon="30.5166165624"><ele>5568.57</ele><time>2026-08-20T09:20:08Z</time></trkpt><trkpt lat="60.1252854243" lon="30.5166179873"><ele>5385.44</ele><time>2026-08-20T09:20:09Z</time></trkpt><trkpt lat="60.1252840832" lon="30.5166210048"><ele>5208.56</ele><time>2026-08-20T09:20:10Z</time></trkpt><trkpt lat="60.1252825744" lon="30.5166242737"><ele>5037.45</ele><time>2026-08-20T09:20:11Z</time></trkpt><trkpt lat="60.1252826583" lon="30.5166262854"><ele>4872.10</ele><time>2026-08-20T09:20:12Z</time></trkpt><trkpt lat="60.1252831612" lon="30.5166275427"><ele>4712.04</ele><time>2026-08-20T09:20:13Z</time></trkpt><trkpt lat="60.1252839994" lon="30.5166303087"><ele>4557.75</ele><time>2026-08-20T09:20:14Z</time></trkpt><trkpt lat="60.1252861787" lon="30.5166320689"><ele>4408.26</ele><time>2026-08-20T09:20:15Z</time></trkpt><trkpt lat="60.1252871845" lon="30.5166349187"><ele>4264.06</ele><time>2026-08-20T09:20:16Z</time></trkpt><trkpt lat="60.1252886094" lon="30.5166370980"><ele>4124.19</ele><time>2026-08-20T09:20:17Z</time></trkpt><trkpt lat="60.1252877712" lon="30.5166411214"><ele>3989.13</ele><time>2026-08-20T09:20:18Z</time></trkpt><trkpt lat="60.1252865978" lon="30.5166438874"><ele>3858.87</ele><time>2026-08-20T09:20:19Z</time></trkpt><trkpt lat="60.1252856757" lon="30.5166476592"><ele>3732.94</ele><time>2026-08-20T09:20:20Z</time></trkpt><trkpt lat="60.1252858434" lon="30.5166487489"><ele>3610.85</ele><time>2026-08-20T09:20:21Z</time></trkpt><trkpt lat="60.1252897829" lon="30.5166440550"><ele>3493.09</ele><time>2026-08-20T09:20:22Z</time></trkpt><trkpt lat="60.1252931356" lon="30.5166464020"><ele>3379.17</ele><time>2026-08-20T09:20:23Z</time></trkpt><trkpt lat="60.1252966560" lon="30.5166293029"><ele>3268.62</ele><time>2026-08-20T09:20:24Z</time></trkpt><trkpt lat="60.1252994221" lon="30.5166204181"><ele>3162.39</ele><time>2026-08-20T09:20:25Z</time></trkpt><trkpt lat="60.1253016014" lon="30.5166149698"><ele>3059.53</ele><time>2026-08-20T09:20:26Z</time></trkpt><trkpt lat="60.1253041998" lon="30.5166104436"><ele>2960.04</ele><time>2026-08-20T09:20:27Z</time></trkpt><trkpt lat="60.1253065467" lon="30.5166065041"><ele>2863.42</ele><time>2026-08-20T09:20:28Z</time></trkpt><trkpt lat="60.1253091451" lon="30.5166028161"><ele>2770.66</ele><time>2026-08-20T09:20:29Z</time></trkpt><trkpt lat="60.1253116596" lon="30.5166002177"><ele>2680.77</ele><time>2026-08-20T09:20:30Z</time></trkpt><trkpt lat="60.1253137551" lon="30.5165966135"><ele>2593.77</ele><time>2026-08-20T09:20:31Z</time></trkpt><trkpt lat="60.1253158506" lon="30.5165946018"><ele>2509.66</ele><time>2026-08-20T09:20:32Z</time></trkpt><trkpt lat="60.1253179461" lon="30.5165935960"><ele>2428.43</ele><time>2026-08-20T09:20:33Z</time></trkpt><trkpt lat="60.1253200416" lon="30.5165919196"><ele>2350.08</ele><time>2026-08-20T09:20:34Z</time></trkpt><trkpt lat="60.1253211312" lon="30.5165920034"><ele>2274.14</ele><time>2026-08-20T09:20:35Z</time></trkpt><trkpt lat="60.1253226399" lon="30.5165912490"><ele>2200.59</ele><time>2026-08-20T09:20:36Z</time></trkpt><trkpt lat="60.1253240649" lon="30.5165890697"><ele>2129.94</ele><time>2026-08-20T09:20:37Z</time></trkpt><trkpt lat="60.1253264118" lon="30.5165847111"><ele>2061.20</ele><time>2026-08-20T09:20:38Z</time></trkpt><trkpt lat="60.1253268309" lon="30.5165784247"><ele>1995.35</ele><time>2026-08-20T09:20:39Z</time></trkpt><trkpt lat="60.1253266633" lon="30.5165721383"><ele>1930.95</ele><time>2026-08-20T09:20:40Z</time></trkpt><trkpt lat="60.1253277529" lon="30.5165655166"><ele>1868.94</ele><time>2026-08-20T09:20:41Z</time></trkpt><trkpt lat="60.1253289264" lon="30.5165600684"><ele>1809.34</ele><time>2026-08-20T09:20:42Z</time></trkpt><trkpt lat="60.1253298484" lon="30.5165566318"><ele>1751.66</ele><time>2026-08-20T09:20:43Z</time></trkpt><trkpt lat="60.1253302675" lon="30.5165542010"><ele>1695.42</ele><time>2026-08-20T09:20:44Z</time></trkpt><trkpt lat="60.1253309380" lon="30.5165501777"><ele>1641.59</ele><time>2026-08-20T09:20:45Z</time></trkpt><trkpt lat="60.1253314409" lon="30.5165464059"><ele>1589.20</ele><time>2026-08-20T09:20:46Z</time></trkpt><trkpt lat="60.1253321953" lon="30.5165426340"><ele>1538.73</ele><time>2026-08-20T09:20:47Z</time></trkpt><trkpt lat="60.1253331173" lon="30.5165386107"><ele>1489.70</ele><time>2026-08-20T09:20:48Z</time></trkpt><trkpt lat="60.1253337879" lon="30.5165345874"><ele>1442.60</ele><time>2026-08-20T09:20:49Z</time></trkpt><trkpt lat="60.1253342908" lon="30.5165307317"><ele>1396.93</ele><time>2026-08-20T09:20:50Z</time></trkpt><trkpt lat="60.1253350452" lon="30.5165272113"><ele>1352.71</ele><time>2026-08-20T09:20:51Z</time></trkpt><trkpt lat="60.1253355481" lon="30.5165242776"><ele>1310.41</ele><time>2026-08-20T09:20:52Z</time></trkpt><trkpt lat="60.1253360510" lon="30.5165212601"><ele>1269.08</ele><time>2026-08-20T09:20:53Z</time></trkpt><trkpt lat="60.1253365539" lon="30.5165192485"><ele>1229.18</ele><time>2026-08-20T09:20:54Z</time></trkpt><trkpt lat="60.1253368892" lon="30.5165171530"><ele>1190.73</ele><time>2026-08-20T09:20:55Z</time></trkpt><trkpt lat="60.1253376435" lon="30.5165154766"><ele>1153.24</ele><time>2026-08-20T09:20:56Z</time></trkpt><trkpt lat="60.1253380626" lon="30.5165143032"><ele>1117.67</ele><time>2026-08-20T09:20:57Z</time></trkpt><trkpt lat="60.1253385656" lon="30.5165131297"><ele>1082.58</ele><time>2026-08-20T09:20:58Z</time></trkpt><trkpt lat="60.1253386494" lon="30.5165126268"><ele>1048.94</ele><time>2026-08-20T09:20:59Z</time></trkpt><trkpt lat="60.1253383979" lon="30.5165122077"><ele>1016.73</ele><time>2026-08-20T09:21:00Z</time></trkpt><trkpt lat="60.1253381465" lon="30.5165123753"><ele>985.49</ele><time>2026-08-20T09:21:01Z</time></trkpt><trkpt lat="60.1253378112" lon="30.5165127944"><ele>954.73</ele><time>2026-08-20T09:21:02Z</time></trkpt><trkpt lat="60.1253377274" lon="30.5165131297"><ele>925.41</ele><time>2026-08-20T09:21:03Z</time></trkpt><trkpt lat="60.1253376435" lon="30.5165123753"><ele>897.53</ele><time>2026-08-20T09:21:04Z</time></trkpt><trkpt lat="60.1253379788" lon="30.5165112857"><ele>870.13</ele><time>2026-08-20T09:21:05Z</time></trkpt><trkpt lat="60.1253378112" lon="30.5165113695"><ele>843.21</ele><time>2026-08-20T09:21:06Z</time></trkpt><trkpt lat="60.1253382303" lon="30.5165115371"><ele>817.74</ele><time>2026-08-20T09:21:07Z</time></trkpt><trkpt lat="60.1253383141" lon="30.5165113695"><ele>793.22</ele><time>2026-08-20T09:21:08Z</time></trkpt><trkpt lat="60.1253386494" lon="30.5165112857"><ele>769.19</ele><time>2026-08-20T09:21:09Z</time></trkpt><trkpt lat="60.1253386494" lon="30.5165109504"><ele>746.12</ele><time>2026-08-20T09:21:10Z</time></trkpt><trkpt lat="60.1253387332" lon="30.5165108666"><ele>723.53</ele><time>2026-08-20T09:21:11Z</time></trkpt><trkpt lat="60.1253391523" lon="30.5165121239"><ele>701.90</ele><time>2026-08-20T09:21:12Z</time></trkpt><trkpt lat="60.1253397390" lon="30.5165134650"><ele>681.23</ele><time>2026-08-20T09:21:13Z</time></trkpt><trkpt lat="60.1253403258" lon="30.5165145546"><ele>661.04</ele><time>2026-08-20T09:21:14Z</time></trkpt><trkpt lat="60.1253406610" lon="30.5165157281"><ele>641.34</ele><time>2026-08-20T09:21:15Z</time></trkpt><trkpt lat="60.1253409125" lon="30.5165172368"><ele>622.59</ele><time>2026-08-20T09:21:16Z</time></trkpt><trkpt lat="60.1253409125" lon="30.5165182427"><ele>604.33</ele><time>2026-08-20T09:21:17Z</time></trkpt><trkpt lat="60.1253410801" lon="30.5165189970"><ele>586.54</ele><time>2026-08-20T09:21:18Z</time></trkpt><trkpt lat="60.1253412478" lon="30.5165190808"><ele>569.72</ele><time>2026-08-20T09:21:19Z</time></trkpt><trkpt lat="60.1253414154" lon="30.5165191647"><ele>553.38</ele><time>2026-08-20T09:21:20Z</time></trkpt><trkpt lat="60.1253414992" lon="30.5165193323"><ele>537.51</ele><time>2026-08-20T09:21:21Z</time></trkpt><trkpt lat="60.1253416669" lon="30.5165200029"><ele>521.65</ele><time>2026-08-20T09:21:22Z</time></trkpt><trkpt lat="60.1253419183" lon="30.5165210925"><ele>506.75</ele><time>2026-08-20T09:21:23Z</time></trkpt><trkpt lat="60.1253424212" lon="30.5165222660"><ele>492.81</ele><time>2026-08-20T09:21:24Z</time></trkpt><trkpt lat="60.1253430080" lon="30.5165230203"><ele>478.87</ele><time>2026-08-20T09:21:25Z</time></trkpt><trkpt lat="60.1253434271" lon="30.5165241938"><ele>465.42</ele><time>2026-08-20T09:21:26Z</time></trkpt><trkpt lat="60.1253439300" lon="30.5165247805"><ele>452.44</ele><time>2026-08-20T09:21:27Z</time></trkpt><trkpt lat="60.1253440976" lon="30.5165254511"><ele>439.46</ele><time>2026-08-20T09:21:28Z</time></trkpt><trkpt lat="60.1253443491" lon="30.5165257864"><ele>427.44</ele><time>2026-08-20T09:21:29Z</time></trkpt><trkpt lat="60.1253445167" lon="30.5165264569"><ele>19999.88</ele><time>2026-08-20T09:21:30Z</time></trkpt><trkpt lat="60.1253447682" lon="30.5165262893"><ele>19999.88</ele><time>2026-08-20T09:21:31Z</time></trkpt><trkpt lat="60.1253448520" lon="30.5165257026"><ele>19988.83</ele><time>2026-08-20T09:21:32Z</time></trkpt><trkpt lat="60.1253447682" lon="30.5165255349"><ele>19977.78</ele><time>2026-08-20T09:21:33Z</time></trkpt><trkpt lat="60.1253448520" lon="30.5165257026"><ele>19966.72</ele><time>2026-08-20T09:21:34Z</time></trkpt><trkpt lat="60.1253448520" lon="30.5165260378"><ele>19955.67</ele><time>2026-08-20T09:21:35Z</time></trkpt><trkpt lat="60.1253448520" lon="30.5165266246"><ele>19944.61</ele><time>2026-08-20T09:21:36Z</time></trkpt><trkpt lat="60.1253450196" lon="30.5165276304"><ele>19933.55</ele><time>2026-08-20T09:21:37Z</time></trkpt><trkpt lat="60.1253450196" lon="30.5165270437"><ele>19922.50</ele><time>2026-08-20T09:21:38Z</time></trkpt><trkpt lat="60.1253448520" lon="30.5165271275"><ele>19911.44</ele><time>2026-08-20T09:21:39Z</time></trkpt><trkpt lat="60.1253449358" lon="30.5165274628"><ele>19900.39</ele><time>2026-08-20T09:21:40Z</time></trkpt><trkpt lat="60.1253448520" lon="30.5165282171"><ele>19889.81</ele><time>2026-08-20T09:21:41Z</time></trkpt><trkpt lat="60.1253451873" lon="30.5165288039"><ele>19878.76</ele><time>2026-08-20T09:21:42Z</time></trkpt><trkpt lat="60.1253454387" lon="30.5165291391"><ele>19867.71</ele><time>2026-08-20T09:21:43Z</time></trkpt><trkpt lat="60.1253455225" lon="30.5165293068"><ele>19856.65</ele><time>2026-08-20T09:21:44Z</time></trkpt><trkpt lat="60.1253457740" lon="30.5165302288"><ele>19845.59</ele><time>2026-08-20T09:21:45Z</time></trkpt><trkpt lat="60.1253461093" lon="30.5165302288"><ele>19834.54</ele><time>2026-08-20T09:21:46Z</time></trkpt><trkpt lat="60.1253461093" lon="30.5165303126"><ele>19823.48</ele><time>2026-08-20T09:21:47Z</time></trkpt><trkpt lat="60.1253461931" lon="30.5165304802"><ele>19812.43</ele><time>2026-08-20T09:21:48Z</time></trkpt><trkpt lat="60.1253462769" lon="30.5165305641"><ele>19801.85</ele><time>2026-08-20T09:21:49Z</time></trkpt><trkpt lat="60.1253462769" lon="30.5165309832"><ele>19790.80</ele><time>2026-08-20T09:21:50Z</time></trkpt><trkpt lat="60.1253461931" lon="30.5165310670"><ele>19779.74</ele><time>2026-08-20T09:21:51Z</time></trkpt><trkpt lat="60.1253465284" lon="30.5165310670"><ele>19768.69</ele><time>2026-08-20T09:21:52Z</time></trkpt><trkpt lat="60.1253469475" lon="30.5165308155"><ele>19758.11</ele><time>2026-08-20T09:21:53Z</time></trkpt><trkpt lat="60.1253467798" lon="30.5165310670"><ele>19747.06</ele><time>2026-08-20T09:21:54Z</time></trkpt><trkpt lat="60.1253466122" lon="30.5165317375"><ele>19736.00</ele><time>2026-08-20T09:21:55Z</time></trkpt><trkpt lat="60.1253465284" lon="30.5165320728"><ele>19724.95</ele><time>2026-08-20T09:21:56Z</time></trkpt><trkpt lat="60.1253461931" lon="30.5165322404"><ele>19714.38</ele><time>2026-08-20T09:21:57Z</time></trkpt><trkpt lat="60.1253461093" lon="30.5165325757"><ele>19703.32</ele><time>2026-08-20T09:21:58Z</time></trkpt><trkpt lat="60.1253459416" lon="30.5165329948"><ele>19692.26</ele><time>2026-08-20T09:21:59Z</time></trkpt><trkpt lat="60.1253456064" lon="30.5165336654"><ele>19681.69</ele><time>2026-08-20T09:22:00Z</time></trkpt><trkpt lat="60.1253454387" lon="30.5165345035"><ele>19670.63</ele><time>2026-08-20T09:22:01Z</time></trkpt><trkpt lat="60.1253451873" lon="30.5165355094"><ele>19659.58</ele><time>2026-08-20T09:22:02Z</time></trkpt><trkpt lat="60.1253447682" lon="30.5165363476"><ele>19649.00</ele><time>2026-08-20T09:22:03Z</time></trkpt><trkpt lat="60.1253444329" lon="30.5165365990"><ele>19637.95</ele><time>2026-08-20T09:22:04Z</time></trkpt><trkpt lat="60.1253440976" lon="30.5165374372"><ele>19626.89</ele><time>2026-08-20T09:22:05Z</time></trkpt><trkpt lat="60.1253439300" lon="30.5165381078"><ele>19616.32</ele><time>2026-08-20T09:22:06Z</time></trkpt><trkpt lat="60.1253437623" lon="30.5165383592"><ele>19605.26</ele><time>2026-08-20T09:22:07Z</time></trkpt><trkpt lat="60.1253434271" lon="30.5165389460"><ele>19594.69</ele><time>2026-08-20T09:22:08Z</time></trkpt><trkpt lat="60.1253433432" lon="30.5165393651"><ele>19583.63</ele><time>2026-08-20T09:22:09Z</time></trkpt><trkpt lat="60.1253432594" lon="30.5165395327"><ele>19572.58</ele><time>2026-08-20T09:22:10Z</time></trkpt><trkpt lat="60.1253435947" lon="30.5165394489"><ele>19562.01</ele><time>2026-08-20T09:22:11Z</time></trkpt><trkpt lat="60.1253439300" lon="30.5165393651"><ele>19550.95</ele><time>2026-08-20T09:22:12Z</time></trkpt><trkpt lat="60.1253444329" lon="30.5165389460"><ele>19540.38</ele><time>2026-08-20T09:22:13Z</time></trkpt><trkpt lat="60.1253448520" lon="30.5165388621"><ele>19529.32</ele><time>2026-08-20T09:22:14Z</time></trkpt><trkpt lat="60.1253454387" lon="30.5165384430"><ele>19518.75</ele><time>2026-08-20T09:22:15Z</time></trkpt><trkpt lat="60.1253453549" lon="30.5165379401"><ele>19507.69</ele><time>2026-08-20T09:22:16Z</time></trkpt><trkpt lat="60.1253456902" lon="30.5165377725"><ele>19497.12</ele><time>2026-08-20T09:22:17Z</time></trkpt><trkpt lat="60.1253459416" lon="30.5165376049"><ele>19486.54</ele><time>2026-08-20T09:22:18Z</time></trkpt><trkpt lat="60.1253460255" lon="30.5165377725"><ele>19475.49</ele><time>2026-08-20T09:22:19Z</time></trkpt><trkpt lat="60.1253461931" lon="30.5165379401"><ele>19464.91</ele><time>2026-08-20T09:22:20Z</time></trkpt><trkpt lat="60.1253462769" lon="30.5165380239"><ele>19453.86</ele><time>2026-08-20T09:22:21Z</time></trkpt><trkpt lat="60.1253464445" lon="30.5165380239"><ele>19443.28</ele><time>2026-08-20T09:22:22Z</time></trkpt><trkpt lat="60.1253461093" lon="30.5165376887"><ele>19432.23</ele><time>2026-08-20T09:22:23Z</time></trkpt><trkpt lat="60.1253461093" lon="30.5165366828"><ele>19421.65</ele><time>2026-08-20T09:22:24Z</time></trkpt><trkpt lat="60.1253461931" lon="30.5165359285"><ele>19411.08</ele><time>2026-08-20T09:22:25Z</time></trkpt><trkpt lat="60.1253464445" lon="30.5165349226"><ele>19400.02</ele><time>2026-08-20T09:22:26Z</time></trkpt><trkpt lat="60.1253464445" lon="30.5165334139"><ele>19389.45</ele><time>2026-08-20T09:22:27Z</time></trkpt><trkpt lat="60.1253464445" lon="30.5165318213"><ele>19378.87</ele><time>2026-08-20T09:22:28Z</time></trkpt><trkpt lat="60.1253462769" lon="30.5165304802"><ele>19367.82</ele><time>2026-08-20T09:22:29Z</time></trkpt><trkpt lat="60.1253460255" lon="30.5165295582"><ele>19357.24</ele><time>2026-08-20T09:22:30Z</time></trkpt><trkpt lat="60.1253459416" lon="30.5165285524"><ele>19346.67</ele><time>2026-08-20T09:22:31Z</time></trkpt><trkpt lat="60.1253459416" lon="30.5165275466"><ele>19336.10</ele><time>2026-08-20T09:22:32Z</time></trkpt><trkpt lat="60.1253459416" lon="30.5165266246"><ele>19325.04</ele><time>2026-08-20T09:22:33Z</time></trkpt><trkpt lat="60.1253456902" lon="30.5165259540"><ele>19314.47</ele><time>2026-08-20T09:22:34Z</time></trkpt><trkpt lat="60.1253455225" lon="30.5165253673"><ele>19303.89</ele><time>2026-08-20T09:22:35Z</time></trkpt><trkpt lat="60.1253453549" lon="30.5165251996"><ele>19293.32</ele><time>2026-08-20T09:22:36Z</time></trkpt><trkpt lat="60.1253453549" lon="30.5165251158"><ele>19282.26</ele><time>2026-08-20T09:22:37Z</time></trkpt><trkpt lat="60.1253452711" lon="30.5165247805"><ele>19271.69</ele><time>2026-08-20T09:22:38Z</time></trkpt><trkpt lat="60.1253452711" lon="30.5165244453"><ele>19261.11</ele><time>2026-08-20T09:22:39Z</time></trkpt><trkpt lat="60.1253450196" lon="30.5165242776"><ele>19250.54</ele><time>2026-08-20T09:22:40Z</time></trkpt><trkpt lat="60.1253448520" lon="30.5165243614"><ele>19239.96</ele><time>2026-08-20T09:22:41Z</time></trkpt><trkpt lat="60.1253445167" lon="30.5165243614"><ele>19228.91</ele><time>2026-08-20T09:22:42Z</time></trkpt><trkpt lat="60.1253444329" lon="30.5165241938"><ele>19218.33</ele><time>2026-08-20T09:22:43Z</time></trkpt><trkpt lat="60.1253440976" lon="30.5165241938"><ele>19207.76</ele><time>2026-08-20T09:22:44Z</time></trkpt><trkpt lat="60.1253436785" lon="30.5165241100"><ele>19197.19</ele><time>2026-08-20T09:22:45Z</time></trkpt><trkpt lat="60.1253430080" lon="30.5165245291"><ele>19186.61</ele><time>2026-08-20T09:22:46Z</time></trkpt><trkpt lat="60.1253424212" lon="30.5165245291"><ele>19176.04</ele><time>2026-08-20T09:22:47Z</time></trkpt><trkpt lat="60.1253420860" lon="30.5165241938"><ele>19165.46</ele><time>2026-08-20T09:22:48Z</time></trkpt><trkpt lat="60.1253418345" lon="30.5165236909"><ele>19154.89</ele><time>2026-08-20T09:22:49Z</time></trkpt><trkpt lat="60.1253417507" lon="30.5165232718"><ele>19144.31</ele><time>2026-08-20T09:22:50Z</time></trkpt><trkpt lat="60.1253415830" lon="30.5165227689"><ele>19133.74</ele><time>2026-08-20T09:22:51Z</time></trkpt><trkpt lat="60.1253414992" lon="30.5165221822"><ele>19123.16</ele><time>2026-08-20T09:22:52Z</time></trkpt><trkpt lat="60.1253412478" lon="30.5165222660"><ele>19112.59</ele><time>2026-08-20T09:22:53Z</time></trkpt><trkpt lat="60.1253409963" lon="30.5165218469"><ele>19102.01</ele><time>2026-08-20T09:22:54Z</time></trkpt><trkpt lat="60.1253408287" lon="30.5165213440"><ele>19091.44</ele><time>2026-08-20T09:22:55Z</time></trkpt><trkpt lat="60.1253406610" lon="30.5165208410"><ele>19080.87</ele><time>2026-08-20T09:22:56Z</time></trkpt><trkpt lat="60.1253404934" lon="30.5165208410"><ele>19070.29</ele><time>2026-08-20T09:22:57Z</time></trkpt><trkpt lat="60.1253404096" lon="30.5165208410"><ele>19059.72</ele><time>2026-08-20T09:22:58Z</time></trkpt><trkpt lat="60.1253401581" lon="30.5165205058"><ele>19049.14</ele><time>2026-08-20T09:22:59Z</time></trkpt><trkpt lat="60.1253394876" lon="30.5165205896"><ele>19038.57</ele><time>2026-08-20T09:23:00Z</time></trkpt><trkpt lat="60.1253389847" lon="30.5165204220"><ele>19027.99</ele><time>2026-08-20T09:23:01Z</time></trkpt><trkpt lat="60.1253385656" lon="30.5165202543"><ele>19017.42</ele><time>2026-08-20T09:23:02Z</time></trkpt><trkpt lat="60.1253380626" lon="30.5165200867"><ele>19006.84</ele><time>2026-08-20T09:23:03Z</time></trkpt><trkpt lat="60.1253378112" lon="30.5165198352"><ele>18996.27</ele><time>2026-08-20T09:23:04Z</time></trkpt><trkpt lat="60.1253376435" lon="30.5165190808"><ele>18985.70</ele><time>2026-08-20T09:23:05Z</time></trkpt><trkpt lat="60.1253373921" lon="30.5165183265"><ele>18975.12</ele><time>2026-08-20T09:23:06Z</time></trkpt><trkpt lat="60.1253370568" lon="30.5165174045"><ele>18965.03</ele><time>2026-08-20T09:23:07Z</time></trkpt><trkpt lat="60.1253370568" lon="30.5165169016"><ele>18954.45</ele><time>2026-08-20T09:23:08Z</time></trkpt><trkpt lat="60.1253371406" lon="30.5165164825"><ele>18943.88</ele><time>2026-08-20T09:23:09Z</time></trkpt><trkpt lat="60.1253368892" lon="30.5165158957"><ele>18933.30</ele><time>2026-08-20T09:23:10Z</time></trkpt><trkpt lat="60.1253366377" lon="30.5165148899"><ele>18922.73</ele><time>2026-08-20T09:23:11Z</time></trkpt><trkpt lat="60.1253363863" lon="30.5165133812"><ele>18912.63</ele><time>2026-08-20T09:23:12Z</time></trkpt><trkpt lat="60.1253362186" lon="30.5165134650"><ele>18902.06</ele><time>2026-08-20T09:23:13Z</time></trkpt><trkpt lat="60.1253430918" lon="30.5165167339"><ele>18891.48</ele><time>2026-08-20T09:23:14Z</time></trkpt><trkpt lat="60.1253393199" lon="30.5165192485"><ele>18880.91</ele><time>2026-08-20T09:23:15Z</time></trkpt><trkpt lat="60.1253357157" lon="30.5165231880"><ele>18870.82</ele><time>2026-08-20T09:23:16Z</time></trkpt><trkpt lat="60.1253386494" lon="30.5165203381"><ele>18860.24</ele><time>2026-08-20T09:23:17Z</time></trkpt><trkpt lat="60.1253381465" lon="30.5165200867"><ele>18849.67</ele><time>2026-08-20T09:23:18Z</time></trkpt><trkpt lat="60.1253378112" lon="30.5165202543"><ele>18839.09</ele><time>2026-08-20T09:23:19Z</time></trkpt><trkpt lat="60.1253375597" lon="30.5165204220"><ele>18829.00</ele><time>2026-08-20T09:23:20Z</time></trkpt><trkpt lat="60.1253372245" lon="30.5165204220"><ele>18818.43</ele><time>2026-08-20T09:23:21Z</time></trkpt><trkpt lat="60.1253369730" lon="30.5165202543"><ele>18807.85</ele><time>2026-08-20T09:23:22Z</time></trkpt><trkpt lat="60.1253368892" lon="30.5165202543"><ele>18797.76</ele><time>2026-08-20T09:23:23Z</time></trkpt><trkpt lat="60.1253367215" lon="30.5165204220"><ele>18787.18</ele><time>2026-08-20T09:23:24Z</time></trkpt><trkpt lat="60.1253368892" lon="30.5165209249"><ele>18776.61</ele><time>2026-08-20T09:23:25Z</time></trkpt><trkpt lat="60.1253370568" lon="30.5165215116"><ele>18766.51</ele><time>2026-08-20T09:23:26Z</time></trkpt><trkpt lat="60.1253374759" lon="30.5165221822"><ele>18755.94</ele><time>2026-08-20T09:23:27Z</time></trkpt><trkpt lat="60.1253377274" lon="30.5165233556"><ele>18745.85</ele><time>2026-08-20T09:23:28Z</time></trkpt><trkpt lat="60.1253374759" lon="30.5165246129"><ele>18735.27</ele><time>2026-08-20T09:23:29Z</time></trkpt><trkpt lat="60.1253354643" lon="30.5165324919"><ele>18724.70</ele><time>2026-08-20T09:23:30Z</time></trkpt><trkpt lat="60.1253356319" lon="30.5165334139"><ele>18714.60</ele><time>2026-08-20T09:23:31Z</time></trkpt><trkpt lat="60.1253351290" lon="30.5165344197"><ele>18704.03</ele><time>2026-08-20T09:23:32Z</time></trkpt><trkpt lat="60.1253347937" lon="30.5165345035"><ele>18693.94</ele><time>2026-08-20T09:23:33Z</time></trkpt><trkpt lat="60.1253347937" lon="30.5165335815"><ele>18683.36</ele><time>2026-08-20T09:23:34Z</time></trkpt><trkpt lat="60.1253302675" lon="30.5165274628"><ele>18673.27</ele><time>2026-08-20T09:23:35Z</time></trkpt><trkpt lat="60.1253306028" lon="30.5165254511"><ele>18662.69</ele><time>2026-08-20T09:23:36Z</time></trkpt><trkpt lat="60.1253257412" lon="30.5165173206"><ele>18652.60</ele><time>2026-08-20T09:23:37Z</time></trkpt><trkpt lat="60.1253264956" lon="30.5165200029"><ele>18642.02</ele><time>2026-08-20T09:23:38Z</time></trkpt><trkpt lat="60.1253259927" lon="30.5165194161"><ele>18631.93</ele><time>2026-08-20T09:23:39Z</time></trkpt><trkpt lat="60.1253258251" lon="30.5165189970"><ele>18621.36</ele><time>2026-08-20T09:23:40Z</time></trkpt><trkpt lat="60.1253258251" lon="30.5165189970"><ele>18611.26</ele><time>2026-08-20T09:23:41Z</time></trkpt><trkpt lat="60.1253257412" lon="30.5165192485"><ele>18601.17</ele><time>2026-08-20T09:23:42Z</time></trkpt><trkpt lat="60.1253256574" lon="30.5165191647"><ele>18590.59</ele><time>2026-08-20T09:23:43Z</time></trkpt><trkpt lat="60.1253256574" lon="30.5165189970"><ele>18580.50</ele><time>2026-08-20T09:23:44Z</time></trkpt><trkpt lat="60.1253254898" lon="30.5165184103"><ele>18569.93</ele><time>2026-08-20T09:23:45Z</time></trkpt><trkpt lat="60.1253259927" lon="30.5165184941"><ele>18559.83</ele><time>2026-08-20T09:23:46Z</time></trkpt><trkpt lat="60.1253268309" lon="30.5165189970"><ele>18549.74</ele><time>2026-08-20T09:23:47Z</time></trkpt><trkpt lat="60.1253273338" lon="30.5165196676"><ele>18539.16</ele><time>2026-08-20T09:23:48Z</time></trkpt><trkpt lat="60.1253280882" lon="30.5165200867"><ele>18529.07</ele><time>2026-08-20T09:23:49Z</time></trkpt><trkpt lat="60.1253340393" lon="30.5165325757"><ele>18518.97</ele><time>2026-08-20T09:23:50Z</time></trkpt><trkpt lat="60.1253316086" lon="30.5165348388"><ele>18508.40</ele><time>2026-08-20T09:23:51Z</time></trkpt><trkpt lat="60.1253279205" lon="30.5165371858"><ele>18498.31</ele><time>2026-08-20T09:23:52Z</time></trkpt><trkpt lat="60.1253229752" lon="30.5165417120"><ele>18488.21</ele><time>2026-08-20T09:23:53Z</time></trkpt><trkpt lat="60.1253156830" lon="30.5165431369"><ele>18477.64</ele><time>2026-08-20T09:23:54Z</time></trkpt><trkpt lat="60.1253096480" lon="30.5165410414"><ele>18467.54</ele><time>2026-08-20T09:23:55Z</time></trkpt><trkpt lat="60.1253068820" lon="30.5165372696"><ele>18457.45</ele><time>2026-08-20T09:23:56Z</time></trkpt><trkpt lat="60.1253071334" lon="30.5165391136"><ele>18447.36</ele><time>2026-08-20T09:23:57Z</time></trkpt><trkpt lat="60.1253064629" lon="30.5165430531"><ele>18436.78</ele><time>2026-08-20T09:23:58Z</time></trkpt><trkpt lat="60.1253061276" lon="30.5165394489"><ele>18426.69</ele><time>2026-08-20T09:23:59Z</time></trkpt><trkpt lat="60.1253062114" lon="30.5165390298"><ele>18416.60</ele><time>2026-08-20T09:24:00Z</time></trkpt><trkpt lat="60.1253110729" lon="30.5165356770"><ele>18406.50</ele><time>2026-08-20T09:24:01Z</time></trkpt><trkpt lat="60.1253059600" lon="30.5165384430"><ele>18395.93</ele><time>2026-08-20T09:24:02Z</time></trkpt><trkpt lat="60.1253058761" lon="30.5165389460"><ele>18385.83</ele><time>2026-08-20T09:24:03Z</time></trkpt><trkpt lat="60.1253060438" lon="30.5165391974"><ele>18375.74</ele><time>2026-08-20T09:24:04Z</time></trkpt><trkpt lat="60.1253061276" lon="30.5165391974"><ele>18365.64</ele><time>2026-08-20T09:24:05Z</time></trkpt><trkpt lat="60.1253093127" lon="30.5165330786"><ele>18355.55</ele><time>2026-08-20T09:24:06Z</time></trkpt><trkpt lat="60.1253120787" lon="30.5165288039"><ele>18345.46</ele><time>2026-08-20T09:24:07Z</time></trkpt><trkpt lat="60.1253139228" lon="30.5165257864"><ele>18335.36</ele><time>2026-08-20T09:24:08Z</time></trkpt><trkpt lat="60.1253116596" lon="30.5165300611"><ele>18324.79</ele><time>2026-08-20T09:24:09Z</time></trkpt><trkpt lat="60.1253109053" lon="30.5165299773"><ele>18314.70</ele><time>2026-08-20T09:24:10Z</time></trkpt><trkpt lat="60.1253107376" lon="30.5165308155"><ele>18304.60</ele><time>2026-08-20T09:24:11Z</time></trkpt><trkpt lat="60.1253135875" lon="30.5165352579"><ele>18294.51</ele><time>2026-08-20T09:24:12Z</time></trkpt><trkpt lat="60.1253113244" lon="30.5165357608"><ele>18284.41</ele><time>2026-08-20T09:24:13Z</time></trkpt><trkpt lat="60.1253073849" lon="30.5165428016"><ele>18274.32</ele><time>2026-08-20T09:24:14Z</time></trkpt><trkpt lat="60.1253054570" lon="30.5165461544"><ele>18264.22</ele><time>2026-08-20T09:24:15Z</time></trkpt><trkpt lat="60.1253081392" lon="30.5165411253"><ele>18254.13</ele><time>2026-08-20T09:24:16Z</time></trkpt><trkpt lat="60.1253055409" lon="30.5165381916"><ele>18244.04</ele><time>2026-08-20T09:24:17Z</time></trkpt><trkpt lat="60.1253093127" lon="30.5165401194"><ele>18233.94</ele><time>2026-08-20T09:24:18Z</time></trkpt><trkpt lat="60.1253095642" lon="30.5165401194"><ele>18223.85</ele><time>2026-08-20T09:24:19Z</time></trkpt><trkpt lat="60.1253151800" lon="30.5165499263"><ele>18213.76</ele><time>2026-08-20T09:24:20Z</time></trkpt><trkpt lat="60.1253215503" lon="30.5165508483"><ele>18203.66</ele><time>2026-08-20T09:24:21Z</time></trkpt><trkpt lat="60.1253267471" lon="30.5165509321"><ele>18193.57</ele><time>2026-08-20T09:24:22Z</time></trkpt><trkpt lat="60.1253303513" lon="30.5165464897"><ele>18183.47</ele><time>2026-08-20T09:24:23Z</time></trkpt><trkpt lat="60.1253306028" lon="30.5165464897"><ele>18173.38</ele><time>2026-08-20T09:24:24Z</time></trkpt><trkpt lat="60.1253283396" lon="30.5165386945"><ele>18163.29</ele><time>2026-08-20T09:24:25Z</time></trkpt><trkpt lat="60.1253243163" lon="30.5165381078"><ele>18153.19</ele><time>2026-08-20T09:24:26Z</time></trkpt><trkpt lat="60.1253195386" lon="30.5165424664"><ele>18143.10</ele><time>2026-08-20T09:24:27Z</time></trkpt><trkpt lat="60.1253197901" lon="30.5165510997"><ele>18133.48</ele><time>2026-08-20T09:24:28Z</time></trkpt><trkpt lat="60.1253219694" lon="30.5165670253"><ele>18123.39</ele><time>2026-08-20T09:24:29Z</time></trkpt><trkpt lat="60.1253246516" lon="30.5165787600"><ele>18113.30</ele><time>2026-08-20T09:24:30Z</time></trkpt><trkpt lat="60.1253259927" lon="30.5165846273"><ele>18103.21</ele><time>2026-08-20T09:24:31Z</time></trkpt><trkpt lat="60.1253264118" lon="30.5165853817"><ele>18093.11</ele><time>2026-08-20T09:24:32Z</time></trkpt><trkpt lat="60.1253249869" lon="30.5165927578"><ele>18083.02</ele><time>2026-08-20T09:24:33Z</time></trkpt><trkpt lat="60.1253254898" lon="30.5165958591"><ele>18072.92</ele><time>2026-08-20T09:24:34Z</time></trkpt><trkpt lat="60.1253276691" lon="30.5166032352"><ele>18063.31</ele><time>2026-08-20T09:24:35Z</time></trkpt><trkpt lat="60.1253306866" lon="30.5166137125"><ele>18053.22</ele><time>2026-08-20T09:24:36Z</time></trkpt><trkpt lat="60.1253346261" lon="30.5166193284"><ele>18043.12</ele><time>2026-08-20T09:24:37Z</time></trkpt><trkpt lat="60.1253352128" lon="30.5166205857"><ele>18033.03</ele><time>2026-08-20T09:24:38Z</time></trkpt><trkpt lat="60.1253346261" lon="30.5166286323"><ele>18022.94</ele><time>2026-08-20T09:24:39Z</time></trkpt><trkpt lat="60.1253374759" lon="30.5166402832"><ele>18013.32</ele><time>2026-08-20T09:24:40Z</time></trkpt><trkpt lat="60.1253418345" lon="30.5166524369"><ele>18003.23</ele><time>2026-08-20T09:24:41Z</time></trkpt><trkpt lat="60.1253425051" lon="30.5166680273"><ele>17993.13</ele><time>2026-08-20T09:24:42Z</time></trkpt><trkpt lat="60.1253413316" lon="30.5166883115"><ele>17983.04</ele><time>2026-08-20T09:24:43Z</time></trkpt><trkpt lat="60.1253402419" lon="30.5167002138"><ele>17973.43</ele><time>2026-08-20T09:24:44Z</time></trkpt><trkpt lat="60.1253401581" lon="30.5167027283"><ele>17963.33</ele><time>2026-08-20T09:24:45Z</time></trkpt><trkpt lat="60.1253394037" lon="30.5167163908"><ele>17953.24</ele><time>2026-08-20T09:24:46Z</time></trkpt><trkpt lat="60.1253390685" lon="30.5167268682"><ele>17943.62</ele><time>2026-08-20T09:24:47Z</time></trkpt><trkpt lat="60.1253396552" lon="30.5167381838"><ele>17933.53</ele><time>2026-08-20T09:24:48Z</time></trkpt><trkpt lat="60.1253384817" lon="30.5167461466"><ele>17923.44</ele><time>2026-08-20T09:24:49Z</time></trkpt><trkpt lat="60.1253352966" lon="30.5167458113"><ele>17913.83</ele><time>2026-08-20T09:24:50Z</time></trkpt><trkpt lat="60.1253366377" lon="30.5167513434"><ele>17903.73</ele><time>2026-08-20T09:24:51Z</time></trkpt><trkpt lat="60.1253382303" lon="30.5167557858"><ele>17893.64</ele><time>2026-08-20T09:24:52Z</time></trkpt><trkpt lat="60.1253404934" lon="30.5167627428"><ele>17884.02</ele><time>2026-08-20T09:24:53Z</time></trkpt><trkpt lat="60.1253400743" lon="30.5167853739"><ele>17864.32</ele><time>2026-08-20T09:24:55Z</time></trkpt><trkpt lat="60.1253400743" lon="30.5167845357"><ele>17854.22</ele><time>2026-08-20T09:24:56Z</time></trkpt><trkpt lat="60.1253353804" lon="30.5167979468"><ele>17844.61</ele><time>2026-08-20T09:24:57Z</time></trkpt><trkpt lat="60.1253355481" lon="30.5168001261"><ele>17834.52</ele><time>2026-08-20T09:24:58Z</time></trkpt><trkpt lat="60.1253300998" lon="30.5168210808"><ele>17824.42</ele><time>2026-08-20T09:24:59Z</time></trkpt><trkpt lat="60.1253250707" lon="30.5168378446"><ele>17814.81</ele><time>2026-08-20T09:25:00Z</time></trkpt><trkpt lat="60.1253192872" lon="30.5168527644"><ele>17804.71</ele><time>2026-08-20T09:25:01Z</time></trkpt><trkpt lat="60.1253168564" lon="30.5168604758"><ele>17795.10</ele><time>2026-08-20T09:25:02Z</time></trkpt><trkpt lat="60.1253152639" lon="30.5168707017"><ele>17785.01</ele><time>2026-08-20T09:25:03Z</time></trkpt><trkpt lat="60.1253115758" lon="30.5168805923"><ele>17775.40</ele><time>2026-08-20T09:25:04Z</time></trkpt><trkpt lat="60.1253077202" lon="30.5168858729"><ele>17765.30</ele><time>2026-08-20T09:25:05Z</time></trkpt><trkpt lat="60.1253052894" lon="30.5168869626"><ele>17755.69</ele><time>2026-08-20T09:25:06Z</time></trkpt><trkpt lat="60.1253062952" lon="30.5168917403"><ele>17745.59</ele><time>2026-08-20T09:25:07Z</time></trkpt><trkpt lat="60.1253039483" lon="30.5168949254"><ele>17735.98</ele><time>2026-08-20T09:25:08Z</time></trkpt><trkpt lat="60.1252988353" lon="30.5169083364"><ele>17726.37</ele><time>2026-08-20T09:25:09Z</time></trkpt><trkpt lat="60.1252985001" lon="30.5169036426"><ele>17716.27</ele><time>2026-08-20T09:25:10Z</time></trkpt><trkpt lat="60.1252896991" lon="30.5169066601"><ele>17706.66</ele><time>2026-08-20T09:25:11Z</time></trkpt><trkpt lat="60.1252847537" lon="30.5169095099"><ele>17696.57</ele><time>2026-08-20T09:25:12Z</time></trkpt><trkpt lat="60.1252819039" lon="30.5169080012"><ele>17686.95</ele><time>2026-08-20T09:25:13Z</time></trkpt><trkpt lat="60.1252863463" lon="30.5169092584"><ele>17677.34</ele><time>2026-08-20T09:25:14Z</time></trkpt><trkpt lat="60.1252875198" lon="30.5169105157"><ele>17667.25</ele><time>2026-08-20T09:25:15Z</time></trkpt><trkpt lat="60.1252877712" lon="30.5169098452"><ele>17657.63</ele><time>2026-08-20T09:25:16Z</time></trkpt><trkpt lat="60.1252865139" lon="30.5169129465"><ele>17648.02</ele><time>2026-08-20T09:25:17Z</time></trkpt><trkpt lat="60.1252867654" lon="30.5169146229"><ele>17637.93</ele><time>2026-08-20T09:25:18Z</time></trkpt><trkpt lat="60.1252855081" lon="30.5169273634"><ele>17628.31</ele><time>2026-08-20T09:25:19Z</time></trkpt><trkpt lat="60.1252884418" lon="30.5169405229"><ele>17618.70</ele><time>2026-08-20T09:25:20Z</time></trkpt><trkpt lat="60.1252908725" lon="30.5169510841"><ele>17608.61</ele><time>2026-08-20T09:25:21Z</time></trkpt><trkpt lat="60.1252917945" lon="30.5169634055"><ele>17598.99</ele><time>2026-08-20T09:25:22Z</time></trkpt><trkpt lat="60.1252924651" lon="30.5169722065"><ele>17589.38</ele><time>2026-08-20T09:25:23Z</time></trkpt><trkpt lat="60.1252971590" lon="30.5169696920"><ele>17579.77</ele><time>2026-08-20T09:25:24Z</time></trkpt><trkpt lat="60.1253010985" lon="30.5169693567"><ele>17569.67</ele><time>2026-08-20T09:25:25Z</time></trkpt><trkpt lat="60.1253031939" lon="30.5169791635"><ele>17560.06</ele><time>2026-08-20T09:25:26Z</time></trkpt><trkpt lat="60.1252990030" lon="30.5169898923"><ele>17550.45</ele><time>2026-08-20T09:25:27Z</time></trkpt><trkpt lat="60.1252958179" lon="30.5170038901"><ele>17540.83</ele><time>2026-08-20T09:25:28Z</time></trkpt><trkpt lat="60.1252969913" lon="30.5170204025"><ele>17530.74</ele><time>2026-08-20T09:25:29Z</time></trkpt><trkpt lat="60.1252991706" lon="30.5170335621"><ele>17521.13</ele><time>2026-08-20T09:25:30Z</time></trkpt><trkpt lat="60.1253000088" lon="30.5170357414"><ele>17511.51</ele><time>2026-08-20T09:25:31Z</time></trkpt><trkpt lat="60.1253000926" lon="30.5170439556"><ele>17501.90</ele><time>2026-08-20T09:25:32Z</time></trkpt><trkpt lat="60.1252978295" lon="30.5170479789"><ele>17492.29</ele><time>2026-08-20T09:25:33Z</time></trkpt><trkpt lat="60.1252974942" lon="30.5170502421"><ele>17482.67</ele><time>2026-08-20T09:25:34Z</time></trkpt><trkpt lat="60.1252964884" lon="30.5170542654"><ele>17472.58</ele><time>2026-08-20T09:25:35Z</time></trkpt><trkpt lat="60.1252954826" lon="30.5170577019"><ele>17462.97</ele><time>2026-08-20T09:25:36Z</time></trkpt><trkpt lat="60.1252953988" lon="30.5170713644"><ele>17453.35</ele><time>2026-08-20T09:25:37Z</time></trkpt><trkpt lat="60.1252814010" lon="30.5171022937"><ele>17434.13</ele><time>2026-08-20T09:25:39Z</time></trkpt><trkpt lat="60.1252788864" lon="30.5171168782"><ele>17424.51</ele><time>2026-08-20T09:25:40Z</time></trkpt><trkpt lat="60.1252788026" lon="30.5171345640"><ele>17414.90</ele><time>2026-08-20T09:25:41Z</time></trkpt><trkpt lat="60.1252789702" lon="30.5171504896"><ele>17405.29</ele><time>2026-08-20T09:25:42Z</time></trkpt><trkpt lat="60.1252774615" lon="30.5171540100"><ele>17395.68</ele><time>2026-08-20T09:25:43Z</time></trkpt><trkpt lat="60.1252760366" lon="30.5171591230"><ele>17386.06</ele><time>2026-08-20T09:25:44Z</time></trkpt><trkpt lat="60.1252730191" lon="30.5171635654"><ele>17376.45</ele><time>2026-08-20T09:25:45Z</time></trkpt><trkpt lat="60.1252719294" lon="30.5171689298"><ele>17366.83</ele><time>2026-08-20T09:25:46Z</time></trkpt><trkpt lat="60.1252674032" lon="30.5171797425"><ele>17357.22</ele><time>2026-08-20T09:25:47Z</time></trkpt><trkpt lat="60.1252623741" lon="30.5171872862"><ele>17347.61</ele><time>2026-08-20T09:25:48Z</time></trkpt><trkpt lat="60.1252606139" lon="30.5171981826"><ele>17337.99</ele><time>2026-08-20T09:25:49Z</time></trkpt><trkpt lat="60.1252595242" lon="30.5172104202"><ele>17328.38</ele><time>2026-08-20T09:25:50Z</time></trkpt><trkpt lat="60.1252555009" lon="30.5172147788"><ele>17318.77</ele><time>2026-08-20T09:25:51Z</time></trkpt><trkpt lat="60.1252538245" lon="30.5172242504"><ele>17309.16</ele><time>2026-08-20T09:25:52Z</time></trkpt><trkpt lat="60.1252528187" lon="30.5172288604"><ele>17299.54</ele><time>2026-08-20T09:25:53Z</time></trkpt><trkpt lat="60.1252519805" lon="30.5172332190"><ele>17289.93</ele><time>2026-08-20T09:25:54Z</time></trkpt><trkpt lat="60.1252492983" lon="30.5172389187"><ele>17280.32</ele><time>2026-08-20T09:25:55Z</time></trkpt><trkpt lat="60.1252477057" lon="30.5172421038"><ele>17270.70</ele><time>2026-08-20T09:25:56Z</time></trkpt><trkpt lat="60.1252457779" lon="30.5172454566"><ele>17261.09</ele><time>2026-08-20T09:25:57Z</time></trkpt><trkpt lat="60.1252454426" lon="30.5172480550"><ele>17251.47</ele><time>2026-08-20T09:25:58Z</time></trkpt><trkpt lat="60.1252459455" lon="30.5172493123"><ele>17241.86</ele><time>2026-08-20T09:25:59Z</time></trkpt><trkpt lat="60.1252463646" lon="30.5172493123"><ele>17232.73</ele><time>2026-08-20T09:26:00Z</time></trkpt><trkpt lat="60.1252466999" lon="30.5172550958"><ele>17223.12</ele><time>2026-08-20T09:26:01Z</time></trkpt><trkpt lat="60.1252482086" lon="30.5172519106"><ele>17213.50</ele><time>2026-08-20T09:26:02Z</time></trkpt><trkpt lat="60.1252486277" lon="30.5172529165"><ele>17203.89</ele><time>2026-08-20T09:26:03Z</time></trkpt><trkpt lat="60.1252500527" lon="30.5172568560"><ele>17194.28</ele><time>2026-08-20T09:26:04Z</time></trkpt><trkpt lat="60.1252494659" lon="30.5172531679"><ele>17184.66</ele><time>2026-08-20T09:26:05Z</time></trkpt><trkpt lat="60.1252493821" lon="30.5172538385"><ele>17175.53</ele><time>2026-08-20T09:26:06Z</time></trkpt><trkpt lat="60.1252492983" lon="30.5172550958"><ele>17165.92</ele><time>2026-08-20T09:26:07Z</time></trkpt><trkpt lat="60.1252496336" lon="30.5172564369"><ele>17156.31</ele><time>2026-08-20T09:26:08Z</time></trkpt><trkpt lat="60.1252501365" lon="30.5172579456"><ele>17146.69</ele><time>2026-08-20T09:26:09Z</time></trkpt><trkpt lat="60.1252504718" lon="30.5172583647"><ele>17137.56</ele><time>2026-08-20T09:26:10Z</time></trkpt><trkpt lat="60.1252503041" lon="30.5172593705"><ele>17127.95</ele><time>2026-08-20T09:26:11Z</time></trkpt><trkpt lat="60.1252502203" lon="30.5172601249"><ele>17118.33</ele><time>2026-08-20T09:26:12Z</time></trkpt><trkpt lat="60.1252499688" lon="30.5172607955"><ele>17108.72</ele><time>2026-08-20T09:26:13Z</time></trkpt><trkpt lat="60.1252496336" lon="30.5172621366"><ele>17099.59</ele><time>2026-08-20T09:26:14Z</time></trkpt><trkpt lat="60.1252491307" lon="30.5172634777"><ele>17089.97</ele><time>2026-08-20T09:26:15Z</time></trkpt><trkpt lat="60.1252484601" lon="30.5172646511"><ele>17080.36</ele><time>2026-08-20T09:26:16Z</time></trkpt><trkpt lat="60.1252482925" lon="30.5172654055"><ele>17071.23</ele><time>2026-08-20T09:26:17Z</time></trkpt><trkpt lat="60.1252481248" lon="30.5172659922"><ele>17061.62</ele><time>2026-08-20T09:26:18Z</time></trkpt><trkpt lat="60.1252477057" lon="30.5172666628"><ele>17052.00</ele><time>2026-08-20T09:26:19Z</time></trkpt><trkpt lat="60.1252479572" lon="30.5172661599"><ele>17042.87</ele><time>2026-08-20T09:26:20Z</time></trkpt><trkpt lat="60.1252481248" lon="30.5172659084"><ele>17033.26</ele><time>2026-08-20T09:26:21Z</time></trkpt><trkpt lat="60.1252482086" lon="30.5172655731"><ele>17023.64</ele><time>2026-08-20T09:26:22Z</time></trkpt><trkpt lat="60.1252481248" lon="30.5172654893"><ele>17014.51</ele><time>2026-08-20T09:26:23Z</time></trkpt><trkpt lat="60.1252466999" lon="30.5172675010"><ele>17004.90</ele><time>2026-08-20T09:26:24Z</time></trkpt><trkpt lat="60.1252451073" lon="30.5172697641"><ele>16995.77</ele><time>2026-08-20T09:26:25Z</time></trkpt><trkpt lat="60.1252449397" lon="30.5172699317"><ele>16986.15</ele><time>2026-08-20T09:26:26Z</time></trkpt><trkpt lat="60.1252437662" lon="30.5172732845"><ele>16977.02</ele><time>2026-08-20T09:26:27Z</time></trkpt><trkpt lat="60.1252415869" lon="30.5172728654"><ele>16967.41</ele><time>2026-08-20T09:26:28Z</time></trkpt><trkpt lat="60.1252397429" lon="30.5172745418"><ele>16957.79</ele><time>2026-08-20T09:26:29Z</time></trkpt><trkpt lat="60.1252393238" lon="30.5172746256"><ele>16948.66</ele><time>2026-08-20T09:26:30Z</time></trkpt><trkpt lat="60.1252374798" lon="30.5172763858"><ele>16939.05</ele><time>2026-08-20T09:26:31Z</time></trkpt><trkpt lat="60.1252369769" lon="30.5172757991"><ele>16929.92</ele><time>2026-08-20T09:26:32Z</time></trkpt><trkpt lat="60.1252363063" lon="30.5172752123"><ele>16920.30</ele><time>2026-08-20T09:26:33Z</time></trkpt><trkpt lat="60.1252356358" lon="30.5172750447"><ele>16911.17</ele><time>2026-08-20T09:26:34Z</time></trkpt><trkpt lat="60.1252347976" lon="30.5172745418"><ele>16901.56</ele><time>2026-08-20T09:26:35Z</time></trkpt><trkpt lat="60.1252342947" lon="30.5172741227"><ele>16892.42</ele><time>2026-08-20T09:26:36Z</time></trkpt><trkpt lat="60.1252335403" lon="30.5172734521"><ele>16883.29</ele><time>2026-08-20T09:26:37Z</time></trkpt><trkpt lat="60.1252326183" lon="30.5172745418"><ele>16873.68</ele><time>2026-08-20T09:26:38Z</time></trkpt><trkpt lat="60.1252325345" lon="30.5172758829"><ele>16864.54</ele><time>2026-08-20T09:26:39Z</time></trkpt><trkpt lat="60.1252332050" lon="30.5172763020"><ele>16854.93</ele><time>2026-08-20T09:26:40Z</time></trkpt><trkpt lat="60.1252341270" lon="30.5172773078"><ele>16845.80</ele><time>2026-08-20T09:26:41Z</time></trkpt><trkpt lat="60.1252356358" lon="30.5172783136"><ele>16836.19</ele><time>2026-08-20T09:26:42Z</time></trkpt><trkpt lat="60.1252343785" lon="30.5172813311"><ele>16827.05</ele><time>2026-08-20T09:26:43Z</time></trkpt><trkpt lat="60.1252388209" lon="30.5172802415"><ele>16817.92</ele><time>2026-08-20T09:26:44Z</time></trkpt><trkpt lat="60.1252405811" lon="30.5172811635"><ele>16808.31</ele><time>2026-08-20T09:26:45Z</time></trkpt><trkpt lat="60.1252420899" lon="30.5172820017"><ele>16799.18</ele><time>2026-08-20T09:26:46Z</time></trkpt><trkpt lat="60.1252435986" lon="30.5172823370"><ele>16790.04</ele><time>2026-08-20T09:26:47Z</time></trkpt><trkpt lat="60.1252446044" lon="30.5172828399"><ele>16780.43</ele><time>2026-08-20T09:26:48Z</time></trkpt><trkpt lat="60.1252456103" lon="30.5172833428"><ele>16771.30</ele><time>2026-08-20T09:26:49Z</time></trkpt><trkpt lat="60.1252465323" lon="30.5172833428"><ele>16762.17</ele><time>2026-08-20T09:26:50Z</time></trkpt><trkpt lat="60.1252476219" lon="30.5172833428"><ele>16752.55</ele><time>2026-08-20T09:26:51Z</time></trkpt><trkpt lat="60.1252484601" lon="30.5172832590"><ele>16743.42</ele><time>2026-08-20T09:26:52Z</time></trkpt><trkpt lat="60.1252493821" lon="30.5172825046"><ele>16734.29</ele><time>2026-08-20T09:26:53Z</time></trkpt><trkpt lat="60.1252501365" lon="30.5172824208"><ele>16724.67</ele><time>2026-08-20T09:26:54Z</time></trkpt><trkpt lat="60.1252507232" lon="30.5172820017"><ele>16715.54</ele><time>2026-08-20T09:26:55Z</time></trkpt><trkpt lat="60.1252512261" lon="30.5172814988"><ele>16706.41</ele><time>2026-08-20T09:26:56Z</time></trkpt><trkpt lat="60.1252517290" lon="30.5172809958"><ele>16697.28</ele><time>2026-08-20T09:26:57Z</time></trkpt><trkpt lat="60.1252521481" lon="30.5172810797"><ele>16687.66</ele><time>2026-08-20T09:26:58Z</time></trkpt><trkpt lat="60.1252526511" lon="30.5172813311"><ele>16678.53</ele><time>2026-08-20T09:26:59Z</time></trkpt><trkpt lat="60.1252529025" lon="30.5172809958"><ele>16669.40</ele><time>2026-08-20T09:27:00Z</time></trkpt><trkpt lat="60.1252534892" lon="30.5172809958"><ele>16660.27</ele><time>2026-08-20T09:27:01Z</time></trkpt><trkpt lat="60.1252539083" lon="30.5172808282"><ele>16651.13</ele><time>2026-08-20T09:27:02Z</time></trkpt><trkpt lat="60.1252541598" lon="30.5172807444"><ele>16642.00</ele><time>2026-08-20T09:27:03Z</time></trkpt><trkpt lat="60.1252542436" lon="30.5172815826"><ele>16632.39</ele><time>2026-08-20T09:27:04Z</time></trkpt><trkpt lat="60.1252541598" lon="30.5172823370"><ele>16623.26</ele><time>2026-08-20T09:27:05Z</time></trkpt><trkpt lat="60.1252539922" lon="30.5172830075"><ele>16614.12</ele><time>2026-08-20T09:27:06Z</time></trkpt><trkpt lat="60.1252538245" lon="30.5172838457"><ele>16604.99</ele><time>2026-08-20T09:27:07Z</time></trkpt><trkpt lat="60.1252537407" lon="30.5172848515"><ele>16595.86</ele><time>2026-08-20T09:27:08Z</time></trkpt><trkpt lat="60.1252533216" lon="30.5172856059"><ele>16586.72</ele><time>2026-08-20T09:27:09Z</time></trkpt><trkpt lat="60.1252530701" lon="30.5172865279"><ele>16577.59</ele><time>2026-08-20T09:27:10Z</time></trkpt><trkpt lat="60.1252524834" lon="30.5172877852"><ele>16567.98</ele><time>2026-08-20T09:27:11Z</time></trkpt><trkpt lat="60.1252518967" lon="30.5172887910"><ele>16558.85</ele><time>2026-08-20T09:27:12Z</time></trkpt><trkpt lat="60.1252511423" lon="30.5172897130"><ele>16549.71</ele><time>2026-08-20T09:27:13Z</time></trkpt><trkpt lat="60.1252504718" lon="30.5172908027"><ele>16540.58</ele><time>2026-08-20T09:27:14Z</time></trkpt><trkpt lat="60.1252493821" lon="30.5172923114"><ele>16531.45</ele><time>2026-08-20T09:27:15Z</time></trkpt><trkpt lat="60.1252481248" lon="30.5172944907"><ele>16522.32</ele><time>2026-08-20T09:27:16Z</time></trkpt><trkpt lat="60.1252472028" lon="30.5172959156"><ele>16513.18</ele><time>2026-08-20T09:27:17Z</time></trkpt><trkpt lat="60.1252472028" lon="30.5172964185"><ele>16504.05</ele><time>2026-08-20T09:27:18Z</time></trkpt><trkpt lat="60.1252472866" lon="30.5172961671"><ele>16494.92</ele><time>2026-08-20T09:27:19Z</time></trkpt><trkpt lat="60.1252477895" lon="30.5172953289"><ele>16485.79</ele><time>2026-08-20T09:27:20Z</time></trkpt><trkpt lat="60.1252487954" lon="30.5172931496"><ele>16476.65</ele><time>2026-08-20T09:27:21Z</time></trkpt><trkpt lat="60.1252492983" lon="30.5172926467"><ele>16467.52</ele><time>2026-08-20T09:27:22Z</time></trkpt><trkpt lat="60.1252498012" lon="30.5172921438"><ele>16458.39</ele><time>2026-08-20T09:27:23Z</time></trkpt><trkpt lat="60.1252503041" lon="30.5172918085"><ele>16449.26</ele><time>2026-08-20T09:27:24Z</time></trkpt><trkpt lat="60.1252511423" lon="30.5172920600"><ele>16440.12</ele><time>2026-08-20T09:27:25Z</time></trkpt><trkpt lat="60.1252559200" lon="30.5173028726"><ele>16430.99</ele><time>2026-08-20T09:27:26Z</time></trkpt><trkpt lat="60.1252581831" lon="30.5173182115"><ele>16421.86</ele><time>2026-08-20T09:27:27Z</time></trkpt><trkpt lat="60.1252654754" lon="30.5173529126"><ele>16404.07</ele><time>2026-08-20T09:27:29Z</time></trkpt><trkpt lat="60.1252872683" lon="30.5173773039"><ele>16385.81</ele><time>2026-08-20T09:27:31Z</time></trkpt><trkpt lat="60.1252938062" lon="30.5173872784"><ele>16376.68</ele><time>2026-08-20T09:27:32Z</time></trkpt><trkpt lat="60.1253017690" lon="30.5173948221"><ele>16367.54</ele><time>2026-08-20T09:27:33Z</time></trkpt><trkpt lat="60.1253116596" lon="30.5174074788"><ele>16358.41</ele><time>2026-08-20T09:27:34Z</time></trkpt><trkpt lat="60.1253176108" lon="30.5174190458"><ele>16349.76</ele><time>2026-08-20T09:27:35Z</time></trkpt><trkpt lat="60.1253182814" lon="30.5174228176"><ele>16340.63</ele><time>2026-08-20T09:27:36Z</time></trkpt><trkpt lat="60.1253203768" lon="30.5174281821"><ele>16331.49</ele><time>2026-08-20T09:27:37Z</time></trkpt><trkpt lat="60.1253214665" lon="30.5174311157"><ele>16322.36</ele><time>2026-08-20T09:27:38Z</time></trkpt><trkpt lat="60.1253274176" lon="30.5174377374"><ele>16313.23</ele><time>2026-08-20T09:27:39Z</time></trkpt><trkpt lat="60.1253223885" lon="30.5174378213"><ele>16304.10</ele><time>2026-08-20T09:27:40Z</time></trkpt><trkpt lat="60.1253224723" lon="30.5174399167"><ele>16295.45</ele><time>2026-08-20T09:27:41Z</time></trkpt><trkpt lat="60.1253201254" lon="30.5174419284"><ele>16286.31</ele><time>2026-08-20T09:27:42Z</time></trkpt><trkpt lat="60.1253228914" lon="30.5174432695"><ele>16277.18</ele><time>2026-08-20T09:27:43Z</time></trkpt><trkpt lat="60.1253230590" lon="30.5174447782"><ele>16268.05</ele><time>2026-08-20T09:27:44Z</time></trkpt><trkpt lat="60.1253228914" lon="30.5174459517"><ele>16259.40</ele><time>2026-08-20T09:27:45Z</time></trkpt><trkpt lat="60.1253229752" lon="30.5174462870"><ele>16250.26</ele><time>2026-08-20T09:27:46Z</time></trkpt><trkpt lat="60.1253203768" lon="30.5174423475"><ele>16241.13</ele><time>2026-08-20T09:27:47Z</time></trkpt><trkpt lat="60.1253233943" lon="30.5174491368"><ele>16232.48</ele><time>2026-08-20T09:27:48Z</time></trkpt><trkpt lat="60.1253378950" lon="30.5174815748"><ele>16214.21</ele><time>2026-08-20T09:27:50Z</time></trkpt><trkpt lat="60.1253455225" lon="30.5174898729"><ele>16205.56</ele><time>2026-08-20T09:27:51Z</time></trkpt><trkpt lat="60.1253528986" lon="30.5175070558"><ele>16196.43</ele><time>2026-08-20T09:27:52Z</time></trkpt><trkpt lat="60.1253574248" lon="30.5175204668"><ele>16187.30</ele><time>2026-08-20T09:27:53Z</time></trkpt><trkpt lat="60.1253601070" lon="30.5175255798"><ele>16178.64</ele><time>2026-08-20T09:27:54Z</time></trkpt><trkpt lat="60.1253649686" lon="30.5175531562"><ele>16169.51</ele><time>2026-08-20T09:27:55Z</time></trkpt><trkpt lat="60.1253707521" lon="30.5175888631"><ele>16160.38</ele><time>2026-08-20T09:27:56Z</time></trkpt><trkpt lat="60.1253736857" lon="30.5176127516"><ele>16151.73</ele><time>2026-08-20T09:27:57Z</time></trkpt><trkpt lat="60.1253754459" lon="30.5176312756"><ele>16142.60</ele><time>2026-08-20T09:27:58Z</time></trkpt><trkpt lat="60.1253791340" lon="30.5176416691"><ele>16133.94</ele><time>2026-08-20T09:27:59Z</time></trkpt><trkpt lat="60.1253854204" lon="30.5176544096"><ele>16124.81</ele><time>2026-08-20T09:28:00Z</time></trkpt><trkpt lat="60.1253902819" lon="30.5176720954"><ele>16115.68</ele><time>2026-08-20T09:28:01Z</time></trkpt><trkpt lat="60.1253858395" lon="30.5177153461"><ele>16097.89</ele><time>2026-08-20T09:28:03Z</time></trkpt><trkpt lat="60.1253847498" lon="30.5177306850"><ele>16089.24</ele><time>2026-08-20T09:28:04Z</time></trkpt><trkpt lat="60.1253860909" lon="30.5177445989"><ele>16080.11</ele><time>2026-08-20T09:28:05Z</time></trkpt><trkpt lat="60.1253888570" lon="30.5177584291"><ele>16071.46</ele><time>2026-08-20T09:28:06Z</time></trkpt><trkpt lat="60.1253908686" lon="30.5177759472"><ele>16062.32</ele><time>2026-08-20T09:28:07Z</time></trkpt><trkpt lat="60.1253986638" lon="30.5177937169"><ele>16053.67</ele><time>2026-08-20T09:28:08Z</time></trkpt><trkpt lat="60.1254092250" lon="30.5178057868"><ele>16044.54</ele><time>2026-08-20T09:28:09Z</time></trkpt><trkpt lat="60.1254181098" lon="30.5178192817"><ele>16035.89</ele><time>2026-08-20T09:28:10Z</time></trkpt><trkpt lat="60.1254255697" lon="30.5178357102"><ele>16026.76</ele><time>2026-08-20T09:28:11Z</time></trkpt><trkpt lat="60.1254325267" lon="30.5178461876"><ele>16018.11</ele><time>2026-08-20T09:28:12Z</time></trkpt><trkpt lat="60.1254450995" lon="30.5178947188"><ele>16000.32</ele><time>2026-08-20T09:28:14Z</time></trkpt><trkpt lat="60.1254449319" lon="30.5179191940"><ele>15991.19</ele><time>2026-08-20T09:28:15Z</time></trkpt><trkpt lat="60.1254605222" lon="30.5179290008"><ele>15973.88</ele><time>2026-08-20T09:28:17Z</time></trkpt><trkpt lat="60.1254609413" lon="30.5179417413"><ele>15964.75</ele><time>2026-08-20T09:28:18Z</time></trkpt><trkpt lat="60.1254585106" lon="30.5179537274"><ele>15956.10</ele><time>2026-08-20T09:28:19Z</time></trkpt><trkpt lat="60.1254585944" lon="30.5179604329"><ele>15946.97</ele><time>2026-08-20T09:28:20Z</time></trkpt><trkpt lat="60.1254616119" lon="30.5179748498"><ele>15938.31</ele><time>2026-08-20T09:28:21Z</time></trkpt><trkpt lat="60.1254637074" lon="30.5179740954"><ele>15929.66</ele><time>2026-08-20T09:28:22Z</time></trkpt><trkpt lat="60.1254633721" lon="30.5179809686"><ele>15920.53</ele><time>2026-08-20T09:28:23Z</time></trkpt><trkpt lat="60.1254636236" lon="30.5179810524"><ele>15911.88</ele><time>2026-08-20T09:28:24Z</time></trkpt><trkpt lat="60.1254646294" lon="30.5179813877"><ele>15903.23</ele><time>2026-08-20T09:28:25Z</time></trkpt><trkpt lat="60.1254652161" lon="30.5179803818"><ele>15894.10</ele><time>2026-08-20T09:28:26Z</time></trkpt><trkpt lat="60.1254660543" lon="30.5179794598"><ele>15885.44</ele><time>2026-08-20T09:28:27Z</time></trkpt><trkpt lat="60.1254662219" lon="30.5179787055"><ele>15876.79</ele><time>2026-08-20T09:28:28Z</time></trkpt><trkpt lat="60.1254678983" lon="30.5179819744"><ele>15867.66</ele><time>2026-08-20T09:28:29Z</time></trkpt><trkpt lat="60.1254678145" lon="30.5179871712"><ele>15859.01</ele><time>2026-08-20T09:28:30Z</time></trkpt><trkpt lat="60.1254673954" lon="30.5179890152"><ele>15850.36</ele><time>2026-08-20T09:28:31Z</time></trkpt><trkpt lat="60.1254671440" lon="30.5179911107"><ele>15841.70</ele><time>2026-08-20T09:28:32Z</time></trkpt><trkpt lat="60.1254672278" lon="30.5179945473"><ele>15832.57</ele><time>2026-08-20T09:28:33Z</time></trkpt><trkpt lat="60.1254663896" lon="30.5179989897"><ele>15823.92</ele><time>2026-08-20T09:28:34Z</time></trkpt><trkpt lat="60.1254655514" lon="30.5180016719"><ele>15815.27</ele><time>2026-08-20T09:28:35Z</time></trkpt><trkpt lat="60.1254647970" lon="30.5180020910"><ele>15806.62</ele><time>2026-08-20T09:28:36Z</time></trkpt><trkpt lat="60.1254643779" lon="30.5180038512"><ele>15797.96</ele><time>2026-08-20T09:28:37Z</time></trkpt><trkpt lat="60.1254638750" lon="30.5180062819"><ele>15788.83</ele><time>2026-08-20T09:28:38Z</time></trkpt><trkpt lat="60.1254652999" lon="30.5180119816"><ele>15780.18</ele><time>2026-08-20T09:28:39Z</time></trkpt><trkpt lat="60.1254663058" lon="30.5180148315"><ele>15771.53</ele><time>2026-08-20T09:28:40Z</time></trkpt><trkpt lat="60.1254671440" lon="30.5180184357"><ele>15762.88</ele><time>2026-08-20T09:28:41Z</time></trkpt><trkpt lat="60.1254689880" lon="30.5180188548"><ele>15754.22</ele><time>2026-08-20T09:28:42Z</time></trkpt><trkpt lat="60.1254705805" lon="30.5180172622"><ele>15745.57</ele><time>2026-08-20T09:28:43Z</time></trkpt><trkpt lat="60.1254725084" lon="30.5180162564"><ele>15736.44</ele><time>2026-08-20T09:28:44Z</time></trkpt><trkpt lat="60.1254739333" lon="30.5180176813"><ele>15727.79</ele><time>2026-08-20T09:28:45Z</time></trkpt><trkpt lat="60.1254760288" lon="30.5180182680"><ele>15719.13</ele><time>2026-08-20T09:28:46Z</time></trkpt><trkpt lat="60.1254776213" lon="30.5180186033"><ele>15710.48</ele><time>2026-08-20T09:28:47Z</time></trkpt><trkpt lat="60.1254787110" lon="30.5180188548"><ele>15701.83</ele><time>2026-08-20T09:28:48Z</time></trkpt><trkpt lat="60.1254802197" lon="30.5180210341"><ele>15693.18</ele><time>2026-08-20T09:28:49Z</time></trkpt><trkpt lat="60.1254816446" lon="30.5180222914"><ele>15684.53</ele><time>2026-08-20T09:28:50Z</time></trkpt><trkpt lat="60.1254829857" lon="30.5180216208"><ele>15675.88</ele><time>2026-08-20T09:28:51Z</time></trkpt><trkpt lat="60.1254851650" lon="30.5180249736"><ele>15667.22</ele><time>2026-08-20T09:28:52Z</time></trkpt><trkpt lat="60.1254855003" lon="30.5180266500"><ele>15658.57</ele><time>2026-08-20T09:28:53Z</time></trkpt><trkpt lat="60.1254855841" lon="30.5180272367"><ele>15649.92</ele><time>2026-08-20T09:28:54Z</time></trkpt><trkpt lat="60.1254859194" lon="30.5180305894"><ele>15632.62</ele><time>2026-08-20T09:28:55Z</time></trkpt><trkpt lat="60.1254876796" lon="30.5180307571"><ele>15632.62</ele><time>2026-08-20T09:28:56Z</time></trkpt><trkpt lat="60.1254885178" lon="30.5180327687"><ele>15623.96</ele><time>2026-08-20T09:28:57Z</time></trkpt><trkpt lat="60.1254875120" lon="30.5180367082"><ele>15615.31</ele><time>2026-08-20T09:28:58Z</time></trkpt><trkpt lat="60.1254890207" lon="30.5180328526"><ele>15606.66</ele><time>2026-08-20T09:28:59Z</time></trkpt><trkpt lat="60.1254889369" lon="30.5180323496"><ele>15598.01</ele><time>2026-08-20T09:29:00Z</time></trkpt><trkpt lat="60.1254893560" lon="30.5180313438"><ele>15589.36</ele><time>2026-08-20T09:29:01Z</time></trkpt><trkpt lat="60.1254896075" lon="30.5180318467"><ele>15580.71</ele><time>2026-08-20T09:29:02Z</time></trkpt><trkpt lat="60.1254898589" lon="30.5180330202"><ele>15572.05</ele><time>2026-08-20T09:29:03Z</time></trkpt><trkpt lat="60.1254906133" lon="30.5180330202"><ele>15563.40</ele><time>2026-08-20T09:29:04Z</time></trkpt><trkpt lat="60.1254907809" lon="30.5180351995"><ele>15554.75</ele><time>2026-08-20T09:29:05Z</time></trkpt><trkpt lat="60.1254914515" lon="30.5180367082"><ele>15546.10</ele><time>2026-08-20T09:29:06Z</time></trkpt><trkpt lat="60.1254917867" lon="30.5180373788"><ele>15537.45</ele><time>2026-08-20T09:29:07Z</time></trkpt><trkpt lat="60.1254917029" lon="30.5180380493"><ele>15528.79</ele><time>2026-08-20T09:29:08Z</time></trkpt><trkpt lat="60.1254912838" lon="30.5180379655"><ele>15520.14</ele><time>2026-08-20T09:29:09Z</time></trkpt><trkpt lat="60.1254908647" lon="30.5180376302"><ele>15511.97</ele><time>2026-08-20T09:29:10Z</time></trkpt><trkpt lat="60.1254906971" lon="30.5180375464"><ele>15503.32</ele><time>2026-08-20T09:29:11Z</time></trkpt><trkpt lat="60.1254907809" lon="30.5180372950"><ele>15494.67</ele><time>2026-08-20T09:29:12Z</time></trkpt><trkpt lat="60.1254908647" lon="30.5180369597"><ele>15486.02</ele><time>2026-08-20T09:29:13Z</time></trkpt><trkpt lat="60.1254911162" lon="30.5180364568"><ele>15477.36</ele><time>2026-08-20T09:29:14Z</time></trkpt><trkpt lat="60.1254912838" lon="30.5180362891"><ele>15468.71</ele><time>2026-08-20T09:29:15Z</time></trkpt><trkpt lat="60.1254904456" lon="30.5180407315"><ele>15460.54</ele><time>2026-08-20T09:29:16Z</time></trkpt><trkpt lat="60.1254916191" lon="30.5180357862"><ele>15451.89</ele><time>2026-08-20T09:29:17Z</time></trkpt><trkpt lat="60.1254917029" lon="30.5180357024"><ele>15443.24</ele><time>2026-08-20T09:29:18Z</time></trkpt><trkpt lat="60.1254917867" lon="30.5180356186"><ele>15434.58</ele><time>2026-08-20T09:29:19Z</time></trkpt><trkpt lat="60.1254914515" lon="30.5180354510"><ele>15425.93</ele><time>2026-08-20T09:29:20Z</time></trkpt><trkpt lat="60.1254915353" lon="30.5180348642"><ele>15417.76</ele><time>2026-08-20T09:29:21Z</time></trkpt><trkpt lat="60.1254919544" lon="30.5180342775"><ele>15409.11</ele><time>2026-08-20T09:29:22Z</time></trkpt><trkpt lat="60.1254919544" lon="30.5180341937"><ele>15400.46</ele><time>2026-08-20T09:29:23Z</time></trkpt><trkpt lat="60.1254919544" lon="30.5180341098"><ele>15391.81</ele><time>2026-08-20T09:29:24Z</time></trkpt><trkpt lat="60.1254922058" lon="30.5180340260"><ele>15383.63</ele><time>2026-08-20T09:29:25Z</time></trkpt><trkpt lat="60.1254927088" lon="30.5180334393"><ele>15374.98</ele><time>2026-08-20T09:29:26Z</time></trkpt><trkpt lat="60.1254932955" lon="30.5180330202"><ele>15366.33</ele><time>2026-08-20T09:29:27Z</time></trkpt><trkpt lat="60.1254935469" lon="30.5180333555"><ele>15358.16</ele><time>2026-08-20T09:29:28Z</time></trkpt><trkpt lat="60.1254939660" lon="30.5180331040"><ele>15349.51</ele><time>2026-08-20T09:29:29Z</time></trkpt><trkpt lat="60.1254940499" lon="30.5180331040"><ele>15340.86</ele><time>2026-08-20T09:29:30Z</time></trkpt><trkpt lat="60.1254941337" lon="30.5180328526"><ele>15332.69</ele><time>2026-08-20T09:29:31Z</time></trkpt><trkpt lat="60.1254943851" lon="30.5180324335"><ele>15324.03</ele><time>2026-08-20T09:29:32Z</time></trkpt><trkpt lat="60.1254967321" lon="30.5180263147"><ele>15315.38</ele><time>2026-08-20T09:29:33Z</time></trkpt><trkpt lat="60.1254962292" lon="30.5180275720"><ele>15307.21</ele><time>2026-08-20T09:29:34Z</time></trkpt><trkpt lat="60.1254969835" lon="30.5180284940"><ele>15298.56</ele><time>2026-08-20T09:29:35Z</time></trkpt><trkpt lat="60.1254974026" lon="30.5180283263"><ele>15289.91</ele><time>2026-08-20T09:29:36Z</time></trkpt><trkpt lat="60.1255019289" lon="30.5180326011"><ele>15281.73</ele><time>2026-08-20T09:29:37Z</time></trkpt><trkpt lat="60.1254997496" lon="30.5180323496"><ele>15273.08</ele><time>2026-08-20T09:29:38Z</time></trkpt><trkpt lat="60.1254997496" lon="30.5180335231"><ele>15264.91</ele><time>2026-08-20T09:29:39Z</time></trkpt><trkpt lat="60.1254996657" lon="30.5180343613"><ele>15256.26</ele><time>2026-08-20T09:29:40Z</time></trkpt><trkpt lat="60.1254999172" lon="30.5180353671"><ele>15248.09</ele><time>2026-08-20T09:29:41Z</time></trkpt><trkpt lat="60.1255004201" lon="30.5180372111"><ele>15239.44</ele><time>2026-08-20T09:29:42Z</time></trkpt><trkpt lat="60.1254998334" lon="30.5180409830"><ele>15230.79</ele><time>2026-08-20T09:29:43Z</time></trkpt><trkpt lat="60.1255080476" lon="30.5180415697"><ele>15222.62</ele><time>2026-08-20T09:29:44Z</time></trkpt><trkpt lat="60.1255151723" lon="30.5180456769"><ele>15213.96</ele><time>2026-08-20T09:29:45Z</time></trkpt><trkpt lat="60.1255215425" lon="30.5180534720"><ele>15205.79</ele><time>2026-08-20T09:29:46Z</time></trkpt><trkpt lat="60.1255264040" lon="30.5180646200"><ele>15197.14</ele><time>2026-08-20T09:29:47Z</time></trkpt><trkpt lat="60.1255304273" lon="30.5180759355"><ele>15188.97</ele><time>2026-08-20T09:29:48Z</time></trkpt><trkpt lat="60.1255353726" lon="30.5180885084"><ele>15180.31</ele><time>2026-08-20T09:29:49Z</time></trkpt><trkpt lat="60.1255388092" lon="30.5180991534"><ele>15172.14</ele><time>2026-08-20T09:29:50Z</time></trkpt><trkpt lat="60.1255398989" lon="30.5181027576"><ele>15163.97</ele><time>2026-08-20T09:29:51Z</time></trkpt><trkpt lat="60.1255404856" lon="30.5181068648"><ele>15155.32</ele><time>2026-08-20T09:29:52Z</time></trkpt><trkpt lat="60.1255410723" lon="30.5181102175"><ele>15147.15</ele><time>2026-08-20T09:29:53Z</time></trkpt><trkpt lat="60.1255446766" lon="30.5181175936"><ele>15138.50</ele><time>2026-08-20T09:29:54Z</time></trkpt><trkpt lat="60.1255421620" lon="30.5181156658"><ele>15130.33</ele><time>2026-08-20T09:29:55Z</time></trkpt><trkpt lat="60.1255428325" lon="30.5181184318"><ele>15121.68</ele><time>2026-08-20T09:29:56Z</time></trkpt><trkpt lat="60.1255433355" lon="30.5181219522"><ele>15113.50</ele><time>2026-08-20T09:29:57Z</time></trkpt><trkpt lat="60.1255449280" lon="30.5181249697"><ele>15105.33</ele><time>2026-08-20T09:29:58Z</time></trkpt><trkpt lat="60.1255484484" lon="30.5181289930"><ele>15096.68</ele><time>2026-08-20T09:29:59Z</time></trkpt><trkpt lat="60.1255547348" lon="30.5181377102"><ele>15088.51</ele><time>2026-08-20T09:30:00Z</time></trkpt><trkpt lat="60.1255621109" lon="30.5181438290"><ele>15079.86</ele><time>2026-08-20T09:30:01Z</time></trkpt><trkpt lat="60.1255689003" lon="30.5181520432"><ele>15071.69</ele><time>2026-08-20T09:30:02Z</time></trkpt><trkpt lat="60.1255805511" lon="30.5181960482"><ele>15054.86</ele><time>2026-08-20T09:30:04Z</time></trkpt><trkpt lat="60.1255872566" lon="30.5182162486"><ele>15046.69</ele><time>2026-08-20T09:30:05Z</time></trkpt><trkpt lat="60.1255908608" lon="30.5182393827"><ele>15038.52</ele><time>2026-08-20T09:30:06Z</time></trkpt><trkpt lat="60.1255958062" lon="30.5182517879"><ele>15029.87</ele><time>2026-08-20T09:30:07Z</time></trkpt><trkpt lat="60.1256015897" lon="30.5182620138"><ele>15021.70</ele><time>2026-08-20T09:30:08Z</time></trkpt><trkpt lat="60.1256024279" lon="30.5182693899"><ele>15013.53</ele><time>2026-08-20T09:30:09Z</time></trkpt><trkpt lat="60.1256070379" lon="30.5182784423"><ele>15005.36</ele><time>2026-08-20T09:30:10Z</time></trkpt><trkpt lat="60.1256081276" lon="30.5182835553"><ele>14996.71</ele><time>2026-08-20T09:30:11Z</time></trkpt><trkpt lat="60.1256082114" lon="30.5182843097"><ele>14988.53</ele><time>2026-08-20T09:30:12Z</time></trkpt><trkpt lat="60.1256065350" lon="30.5182820465"><ele>14980.36</ele><time>2026-08-20T09:30:13Z</time></trkpt><trkpt lat="60.1256112289" lon="30.5182992294"><ele>14971.71</ele><time>2026-08-20T09:30:16Z</time></trkpt><trkpt lat="60.1256115641" lon="30.5183006544"><ele>14963.54</ele><time>2026-08-20T09:30:17Z</time></trkpt><trkpt lat="60.1256120671" lon="30.5183014087"><ele>14955.37</ele><time>2026-08-20T09:30:18Z</time></trkpt><trkpt lat="60.1256134920" lon="30.5183055159"><ele>14947.20</ele><time>2026-08-20T09:30:19Z</time></trkpt><trkpt lat="60.1256118994" lon="30.5183077790"><ele>14939.02</ele><time>2026-08-20T09:30:20Z</time></trkpt><trkpt lat="60.1256157551" lon="30.5183137301"><ele>14930.37</ele><time>2026-08-20T09:30:21Z</time></trkpt><trkpt lat="60.1256206166" lon="30.5183144845"><ele>14922.20</ele><time>2026-08-20T09:30:22Z</time></trkpt><trkpt lat="60.1256217062" lon="30.5183155742"><ele>14914.03</ele><time>2026-08-20T09:30:23Z</time></trkpt><trkpt lat="60.1256229635" lon="30.5183242075"><ele>14905.86</ele><time>2026-08-20T09:30:24Z</time></trkpt><trkpt lat="60.1256228797" lon="30.5183299910"><ele>14897.69</ele><time>2026-08-20T09:30:25Z</time></trkpt><trkpt lat="60.1256226283" lon="30.5183341820"><ele>14889.52</ele><time>2026-08-20T09:30:26Z</time></trkpt><trkpt lat="60.1256258972" lon="30.5183544662"><ele>14880.87</ele><time>2026-08-20T09:30:29Z</time></trkpt><trkpt lat="60.1256269030" lon="30.5183629319"><ele>14872.69</ele><time>2026-08-20T09:30:30Z</time></trkpt><trkpt lat="60.1256251428" lon="30.5183670390"><ele>14864.52</ele><time>2026-08-20T09:30:31Z</time></trkpt><trkpt lat="60.1256248076" lon="30.5183683801"><ele>14856.35</ele><time>2026-08-20T09:30:32Z</time></trkpt><trkpt lat="60.1256258972" lon="30.5183717329"><ele>14848.18</ele><time>2026-08-20T09:30:33Z</time></trkpt><trkpt lat="60.1256265678" lon="30.5183744151"><ele>14840.01</ele><time>2026-08-20T09:30:34Z</time></trkpt><trkpt lat="60.1256276574" lon="30.5183755048"><ele>14831.84</ele><time>2026-08-20T09:30:35Z</time></trkpt><trkpt lat="60.1256258134" lon="30.5183773488"><ele>14823.67</ele><time>2026-08-20T09:30:36Z</time></trkpt><trkpt lat="60.1256292500" lon="30.5183770135"><ele>14815.50</ele><time>2026-08-20T09:30:37Z</time></trkpt><trkpt lat="60.1256299205" lon="30.5183780193"><ele>14807.32</ele><time>2026-08-20T09:30:38Z</time></trkpt><trkpt lat="60.1256306749" lon="30.5183785222"><ele>14799.15</ele><time>2026-08-20T09:30:39Z</time></trkpt><trkpt lat="60.1256307587" lon="30.5183801148"><ele>14790.98</ele><time>2026-08-20T09:30:40Z</time></trkpt><trkpt lat="60.1256305911" lon="30.5183814559"><ele>14782.81</ele><time>2026-08-20T09:30:41Z</time></trkpt><trkpt lat="60.1256299205" lon="30.5183826294"><ele>14774.64</ele><time>2026-08-20T09:30:42Z</time></trkpt><trkpt lat="60.1256295852" lon="30.5183843896"><ele>14766.47</ele><time>2026-08-20T09:30:43Z</time></trkpt><trkpt lat="60.1256293338" lon="30.5183859821"><ele>14758.30</ele><time>2026-08-20T09:30:44Z</time></trkpt><trkpt lat="60.1256296691" lon="30.5183873232"><ele>14750.13</ele><time>2026-08-20T09:30:45Z</time></trkpt><trkpt lat="60.1256295014" lon="30.5183876585"><ele>14741.96</ele><time>2026-08-20T09:30:46Z</time></trkpt><trkpt lat="60.1256299205" lon="30.5183879100"><ele>14733.78</ele><time>2026-08-20T09:30:47Z</time></trkpt><trkpt lat="60.1256306749" lon="30.5183884129"><ele>14725.61</ele><time>2026-08-20T09:30:48Z</time></trkpt><trkpt lat="60.1256313454" lon="30.5183889158"><ele>14717.44</ele><time>2026-08-20T09:30:49Z</time></trkpt><trkpt lat="60.1256318484" lon="30.5183897540"><ele>14709.27</ele><time>2026-08-20T09:30:50Z</time></trkpt><trkpt lat="60.1256326027" lon="30.5183909275"><ele>14701.10</ele><time>2026-08-20T09:30:51Z</time></trkpt><trkpt lat="60.1256331895" lon="30.5183920171"><ele>14692.93</ele><time>2026-08-20T09:30:52Z</time></trkpt><trkpt lat="60.1256336085" lon="30.5183941126"><ele>14684.76</ele><time>2026-08-20T09:30:53Z</time></trkpt><trkpt lat="60.1256339438" lon="30.5183957051"><ele>14676.58</ele><time>2026-08-20T09:30:54Z</time></trkpt><trkpt lat="60.1256344467" lon="30.5183968786"><ele>14668.41</ele><time>2026-08-20T09:30:55Z</time></trkpt><trkpt lat="60.1256352849" lon="30.5183983874"><ele>14660.24</ele><time>2026-08-20T09:30:56Z</time></trkpt><trkpt lat="60.1256358717" lon="30.5183998123"><ele>14652.07</ele><time>2026-08-20T09:30:57Z</time></trkpt><trkpt lat="60.1256361231" lon="30.5184007343"><ele>14644.38</ele><time>2026-08-20T09:30:58Z</time></trkpt><trkpt lat="60.1256360393" lon="30.5184017401"><ele>14636.21</ele><time>2026-08-20T09:30:59Z</time></trkpt><trkpt lat="60.1256362069" lon="30.5184030812"><ele>14628.04</ele><time>2026-08-20T09:31:00Z</time></trkpt><trkpt lat="60.1256363746" lon="30.5184045061"><ele>14619.87</ele><time>2026-08-20T09:31:01Z</time></trkpt><trkpt lat="60.1256367099" lon="30.5184056796"><ele>14611.70</ele><time>2026-08-20T09:31:02Z</time></trkpt><trkpt lat="60.1256369613" lon="30.5184065178"><ele>14603.53</ele><time>2026-08-20T09:31:03Z</time></trkpt><trkpt lat="60.1256371289" lon="30.5184075236"><ele>14595.83</ele><time>2026-08-20T09:31:04Z</time></trkpt><trkpt lat="60.1256375480" lon="30.5184086133"><ele>14587.66</ele><time>2026-08-20T09:31:05Z</time></trkpt><trkpt lat="60.1256381348" lon="30.5184093677"><ele>14579.49</ele><time>2026-08-20T09:31:06Z</time></trkpt><trkpt lat="60.1256385539" lon="30.5184099544"><ele>14571.32</ele><time>2026-08-20T09:31:07Z</time></trkpt><trkpt lat="60.1256391406" lon="30.5184104573"><ele>14563.63</ele><time>2026-08-20T09:31:08Z</time></trkpt><trkpt lat="60.1256400626" lon="30.5184112117"><ele>14555.46</ele><time>2026-08-20T09:31:09Z</time></trkpt><trkpt lat="60.1256410684" lon="30.5184118822"><ele>14547.29</ele><time>2026-08-20T09:31:10Z</time></trkpt><trkpt lat="60.1256423257" lon="30.5184121337"><ele>14539.12</ele><time>2026-08-20T09:31:11Z</time></trkpt><trkpt lat="60.1256434992" lon="30.5184121337"><ele>14531.43</ele><time>2026-08-20T09:31:12Z</time></trkpt><trkpt lat="60.1256445050" lon="30.5184118822"><ele>14523.25</ele><time>2026-08-20T09:31:13Z</time></trkpt><trkpt lat="60.1256455947" lon="30.5184118822"><ele>14515.08</ele><time>2026-08-20T09:31:14Z</time></trkpt><trkpt lat="60.1256465167" lon="30.5184119660"><ele>14506.91</ele><time>2026-08-20T09:31:15Z</time></trkpt><trkpt lat="60.1256470196" lon="30.5184124690"><ele>14499.22</ele><time>2026-08-20T09:31:16Z</time></trkpt><trkpt lat="60.1256479416" lon="30.5184146482"><ele>14491.05</ele><time>2026-08-20T09:31:17Z</time></trkpt><trkpt lat="60.1256488636" lon="30.5184165761"><ele>14482.88</ele><time>2026-08-20T09:31:18Z</time></trkpt><trkpt lat="60.1256496180" lon="30.5184182525"><ele>14475.19</ele><time>2026-08-20T09:31:19Z</time></trkpt><trkpt lat="60.1256504562" lon="30.5184200965"><ele>14467.02</ele><time>2026-08-20T09:31:20Z</time></trkpt><trkpt lat="60.1256512105" lon="30.5184217729"><ele>14458.85</ele><time>2026-08-20T09:31:21Z</time></trkpt><trkpt lat="60.1256516296" lon="30.5184236169"><ele>14451.16</ele><time>2026-08-20T09:31:22Z</time></trkpt><trkpt lat="60.1256519649" lon="30.5184251256"><ele>14442.98</ele><time>2026-08-20T09:31:23Z</time></trkpt><trkpt lat="60.1256523002" lon="30.5184262153"><ele>14435.29</ele><time>2026-08-20T09:31:24Z</time></trkpt><trkpt lat="60.1256522164" lon="30.5184265506"><ele>14427.12</ele><time>2026-08-20T09:31:25Z</time></trkpt><trkpt lat="60.1256522164" lon="30.5184266344"><ele>14418.95</ele><time>2026-08-20T09:31:26Z</time></trkpt><trkpt lat="60.1256522164" lon="30.5184264667"><ele>14411.26</ele><time>2026-08-20T09:31:27Z</time></trkpt><trkpt lat="60.1256520487" lon="30.5184262991"><ele>14403.09</ele><time>2026-08-20T09:31:28Z</time></trkpt><trkpt lat="60.1256518811" lon="30.5184260476"><ele>14395.40</ele><time>2026-08-20T09:31:29Z</time></trkpt><trkpt lat="60.1256517973" lon="30.5184257124"><ele>14387.23</ele><time>2026-08-20T09:31:30Z</time></trkpt><trkpt lat="60.1256518811" lon="30.5184253771"><ele>14379.06</ele><time>2026-08-20T09:31:31Z</time></trkpt><trkpt lat="60.1256521326" lon="30.5184255447"><ele>14371.37</ele><time>2026-08-20T09:31:32Z</time></trkpt><trkpt lat="60.1256524678" lon="30.5184258800"><ele>14363.20</ele><time>2026-08-20T09:31:33Z</time></trkpt><trkpt lat="60.1256522164" lon="30.5184274726"><ele>14355.50</ele><time>2026-08-20T09:31:34Z</time></trkpt><trkpt lat="60.1256527193" lon="30.5184276402"><ele>14347.33</ele><time>2026-08-20T09:31:35Z</time></trkpt><trkpt lat="60.1256527193" lon="30.5184294842"><ele>14339.64</ele><time>2026-08-20T09:31:36Z</time></trkpt><trkpt lat="60.1256524678" lon="30.5184296519"><ele>14331.47</ele><time>2026-08-20T09:31:37Z</time></trkpt><trkpt lat="60.1256517973" lon="30.5184279755"><ele>14323.78</ele><time>2026-08-20T09:31:38Z</time></trkpt><trkpt lat="60.1256524678" lon="30.5184251256"><ele>14315.61</ele><time>2026-08-20T09:31:39Z</time></trkpt><trkpt lat="60.1256524678" lon="30.5184242036"><ele>14307.92</ele><time>2026-08-20T09:31:40Z</time></trkpt><trkpt lat="60.1256385539" lon="30.5183905084"><ele>14299.75</ele><time>2026-08-20T09:31:43Z</time></trkpt><trkpt lat="60.1256296691" lon="30.5183819588"><ele>14292.06</ele><time>2026-08-20T09:31:44Z</time></trkpt><trkpt lat="60.1256224606" lon="30.5183723196"><ele>14284.37</ele><time>2026-08-20T09:31:45Z</time></trkpt><trkpt lat="60.1256134920" lon="30.5183249619"><ele>14268.50</ele><time>2026-08-20T09:31:47Z</time></trkpt><trkpt lat="60.1256083790" lon="30.5183086172"><ele>14260.33</ele><time>2026-08-20T09:31:48Z</time></trkpt><trkpt lat="60.1256029308" lon="30.5182967987"><ele>14252.64</ele><time>2026-08-20T09:31:49Z</time></trkpt><trkpt lat="60.1255970635" lon="30.5182849802"><ele>14244.47</ele><time>2026-08-20T09:31:50Z</time></trkpt><trkpt lat="60.1255937945" lon="30.5182773527"><ele>14236.78</ele><time>2026-08-20T09:31:51Z</time></trkpt><trkpt lat="60.1255937945" lon="30.5182752572"><ele>14229.09</ele><time>2026-08-20T09:31:52Z</time></trkpt><trkpt lat="60.1255898550" lon="30.5182633549"><ele>14220.92</ele><time>2026-08-20T09:31:53Z</time></trkpt><trkpt lat="60.1255849935" lon="30.5182527099"><ele>14213.23</ele><time>2026-08-20T09:31:54Z</time></trkpt><trkpt lat="60.1255789585" lon="30.5182378739"><ele>14205.54</ele><time>2026-08-20T09:31:55Z</time></trkpt><trkpt lat="60.1255771983" lon="30.5182253849"><ele>14197.37</ele><time>2026-08-20T09:31:56Z</time></trkpt><trkpt lat="60.1255740970" lon="30.5182102136"><ele>14189.68</ele><time>2026-08-20T09:31:57Z</time></trkpt><trkpt lat="60.1255681459" lon="30.5181913543"><ele>14181.99</ele><time>2026-08-20T09:31:58Z</time></trkpt><trkpt lat="60.1255600154" lon="30.5181778595"><ele>14173.82</ele><time>2026-08-20T09:31:59Z</time></trkpt><trkpt lat="60.1255542319" lon="30.5181713216"><ele>14166.12</ele><time>2026-08-20T09:32:00Z</time></trkpt><trkpt lat="60.1255463529" lon="30.5181584135"><ele>14158.43</ele><time>2026-08-20T09:32:01Z</time></trkpt><trkpt lat="60.1255400665" lon="30.5181424879"><ele>14150.26</ele><time>2026-08-20T09:32:02Z</time></trkpt><trkpt lat="60.1255357917" lon="30.5181230418"><ele>14142.57</ele><time>2026-08-20T09:32:03Z</time></trkpt><trkpt lat="60.1255306788" lon="30.5180971418"><ele>14134.88</ele><time>2026-08-20T09:32:04Z</time></trkpt><trkpt lat="60.1255274098" lon="30.5180724151"><ele>14127.19</ele><time>2026-08-20T09:32:05Z</time></trkpt><trkpt lat="60.1255225483" lon="30.5180517118"><ele>14119.02</ele><time>2026-08-20T09:32:06Z</time></trkpt><trkpt lat="60.1255157590" lon="30.5180326849"><ele>14111.33</ele><time>2026-08-20T09:32:07Z</time></trkpt><trkpt lat="60.1255098917" lon="30.5180160049"><ele>14103.64</ele><time>2026-08-20T09:32:08Z</time></trkpt><trkpt lat="60.1255082153" lon="30.5180090480"><ele>14095.95</ele><time>2026-08-20T09:32:09Z</time></trkpt><trkpt lat="60.1255055331" lon="30.5180025939"><ele>14087.78</ele><time>2026-08-20T09:32:10Z</time></trkpt><trkpt lat="60.1254994143" lon="30.5179834832"><ele>14080.09</ele><time>2026-08-20T09:32:11Z</time></trkpt><trkpt lat="60.1254928764" lon="30.5179634504"><ele>14072.40</ele><time>2026-08-20T09:32:12Z</time></trkpt><trkpt lat="60.1254786272" lon="30.5179337785"><ele>14064.71</ele><time>2026-08-20T09:32:13Z</time></trkpt><trkpt lat="60.1254764479" lon="30.5179299228"><ele>14057.02</ele><time>2026-08-20T09:32:14Z</time></trkpt><trkpt lat="60.1254751068" lon="30.5179272406"><ele>14048.84</ele><time>2026-08-20T09:32:15Z</time></trkpt><trkpt lat="60.1254689042" lon="30.5179100577"><ele>14041.15</ele><time>2026-08-20T09:32:16Z</time></trkpt><trkpt lat="60.1254596841" lon="30.5178930424"><ele>14033.46</ele><time>2026-08-20T09:32:17Z</time></trkpt><trkpt lat="60.1254559122" lon="30.5178683158"><ele>14025.77</ele><time>2026-08-20T09:32:18Z</time></trkpt><trkpt lat="60.1254590135" lon="30.5178466905"><ele>14018.08</ele><time>2026-08-20T09:32:19Z</time></trkpt><trkpt lat="60.1254545711" lon="30.5178230535"><ele>14010.39</ele><time>2026-08-20T09:32:20Z</time></trkpt><trkpt lat="60.1254506316" lon="30.5177976564"><ele>14002.70</ele><time>2026-08-20T09:32:21Z</time></trkpt><trkpt lat="60.1254456863" lon="30.5177711695"><ele>13994.53</ele><time>2026-08-20T09:32:22Z</time></trkpt><trkpt lat="60.1254406571" lon="30.5177526455"><ele>13986.84</ele><time>2026-08-20T09:32:23Z</time></trkpt><trkpt lat="60.1254374720" lon="30.5177331995"><ele>13979.15</ele><time>2026-08-20T09:32:24Z</time></trkpt><trkpt lat="60.1254325267" lon="30.5177208781"><ele>13971.46</ele><time>2026-08-20T09:32:25Z</time></trkpt><trkpt lat="60.1254311856" lon="30.5177170224"><ele>13963.77</ele><time>2026-08-20T09:32:26Z</time></trkpt><trkpt lat="60.1254321914" lon="30.5177201238"><ele>13956.08</ele><time>2026-08-20T09:32:27Z</time></trkpt><trkpt lat="60.1254329458" lon="30.5177193694"><ele>13948.39</ele><time>2026-08-20T09:32:28Z</time></trkpt><trkpt lat="60.1254368853" lon="30.5176710896"><ele>13940.70</ele><time>2026-08-20T09:32:31Z</time></trkpt><trkpt lat="60.1254356280" lon="30.5176528171"><ele>13933.00</ele><time>2026-08-20T09:32:32Z</time></trkpt><trkpt lat="60.1254323591" lon="30.5176355503"><ele>13925.31</ele><time>2026-08-20T09:32:33Z</time></trkpt><trkpt lat="60.1254205406" lon="30.5175925512"><ele>13917.62</ele><time>2026-08-20T09:32:34Z</time></trkpt><trkpt lat="60.1254181098" lon="30.5175871029"><ele>13909.93</ele><time>2026-08-20T09:32:35Z</time></trkpt><trkpt lat="60.1254057046" lon="30.5175593589"><ele>13902.24</ele><time>2026-08-20T09:32:36Z</time></trkpt><trkpt lat="60.1253964007" lon="30.5175352190"><ele>13894.55</ele><time>2026-08-20T09:32:37Z</time></trkpt><trkpt lat="60.1253949758" lon="30.5175320338"><ele>13886.86</ele><time>2026-08-20T09:32:38Z</time></trkpt><trkpt lat="60.1253844146" lon="30.5175065529"><ele>13879.17</ele><time>2026-08-20T09:32:39Z</time></trkpt><trkpt lat="60.1253763679" lon="30.5174808204"><ele>13871.48</ele><time>2026-08-20T09:32:40Z</time></trkpt><trkpt lat="60.1253710035" lon="30.5174588598"><ele>13863.79</ele><time>2026-08-20T09:32:41Z</time></trkpt><trkpt lat="60.1253637113" lon="30.5174363963"><ele>13856.10</ele><time>2026-08-20T09:32:42Z</time></trkpt><trkpt lat="60.1253531501" lon="30.5174151063"><ele>13848.41</ele><time>2026-08-20T09:32:43Z</time></trkpt><trkpt lat="60.1253444329" lon="30.5173931457"><ele>13840.72</ele><time>2026-08-20T09:32:44Z</time></trkpt><trkpt lat="60.1253360510" lon="30.5173755437"><ele>13833.03</ele><time>2026-08-20T09:32:45Z</time></trkpt><trkpt lat="60.1253306866" lon="30.5173626356"><ele>13825.34</ele><time>2026-08-20T09:32:46Z</time></trkpt><trkpt lat="60.1253250707" lon="30.5173331313"><ele>13817.65</ele><time>2026-08-20T09:32:47Z</time></trkpt><trkpt lat="60.1253199577" lon="30.5173034593"><ele>13809.96</ele><time>2026-08-20T09:32:48Z</time></trkpt><trkpt lat="60.1253197901" lon="30.5172840971"><ele>13802.75</ele><time>2026-08-20T09:32:49Z</time></trkpt><trkpt lat="60.1253106538" lon="30.5172691774"><ele>13795.06</ele><time>2026-08-20T09:32:50Z</time></trkpt><trkpt lat="60.1252978295" lon="30.5172664113"><ele>13787.37</ele><time>2026-08-20T09:32:51Z</time></trkpt><trkpt lat="60.1252701692" lon="30.5172773078"><ele>13771.98</ele><time>2026-08-20T09:32:53Z</time></trkpt><trkpt lat="60.1252542436" lon="30.5172792356"><ele>13764.29</ele><time>2026-08-20T09:32:54Z</time></trkpt><trkpt lat="60.1252398267" lon="30.5172851030"><ele>13756.60</ele><time>2026-08-20T09:32:55Z</time></trkpt><trkpt lat="60.1252297685" lon="30.5172877852"><ele>13749.39</ele><time>2026-08-20T09:32:56Z</time></trkpt><trkpt lat="60.1252214704" lon="30.5172888748"><ele>13741.70</ele><time>2026-08-20T09:32:57Z</time></trkpt><trkpt lat="60.1252131723" lon="30.5172903836"><ele>13734.01</ele><time>2026-08-20T09:32:58Z</time></trkpt><trkpt lat="60.1252040360" lon="30.5172929820"><ele>13726.32</ele><time>2026-08-20T09:32:59Z</time></trkpt><trkpt lat="60.1251936425" lon="30.5172911379"><ele>13718.63</ele><time>2026-08-20T09:33:00Z</time></trkpt><trkpt lat="60.1251838356" lon="30.5172902159"><ele>13711.42</ele><time>2026-08-20T09:33:01Z</time></trkpt><trkpt lat="60.1251719333" lon="30.5172898807"><ele>13703.73</ele><time>2026-08-20T09:33:02Z</time></trkpt><trkpt lat="60.1251601148" lon="30.5172916409"><ele>13696.04</ele><time>2026-08-20T09:33:03Z</time></trkpt><trkpt lat="60.1251577679" lon="30.5172928981"><ele>13688.35</ele><time>2026-08-20T09:33:04Z</time></trkpt><trkpt lat="60.1251501404" lon="30.5172952451"><ele>13681.14</ele><time>2026-08-20T09:33:05Z</time></trkpt><trkpt lat="60.1251386572" lon="30.5172954965"><ele>13673.45</ele><time>2026-08-20T09:33:06Z</time></trkpt><trkpt lat="60.1251291856" lon="30.5172836781"><ele>13665.76</ele><time>2026-08-20T09:33:07Z</time></trkpt><trkpt lat="60.1251191273" lon="30.5172747094"><ele>13658.07</ele><time>2026-08-20T09:33:08Z</time></trkpt><trkpt lat="60.1251058839" lon="30.5172835104"><ele>13650.86</ele><time>2026-08-20T09:33:09Z</time></trkpt><trkpt lat="60.1250962447" lon="30.5172881205"><ele>13643.17</ele><time>2026-08-20T09:33:10Z</time></trkpt><trkpt lat="60.1250877790" lon="30.5172954965"><ele>13635.48</ele><time>2026-08-20T09:33:11Z</time></trkpt><trkpt lat="60.1250786427" lon="30.5173031241"><ele>13628.27</ele><time>2026-08-20T09:33:12Z</time></trkpt><trkpt lat="60.1250685006" lon="30.5173044652"><ele>13620.58</ele><time>2026-08-20T09:33:13Z</time></trkpt><trkpt lat="60.1250545867" lon="30.5173035432"><ele>13612.89</ele><time>2026-08-20T09:33:14Z</time></trkpt><trkpt lat="60.1250371523" lon="30.5172870308"><ele>13605.68</ele><time>2026-08-20T09:33:15Z</time></trkpt><trkpt lat="60.1250214782" lon="30.5172783975"><ele>13597.99</ele><time>2026-08-20T09:33:16Z</time></trkpt><trkpt lat="60.1250141021" lon="30.5172776431"><ele>13590.30</ele><time>2026-08-20T09:33:17Z</time></trkpt><trkpt lat="60.1250079833" lon="30.5172798224"><ele>13583.09</ele><time>2026-08-20T09:33:18Z</time></trkpt><trkpt lat="60.1249996014" lon="30.5172790680"><ele>13575.40</ele><time>2026-08-20T09:33:19Z</time></trkpt><trkpt lat="60.1249946561" lon="30.5172807444"><ele>13567.70</ele><time>2026-08-20T09:33:20Z</time></trkpt><trkpt lat="60.1249921415" lon="30.5172783136"><ele>13560.49</ele><time>2026-08-20T09:33:21Z</time></trkpt><trkpt lat="60.1249894593" lon="30.5172771402"><ele>13552.80</ele><time>2026-08-20T09:33:22Z</time></trkpt><trkpt lat="60.1249868609" lon="30.5172762182"><ele>13545.59</ele><time>2026-08-20T09:33:23Z</time></trkpt><trkpt lat="60.1249828376" lon="30.5172751285"><ele>13537.90</ele><time>2026-08-20T09:33:24Z</time></trkpt><trkpt lat="60.1249794848" lon="30.5172748771"><ele>13530.69</ele><time>2026-08-20T09:33:25Z</time></trkpt><trkpt lat="60.1249758806" lon="30.5172765534"><ele>13523.00</ele><time>2026-08-20T09:33:26Z</time></trkpt><trkpt lat="60.1249720249" lon="30.5172792356"><ele>13515.31</ele><time>2026-08-20T09:33:27Z</time></trkpt><trkpt lat="60.1249682531" lon="30.5172807444"><ele>13508.10</ele><time>2026-08-20T09:33:28Z</time></trkpt><trkpt lat="60.1249638107" lon="30.5172822531"><ele>13500.41</ele><time>2026-08-20T09:33:29Z</time></trkpt><trkpt lat="60.1249498967" lon="30.5172928981"><ele>13493.20</ele><time>2026-08-20T09:33:30Z</time></trkpt><trkpt lat="60.1249339711" lon="30.5173025373"><ele>13485.51</ele><time>2026-08-20T09:33:31Z</time></trkpt><trkpt lat="60.1249314565" lon="30.5173068121"><ele>13478.30</ele><time>2026-08-20T09:33:32Z</time></trkpt><trkpt lat="60.1249142736" lon="30.5173190497"><ele>13470.61</ele><time>2026-08-20T09:33:33Z</time></trkpt><trkpt lat="60.1248955820" lon="30.5173460394"><ele>13463.40</ele><time>2026-08-20T09:33:34Z</time></trkpt><trkpt lat="60.1248908043" lon="30.5173493084"><ele>13455.71</ele><time>2026-08-20T09:33:35Z</time></trkpt><trkpt lat="60.1248881221" lon="30.5173528288"><ele>13448.50</ele><time>2026-08-20T09:33:36Z</time></trkpt><trkpt lat="60.1248849370" lon="30.5173544213"><ele>13440.81</ele><time>2026-08-20T09:33:37Z</time></trkpt><trkpt lat="60.1248820871" lon="30.5173574388"><ele>13433.60</ele><time>2026-08-20T09:33:38Z</time></trkpt><trkpt lat="60.1248799078" lon="30.5173601210"><ele>13425.91</ele><time>2026-08-20T09:33:39Z</time></trkpt><trkpt lat="60.1248779800" lon="30.5173619650"><ele>13418.70</ele><time>2026-08-20T09:33:40Z</time></trkpt><trkpt lat="60.1248764712" lon="30.5173677485"><ele>13411.49</ele><time>2026-08-20T09:33:41Z</time></trkpt><trkpt lat="60.1248745434" lon="30.5173643120"><ele>13403.80</ele><time>2026-08-20T09:33:42Z</time></trkpt><trkpt lat="60.1248732861" lon="30.5173736997"><ele>13396.59</ele><time>2026-08-20T09:33:43Z</time></trkpt><trkpt lat="60.1248706877" lon="30.5173775554"><ele>13388.90</ele><time>2026-08-20T09:33:44Z</time></trkpt><trkpt lat="60.1248692628" lon="30.5173795670"><ele>13381.69</ele><time>2026-08-20T09:33:45Z</time></trkpt><trkpt lat="60.1248674188" lon="30.5173816625"><ele>13374.48</ele><time>2026-08-20T09:33:46Z</time></trkpt><trkpt lat="60.1248664130" lon="30.5173840933"><ele>13366.79</ele><time>2026-08-20T09:33:47Z</time></trkpt><trkpt lat="60.1248649042" lon="30.5173900444"><ele>13359.58</ele><time>2026-08-20T09:33:48Z</time></trkpt><trkpt lat="60.1248649880" lon="30.5173860211"><ele>13351.89</ele><time>2026-08-20T09:33:49Z</time></trkpt><trkpt lat="60.1248643175" lon="30.5173875298"><ele>13344.68</ele><time>2026-08-20T09:33:50Z</time></trkpt><trkpt lat="60.1248633955" lon="30.5173880327"><ele>13337.47</ele><time>2026-08-20T09:33:51Z</time></trkpt><trkpt lat="60.1248608809" lon="30.5174186267"><ele>13329.78</ele><time>2026-08-20T09:33:52Z</time></trkpt><trkpt lat="60.1248463802" lon="30.5174750369"><ele>13315.36</ele><time>2026-08-20T09:33:54Z</time></trkpt><trkpt lat="60.1248405129" lon="30.5174979195"><ele>13307.67</ele><time>2026-08-20T09:33:55Z</time></trkpt><trkpt lat="60.1248347294" lon="30.5175227299"><ele>13300.46</ele><time>2026-08-20T09:33:56Z</time></trkpt><trkpt lat="60.1248301193" lon="30.5175392423"><ele>13293.25</ele><time>2026-08-20T09:33:57Z</time></trkpt><trkpt lat="60.1248247549" lon="30.5175472889"><ele>13285.56</ele><time>2026-08-20T09:33:58Z</time></trkpt><trkpt lat="60.1248200610" lon="30.5175637174"><ele>13278.35</ele><time>2026-08-20T09:33:59Z</time></trkpt><trkpt lat="60.1248152833" lon="30.5175723508"><ele>13271.14</ele><time>2026-08-20T09:34:00Z</time></trkpt><trkpt lat="60.1248103380" lon="30.5175808165"><ele>13263.93</ele><time>2026-08-20T09:34:01Z</time></trkpt><trkpt lat="60.1248053089" lon="30.5175969936"><ele>13256.24</ele><time>2026-08-20T09:34:02Z</time></trkpt><trkpt lat="60.1247988548" lon="30.5176172778"><ele>13249.03</ele><time>2026-08-20T09:34:03Z</time></trkpt><trkpt lat="60.1247879583" lon="30.5176410824"><ele>13241.82</ele><time>2026-08-20T09:34:04Z</time></trkpt><trkpt lat="60.1247786544" lon="30.5176746100"><ele>13234.61</ele><time>2026-08-20T09:34:05Z</time></trkpt><trkpt lat="60.1247632317" lon="30.5177483708"><ele>13219.71</ele><time>2026-08-20T09:34:07Z</time></trkpt><trkpt lat="60.1247507427" lon="30.5177862570"><ele>13212.50</ele><time>2026-08-20T09:34:08Z</time></trkpt><trkpt lat="60.1247360744" lon="30.5178230535"><ele>13205.29</ele><time>2026-08-20T09:34:09Z</time></trkpt><trkpt lat="60.1247224957" lon="30.5178482831"><ele>13198.08</ele><time>2026-08-20T09:34:10Z</time></trkpt><trkpt lat="60.1247070730" lon="30.5178761948"><ele>13190.39</ele><time>2026-08-20T09:34:11Z</time></trkpt><trkpt lat="60.1246974338" lon="30.5178972334"><ele>13183.18</ele><time>2026-08-20T09:34:12Z</time></trkpt><trkpt lat="60.1246908959" lon="30.5179233011"><ele>13175.97</ele><time>2026-08-20T09:34:13Z</time></trkpt><trkpt lat="60.1246892195" lon="30.5179275759"><ele>13168.76</ele><time>2026-08-20T09:34:14Z</time></trkpt><trkpt lat="60.1246838551" lon="30.5179435015"><ele>13161.55</ele><time>2026-08-20T09:34:15Z</time></trkpt><trkpt lat="60.1246768981" lon="30.5179606006"><ele>13154.34</ele><time>2026-08-20T09:34:16Z</time></trkpt><trkpt lat="60.1246713661" lon="30.5179760233"><ele>13147.13</ele><time>2026-08-20T09:34:17Z</time></trkpt><trkpt lat="60.1246665884" lon="30.5179963075"><ele>13139.44</ele><time>2026-08-20T09:34:18Z</time></trkpt><trkpt lat="60.1246509142" lon="30.5180798750"><ele>13125.02</ele><time>2026-08-20T09:34:20Z</time></trkpt><trkpt lat="60.1246453822" lon="30.5181149114"><ele>13117.81</ele><time>2026-08-20T09:34:21Z</time></trkpt><trkpt lat="60.1246380899" lon="30.5181471817"><ele>13110.60</ele><time>2026-08-20T09:34:22Z</time></trkpt><trkpt lat="60.1246375032" lon="30.5181536358"><ele>13103.39</ele><time>2026-08-20T09:34:23Z</time></trkpt><trkpt lat="60.1246366650" lon="30.5181805417"><ele>13096.18</ele><time>2026-08-20T09:34:24Z</time></trkpt><trkpt lat="60.1246327255" lon="30.5182155780"><ele>13088.97</ele><time>2026-08-20T09:34:25Z</time></trkpt><trkpt lat="60.1246247627" lon="30.5182449147"><ele>13081.76</ele><time>2026-08-20T09:34:26Z</time></trkpt><trkpt lat="60.1246162970" lon="30.5183011573"><ele>13067.34</ele><time>2026-08-20T09:34:28Z</time></trkpt><trkpt lat="60.1246147882" lon="30.5183312483"><ele>13060.13</ele><time>2026-08-20T09:34:29Z</time></trkpt><trkpt lat="60.1246136148" lon="30.5183606688"><ele>13052.92</ele><time>2026-08-20T09:34:30Z</time></trkpt><trkpt lat="60.1246140338" lon="30.5183891673"><ele>13045.71</ele><time>2026-08-20T09:34:31Z</time></trkpt><trkpt lat="60.1246148720" lon="30.5184219405"><ele>13038.50</ele><time>2026-08-20T09:34:32Z</time></trkpt><trkpt lat="60.1246153750" lon="30.5184511095"><ele>13031.29</ele><time>2026-08-20T09:34:33Z</time></trkpt><trkpt lat="60.1246147044" lon="30.5184797756"><ele>13024.08</ele><time>2026-08-20T09:34:34Z</time></trkpt><trkpt lat="60.1246142853" lon="30.5185057595"><ele>13016.87</ele><time>2026-08-20T09:34:35Z</time></trkpt><trkpt lat="60.1246136148" lon="30.5185304023"><ele>13009.66</ele><time>2026-08-20T09:34:36Z</time></trkpt><trkpt lat="60.1246103458" lon="30.5185545422"><ele>13002.45</ele><time>2026-08-20T09:34:37Z</time></trkpt><trkpt lat="60.1246083342" lon="30.5185788497"><ele>12995.24</ele><time>2026-08-20T09:34:38Z</time></trkpt><trkpt lat="60.1246047299" lon="30.5186048336"><ele>12988.03</ele><time>2026-08-20T09:34:39Z</time></trkpt><trkpt lat="60.1245986111" lon="30.5186360143"><ele>12980.82</ele><time>2026-08-20T09:34:40Z</time></trkpt><trkpt lat="60.1245964319" lon="30.5186622497"><ele>12973.61</ele><time>2026-08-20T09:34:41Z</time></trkpt><trkpt lat="60.1245919056" lon="30.5186888203"><ele>12966.40</ele><time>2026-08-20T09:34:42Z</time></trkpt><trkpt lat="60.1245914027" lon="30.5187215935"><ele>12959.19</ele><time>2026-08-20T09:34:43Z</time></trkpt><trkpt lat="60.1245900616" lon="30.5187552888"><ele>12951.98</ele><time>2026-08-20T09:34:44Z</time></trkpt><trkpt lat="60.1245891396" lon="30.5187799316"><ele>12944.77</ele><time>2026-08-20T09:34:45Z</time></trkpt><trkpt lat="60.1245865412" lon="30.5188050773"><ele>12937.56</ele><time>2026-08-20T09:34:46Z</time></trkpt><trkpt lat="60.1245865412" lon="30.5188248586"><ele>12930.83</ele><time>2026-08-20T09:34:47Z</time></trkpt><trkpt lat="60.1245848648" lon="30.5188463163"><ele>12923.62</ele><time>2026-08-20T09:34:48Z</time></trkpt><trkpt lat="60.1245826017" lon="30.5188598111"><ele>12916.41</ele><time>2026-08-20T09:34:49Z</time></trkpt><trkpt lat="60.1245814282" lon="30.5188758206"><ele>12909.20</ele><time>2026-08-20T09:34:50Z</time></trkpt><trkpt lat="60.1245888043" lon="30.5189173948"><ele>12894.78</ele><time>2026-08-20T09:34:52Z</time></trkpt><trkpt lat="60.1245915703" lon="30.5189334042"><ele>12887.57</ele><time>2026-08-20T09:34:53Z</time></trkpt><trkpt lat="60.1245945878" lon="30.5189520959"><ele>12880.84</ele><time>2026-08-20T09:34:54Z</time></trkpt><trkpt lat="60.1245946717" lon="30.5189610645"><ele>12873.63</ele><time>2026-08-20T09:34:55Z</time></trkpt><trkpt lat="60.1245961804" lon="30.5189633276"><ele>12866.42</ele><time>2026-08-20T09:34:56Z</time></trkpt><trkpt lat="60.1245929953" lon="30.5189701170"><ele>12859.21</ele><time>2026-08-20T09:34:57Z</time></trkpt><trkpt lat="60.1245931629" lon="30.5189728830"><ele>12852.00</ele><time>2026-08-20T09:34:58Z</time></trkpt><trkpt lat="60.1245935820" lon="30.5189756490"><ele>12845.27</ele><time>2026-08-20T09:34:59Z</time></trkpt><trkpt lat="60.1245942526" lon="30.5189779960"><ele>12838.06</ele><time>2026-08-20T09:35:00Z</time></trkpt><trkpt lat="60.1245950069" lon="30.5189818516"><ele>12830.85</ele><time>2026-08-20T09:35:01Z</time></trkpt><trkpt lat="60.1245966833" lon="30.5189867970"><ele>12823.64</ele><time>2026-08-20T09:35:02Z</time></trkpt><trkpt lat="60.1245968509" lon="30.5189939216"><ele>12816.43</ele><time>2026-08-20T09:35:03Z</time></trkpt><trkpt lat="60.1245961804" lon="30.5190002080"><ele>12809.71</ele><time>2026-08-20T09:35:04Z</time></trkpt><trkpt lat="60.1245951746" lon="30.5190092605"><ele>12802.49</ele><time>2026-08-20T09:35:05Z</time></trkpt><trkpt lat="60.1245942526" lon="30.5190179776"><ele>12795.28</ele><time>2026-08-20T09:35:06Z</time></trkpt><trkpt lat="60.1245932467" lon="30.5190227553"><ele>12788.56</ele><time>2026-08-20T09:35:07Z</time></trkpt><trkpt lat="60.1245922409" lon="30.5190276168"><ele>12781.35</ele><time>2026-08-20T09:35:08Z</time></trkpt><trkpt lat="60.1245914027" lon="30.5190323945"><ele>12774.14</ele><time>2026-08-20T09:35:09Z</time></trkpt><trkpt lat="60.1245909836" lon="30.5190370046"><ele>12766.93</ele><time>2026-08-20T09:35:10Z</time></trkpt><trkpt lat="60.1245910674" lon="30.5190409441"><ele>12760.20</ele><time>2026-08-20T09:35:11Z</time></trkpt><trkpt lat="60.1245908998" lon="30.5190457217"><ele>12752.99</ele><time>2026-08-20T09:35:12Z</time></trkpt><trkpt lat="60.1245908160" lon="30.5190487392"><ele>12745.78</ele><time>2026-08-20T09:35:13Z</time></trkpt><trkpt lat="60.1245889720" lon="30.5190497451"><ele>12739.05</ele><time>2026-08-20T09:35:14Z</time></trkpt><trkpt lat="60.1245897263" lon="30.5190545227"><ele>12731.84</ele><time>2026-08-20T09:35:15Z</time></trkpt><trkpt lat="60.1245887205" lon="30.5190592166"><ele>12724.63</ele><time>2026-08-20T09:35:16Z</time></trkpt><trkpt lat="60.1245880499" lon="30.5190622341"><ele>12717.90</ele><time>2026-08-20T09:35:17Z</time></trkpt><trkpt lat="60.1245869603" lon="30.5190648325"><ele>12710.69</ele><time>2026-08-20T09:35:18Z</time></trkpt><trkpt lat="60.1245862897" lon="30.5190661736"><ele>12703.96</ele><time>2026-08-20T09:35:19Z</time></trkpt><trkpt lat="60.1245859545" lon="30.5190681014"><ele>12696.75</ele><time>2026-08-20T09:35:20Z</time></trkpt><trkpt lat="60.1245850325" lon="30.5190679338"><ele>12689.54</ele><time>2026-08-20T09:35:21Z</time></trkpt><trkpt lat="60.1245848648" lon="30.5190702807"><ele>12682.81</ele><time>2026-08-20T09:35:22Z</time></trkpt><trkpt lat="60.1245807577" lon="30.5190745555"><ele>12675.60</ele><time>2026-08-20T09:35:23Z</time></trkpt><trkpt lat="60.1245787460" lon="30.5190731306"><ele>12668.87</ele><time>2026-08-20T09:35:24Z</time></trkpt><trkpt lat="60.1245803386" lon="30.5190788303"><ele>12661.66</ele><time>2026-08-20T09:35:25Z</time></trkpt><trkpt lat="60.1245798357" lon="30.5190807581"><ele>12654.45</ele><time>2026-08-20T09:35:26Z</time></trkpt><trkpt lat="60.1245790813" lon="30.5190807581"><ele>12647.72</ele><time>2026-08-20T09:35:27Z</time></trkpt><trkpt lat="60.1245779917" lon="30.5190805066"><ele>12640.51</ele><time>2026-08-20T09:35:28Z</time></trkpt><trkpt lat="60.1245765667" lon="30.5190805066"><ele>12633.78</ele><time>2026-08-20T09:35:29Z</time></trkpt><trkpt lat="60.1245751418" lon="30.5190807581"><ele>12626.57</ele><time>2026-08-20T09:35:30Z</time></trkpt><trkpt lat="60.1245737169" lon="30.5190813448"><ele>12619.84</ele><time>2026-08-20T09:35:31Z</time></trkpt><trkpt lat="60.1245744713" lon="30.5190822668"><ele>12612.63</ele><time>2026-08-20T09:35:32Z</time></trkpt><trkpt lat="60.1245743874" lon="30.5190840270"><ele>12605.91</ele><time>2026-08-20T09:35:33Z</time></trkpt><trkpt lat="60.1245748065" lon="30.5190850329"><ele>12598.70</ele><time>2026-08-20T09:35:34Z</time></trkpt><trkpt lat="60.1245741360" lon="30.5190904811"><ele>12591.97</ele><time>2026-08-20T09:35:35Z</time></trkpt><trkpt lat="60.1245741360" lon="30.5190877151"><ele>12584.76</ele><time>2026-08-20T09:35:36Z</time></trkpt><trkpt lat="60.1245746389" lon="30.5190902296"><ele>12578.03</ele><time>2026-08-20T09:35:37Z</time></trkpt><trkpt lat="60.1245748904" lon="30.5190919898"><ele>12570.82</ele><time>2026-08-20T09:35:38Z</time></trkpt><trkpt lat="60.1245744713" lon="30.5190933309"><ele>12564.09</ele><time>2026-08-20T09:35:39Z</time></trkpt><trkpt lat="60.1245738007" lon="30.5190945044"><ele>12556.88</ele><time>2026-08-20T09:35:40Z</time></trkpt><trkpt lat="60.1245727111" lon="30.5190955941"><ele>12550.15</ele><time>2026-08-20T09:35:41Z</time></trkpt><trkpt lat="60.1245713700" lon="30.5190962646"><ele>12543.42</ele><time>2026-08-20T09:35:42Z</time></trkpt><trkpt lat="60.1245693583" lon="30.5190972704"><ele>12536.21</ele><time>2026-08-20T09:35:43Z</time></trkpt><trkpt lat="60.1245678496" lon="30.5190999527"><ele>12529.48</ele><time>2026-08-20T09:35:44Z</time></trkpt><trkpt lat="60.1245688554" lon="30.5191045627"><ele>12522.27</ele><time>2026-08-20T09:35:45Z</time></trkpt><trkpt lat="60.1245652512" lon="30.5191071611"><ele>12515.54</ele><time>2026-08-20T09:35:46Z</time></trkpt><trkpt lat="60.1245649997" lon="30.5191090889"><ele>12508.33</ele><time>2026-08-20T09:35:47Z</time></trkpt><trkpt lat="60.1245655026" lon="30.5191095080"><ele>12501.60</ele><time>2026-08-20T09:35:48Z</time></trkpt><trkpt lat="60.1245661732" lon="30.5191093404"><ele>12494.87</ele><time>2026-08-20T09:35:49Z</time></trkpt><trkpt lat="60.1245660894" lon="30.5191101786"><ele>12487.66</ele><time>2026-08-20T09:35:50Z</time></trkpt><trkpt lat="60.1245660055" lon="30.5191103462"><ele>12480.93</ele><time>2026-08-20T09:35:51Z</time></trkpt><trkpt lat="60.1245689392" lon="30.5191187281"><ele>12474.20</ele><time>2026-08-20T09:35:52Z</time></trkpt><trkpt lat="60.1245655864" lon="30.5191121902"><ele>12466.99</ele><time>2026-08-20T09:35:53Z</time></trkpt><trkpt lat="60.1245687716" lon="30.5191225000"><ele>12460.27</ele><time>2026-08-20T09:35:54Z</time></trkpt><trkpt lat="60.1245655864" lon="30.5191136990"><ele>12453.54</ele><time>2026-08-20T09:35:55Z</time></trkpt><trkpt lat="60.1245656703" lon="30.5191147048"><ele>12446.33</ele><time>2026-08-20T09:35:56Z</time></trkpt><trkpt lat="60.1245705318" lon="30.5191257689"><ele>12439.60</ele><time>2026-08-20T09:35:57Z</time></trkpt><trkpt lat="60.1245852001" lon="30.5191529263"><ele>12425.66</ele><time>2026-08-20T09:35:59Z</time></trkpt><trkpt lat="60.1245920733" lon="30.5191753060"><ele>12418.93</ele><time>2026-08-20T09:36:00Z</time></trkpt><trkpt lat="60.1245956775" lon="30.5192000326"><ele>12412.20</ele><time>2026-08-20T09:36:01Z</time></trkpt><trkpt lat="60.1245877147" lon="30.5192390922"><ele>12398.26</ele><time>2026-08-20T09:36:03Z</time></trkpt><trkpt lat="60.1245897263" lon="30.5192613881"><ele>12391.53</ele><time>2026-08-20T09:36:04Z</time></trkpt><trkpt lat="60.1245822664" lon="30.5193198100"><ele>12377.59</ele><time>2026-08-20T09:36:06Z</time></trkpt><trkpt lat="60.1245784108" lon="30.5193457939"><ele>12370.86</ele><time>2026-08-20T09:36:07Z</time></trkpt><trkpt lat="60.1245747227" lon="30.5193659104"><ele>12364.13</ele><time>2026-08-20T09:36:08Z</time></trkpt><trkpt lat="60.1245712861" lon="30.5193880387"><ele>12357.41</ele><time>2026-08-20T09:36:09Z</time></trkpt><trkpt lat="60.1245666761" lon="30.5193996895"><ele>12350.67</ele><time>2026-08-20T09:36:10Z</time></trkpt><trkpt lat="60.1245618984" lon="30.5194073170"><ele>12343.46</ele><time>2026-08-20T09:36:11Z</time></trkpt><trkpt lat="60.1245608926" lon="30.5194140226"><ele>12336.74</ele><time>2026-08-20T09:36:12Z</time></trkpt><trkpt lat="60.1245595515" lon="30.5194099154"><ele>12330.01</ele><time>2026-08-20T09:36:13Z</time></trkpt><trkpt lat="60.1245623175" lon="30.5194250867"><ele>12323.28</ele><time>2026-08-20T09:36:14Z</time></trkpt><trkpt lat="60.1245633233" lon="30.5194284394"><ele>12316.55</ele><time>2026-08-20T09:36:15Z</time></trkpt><trkpt lat="60.1245639101" lon="30.5194307864"><ele>12309.34</ele><time>2026-08-20T09:36:16Z</time></trkpt><trkpt lat="60.1245621499" lon="30.5194425210"><ele>12302.61</ele><time>2026-08-20T09:36:17Z</time></trkpt><trkpt lat="60.1245658379" lon="30.5194998533"><ele>12289.15</ele><time>2026-08-20T09:36:19Z</time></trkpt><trkpt lat="60.1245681848" lon="30.5195232388"><ele>12282.42</ele><time>2026-08-20T09:36:20Z</time></trkpt><trkpt lat="60.1245705318" lon="30.5195424333"><ele>12275.69</ele><time>2026-08-20T09:36:21Z</time></trkpt><trkpt lat="60.1245706156" lon="30.5195649806"><ele>12268.96</ele><time>2026-08-20T09:36:22Z</time></trkpt><trkpt lat="60.1245705318" lon="30.5195809063"><ele>12262.23</ele><time>2026-08-20T09:36:23Z</time></trkpt><trkpt lat="60.1245717891" lon="30.5195882823"><ele>12255.02</ele><time>2026-08-20T09:36:24Z</time></trkpt><trkpt lat="60.1245639101" lon="30.5196024477"><ele>12248.29</ele><time>2026-08-20T09:36:25Z</time></trkpt><trkpt lat="60.1245600544" lon="30.5196134280"><ele>12241.57</ele><time>2026-08-20T09:36:26Z</time></trkpt><trkpt lat="60.1245594677" lon="30.5196201336"><ele>12234.84</ele><time>2026-08-20T09:36:27Z</time></trkpt><trkpt lat="60.1245593838" lon="30.5196247436"><ele>12228.11</ele><time>2026-08-20T09:36:28Z</time></trkpt><trkpt lat="60.1245567854" lon="30.5196358077"><ele>12221.38</ele><time>2026-08-20T09:36:29Z</time></trkpt><trkpt lat="60.1245552767" lon="30.5196433514"><ele>12214.65</ele><time>2026-08-20T09:36:30Z</time></trkpt><trkpt lat="60.1245541032" lon="30.5196496379"><ele>12207.92</ele><time>2026-08-20T09:36:31Z</time></trkpt><trkpt lat="60.1245534327" lon="30.5196551699"><ele>12201.19</ele><time>2026-08-20T09:36:32Z</time></trkpt><trkpt lat="60.1245527621" lon="30.5196603667"><ele>12194.46</ele><time>2026-08-20T09:36:33Z</time></trkpt><trkpt lat="60.1245577913" lon="30.5196778011"><ele>12187.73</ele><time>2026-08-20T09:36:34Z</time></trkpt><trkpt lat="60.1245629881" lon="30.5196919665"><ele>12181.00</ele><time>2026-08-20T09:36:35Z</time></trkpt><trkpt lat="60.1245660055" lon="30.5197083112"><ele>12174.27</ele><time>2026-08-20T09:36:36Z</time></trkpt><trkpt lat="60.1245674305" lon="30.5197253264"><ele>12167.54</ele><time>2026-08-20T09:36:37Z</time></trkpt><trkpt lat="60.1245696098" lon="30.5197369773"><ele>12160.81</ele><time>2026-08-20T09:36:38Z</time></trkpt><trkpt lat="60.1245686878" lon="30.5197422579"><ele>12154.08</ele><time>2026-08-20T09:36:39Z</time></trkpt><trkpt lat="60.1245744713" lon="30.5197443534"><ele>12147.36</ele><time>2026-08-20T09:36:40Z</time></trkpt><trkpt lat="60.1245696936" lon="30.5197489634"><ele>12140.63</ele><time>2026-08-20T09:36:41Z</time></trkpt><trkpt lat="60.1245699450" lon="30.5197543278"><ele>12133.90</ele><time>2026-08-20T09:36:42Z</time></trkpt><trkpt lat="60.1245712023" lon="30.5197594408"><ele>12127.17</ele><time>2026-08-20T09:36:43Z</time></trkpt><trkpt lat="60.1245696936" lon="30.5197647214"><ele>12120.44</ele><time>2026-08-20T09:36:44Z</time></trkpt><trkpt lat="60.1245753933" lon="30.5197876878"><ele>12106.98</ele><time>2026-08-20T09:36:46Z</time></trkpt><trkpt lat="60.1245794166" lon="30.5198021047"><ele>12100.25</ele><time>2026-08-20T09:36:47Z</time></trkpt><trkpt lat="60.1245820988" lon="30.5198164377"><ele>12093.52</ele><time>2026-08-20T09:36:48Z</time></trkpt><trkpt lat="60.1245828532" lon="30.5198207125"><ele>12087.27</ele><time>2026-08-20T09:36:49Z</time></trkpt><trkpt lat="60.1245823503" lon="30.5198303517"><ele>12080.54</ele><time>2026-08-20T09:36:50Z</time></trkpt><trkpt lat="60.1245869603" lon="30.5198382307"><ele>12073.82</ele><time>2026-08-20T09:36:51Z</time></trkpt><trkpt lat="60.1245862897" lon="30.5198469479"><ele>12067.09</ele><time>2026-08-20T09:36:52Z</time></trkpt><trkpt lat="60.1245894749" lon="30.5198593531"><ele>12060.36</ele><time>2026-08-20T09:36:53Z</time></trkpt><trkpt lat="60.1245924085" lon="30.5198722612"><ele>12053.63</ele><time>2026-08-20T09:36:54Z</time></trkpt><trkpt lat="60.1245957613" lon="30.5198871810"><ele>12046.90</ele><time>2026-08-20T09:36:55Z</time></trkpt><trkpt lat="60.1246010419" lon="30.5199082196"><ele>12040.17</ele><time>2026-08-20T09:36:56Z</time></trkpt><trkpt lat="60.1246045623" lon="30.5199311022"><ele>12033.92</ele><time>2026-08-20T09:36:57Z</time></trkpt><trkpt lat="60.1246075798" lon="30.5199451838"><ele>12027.19</ele><time>2026-08-20T09:36:58Z</time></trkpt><trkpt lat="60.1246086694" lon="30.5199518055"><ele>12020.46</ele><time>2026-08-20T09:36:59Z</time></trkpt><trkpt lat="60.1246087532" lon="30.5199606903"><ele>12013.73</ele><time>2026-08-20T09:37:00Z</time></trkpt><trkpt lat="60.1246083342" lon="30.5199668091"><ele>12007.00</ele><time>2026-08-20T09:37:01Z</time></trkpt><trkpt lat="60.1246074121" lon="30.5199948885"><ele>11994.03</ele><time>2026-08-20T09:37:03Z</time></trkpt><trkpt lat="60.1246092562" lon="30.5200124905"><ele>11987.30</ele><time>2026-08-20T09:37:04Z</time></trkpt><trkpt lat="60.1246073283" lon="30.5200349540"><ele>11980.57</ele><time>2026-08-20T09:37:05Z</time></trkpt><trkpt lat="60.1246054005" lon="30.5200617760"><ele>11973.84</ele><time>2026-08-20T09:37:06Z</time></trkpt><trkpt lat="60.1246042270" lon="30.5200907774"><ele>11967.59</ele><time>2026-08-20T09:37:07Z</time></trkpt><trkpt lat="60.1246020477" lon="30.5201129895"><ele>11960.86</ele><time>2026-08-20T09:37:08Z</time></trkpt><trkpt lat="60.1246007066" lon="30.5201235507"><ele>11954.13</ele><time>2026-08-20T09:37:09Z</time></trkpt><trkpt lat="60.1245931629" lon="30.5201655440"><ele>11941.15</ele><time>2026-08-20T09:37:11Z</time></trkpt><trkpt lat="60.1245910674" lon="30.5201945454"><ele>11934.42</ele><time>2026-08-20T09:37:12Z</time></trkpt><trkpt lat="60.1245894749" lon="30.5202192720"><ele>11927.70</ele><time>2026-08-20T09:37:13Z</time></trkpt><trkpt lat="60.1245872956" lon="30.5202403944"><ele>11920.97</ele><time>2026-08-20T09:37:14Z</time></trkpt><trkpt lat="60.1245808415" lon="30.5202609301"><ele>11914.72</ele><time>2026-08-20T09:37:15Z</time></trkpt><trkpt lat="60.1245710347" lon="30.5202828068"><ele>11907.99</ele><time>2026-08-20T09:37:16Z</time></trkpt><trkpt lat="60.1245582104" lon="30.5203019176"><ele>11901.26</ele><time>2026-08-20T09:37:17Z</time></trkpt><trkpt lat="60.1245484035" lon="30.5203077849"><ele>11895.01</ele><time>2026-08-20T09:37:18Z</time></trkpt><trkpt lat="60.1245235093" lon="30.5203091260"><ele>11881.55</ele><time>2026-08-20T09:37:20Z</time></trkpt><trkpt lat="60.1245124452" lon="30.5203051865"><ele>11875.30</ele><time>2026-08-20T09:37:21Z</time></trkpt><trkpt lat="60.1245046500" lon="30.5203075334"><ele>11868.57</ele><time>2026-08-20T09:37:22Z</time></trkpt><trkpt lat="60.1244977769" lon="30.5203153286"><ele>11861.84</ele><time>2026-08-20T09:37:23Z</time></trkpt><trkpt lat="60.1244752295" lon="30.5203316733"><ele>11848.87</ele><time>2026-08-20T09:37:25Z</time></trkpt><trkpt lat="60.1244634949" lon="30.5203404743"><ele>11842.14</ele><time>2026-08-20T09:37:26Z</time></trkpt><trkpt lat="60.1244505867" lon="30.5203489400"><ele>11835.89</ele><time>2026-08-20T09:37:27Z</time></trkpt><trkpt lat="60.1244408637" lon="30.5203521252"><ele>11829.16</ele><time>2026-08-20T09:37:28Z</time></trkpt><trkpt lat="60.1244308893" lon="30.5203512870"><ele>11822.91</ele><time>2026-08-20T09:37:29Z</time></trkpt><trkpt lat="60.1244199928" lon="30.5203532148"><ele>11816.18</ele><time>2026-08-20T09:37:30Z</time></trkpt><trkpt lat="60.1244106051" lon="30.5203586631"><ele>11809.45</ele><time>2026-08-20T09:37:31Z</time></trkpt><trkpt lat="60.1244028099" lon="30.5203654524"><ele>11803.20</ele><time>2026-08-20T09:37:32Z</time></trkpt><trkpt lat="60.1244053245" lon="30.5203578249"><ele>11796.48</ele><time>2026-08-20T09:37:33Z</time></trkpt><trkpt lat="60.1244028099" lon="30.5203431565"><ele>11790.23</ele><time>2026-08-20T09:37:34Z</time></trkpt><trkpt lat="60.1243992057" lon="30.5203383788"><ele>11783.50</ele><time>2026-08-20T09:37:35Z</time></trkpt><trkpt lat="60.1243985351" lon="30.5203398038"><ele>11777.25</ele><time>2026-08-20T09:37:36Z</time></trkpt><trkpt lat="60.1243920811" lon="30.5203325115"><ele>11770.52</ele><time>2026-08-20T09:37:37Z</time></trkpt><trkpt lat="60.1243838668" lon="30.5203261413"><ele>11764.27</ele><time>2026-08-20T09:37:38Z</time></trkpt><trkpt lat="60.1243819389" lon="30.5203221180"><ele>11757.54</ele><time>2026-08-20T09:37:39Z</time></trkpt><trkpt lat="60.1243797597" lon="30.5203164183"><ele>11751.29</ele><time>2026-08-20T09:37:40Z</time></trkpt><trkpt lat="60.1243722998" lon="30.5203077011"><ele>11744.56</ele><time>2026-08-20T09:37:41Z</time></trkpt><trkpt lat="60.1243636664" lon="30.5203050189"><ele>11738.32</ele><time>2026-08-20T09:37:42Z</time></trkpt><trkpt lat="60.1243552007" lon="30.5202999059"><ele>11731.59</ele><time>2026-08-20T09:37:43Z</time></trkpt><trkpt lat="60.1243353356" lon="30.5202773586"><ele>11718.61</ele><time>2026-08-20T09:37:45Z</time></trkpt><trkpt lat="60.1243244391" lon="30.5202678032"><ele>11712.36</ele><time>2026-08-20T09:37:46Z</time></trkpt><trkpt lat="60.1243158896" lon="30.5202554818"><ele>11705.63</ele><time>2026-08-20T09:37:47Z</time></trkpt><trkpt lat="60.1243111119" lon="30.5202403944"><ele>11699.38</ele><time>2026-08-20T09:37:48Z</time></trkpt><trkpt lat="60.1243039872" lon="30.5202121474"><ele>11686.40</ele><time>2026-08-20T09:37:50Z</time></trkpt><trkpt lat="60.1242913306" lon="30.5202098005"><ele>11673.43</ele><time>2026-08-20T09:37:52Z</time></trkpt><trkpt lat="60.1242811047" lon="30.5202083755"><ele>11666.70</ele><time>2026-08-20T09:37:53Z</time></trkpt><trkpt lat="60.1242690347" lon="30.5202058610"><ele>11660.45</ele><time>2026-08-20T09:37:54Z</time></trkpt><trkpt lat="60.1242573839" lon="30.5202107225"><ele>11654.20</ele><time>2026-08-20T09:37:55Z</time></trkpt><trkpt lat="60.1242518518" lon="30.5202162545"><ele>11647.47</ele><time>2026-08-20T09:37:56Z</time></trkpt><trkpt lat="60.1242394466" lon="30.5201862473"><ele>11634.97</ele><time>2026-08-20T09:37:58Z</time></trkpt><trkpt lat="60.1242351718" lon="30.5201797094"><ele>11628.24</ele><time>2026-08-20T09:37:59Z</time></trkpt><trkpt lat="60.1242303941" lon="30.5201821402"><ele>11622.00</ele><time>2026-08-20T09:38:00Z</time></trkpt><trkpt lat="60.1242215931" lon="30.5201821402"><ele>11615.27</ele><time>2026-08-20T09:38:01Z</time></trkpt><trkpt lat="60.1242152229" lon="30.5201843195"><ele>11609.02</ele><time>2026-08-20T09:38:02Z</time></trkpt><trkpt lat="60.1242111996" lon="30.5201823916"><ele>11602.77</ele><time>2026-08-20T09:38:03Z</time></trkpt><trkpt lat="60.1242047455" lon="30.5201787874"><ele>11596.04</ele><time>2026-08-20T09:38:04Z</time></trkpt><trkpt lat="60.1241974533" lon="30.5201720819"><ele>11589.79</ele><time>2026-08-20T09:38:05Z</time></trkpt><trkpt lat="60.1241889875" lon="30.5201626103"><ele>11583.54</ele><time>2026-08-20T09:38:06Z</time></trkpt><trkpt lat="60.1241811085" lon="30.5201548152"><ele>11576.81</ele><time>2026-08-20T09:38:07Z</time></trkpt><trkpt lat="60.1241745707" lon="30.5201523006"><ele>11570.57</ele><time>2026-08-20T09:38:08Z</time></trkpt><trkpt lat="60.1241670270" lon="30.5201443378"><ele>11564.32</ele><time>2026-08-20T09:38:09Z</time></trkpt><trkpt lat="60.1241645124" lon="30.5201417394"><ele>11558.07</ele><time>2026-08-20T09:38:10Z</time></trkpt><trkpt lat="60.1241560467" lon="30.5201401468"><ele>11551.34</ele><time>2026-08-20T09:38:11Z</time></trkpt><trkpt lat="60.1241498441" lon="30.5201421585"><ele>11545.09</ele><time>2026-08-20T09:38:12Z</time></trkpt><trkpt lat="60.1241414621" lon="30.5201377161"><ele>11538.84</ele><time>2026-08-20T09:38:13Z</time></trkpt><trkpt lat="60.1241381932" lon="30.5201367103"><ele>11532.11</ele><time>2026-08-20T09:38:14Z</time></trkpt><trkpt lat="60.1241370197" lon="30.5201375484"><ele>11525.86</ele><time>2026-08-20T09:38:15Z</time></trkpt><trkpt lat="60.1241371036" lon="30.5201390572"><ele>11519.62</ele><time>2026-08-20T09:38:16Z</time></trkpt><trkpt lat="60.1241364330" lon="30.5201412365"><ele>11513.37</ele><time>2026-08-20T09:38:17Z</time></trkpt><trkpt lat="60.1241321582" lon="30.5201448407"><ele>11506.64</ele><time>2026-08-20T09:38:18Z</time></trkpt><trkpt lat="60.1241320744" lon="30.5201409012"><ele>11500.39</ele><time>2026-08-20T09:38:19Z</time></trkpt><trkpt lat="60.1241291407" lon="30.5201444216"><ele>11494.14</ele><time>2026-08-20T09:38:20Z</time></trkpt><trkpt lat="60.1241286378" lon="30.5201444216"><ele>11487.89</ele><time>2026-08-20T09:38:21Z</time></trkpt><trkpt lat="60.1241287217" lon="30.5201434996"><ele>11481.64</ele><time>2026-08-20T09:38:22Z</time></trkpt><trkpt lat="60.1241280511" lon="30.5201425776"><ele>11474.91</ele><time>2026-08-20T09:38:23Z</time></trkpt><trkpt lat="60.1241253689" lon="30.5201473553"><ele>11468.67</ele><time>2026-08-20T09:38:24Z</time></trkpt><trkpt lat="60.1241251174" lon="30.5201428290"><ele>11462.42</ele><time>2026-08-20T09:38:25Z</time></trkpt><trkpt lat="60.1241214294" lon="30.5201342795"><ele>11456.17</ele><time>2026-08-20T09:38:26Z</time></trkpt><trkpt lat="60.1241180766" lon="30.5201289151"><ele>11449.92</ele><time>2026-08-20T09:38:27Z</time></trkpt><trkpt lat="60.1241170708" lon="30.5201258138"><ele>11443.67</ele><time>2026-08-20T09:38:28Z</time></trkpt><trkpt lat="60.1241129637" lon="30.5201272387"><ele>11436.94</ele><time>2026-08-20T09:38:29Z</time></trkpt><trkpt lat="60.1241075154" lon="30.5201238859"><ele>11430.69</ele><time>2026-08-20T09:38:30Z</time></trkpt><trkpt lat="60.1241029054" lon="30.5201230478"><ele>11424.45</ele><time>2026-08-20T09:38:31Z</time></trkpt><trkpt lat="60.1241012290" lon="30.5201253947"><ele>11418.20</ele><time>2026-08-20T09:38:32Z</time></trkpt><trkpt lat="60.1241001394" lon="30.5201191083"><ele>11411.95</ele><time>2026-08-20T09:38:33Z</time></trkpt><trkpt lat="60.1240991335" lon="30.5201182701"><ele>11405.70</ele><time>2026-08-20T09:38:34Z</time></trkpt><trkpt lat="60.1240972057" lon="30.5201134086"><ele>11399.45</ele><time>2026-08-20T09:38:35Z</time></trkpt><trkpt lat="60.1240955293" lon="30.5201085471"><ele>11393.20</ele><time>2026-08-20T09:38:36Z</time></trkpt><trkpt lat="60.1240934338" lon="30.5201043561"><ele>11386.47</ele><time>2026-08-20T09:38:37Z</time></trkpt><trkpt lat="60.1240885723" lon="30.5200979859"><ele>11380.22</ele><time>2026-08-20T09:38:38Z</time></trkpt><trkpt lat="60.1240891591" lon="30.5200959742"><ele>11373.98</ele><time>2026-08-20T09:38:39Z</time></trkpt><trkpt lat="60.1240882371" lon="30.5200943816"><ele>11367.73</ele><time>2026-08-20T09:38:40Z</time></trkpt><trkpt lat="60.1240874827" lon="30.5200928729"><ele>11361.48</ele><time>2026-08-20T09:38:41Z</time></trkpt><trkpt lat="60.1240848843" lon="30.5200895201"><ele>11355.23</ele><time>2026-08-20T09:38:42Z</time></trkpt><trkpt lat="60.1240722276" lon="30.5200847425"><ele>11342.73</ele><time>2026-08-20T09:38:44Z</time></trkpt><trkpt lat="60.1240724791" lon="30.5200716667"><ele>11336.48</ele><time>2026-08-20T09:38:45Z</time></trkpt><trkpt lat="60.1240718924" lon="30.5200671405"><ele>11330.24</ele><time>2026-08-20T09:38:46Z</time></trkpt><trkpt lat="60.1240707189" lon="30.5200689007"><ele>11323.99</ele><time>2026-08-20T09:38:47Z</time></trkpt><trkpt lat="60.1240662765" lon="30.5200595129"><ele>11317.74</ele><time>2026-08-20T09:38:48Z</time></trkpt><trkpt lat="60.1240556315" lon="30.5200490355"><ele>11311.49</ele><time>2026-08-20T09:38:49Z</time></trkpt><trkpt lat="60.1240443997" lon="30.5200420786"><ele>11305.24</ele><time>2026-08-20T09:38:50Z</time></trkpt><trkpt lat="60.1240408793" lon="30.5200435873"><ele>11298.99</ele><time>2026-08-20T09:38:51Z</time></trkpt><trkpt lat="60.1240375265" lon="30.5200331099"><ele>11292.74</ele><time>2026-08-20T09:38:52Z</time></trkpt><trkpt lat="60.1240298152" lon="30.5200327747"><ele>11286.50</ele><time>2026-08-20T09:38:53Z</time></trkpt><trkpt lat="60.1240250375" lon="30.5200389773"><ele>11280.25</ele><time>2026-08-20T09:38:54Z</time></trkpt><trkpt lat="60.1240188349" lon="30.5200450122"><ele>11274.00</ele><time>2026-08-20T09:38:55Z</time></trkpt><trkpt lat="60.1240104530" lon="30.5200289190"><ele>11267.75</ele><time>2026-08-20T09:38:56Z</time></trkpt><trkpt lat="60.1240062620" lon="30.5200357083"><ele>11261.50</ele><time>2026-08-20T09:38:57Z</time></trkpt><trkpt lat="60.1239990536" lon="30.5199883506"><ele>11255.25</ele><time>2026-08-20T09:38:58Z</time></trkpt><trkpt lat="60.1239936054" lon="30.5199847464"><ele>11249.00</ele><time>2026-08-20T09:38:59Z</time></trkpt><trkpt lat="60.1239898335" lon="30.5199936312"><ele>11242.76</ele><time>2026-08-20T09:39:00Z</time></trkpt><trkpt lat="60.1239815354" lon="30.5200046115"><ele>11236.51</ele><time>2026-08-20T09:39:01Z</time></trkpt><trkpt lat="60.1239744946" lon="30.5200109817"><ele>11230.26</ele><time>2026-08-20T09:39:02Z</time></trkpt><trkpt lat="60.1239727344" lon="30.5200123228"><ele>11224.49</ele><time>2026-08-20T09:39:03Z</time></trkpt><trkpt lat="60.1239714772" lon="30.5200148374"><ele>11218.24</ele><time>2026-08-20T09:39:04Z</time></trkpt><trkpt lat="60.1239611674" lon="30.5200322717"><ele>11211.99</ele><time>2026-08-20T09:39:05Z</time></trkpt><trkpt lat="60.1239546295" lon="30.5200428329"><ele>11205.75</ele><time>2026-08-20T09:39:06Z</time></trkpt><trkpt lat="60.1239314955" lon="30.5200771987"><ele>11193.25</ele><time>2026-08-20T09:39:08Z</time></trkpt><trkpt lat="60.1239228621" lon="30.5200992431"><ele>11187.00</ele><time>2026-08-20T09:39:09Z</time></trkpt><trkpt lat="60.1239157375" lon="30.5201007519"><ele>11180.75</ele><time>2026-08-20T09:39:10Z</time></trkpt><trkpt lat="60.1239069365" lon="30.5201107264"><ele>11174.98</ele><time>2026-08-20T09:39:11Z</time></trkpt><trkpt lat="60.1239009015" lon="30.5201182701"><ele>11168.73</ele><time>2026-08-20T09:39:12Z</time></trkpt><trkpt lat="60.1238956209" lon="30.5201174319"><ele>11162.49</ele><time>2026-08-20T09:39:13Z</time></trkpt><trkpt lat="60.1238927711" lon="30.5201207846"><ele>11156.24</ele><time>2026-08-20T09:39:14Z</time></trkpt><trkpt lat="60.1238920167" lon="30.5201254785"><ele>11149.99</ele><time>2026-08-20T09:39:15Z</time></trkpt><trkpt lat="60.1238897536" lon="30.5201229639"><ele>11143.74</ele><time>2026-08-20T09:39:16Z</time></trkpt><trkpt lat="60.1238739956" lon="30.5201539770"><ele>11137.97</ele><time>2026-08-20T09:39:17Z</time></trkpt><trkpt lat="60.1238629315" lon="30.5201805476"><ele>11131.72</ele><time>2026-08-20T09:39:18Z</time></trkpt><trkpt lat="60.1238530409" lon="30.5202055257"><ele>11125.47</ele><time>2026-08-20T09:39:19Z</time></trkpt><trkpt lat="60.1238474250" lon="30.5202227924"><ele>11119.23</ele><time>2026-08-20T09:39:20Z</time></trkpt><trkpt lat="60.1238415577" lon="30.5202341918"><ele>11112.98</ele><time>2026-08-20T09:39:21Z</time></trkpt><trkpt lat="60.1238345169" lon="30.5202473514"><ele>11107.21</ele><time>2026-08-20T09:39:22Z</time></trkpt><trkpt lat="60.1238268055" lon="30.5202587508"><ele>11100.96</ele><time>2026-08-20T09:39:23Z</time></trkpt><trkpt lat="60.1238196809" lon="30.5202709883"><ele>11094.71</ele><time>2026-08-20T09:39:24Z</time></trkpt><trkpt lat="60.1238194294" lon="30.5202752631"><ele>11088.46</ele><time>2026-08-20T09:39:25Z</time></trkpt><trkpt lat="60.1238159090" lon="30.5202768557"><ele>11082.70</ele><time>2026-08-20T09:39:26Z</time></trkpt><trkpt lat="60.1238115504" lon="30.5202844832"><ele>11076.45</ele><time>2026-08-20T09:39:27Z</time></trkpt><trkpt lat="60.1238097064" lon="30.5202871654"><ele>11070.20</ele><time>2026-08-20T09:39:28Z</time></trkpt><trkpt lat="60.1238091197" lon="30.5202897638"><ele>11064.43</ele><time>2026-08-20T09:39:29Z</time></trkpt><trkpt lat="60.1237985585" lon="30.5203051027"><ele>11058.18</ele><time>2026-08-20T09:39:30Z</time></trkpt><trkpt lat="60.1237897575" lon="30.5203201901"><ele>11051.93</ele><time>2026-08-20T09:39:31Z</time></trkpt><trkpt lat="60.1237797830" lon="30.5203377083"><ele>11045.69</ele><time>2026-08-20T09:39:32Z</time></trkpt><trkpt lat="60.1237712335" lon="30.5203591660"><ele>11039.92</ele><time>2026-08-20T09:39:33Z</time></trkpt><trkpt lat="60.1237673778" lon="30.5203928612"><ele>11033.67</ele><time>2026-08-20T09:39:34Z</time></trkpt><trkpt lat="60.1237665396" lon="30.5204193480"><ele>11027.42</ele><time>2026-08-20T09:39:35Z</time></trkpt><trkpt lat="60.1237637736" lon="30.5204325914"><ele>11021.65</ele><time>2026-08-20T09:39:36Z</time></trkpt><trkpt lat="60.1237624325" lon="30.5204355251"><ele>11015.40</ele><time>2026-08-20T09:39:37Z</time></trkpt><trkpt lat="60.1237589959" lon="30.5204392970"><ele>11009.16</ele><time>2026-08-20T09:39:38Z</time></trkpt><trkpt lat="60.1237565652" lon="30.5204463378"><ele>11003.39</ele><time>2026-08-20T09:39:39Z</time></trkpt><trkpt lat="60.1237560622" lon="30.5204487685"><ele>10997.14</ele><time>2026-08-20T09:39:40Z</time></trkpt><trkpt lat="60.1237558108" lon="30.5204524565"><ele>10990.89</ele><time>2026-08-20T09:39:41Z</time></trkpt><trkpt lat="60.1237543859" lon="30.5204553064"><ele>10985.12</ele><time>2026-08-20T09:39:42Z</time></trkpt><trkpt lat="60.1237529609" lon="30.5204610061"><ele>10978.87</ele><time>2026-08-20T09:39:43Z</time></trkpt><trkpt lat="60.1237511169" lon="30.5204641912"><ele>10973.11</ele><time>2026-08-20T09:39:44Z</time></trkpt><trkpt lat="60.1237486862" lon="30.5204659514"><ele>10966.86</ele><time>2026-08-20T09:39:45Z</time></trkpt><trkpt lat="60.1237459201" lon="30.5204698909"><ele>10960.61</ele><time>2026-08-20T09:39:46Z</time></trkpt><trkpt lat="60.1237416454" lon="30.5204740819"><ele>10954.84</ele><time>2026-08-20T09:39:47Z</time></trkpt><trkpt lat="60.1237379573" lon="30.5204785243"><ele>10948.59</ele><time>2026-08-20T09:39:48Z</time></trkpt><trkpt lat="60.1237377059" lon="30.5204797816"><ele>10942.82</ele><time>2026-08-20T09:39:49Z</time></trkpt><trkpt lat="60.1237374544" lon="30.5204801168"><ele>10936.58</ele><time>2026-08-20T09:39:50Z</time></trkpt><trkpt lat="60.1237385441" lon="30.5204833020"><ele>10930.81</ele><time>2026-08-20T09:39:51Z</time></trkpt><trkpt lat="60.1237353589" lon="30.5204849783"><ele>10924.56</ele><time>2026-08-20T09:39:52Z</time></trkpt><trkpt lat="60.1237343531" lon="30.5204868224"><ele>10918.31</ele><time>2026-08-20T09:39:53Z</time></trkpt><trkpt lat="60.1237297431" lon="30.5204940308"><ele>10912.54</ele><time>2026-08-20T09:39:54Z</time></trkpt><trkpt lat="60.1237264741" lon="30.5204991437"><ele>10906.29</ele><time>2026-08-20T09:39:55Z</time></trkpt><trkpt lat="60.1237164158" lon="30.5205109622"><ele>10900.53</ele><time>2026-08-20T09:39:56Z</time></trkpt><trkpt lat="60.1237144880" lon="30.5205137283"><ele>10894.28</ele><time>2026-08-20T09:39:57Z</time></trkpt><trkpt lat="60.1237129793" lon="30.5205166619"><ele>10888.51</ele><time>2026-08-20T09:39:58Z</time></trkpt><trkpt lat="60.1237040944" lon="30.5205335934"><ele>10882.26</ele><time>2026-08-20T09:39:59Z</time></trkpt><trkpt lat="60.1237035077" lon="30.5205359403"><ele>10876.49</ele><time>2026-08-20T09:40:00Z</time></trkpt><trkpt lat="60.1237004902" lon="30.5205378681"><ele>10870.25</ele><time>2026-08-20T09:40:01Z</time></trkpt><trkpt lat="60.1236973889" lon="30.5205492675"><ele>10864.48</ele><time>2026-08-20T09:40:02Z</time></trkpt><trkpt lat="60.1236962993" lon="30.5205519497"><ele>10858.23</ele><time>2026-08-20T09:40:03Z</time></trkpt><trkpt lat="60.1236949582" lon="30.5205546319"><ele>10852.46</ele><time>2026-08-20T09:40:04Z</time></trkpt><trkpt lat="60.1236882526" lon="30.5205697194"><ele>10846.21</ele><time>2026-08-20T09:40:05Z</time></trkpt><trkpt lat="60.1236810442" lon="30.5205822922"><ele>10840.44</ele><time>2026-08-20T09:40:06Z</time></trkpt><trkpt lat="60.1236797869" lon="30.5205825437"><ele>10834.20</ele><time>2026-08-20T09:40:07Z</time></trkpt><trkpt lat="60.1236784458" lon="30.5205888301"><ele>10828.43</ele><time>2026-08-20T09:40:08Z</time></trkpt><trkpt lat="60.1236724947" lon="30.5205927696"><ele>10822.66</ele><time>2026-08-20T09:40:09Z</time></trkpt><trkpt lat="60.1236714888" lon="30.5205951165"><ele>10816.41</ele><time>2026-08-20T09:40:10Z</time></trkpt><trkpt lat="60.1236711536" lon="30.5205965415"><ele>10810.64</ele><time>2026-08-20T09:40:11Z</time></trkpt><trkpt lat="60.1236713212" lon="30.5205983855"><ele>10804.39</ele><time>2026-08-20T09:40:12Z</time></trkpt><trkpt lat="60.1236717403" lon="30.5206000619"><ele>10798.63</ele><time>2026-08-20T09:40:13Z</time></trkpt><trkpt lat="60.1236723270" lon="30.5206009839"><ele>10792.86</ele><time>2026-08-20T09:40:14Z</time></trkpt><trkpt lat="60.1236716565" lon="30.5206020735"><ele>10786.61</ele><time>2026-08-20T09:40:15Z</time></trkpt><trkpt lat="60.1236715727" lon="30.5206019897"><ele>10780.84</ele><time>2026-08-20T09:40:16Z</time></trkpt><trkpt lat="60.1236714050" lon="30.5206018221"><ele>10774.59</ele><time>2026-08-20T09:40:17Z</time></trkpt><trkpt lat="60.1236712374" lon="30.5206019897"><ele>10768.83</ele><time>2026-08-20T09:40:18Z</time></trkpt><trkpt lat="60.1236710697" lon="30.5206025764"><ele>10763.06</ele><time>2026-08-20T09:40:19Z</time></trkpt><trkpt lat="60.1236709021" lon="30.5206028279"><ele>10756.81</ele><time>2026-08-20T09:40:20Z</time></trkpt><trkpt lat="60.1236705668" lon="30.5206029955"><ele>10751.04</ele><time>2026-08-20T09:40:21Z</time></trkpt><trkpt lat="60.1236703992" lon="30.5206033308"><ele>10745.27</ele><time>2026-08-20T09:40:22Z</time></trkpt><trkpt lat="60.1236702316" lon="30.5206040014"><ele>10739.02</ele><time>2026-08-20T09:40:23Z</time></trkpt><trkpt lat="60.1236697286" lon="30.5206044205"><ele>10733.26</ele><time>2026-08-20T09:40:24Z</time></trkpt><trkpt lat="60.1236692257" lon="30.5206051748"><ele>10727.49</ele><time>2026-08-20T09:40:25Z</time></trkpt><trkpt lat="60.1236686390" lon="30.5206059292"><ele>10721.24</ele><time>2026-08-20T09:40:26Z</time></trkpt><trkpt lat="60.1236681361" lon="30.5206065997"><ele>10715.47</ele><time>2026-08-20T09:40:27Z</time></trkpt><trkpt lat="60.1236678846" lon="30.5206072703"><ele>10709.71</ele><time>2026-08-20T09:40:28Z</time></trkpt><trkpt lat="60.1236675493" lon="30.5206083599"><ele>10703.46</ele><time>2026-08-20T09:40:29Z</time></trkpt><trkpt lat="60.1236673817" lon="30.5206091143"><ele>10697.69</ele><time>2026-08-20T09:40:30Z</time></trkpt><trkpt lat="60.1236671302" lon="30.5206097849"><ele>10691.92</ele><time>2026-08-20T09:40:31Z</time></trkpt><trkpt lat="60.1236666273" lon="30.5206107069"><ele>10686.15</ele><time>2026-08-20T09:40:32Z</time></trkpt><trkpt lat="60.1236662921" lon="30.5206122156"><ele>10679.90</ele><time>2026-08-20T09:40:33Z</time></trkpt><trkpt lat="60.1236664597" lon="30.5206140596"><ele>10674.14</ele><time>2026-08-20T09:40:36Z</time></trkpt><trkpt lat="60.1236665435" lon="30.5206143949"><ele>10668.37</ele><time>2026-08-20T09:40:37Z</time></trkpt><trkpt lat="60.1236670464" lon="30.5206138920"><ele>10662.60</ele><time>2026-08-20T09:40:38Z</time></trkpt><trkpt lat="60.1236672979" lon="30.5206141435"><ele>10656.35</ele><time>2026-08-20T09:40:39Z</time></trkpt><trkpt lat="60.1236654539" lon="30.5206156522"><ele>10650.58</ele><time>2026-08-20T09:40:40Z</time></trkpt><trkpt lat="60.1236678846" lon="30.5206155684"><ele>10644.82</ele><time>2026-08-20T09:40:41Z</time></trkpt><trkpt lat="60.1236646995" lon="30.5206147302"><ele>10639.05</ele><time>2026-08-20T09:40:42Z</time></trkpt><trkpt lat="60.1236680523" lon="30.5206162389"><ele>10632.80</ele><time>2026-08-20T09:40:43Z</time></trkpt><trkpt lat="60.1236676332" lon="30.5206156522"><ele>10627.03</ele><time>2026-08-20T09:40:44Z</time></trkpt><trkpt lat="60.1236671302" lon="30.5206157360"><ele>10621.26</ele><time>2026-08-20T09:40:45Z</time></trkpt><trkpt lat="60.1236635260" lon="30.5206185021"><ele>10615.50</ele><time>2026-08-20T09:40:46Z</time></trkpt><trkpt lat="60.1236661244" lon="30.5206159875"><ele>10609.73</ele><time>2026-08-20T09:40:47Z</time></trkpt><trkpt lat="60.1236678846" lon="30.5206136405"><ele>10603.48</ele><time>2026-08-20T09:40:48Z</time></trkpt><trkpt lat="60.1236617658" lon="30.5206288118"><ele>10591.94</ele><time>2026-08-20T09:40:50Z</time></trkpt><trkpt lat="60.1236598380" lon="30.5206348468"><ele>10586.18</ele><time>2026-08-20T09:40:51Z</time></trkpt><trkpt lat="60.1236583292" lon="30.5206340924"><ele>10580.41</ele><time>2026-08-20T09:40:52Z</time></trkpt><trkpt lat="60.1236570720" lon="30.5206334218"><ele>10574.64</ele><time>2026-08-20T09:40:53Z</time></trkpt><trkpt lat="60.1236560661" lon="30.5206332542"><ele>10568.87</ele><time>2026-08-20T09:40:54Z</time></trkpt><trkpt lat="60.1236549765" lon="30.5206344277"><ele>10562.62</ele><time>2026-08-20T09:40:55Z</time></trkpt><trkpt lat="60.1236492768" lon="30.5206352659"><ele>10556.85</ele><time>2026-08-20T09:40:56Z</time></trkpt><trkpt lat="60.1236441638" lon="30.5206304044"><ele>10551.09</ele><time>2026-08-20T09:40:57Z</time></trkpt><trkpt lat="60.1236367878" lon="30.5206268840"><ele>10545.32</ele><time>2026-08-20T09:40:58Z</time></trkpt><trkpt lat="60.1236339379" lon="30.5206202623"><ele>10539.55</ele><time>2026-08-20T09:40:59Z</time></trkpt><trkpt lat="60.1236288249" lon="30.5206274707"><ele>10533.78</ele><time>2026-08-20T09:41:00Z</time></trkpt><trkpt lat="60.1236243825" lon="30.5206281412"><ele>10528.02</ele><time>2026-08-20T09:41:01Z</time></trkpt><trkpt lat="60.1236059424" lon="30.5206429772"><ele>10522.25</ele><time>2026-08-20T09:41:02Z</time></trkpt><trkpt lat="60.1235921122" lon="30.5206594057"><ele>10516.48</ele><time>2026-08-20T09:41:03Z</time></trkpt><trkpt lat="60.1235483587" lon="30.5207188334"><ele>10504.46</ele><time>2026-08-20T09:41:05Z</time></trkpt><trkpt lat="60.1235295832" lon="30.5207446497"><ele>10498.70</ele><time>2026-08-20T09:41:06Z</time></trkpt><trkpt lat="60.1235127356" lon="30.5207682028"><ele>10492.93</ele><time>2026-08-20T09:41:07Z</time></trkpt><trkpt lat="60.1234951336" lon="30.5207973719"><ele>10487.16</ele><time>2026-08-20T09:41:08Z</time></trkpt><trkpt lat="60.1234796271" lon="30.5208213441"><ele>10481.39</ele><time>2026-08-20T09:41:09Z</time></trkpt><trkpt lat="60.1234709937" lon="30.5208389461"><ele>10475.62</ele><time>2026-08-20T09:41:10Z</time></trkpt><trkpt lat="60.1234535594" lon="30.5208722223"><ele>10469.86</ele><time>2026-08-20T09:41:11Z</time></trkpt><trkpt lat="60.1234510448" lon="30.5208764970"><ele>10464.09</ele><time>2026-08-20T09:41:12Z</time></trkpt><trkpt lat="60.1234504580" lon="30.5208864715"><ele>10458.32</ele><time>2026-08-20T09:41:13Z</time></trkpt><trkpt lat="60.1234491169" lon="30.5208984576"><ele>10452.55</ele><time>2026-08-20T09:41:14Z</time></trkpt><trkpt lat="60.1234482788" lon="30.5209101085"><ele>10446.78</ele><time>2026-08-20T09:41:15Z</time></trkpt><trkpt lat="60.1234445069" lon="30.5209236871"><ele>10441.02</ele><time>2026-08-20T09:41:16Z</time></trkpt><trkpt lat="60.1234400645" lon="30.5209409539"><ele>10435.25</ele><time>2026-08-20T09:41:17Z</time></trkpt><trkpt lat="60.1234371308" lon="30.5209531914"><ele>10429.48</ele><time>2026-08-20T09:41:18Z</time></trkpt><trkpt lat="60.1234362926" lon="30.5209654290"><ele>10423.71</ele><time>2026-08-20T09:41:19Z</time></trkpt><trkpt lat="60.1234328561" lon="30.5209804326"><ele>10417.94</ele><time>2026-08-20T09:41:20Z</time></trkpt><trkpt lat="60.1234297547" lon="30.5209966935"><ele>10412.18</ele><time>2026-08-20T09:41:21Z</time></trkpt><trkpt lat="60.1234298386" lon="30.5210085120"><ele>10406.41</ele><time>2026-08-20T09:41:22Z</time></trkpt><trkpt lat="60.1234269887" lon="30.5210177321"><ele>10400.64</ele><time>2026-08-20T09:41:23Z</time></trkpt><trkpt lat="60.1234260667" lon="30.5210372619"><ele>10394.87</ele><time>2026-08-20T09:41:24Z</time></trkpt><trkpt lat="60.1234263182" lon="30.5210488290"><ele>10389.59</ele><time>2026-08-20T09:41:25Z</time></trkpt><trkpt lat="60.1234260667" lon="30.5210546963"><ele>10383.82</ele><time>2026-08-20T09:41:26Z</time></trkpt><trkpt lat="60.1234269887" lon="30.5210657604"><ele>10378.05</ele><time>2026-08-20T09:41:27Z</time></trkpt><trkpt lat="60.1234255638" lon="30.5210759025"><ele>10372.28</ele><time>2026-08-20T09:41:28Z</time></trkpt><trkpt lat="60.1234213728" lon="30.5211358331"><ele>10360.75</ele><time>2026-08-20T09:41:30Z</time></trkpt><trkpt lat="60.1234177686" lon="30.5211567879"><ele>10354.98</ele><time>2026-08-20T09:41:31Z</time></trkpt><trkpt lat="60.1234179363" lon="30.5211858731"><ele>10349.21</ele><time>2026-08-20T09:41:32Z</time></trkpt><trkpt lat="60.1234162599" lon="30.5212224182"><ele>10343.44</ele><time>2026-08-20T09:41:33Z</time></trkpt><trkpt lat="60.1234169304" lon="30.5212553591"><ele>10337.67</ele><time>2026-08-20T09:41:34Z</time></trkpt><trkpt lat="60.1233960595" lon="30.5213199835"><ele>10332.39</ele><time>2026-08-20T09:41:35Z</time></trkpt><trkpt lat="60.1233847439" lon="30.5213752203"><ele>10326.62</ele><time>2026-08-20T09:41:36Z</time></trkpt><trkpt lat="60.1233870909" lon="30.5213903915"><ele>10320.85</ele><time>2026-08-20T09:41:37Z</time></trkpt><trkpt lat="60.1233743504" lon="30.5214243382"><ele>10315.08</ele><time>2026-08-20T09:41:38Z</time></trkpt><trkpt lat="60.1233711652" lon="30.5214438681"><ele>10309.32</ele><time>2026-08-20T09:41:39Z</time></trkpt><trkpt lat="60.1233699918" lon="30.5214395933"><ele>10303.55</ele><time>2026-08-20T09:41:40Z</time></trkpt><trkpt lat="60.1233699918" lon="30.5214519147"><ele>10297.78</ele><time>2026-08-20T09:41:41Z</time></trkpt><trkpt lat="60.1233704109" lon="30.5214578658"><ele>10292.49</ele><time>2026-08-20T09:41:42Z</time></trkpt><trkpt lat="60.1233702432" lon="30.5214696843"><ele>10286.72</ele><time>2026-08-20T09:41:43Z</time></trkpt><trkpt lat="60.1233717520" lon="30.5214806646"><ele>10280.96</ele><time>2026-08-20T09:41:44Z</time></trkpt><trkpt lat="60.1233719196" lon="30.5214829277"><ele>10275.19</ele><time>2026-08-20T09:41:45Z</time></trkpt><trkpt lat="60.1233736798" lon="30.5214840174"><ele>10269.42</ele><time>2026-08-20T09:41:46Z</time></trkpt><trkpt lat="60.1233744342" lon="30.5214897171"><ele>10264.13</ele><time>2026-08-20T09:41:47Z</time></trkpt><trkpt lat="60.1233763620" lon="30.5214942433"><ele>10258.37</ele><time>2026-08-20T09:41:48Z</time></trkpt><trkpt lat="60.1233803015" lon="30.5214895494"><ele>10252.60</ele><time>2026-08-20T09:41:49Z</time></trkpt><trkpt lat="60.1233862527" lon="30.5214915611"><ele>10246.83</ele><time>2026-08-20T09:41:50Z</time></trkpt><trkpt lat="60.1233924553" lon="30.5214923993"><ele>10241.54</ele><time>2026-08-20T09:41:51Z</time></trkpt><trkpt lat="60.1233968977" lon="30.5215012841"><ele>10235.77</ele><time>2026-08-20T09:41:52Z</time></trkpt><trkpt lat="60.1234019268" lon="30.5215229094"><ele>10230.01</ele><time>2026-08-20T09:41:53Z</time></trkpt><trkpt lat="60.1234072912" lon="30.5215508211"><ele>10224.24</ele><time>2026-08-20T09:41:54Z</time></trkpt><trkpt lat="60.1234066207" lon="30.5215940718"><ele>10218.95</ele><time>2026-08-20T09:41:55Z</time></trkpt><trkpt lat="60.1234044414" lon="30.5216349754"><ele>10213.18</ele><time>2026-08-20T09:41:56Z</time></trkpt><trkpt lat="60.1234009210" lon="30.5216709338"><ele>10207.42</ele><time>2026-08-20T09:41:57Z</time></trkpt><trkpt lat="60.1234050281" lon="30.5216962472"><ele>10201.65</ele><time>2026-08-20T09:41:58Z</time></trkpt><trkpt lat="60.1234176848" lon="30.5217440240"><ele>10190.59</ele><time>2026-08-20T09:42:00Z</time></trkpt><trkpt lat="60.1234203670" lon="30.5217596982"><ele>10184.83</ele><time>2026-08-20T09:42:01Z</time></trkpt><trkpt lat="60.1234242227" lon="30.5217739474"><ele>10179.54</ele><time>2026-08-20T09:42:02Z</time></trkpt><trkpt lat="60.1234280784" lon="30.5217857659"><ele>10173.77</ele><time>2026-08-20T09:42:03Z</time></trkpt><trkpt lat="60.1234313473" lon="30.5217964109"><ele>10168.00</ele><time>2026-08-20T09:42:04Z</time></trkpt><trkpt lat="60.1234343648" lon="30.5218083132"><ele>10162.23</ele><time>2026-08-20T09:42:05Z</time></trkpt><trkpt lat="60.1234370470" lon="30.5218180362"><ele>10156.95</ele><time>2026-08-20T09:42:06Z</time></trkpt><trkpt lat="60.1234421600" lon="30.5218189582"><ele>10151.18</ele><time>2026-08-20T09:42:07Z</time></trkpt><trkpt lat="60.1234487817" lon="30.5218168627"><ele>10145.41</ele><time>2026-08-20T09:42:08Z</time></trkpt><trkpt lat="60.1234538108" lon="30.5218166113"><ele>10140.12</ele><time>2026-08-20T09:42:09Z</time></trkpt><trkpt lat="60.1234591752" lon="30.5218248256"><ele>10134.36</ele><time>2026-08-20T09:42:10Z</time></trkpt><trkpt lat="60.1234662160" lon="30.5218339618"><ele>10129.07</ele><time>2026-08-20T09:42:11Z</time></trkpt><trkpt lat="60.1234736759" lon="30.5218472052"><ele>10123.30</ele><time>2026-08-20T09:42:12Z</time></trkpt><trkpt lat="60.1234805491" lon="30.5218630470"><ele>10117.53</ele><time>2026-08-20T09:42:13Z</time></trkpt><trkpt lat="60.1234921999" lon="30.5218924675"><ele>10112.25</ele><time>2026-08-20T09:42:14Z</time></trkpt><trkpt lat="60.1235000789" lon="30.5219104048"><ele>10106.48</ele><time>2026-08-20T09:42:15Z</time></trkpt><trkpt lat="60.1235059462" lon="30.5219231453"><ele>10100.71</ele><time>2026-08-20T09:42:16Z</time></trkpt><trkpt lat="60.1235117298" lon="30.5219347961"><ele>10095.42</ele><time>2026-08-20T09:42:17Z</time></trkpt><trkpt lat="60.1235175971" lon="30.5219454411"><ele>10089.65</ele><time>2026-08-20T09:42:18Z</time></trkpt><trkpt lat="60.1235223748" lon="30.5219557509"><ele>10084.37</ele><time>2026-08-20T09:42:19Z</time></trkpt><trkpt lat="60.1235259790" lon="30.5219677370"><ele>10078.60</ele><time>2026-08-20T09:42:20Z</time></trkpt><trkpt lat="60.1235321816" lon="30.5219808128"><ele>10072.83</ele><time>2026-08-20T09:42:21Z</time></trkpt><trkpt lat="60.1235408150" lon="30.5219908711"><ele>10067.54</ele><time>2026-08-20T09:42:22Z</time></trkpt><trkpt lat="60.1235636976" lon="30.5220166035"><ele>10067.54</ele><time>2026-08-20T09:42:24Z</time></trkpt><trkpt lat="60.1235869993" lon="30.5220476165"><ele>10056.49</ele><time>2026-08-20T09:42:26Z</time></trkpt><trkpt lat="60.1235968899" lon="30.5220585968"><ele>10050.72</ele><time>2026-08-20T09:42:27Z</time></trkpt><trkpt lat="60.1236081216" lon="30.5220749415"><ele>10045.43</ele><time>2026-08-20T09:42:28Z</time></trkpt><trkpt lat="60.1236176770" lon="30.5220860895"><ele>10039.67</ele><time>2026-08-20T09:42:29Z</time></trkpt><trkpt lat="60.1236175932" lon="30.5220964830"><ele>10034.38</ele><time>2026-08-20T09:42:30Z</time></trkpt><trkpt lat="60.1236176770" lon="30.5221228022"><ele>10028.61</ele><time>2026-08-20T09:42:31Z</time></trkpt><trkpt lat="60.1236263104" lon="30.5221340340"><ele>10022.84</ele><time>2026-08-20T09:42:32Z</time></trkpt><trkpt lat="60.1236324292" lon="30.5221453495"><ele>10017.56</ele><time>2026-08-20T09:42:33Z</time></trkpt><trkpt lat="60.1236360334" lon="30.5221572518"><ele>10011.79</ele><time>2026-08-20T09:42:34Z</time></trkpt><trkpt lat="60.1236544736" lon="30.5221739318"><ele>10000.73</ele><time>2026-08-20T09:42:36Z</time></trkpt><trkpt lat="60.1236596704" lon="30.5221839063"><ele>9995.45</ele><time>2026-08-20T09:42:37Z</time></trkpt><trkpt lat="60.1236655377" lon="30.5221896060"><ele>9989.68</ele><time>2026-08-20T09:42:38Z</time></trkpt><trkpt lat="60.1236735843" lon="30.5221952219"><ele>9984.39</ele><time>2026-08-20T09:42:39Z</time></trkpt><trkpt lat="60.1236794516" lon="30.5222020112"><ele>9979.10</ele><time>2026-08-20T09:42:40Z</time></trkpt><trkpt lat="60.1236971375" lon="30.5222191103"><ele>9968.05</ele><time>2026-08-20T09:42:42Z</time></trkpt><trkpt lat="60.1237033401" lon="30.5222274922"><ele>9962.28</ele><time>2026-08-20T09:42:43Z</time></trkpt><trkpt lat="60.1237082854" lon="30.5222315993"><ele>9956.99</ele><time>2026-08-20T09:42:44Z</time></trkpt><trkpt lat="60.1237161644" lon="30.5222305935"><ele>9951.22</ele><time>2026-08-20T09:42:45Z</time></trkpt><trkpt lat="60.1237247977" lon="30.5222274922"><ele>9945.94</ele><time>2026-08-20T09:42:46Z</time></trkpt><trkpt lat="60.1237315033" lon="30.5222328566"><ele>9940.17</ele><time>2026-08-20T09:42:47Z</time></trkpt><trkpt lat="60.1237371191" lon="30.5222454295"><ele>9934.88</ele><time>2026-08-20T09:42:48Z</time></trkpt><trkpt lat="60.1237399690" lon="30.5222541466"><ele>9929.60</ele><time>2026-08-20T09:42:49Z</time></trkpt><trkpt lat="60.1237403043" lon="30.5222555716"><ele>9923.83</ele><time>2026-08-20T09:42:50Z</time></trkpt><trkpt lat="60.1237379573" lon="30.5222538952"><ele>9918.54</ele><time>2026-08-20T09:42:51Z</time></trkpt><trkpt lat="60.1237410586" lon="30.5222589243"><ele>9912.77</ele><time>2026-08-20T09:42:52Z</time></trkpt><trkpt lat="60.1237392146" lon="30.5222650431"><ele>9907.48</ele><time>2026-08-20T09:42:53Z</time></trkpt><trkpt lat="60.1237381250" lon="30.5222713295"><ele>9902.20</ele><time>2026-08-20T09:42:54Z</time></trkpt><trkpt lat="60.1237403043" lon="30.5222740956"><ele>9896.43</ele><time>2026-08-20T09:42:55Z</time></trkpt><trkpt lat="60.1237411425" lon="30.5222771131"><ele>9891.14</ele><time>2026-08-20T09:42:56Z</time></trkpt><trkpt lat="60.1237410586" lon="30.5222771969"><ele>9885.86</ele><time>2026-08-20T09:42:57Z</time></trkpt><trkpt lat="60.1237407234" lon="30.5222790409"><ele>9880.09</ele><time>2026-08-20T09:42:58Z</time></trkpt><trkpt lat="60.1237413939" lon="30.5222792923"><ele>9874.80</ele><time>2026-08-20T09:42:59Z</time></trkpt><trkpt lat="60.1237419806" lon="30.5222786218"><ele>9869.03</ele><time>2026-08-20T09:43:00Z</time></trkpt><trkpt lat="60.1237423159" lon="30.5222788732"><ele>9863.75</ele><time>2026-08-20T09:43:01Z</time></trkpt><trkpt lat="60.1237426512" lon="30.5222802144"><ele>9858.46</ele><time>2026-08-20T09:43:02Z</time></trkpt><trkpt lat="60.1237469260" lon="30.5222999118"><ele>9852.69</ele><time>2026-08-20T09:43:03Z</time></trkpt><trkpt lat="60.1237543859" lon="30.5223212019"><ele>9847.40</ele><time>2026-08-20T09:43:04Z</time></trkpt><trkpt lat="60.1237570681" lon="30.5223414022"><ele>9842.11</ele><time>2026-08-20T09:43:05Z</time></trkpt><trkpt lat="60.1237603370" lon="30.5223665480"><ele>9836.83</ele><time>2026-08-20T09:43:06Z</time></trkpt><trkpt lat="60.1237677969" lon="30.5223860778"><ele>9831.06</ele><time>2026-08-20T09:43:07Z</time></trkpt><trkpt lat="60.1237726584" lon="30.5224037636"><ele>9825.77</ele><time>2026-08-20T09:43:08Z</time></trkpt><trkpt lat="60.1237758435" lon="30.5224158335"><ele>9820.49</ele><time>2026-08-20T09:43:09Z</time></trkpt><trkpt lat="60.1237788610" lon="30.5224253889"><ele>9814.72</ele><time>2026-08-20T09:43:10Z</time></trkpt><trkpt lat="60.1237825491" lon="30.5224380456"><ele>9809.43</ele><time>2026-08-20T09:43:11Z</time></trkpt><trkpt lat="60.1237853151" lon="30.5224627722"><ele>9804.14</ele><time>2026-08-20T09:43:12Z</time></trkpt><trkpt lat="60.1237902604" lon="30.5224840622"><ele>9798.86</ele><time>2026-08-20T09:43:13Z</time></trkpt><trkpt lat="60.1237936132" lon="30.5224985629"><ele>9793.09</ele><time>2026-08-20T09:43:14Z</time></trkpt><trkpt lat="60.1237977203" lon="30.5225061066"><ele>9787.80</ele><time>2026-08-20T09:43:15Z</time></trkpt><trkpt lat="60.1238071918" lon="30.5225198530"><ele>9782.51</ele><time>2026-08-20T09:43:16Z</time></trkpt><trkpt lat="60.1238167472" lon="30.5225297436"><ele>9777.23</ele><time>2026-08-20T09:43:17Z</time></trkpt><trkpt lat="60.1238136459" lon="30.5225501116"><ele>9771.46</ele><time>2026-08-20T09:43:18Z</time></trkpt><trkpt lat="60.1238275599" lon="30.5225631874"><ele>9766.17</ele><time>2026-08-20T09:43:19Z</time></trkpt><trkpt lat="60.1238304097" lon="30.5225781072"><ele>9760.88</ele><time>2026-08-20T09:43:20Z</time></trkpt><trkpt lat="60.1238305774" lon="30.5225790292"><ele>9755.60</ele><time>2026-08-20T09:43:21Z</time></trkpt><trkpt lat="60.1238368638" lon="30.5225904286"><ele>9750.31</ele><time>2026-08-20T09:43:22Z</time></trkpt><trkpt lat="60.1238395460" lon="30.5225915182"><ele>9744.54</ele><time>2026-08-20T09:43:23Z</time></trkpt><trkpt lat="60.1238377020" lon="30.5225914344"><ele>9739.25</ele><time>2026-08-20T09:43:24Z</time></trkpt><trkpt lat="60.1238382049" lon="30.5225908477"><ele>9733.97</ele><time>2026-08-20T09:43:25Z</time></trkpt><trkpt lat="60.1238386240" lon="30.5225905124"><ele>9728.68</ele><time>2026-08-20T09:43:26Z</time></trkpt><trkpt lat="60.1238386240" lon="30.5225905124"><ele>9723.39</ele><time>2026-08-20T09:43:27Z</time></trkpt><trkpt lat="60.1238398813" lon="30.5225911830"><ele>9717.62</ele><time>2026-08-20T09:43:28Z</time></trkpt><trkpt lat="60.1238403842" lon="30.5225909315"><ele>9712.34</ele><time>2026-08-20T09:43:29Z</time></trkpt><trkpt lat="60.1238402165" lon="30.5225979723"><ele>9707.05</ele><time>2026-08-20T09:43:30Z</time></trkpt><trkpt lat="60.1238408871" lon="30.5225979723"><ele>9701.76</ele><time>2026-08-20T09:43:31Z</time></trkpt><trkpt lat="60.1238424797" lon="30.5226014089"><ele>9696.48</ele><time>2026-08-20T09:43:32Z</time></trkpt><trkpt lat="60.1238412224" lon="30.5225965474"><ele>9691.19</ele><time>2026-08-20T09:43:33Z</time></trkpt><trkpt lat="60.1238414738" lon="30.5225969665"><ele>9685.90</ele><time>2026-08-20T09:43:34Z</time></trkpt><trkpt lat="60.1238417253" lon="30.5225973018"><ele>9680.13</ele><time>2026-08-20T09:43:35Z</time></trkpt><trkpt lat="60.1238387916" lon="30.5225999840"><ele>9674.85</ele><time>2026-08-20T09:43:36Z</time></trkpt><trkpt lat="60.1238377020" lon="30.5226024147"><ele>9669.56</ele><time>2026-08-20T09:43:37Z</time></trkpt><trkpt lat="60.1238383725" lon="30.5226092879"><ele>9664.27</ele><time>2026-08-20T09:43:38Z</time></trkpt><trkpt lat="60.1238392945" lon="30.5226091202"><ele>9658.98</ele><time>2026-08-20T09:43:39Z</time></trkpt><trkpt lat="60.1238468383" lon="30.5226166639"><ele>9653.70</ele><time>2026-08-20T09:43:40Z</time></trkpt><trkpt lat="60.1238578185" lon="30.5226249620"><ele>9648.41</ele><time>2026-08-20T09:43:41Z</time></trkpt><trkpt lat="60.1238694694" lon="30.5226273928"><ele>9643.12</ele><time>2026-08-20T09:43:42Z</time></trkpt><trkpt lat="60.1238796115" lon="30.5226329248"><ele>9637.83</ele><time>2026-08-20T09:43:43Z</time></trkpt><trkpt lat="60.1238879096" lon="30.5226434022"><ele>9632.55</ele><time>2026-08-20T09:43:44Z</time></trkpt><trkpt lat="60.1238989737" lon="30.5226569809"><ele>9627.26</ele><time>2026-08-20T09:43:45Z</time></trkpt><trkpt lat="60.1239094511" lon="30.5226689670"><ele>9621.97</ele><time>2026-08-20T09:43:46Z</time></trkpt><trkpt lat="60.1239180844" lon="30.5226790253"><ele>9616.21</ele><time>2026-08-20T09:43:47Z</time></trkpt><trkpt lat="60.1239256281" lon="30.5226916820"><ele>9610.92</ele><time>2026-08-20T09:43:48Z</time></trkpt><trkpt lat="60.1239307411" lon="30.5227019079"><ele>9605.63</ele><time>2026-08-20T09:43:49Z</time></trkpt><trkpt lat="60.1239383686" lon="30.5227182526"><ele>9600.34</ele><time>2026-08-20T09:43:50Z</time></trkpt><trkpt lat="60.1239454933" lon="30.5227327533"><ele>9595.06</ele><time>2026-08-20T09:43:51Z</time></trkpt><trkpt lat="60.1239502709" lon="30.5227403808"><ele>9589.77</ele><time>2026-08-20T09:43:52Z</time></trkpt><trkpt lat="60.1239518635" lon="30.5227403808"><ele>9584.48</ele><time>2026-08-20T09:43:53Z</time></trkpt><trkpt lat="60.1239524502" lon="30.5227453262"><ele>9579.19</ele><time>2026-08-20T09:43:54Z</time></trkpt><trkpt lat="60.1239528693" lon="30.5227399617"><ele>9573.91</ele><time>2026-08-20T09:43:55Z</time></trkpt><trkpt lat="60.1239525340" lon="30.5227401294"><ele>9568.62</ele><time>2026-08-20T09:43:56Z</time></trkpt><trkpt lat="60.1239558030" lon="30.5227488466"><ele>9563.33</ele><time>2026-08-20T09:43:57Z</time></trkpt><trkpt lat="60.1239599939" lon="30.5227582343"><ele>9558.05</ele><time>2026-08-20T09:43:58Z</time></trkpt><trkpt lat="60.1239630114" lon="30.5227722321"><ele>9552.76</ele><time>2026-08-20T09:43:59Z</time></trkpt><trkpt lat="60.1239655260" lon="30.5227842182"><ele>9547.47</ele><time>2026-08-20T09:44:00Z</time></trkpt><trkpt lat="60.1239683758" lon="30.5227950308"><ele>9542.18</ele><time>2026-08-20T09:44:01Z</time></trkpt><trkpt lat="60.1239717286" lon="30.5227991380"><ele>9536.90</ele><time>2026-08-20T09:44:02Z</time></trkpt><trkpt lat="60.1239732374" lon="30.5228029098"><ele>9532.09</ele><time>2026-08-20T09:44:03Z</time></trkpt><trkpt lat="60.1239770092" lon="30.5228141416"><ele>9526.80</ele><time>2026-08-20T09:44:04Z</time></trkpt><trkpt lat="60.1239807811" lon="30.5228243675"><ele>9521.51</ele><time>2026-08-20T09:44:05Z</time></trkpt><trkpt lat="60.1239863969" lon="30.5228297319"><ele>9516.23</ele><time>2026-08-20T09:44:06Z</time></trkpt><trkpt lat="60.1239916775" lon="30.5228360184"><ele>9510.94</ele><time>2026-08-20T09:44:07Z</time></trkpt><trkpt lat="60.1239976287" lon="30.5228492618"><ele>9505.65</ele><time>2026-08-20T09:44:08Z</time></trkpt><trkpt lat="60.1240042504" lon="30.5228658579"><ele>9500.37</ele><time>2026-08-20T09:44:09Z</time></trkpt><trkpt lat="60.1240087766" lon="30.5228893273"><ele>9495.08</ele><time>2026-08-20T09:44:10Z</time></trkpt><trkpt lat="60.1240118779" lon="30.5229028221"><ele>9489.79</ele><time>2026-08-20T09:44:11Z</time></trkpt><trkpt lat="60.1240124647" lon="30.5229141377"><ele>9484.50</ele><time>2026-08-20T09:44:12Z</time></trkpt><trkpt lat="60.1240152307" lon="30.5229354277"><ele>9479.22</ele><time>2026-08-20T09:44:13Z</time></trkpt><trkpt lat="60.1240190025" lon="30.5229446478"><ele>9473.93</ele><time>2026-08-20T09:44:14Z</time></trkpt><trkpt lat="60.1240236126" lon="30.5229553767"><ele>9468.64</ele><time>2026-08-20T09:44:15Z</time></trkpt><trkpt lat="60.1240291446" lon="30.5229677819"><ele>9463.84</ele><time>2026-08-20T09:44:16Z</time></trkpt><trkpt lat="60.1240361016" lon="30.5229834560"><ele>9458.55</ele><time>2026-08-20T09:44:17Z</time></trkpt><trkpt lat="60.1240412984" lon="30.5229948554"><ele>9453.26</ele><time>2026-08-20T09:44:18Z</time></trkpt><trkpt lat="60.1240442321" lon="30.5230043270"><ele>9447.97</ele><time>2026-08-20T09:44:19Z</time></trkpt><trkpt lat="60.1240454894" lon="30.5230126251"><ele>9442.69</ele><time>2026-08-20T09:44:20Z</time></trkpt><trkpt lat="60.1240452379" lon="30.5230214261"><ele>9437.40</ele><time>2026-08-20T09:44:21Z</time></trkpt><trkpt lat="60.1240439806" lon="30.5230288859"><ele>9432.11</ele><time>2026-08-20T09:44:22Z</time></trkpt><trkpt lat="60.1240458246" lon="30.5230327416"><ele>9427.31</ele><time>2026-08-20T09:44:23Z</time></trkpt><trkpt lat="60.1240469143" lon="30.5230345856"><ele>9422.02</ele><time>2026-08-20T09:44:24Z</time></trkpt><trkpt lat="60.1240480039" lon="30.5230376031"><ele>9416.73</ele><time>2026-08-20T09:44:25Z</time></trkpt><trkpt lat="60.1240488421" lon="30.5230402853"><ele>9411.44</ele><time>2026-08-20T09:44:26Z</time></trkpt><trkpt lat="60.1240510214" lon="30.5230390280"><ele>9406.16</ele><time>2026-08-20T09:44:27Z</time></trkpt><trkpt lat="60.1240497641" lon="30.5230456498"><ele>9400.87</ele><time>2026-08-20T09:44:28Z</time></trkpt><trkpt lat="60.1240512729" lon="30.5230497569"><ele>9396.06</ele><time>2026-08-20T09:44:29Z</time></trkpt><trkpt lat="60.1240522787" lon="30.5230538640"><ele>9390.78</ele><time>2026-08-20T09:44:30Z</time></trkpt><trkpt lat="60.1240589842" lon="30.5230685323"><ele>9385.49</ele><time>2026-08-20T09:44:31Z</time></trkpt><trkpt lat="60.1240648516" lon="30.5230879784"><ele>9380.20</ele><time>2026-08-20T09:44:32Z</time></trkpt><trkpt lat="60.1240712218" lon="30.5231060833"><ele>9374.91</ele><time>2026-08-20T09:44:33Z</time></trkpt><trkpt lat="60.1240731496" lon="30.5231074244"><ele>9370.11</ele><time>2026-08-20T09:44:34Z</time></trkpt><trkpt lat="60.1240759157" lon="30.5231084302"><ele>9364.82</ele><time>2026-08-20T09:44:35Z</time></trkpt><trkpt lat="60.1240814477" lon="30.5231294688"><ele>9359.53</ele><time>2026-08-20T09:44:36Z</time></trkpt><trkpt lat="60.1240888238" lon="30.5231469031"><ele>9354.25</ele><time>2026-08-20T09:44:37Z</time></trkpt><trkpt lat="60.1240954455" lon="30.5231622420"><ele>9349.44</ele><time>2026-08-20T09:44:38Z</time></trkpt><trkpt lat="60.1240977086" lon="30.5231920816"><ele>9344.15</ele><time>2026-08-20T09:44:39Z</time></trkpt><trkpt lat="60.1240993012" lon="30.5232137907"><ele>9338.86</ele><time>2026-08-20T09:44:40Z</time></trkpt><trkpt lat="60.1241011452" lon="30.5232355837"><ele>9333.58</ele><time>2026-08-20T09:44:41Z</time></trkpt><trkpt lat="60.1241041627" lon="30.5232596397"><ele>9328.77</ele><time>2026-08-20T09:44:42Z</time></trkpt><trkpt lat="60.1241077669" lon="30.5232812651"><ele>9323.48</ele><time>2026-08-20T09:44:43Z</time></trkpt><trkpt lat="60.1241097786" lon="30.5232976936"><ele>9318.20</ele><time>2026-08-20T09:44:44Z</time></trkpt><trkpt lat="60.1241097786" lon="30.5233097635"><ele>9312.91</ele><time>2026-08-20T09:44:45Z</time></trkpt><trkpt lat="60.1241096109" lon="30.5233223364"><ele>9308.10</ele><time>2026-08-20T09:44:46Z</time></trkpt><trkpt lat="60.1241112035" lon="30.5233281199"><ele>9302.82</ele><time>2026-08-20T09:44:47Z</time></trkpt><trkpt lat="60.1241093595" lon="30.5233320594"><ele>9297.53</ele><time>2026-08-20T09:44:48Z</time></trkpt><trkpt lat="60.1241137180" lon="30.5233393516"><ele>9292.72</ele><time>2026-08-20T09:44:49Z</time></trkpt><trkpt lat="60.1241141371" lon="30.5233441293"><ele>9287.43</ele><time>2026-08-20T09:44:50Z</time></trkpt><trkpt lat="60.1241153944" lon="30.5233487394"><ele>9282.15</ele><time>2026-08-20T09:44:51Z</time></trkpt><trkpt lat="60.1241167355" lon="30.5233540200"><ele>9277.34</ele><time>2026-08-20T09:44:52Z</time></trkpt><trkpt lat="60.1241190825" lon="30.5233582947"><ele>9272.05</ele><time>2026-08-20T09:44:53Z</time></trkpt><trkpt lat="60.1241214294" lon="30.5233589653"><ele>9266.77</ele><time>2026-08-20T09:44:54Z</time></trkpt><trkpt lat="60.1241228543" lon="30.5233691912"><ele>9261.96</ele><time>2026-08-20T09:44:55Z</time></trkpt><trkpt lat="60.1241279673" lon="30.5233919900"><ele>9256.67</ele><time>2026-08-20T09:44:56Z</time></trkpt><trkpt lat="60.1241312362" lon="30.5234102625"><ele>9251.38</ele><time>2026-08-20T09:44:57Z</time></trkpt><trkpt lat="60.1241344213" lon="30.5234304629"><ele>9246.58</ele><time>2026-08-20T09:44:58Z</time></trkpt><trkpt lat="60.1241379417" lon="30.5234566983"><ele>9241.29</ele><time>2026-08-20T09:44:59Z</time></trkpt><trkpt lat="60.1241373550" lon="30.5234688520"><ele>9236.00</ele><time>2026-08-20T09:45:00Z</time></trkpt><trkpt lat="60.1241369359" lon="30.5234774016"><ele>9231.20</ele><time>2026-08-20T09:45:01Z</time></trkpt><trkpt lat="60.1241378579" lon="30.5234892201"><ele>9225.91</ele><time>2026-08-20T09:45:02Z</time></trkpt><trkpt lat="60.1241391990" lon="30.5234913155"><ele>9221.10</ele><time>2026-08-20T09:45:03Z</time></trkpt><trkpt lat="60.1241394505" lon="30.5234949198"><ele>9215.82</ele><time>2026-08-20T09:45:04Z</time></trkpt><trkpt lat="60.1241389476" lon="30.5235008709"><ele>9210.53</ele><time>2026-08-20T09:45:05Z</time></trkpt><trkpt lat="60.1241372712" lon="30.5235082470"><ele>9205.72</ele><time>2026-08-20T09:45:06Z</time></trkpt><trkpt lat="60.1241359301" lon="30.5235151201"><ele>9200.43</ele><time>2026-08-20T09:45:07Z</time></trkpt><trkpt lat="60.1241349243" lon="30.5235217419"><ele>9195.63</ele><time>2026-08-20T09:45:08Z</time></trkpt><trkpt lat="60.1241325773" lon="30.5235292017"><ele>9190.34</ele><time>2026-08-20T09:45:09Z</time></trkpt><trkpt lat="60.1241319906" lon="30.5235369969"><ele>9185.05</ele><time>2026-08-20T09:45:10Z</time></trkpt><trkpt lat="60.1241310686" lon="30.5235466361"><ele>9180.25</ele><time>2026-08-20T09:45:11Z</time></trkpt><trkpt lat="60.1241382770" lon="30.5235610530"><ele>9174.96</ele><time>2026-08-20T09:45:12Z</time></trkpt><trkpt lat="60.1241459046" lon="30.5235616397"><ele>9170.15</ele><time>2026-08-20T09:45:13Z</time></trkpt><trkpt lat="60.1241425518" lon="30.5235784873"><ele>9164.87</ele><time>2026-08-20T09:45:14Z</time></trkpt><trkpt lat="60.1241428871" lon="30.5235893838"><ele>9160.06</ele><time>2026-08-20T09:45:15Z</time></trkpt><trkpt lat="60.1241449825" lon="30.5235981010"><ele>9154.77</ele><time>2026-08-20T09:45:16Z</time></trkpt><trkpt lat="60.1241504308" lon="30.5237242486"><ele>9149.96</ele><time>2026-08-20T09:45:20Z</time></trkpt><trkpt lat="60.1241649315" lon="30.5237834249"><ele>9139.87</ele><time>2026-08-20T09:45:22Z</time></trkpt><trkpt lat="60.1241723076" lon="30.5237990152"><ele>9134.58</ele><time>2026-08-20T09:45:23Z</time></trkpt><trkpt lat="60.1241764147" lon="30.5238143541"><ele>9129.78</ele><time>2026-08-20T09:45:24Z</time></trkpt><trkpt lat="60.1241766661" lon="30.5238292739"><ele>9124.49</ele><time>2026-08-20T09:45:25Z</time></trkpt><trkpt lat="60.1241791807" lon="30.5238432717"><ele>9119.68</ele><time>2026-08-20T09:45:26Z</time></trkpt><trkpt lat="60.1241780072" lon="30.5238671601"><ele>9114.40</ele><time>2026-08-20T09:45:29Z</time></trkpt><trkpt lat="60.1241782587" lon="30.5238818284"><ele>9109.59</ele><time>2026-08-20T09:45:30Z</time></trkpt><trkpt lat="60.1241775043" lon="30.5238981731"><ele>9104.30</ele><time>2026-08-20T09:45:31Z</time></trkpt><trkpt lat="60.1241780911" lon="30.5239095725"><ele>9099.50</ele><time>2026-08-20T09:45:32Z</time></trkpt><trkpt lat="60.1241832878" lon="30.5239219777"><ele>9094.21</ele><time>2026-08-20T09:45:33Z</time></trkpt><trkpt lat="60.1241927594" lon="30.5239367299"><ele>9089.40</ele><time>2026-08-20T09:45:34Z</time></trkpt><trkpt lat="60.1242013928" lon="30.5239731912"><ele>9084.12</ele><time>2026-08-20T09:45:37Z</time></trkpt><trkpt lat="60.1242022309" lon="30.5239771307"><ele>9079.31</ele><time>2026-08-20T09:45:38Z</time></trkpt><trkpt lat="60.1242016442" lon="30.5240017734"><ele>9074.02</ele><time>2026-08-20T09:45:39Z</time></trkpt><trkpt lat="60.1242028177" lon="30.5240045395"><ele>9069.21</ele><time>2026-08-20T09:45:40Z</time></trkpt><trkpt lat="60.1241964474" lon="30.5240119994"><ele>9063.93</ele><time>2026-08-20T09:45:41Z</time></trkpt><trkpt lat="60.1241936814" lon="30.5240124185"><ele>9059.12</ele><time>2026-08-20T09:45:42Z</time></trkpt><trkpt lat="60.1241933461" lon="30.5240185373"><ele>9054.31</ele><time>2026-08-20T09:45:43Z</time></trkpt><trkpt lat="60.1241929270" lon="30.5240206327"><ele>9049.03</ele><time>2026-08-20T09:45:44Z</time></trkpt><trkpt lat="60.1241949387" lon="30.5240186211"><ele>9044.22</ele><time>2026-08-20T09:45:45Z</time></trkpt><trkpt lat="60.1241957769" lon="30.5240202975"><ele>9038.93</ele><time>2026-08-20T09:45:46Z</time></trkpt><trkpt lat="60.1241970342" lon="30.5240213871"><ele>9034.13</ele><time>2026-08-20T09:45:47Z</time></trkpt><trkpt lat="60.1241995487" lon="30.5240192916"><ele>9029.32</ele><time>2026-08-20T09:45:48Z</time></trkpt><trkpt lat="60.1242021471" lon="30.5240191240"><ele>9024.03</ele><time>2026-08-20T09:45:49Z</time></trkpt><trkpt lat="60.1242040750" lon="30.5240183696"><ele>9019.23</ele><time>2026-08-20T09:45:50Z</time></trkpt><trkpt lat="60.1242054999" lon="30.5240183696"><ele>9014.42</ele><time>2026-08-20T09:45:51Z</time></trkpt><trkpt lat="60.1242073439" lon="30.5240184534"><ele>9009.13</ele><time>2026-08-20T09:45:52Z</time></trkpt><trkpt lat="60.1242088526" lon="30.5240154359"><ele>9004.33</ele><time>2026-08-20T09:45:53Z</time></trkpt><trkpt lat="60.1242086012" lon="30.5240144301"><ele>8999.04</ele><time>2026-08-20T09:45:54Z</time></trkpt><trkpt lat="60.1242124569" lon="30.5240183696"><ele>8994.23</ele><time>2026-08-20T09:45:55Z</time></trkpt><trkpt lat="60.1242158096" lon="30.5240188725"><ele>8989.43</ele><time>2026-08-20T09:45:56Z</time></trkpt><trkpt lat="60.1242153067" lon="30.5240194593"><ele>8984.14</ele><time>2026-08-20T09:45:57Z</time></trkpt><trkpt lat="60.1242143009" lon="30.5240206327"><ele>8979.33</ele><time>2026-08-20T09:45:58Z</time></trkpt><trkpt lat="60.1242131274" lon="30.5240226444"><ele>8974.53</ele><time>2026-08-20T09:45:59Z</time></trkpt><trkpt lat="60.1242147200" lon="30.5240254104"><ele>8969.24</ele><time>2026-08-20T09:46:00Z</time></trkpt><trkpt lat="60.1242116187" lon="30.5240258295"><ele>8964.43</ele><time>2026-08-20T09:46:01Z</time></trkpt><trkpt lat="60.1242108643" lon="30.5240275059"><ele>8959.62</ele><time>2026-08-20T09:46:02Z</time></trkpt><trkpt lat="60.1242107805" lon="30.5240277573"><ele>8954.82</ele><time>2026-08-20T09:46:03Z</time></trkpt><trkpt lat="60.1242108643" lon="30.5240277573"><ele>8949.53</ele><time>2026-08-20T09:46:04Z</time></trkpt><trkpt lat="60.1242107805" lon="30.5240286794"><ele>8944.72</ele><time>2026-08-20T09:46:05Z</time></trkpt><trkpt lat="60.1242106128" lon="30.5240291823"><ele>8939.92</ele><time>2026-08-20T09:46:06Z</time></trkpt><trkpt lat="60.1242109481" lon="30.5240296852"><ele>8934.63</ele><time>2026-08-20T09:46:07Z</time></trkpt><trkpt lat="60.1242115349" lon="30.5240324512"><ele>8929.82</ele><time>2026-08-20T09:46:08Z</time></trkpt><trkpt lat="60.1242133789" lon="30.5240376480"><ele>8925.02</ele><time>2026-08-20T09:46:09Z</time></trkpt><trkpt lat="60.1242144685" lon="30.5240468681"><ele>8920.21</ele><time>2026-08-20T09:46:10Z</time></trkpt><trkpt lat="60.1242133789" lon="30.5240487121"><ele>8914.92</ele><time>2026-08-20T09:46:11Z</time></trkpt><trkpt lat="60.1242145523" lon="30.5240591057"><ele>8910.12</ele><time>2026-08-20T09:46:12Z</time></trkpt><trkpt lat="60.1242149714" lon="30.5240654759"><ele>8905.31</ele><time>2026-08-20T09:46:13Z</time></trkpt><trkpt lat="60.1242174860" lon="30.5240660626"><ele>8900.50</ele><time>2026-08-20T09:46:14Z</time></trkpt><trkpt lat="60.1242149714" lon="30.5240715109"><ele>8895.22</ele><time>2026-08-20T09:46:15Z</time></trkpt><trkpt lat="60.1242160611" lon="30.5240752827"><ele>8890.41</ele><time>2026-08-20T09:46:16Z</time></trkpt><trkpt lat="60.1242158096" lon="30.5240797251"><ele>8885.60</ele><time>2026-08-20T09:46:17Z</time></trkpt><trkpt lat="60.1242155582" lon="30.5240821559"><ele>8880.80</ele><time>2026-08-20T09:46:18Z</time></trkpt><trkpt lat="60.1242168155" lon="30.5241257418"><ele>8870.70</ele><time>2026-08-20T09:46:20Z</time></trkpt><trkpt lat="60.1242153067" lon="30.5241499655"><ele>8865.90</ele><time>2026-08-20T09:46:21Z</time></trkpt><trkpt lat="60.1242135465" lon="30.5241680704"><ele>8861.09</ele><time>2026-08-20T09:46:22Z</time></trkpt><trkpt lat="60.1242137142" lon="30.5241780449"><ele>8856.28</ele><time>2026-08-20T09:46:23Z</time></trkpt><trkpt lat="60.1242091879" lon="30.5241839960"><ele>8851.48</ele><time>2026-08-20T09:46:24Z</time></trkpt><trkpt lat="60.1242071763" lon="30.5241886899"><ele>8846.19</ele><time>2026-08-20T09:46:25Z</time></trkpt><trkpt lat="60.1242052484" lon="30.5241929647"><ele>8841.38</ele><time>2026-08-20T09:46:26Z</time></trkpt><trkpt lat="60.1242039911" lon="30.5241964851"><ele>8836.58</ele><time>2026-08-20T09:46:27Z</time></trkpt><trkpt lat="60.1242034044" lon="30.5242099799"><ele>8831.77</ele><time>2026-08-20T09:46:28Z</time></trkpt><trkpt lat="60.1242004707" lon="30.5242026038"><ele>8826.96</ele><time>2026-08-20T09:46:29Z</time></trkpt><trkpt lat="60.1241982915" lon="30.5242057052"><ele>8822.16</ele><time>2026-08-20T09:46:30Z</time></trkpt><trkpt lat="60.1241956931" lon="30.5242091417"><ele>8817.35</ele><time>2026-08-20T09:46:31Z</time></trkpt><trkpt lat="60.1241954416" lon="30.5242100637"><ele>8812.06</ele><time>2026-08-20T09:46:32Z</time></trkpt><trkpt lat="60.1241930109" lon="30.5242127459"><ele>8807.26</ele><time>2026-08-20T09:46:33Z</time></trkpt><trkpt lat="60.1241920050" lon="30.5242134165"><ele>8802.45</ele><time>2026-08-20T09:46:34Z</time></trkpt><trkpt lat="60.1241909992" lon="30.5242142547"><ele>8797.64</ele><time>2026-08-20T09:46:35Z</time></trkpt><trkpt lat="60.1241907477" lon="30.5242153443"><ele>8792.84</ele><time>2026-08-20T09:46:36Z</time></trkpt><trkpt lat="60.1241904125" lon="30.5242172722"><ele>8788.03</ele><time>2026-08-20T09:46:37Z</time></trkpt><trkpt lat="60.1241853833" lon="30.5242201220"><ele>8783.22</ele><time>2026-08-20T09:46:38Z</time></trkpt><trkpt lat="60.1241806895" lon="30.5242207088"><ele>8778.42</ele><time>2026-08-20T09:46:39Z</time></trkpt><trkpt lat="60.1241759956" lon="30.5242226366"><ele>8773.61</ele><time>2026-08-20T09:46:40Z</time></trkpt><trkpt lat="60.1241741516" lon="30.5242248997"><ele>8768.32</ele><time>2026-08-20T09:46:41Z</time></trkpt><trkpt lat="60.1241702959" lon="30.5242378078"><ele>8763.52</ele><time>2026-08-20T09:46:42Z</time></trkpt><trkpt lat="60.1241483353" lon="30.5242613610"><ele>8758.71</ele><time>2026-08-20T09:46:43Z</time></trkpt><trkpt lat="60.1241470780" lon="30.5242848303"><ele>8753.90</ele><time>2026-08-20T09:46:44Z</time></trkpt><trkpt lat="60.1241419651" lon="30.5243001692"><ele>8749.10</ele><time>2026-08-20T09:46:45Z</time></trkpt><trkpt lat="60.1241085213" lon="30.5243329424"><ele>8744.29</ele><time>2026-08-20T09:46:46Z</time></trkpt><trkpt lat="60.1240981277" lon="30.5243523046"><ele>8739.48</ele><time>2026-08-20T09:46:47Z</time></trkpt><trkpt lat="60.1240914222" lon="30.5243696552"><ele>8734.68</ele><time>2026-08-20T09:46:48Z</time></trkpt><trkpt lat="60.1240848005" lon="30.5243845750"><ele>8729.87</ele><time>2026-08-20T09:46:49Z</time></trkpt><trkpt lat="60.1240775082" lon="30.5244032666"><ele>8725.06</ele><time>2026-08-20T09:46:50Z</time></trkpt><trkpt lat="60.1240712218" lon="30.5244205333"><ele>8720.26</ele><time>2026-08-20T09:46:51Z</time></trkpt><trkpt lat="60.1240711380" lon="30.5244313460"><ele>8715.45</ele><time>2026-08-20T09:46:52Z</time></trkpt><trkpt lat="60.1240687072" lon="30.5244281609"><ele>8710.64</ele><time>2026-08-20T09:46:53Z</time></trkpt><trkpt lat="60.1240649354" lon="30.5244389735"><ele>8705.84</ele><time>2026-08-20T09:46:54Z</time></trkpt><trkpt lat="60.1240524463" lon="30.5244549830"><ele>8701.03</ele><time>2026-08-20T09:46:55Z</time></trkpt><trkpt lat="60.1240449864" lon="30.5244597606"><ele>8696.22</ele><time>2026-08-20T09:46:56Z</time></trkpt><trkpt lat="60.1240370236" lon="30.5244687293"><ele>8691.42</ele><time>2026-08-20T09:46:57Z</time></trkpt><trkpt lat="60.1240227744" lon="30.5244937073"><ele>8686.61</ele><time>2026-08-20T09:46:58Z</time></trkpt><trkpt lat="60.1240218524" lon="30.5245123152"><ele>8681.80</ele><time>2026-08-20T09:46:59Z</time></trkpt><trkpt lat="60.1240216009" lon="30.5245281570"><ele>8677.00</ele><time>2026-08-20T09:47:00Z</time></trkpt><trkpt lat="60.1240131352" lon="30.5245222896"><ele>8672.19</ele><time>2026-08-20T09:47:01Z</time></trkpt><trkpt lat="60.1240076870" lon="30.5245221220"><ele>8667.38</ele><time>2026-08-20T09:47:02Z</time></trkpt><trkpt lat="60.1240077708" lon="30.5245237984"><ele>8662.58</ele><time>2026-08-20T09:47:03Z</time></trkpt><trkpt lat="60.1240050048" lon="30.5245253071"><ele>8657.77</ele><time>2026-08-20T09:47:04Z</time></trkpt><trkpt lat="60.1240078546" lon="30.5245265644"><ele>8652.96</ele><time>2026-08-20T09:47:05Z</time></trkpt><trkpt lat="60.1240076870" lon="30.5245295819"><ele>8648.16</ele><time>2026-08-20T09:47:06Z</time></trkpt><trkpt lat="60.1240074355" lon="30.5245335214"><ele>8643.35</ele><time>2026-08-20T09:47:07Z</time></trkpt><trkpt lat="60.1240069326" lon="30.5245349463"><ele>8638.54</ele><time>2026-08-20T09:47:08Z</time></trkpt><trkpt lat="60.1240060106" lon="30.5245371256"><ele>8633.74</ele><time>2026-08-20T09:47:09Z</time></trkpt><trkpt lat="60.1240050048" lon="30.5245387182"><ele>8628.93</ele><time>2026-08-20T09:47:10Z</time></trkpt><trkpt lat="60.1240019035" lon="30.5245416518"><ele>8624.61</ele><time>2026-08-20T09:47:11Z</time></trkpt><trkpt lat="60.1239990536" lon="30.5245448370"><ele>8619.80</ele><time>2026-08-20T09:47:12Z</time></trkpt><trkpt lat="60.1239972096" lon="30.5245481059"><ele>8614.99</ele><time>2026-08-20T09:47:13Z</time></trkpt><trkpt lat="60.1239949465" lon="30.5245490279"><ele>8610.19</ele><time>2026-08-20T09:47:14Z</time></trkpt><trkpt lat="60.1239957009" lon="30.5245519616"><ele>8605.38</ele><time>2026-08-20T09:47:15Z</time></trkpt><trkpt lat="60.1239910908" lon="30.5245626066"><ele>8600.57</ele><time>2026-08-20T09:47:16Z</time></trkpt><trkpt lat="60.1239900012" lon="30.5245651212"><ele>8595.77</ele><time>2026-08-20T09:47:17Z</time></trkpt><trkpt lat="60.1239884924" lon="30.5245663784"><ele>8590.96</ele><time>2026-08-20T09:47:18Z</time></trkpt><trkpt lat="60.1239872351" lon="30.5245683063"><ele>8586.15</ele><time>2026-08-20T09:47:19Z</time></trkpt><trkpt lat="60.1239854749" lon="30.5245736707"><ele>8581.83</ele><time>2026-08-20T09:47:20Z</time></trkpt><trkpt lat="60.1239813678" lon="30.5245876685"><ele>8577.02</ele><time>2026-08-20T09:47:21Z</time></trkpt><trkpt lat="60.1239749976" lon="30.5246025044"><ele>8572.21</ele><time>2026-08-20T09:47:22Z</time></trkpt><trkpt lat="60.1239683758" lon="30.5246165022"><ele>8567.41</ele><time>2026-08-20T09:47:23Z</time></trkpt><trkpt lat="60.1239632629" lon="30.5246279854"><ele>8562.60</ele><time>2026-08-20T09:47:24Z</time></trkpt><trkpt lat="60.1239553839" lon="30.5246428214"><ele>8557.79</ele><time>2026-08-20T09:47:25Z</time></trkpt><trkpt lat="60.1239474211" lon="30.5246536341"><ele>8552.99</ele><time>2026-08-20T09:47:26Z</time></trkpt><trkpt lat="60.1239361055" lon="30.5246740021"><ele>8548.66</ele><time>2026-08-20T09:47:27Z</time></trkpt><trkpt lat="60.1239273045" lon="30.5246920232"><ele>8543.85</ele><time>2026-08-20T09:47:28Z</time></trkpt><trkpt lat="60.1239235327" lon="30.5247198511"><ele>8539.05</ele><time>2026-08-20T09:47:29Z</time></trkpt><trkpt lat="60.1239180006" lon="30.5247469246"><ele>8534.24</ele><time>2026-08-20T09:47:30Z</time></trkpt><trkpt lat="60.1239102893" lon="30.5247708131"><ele>8529.43</ele><time>2026-08-20T09:47:31Z</time></trkpt><trkpt lat="60.1239048410" lon="30.5247890018"><ele>8524.63</ele><time>2026-08-20T09:47:32Z</time></trkpt><trkpt lat="60.1238882449" lon="30.5248268042"><ele>8520.30</ele><time>2026-08-20T09:47:33Z</time></trkpt><trkpt lat="60.1238866523" lon="30.5248315819"><ele>8515.50</ele><time>2026-08-20T09:47:34Z</time></trkpt><trkpt lat="60.1238610037" lon="30.5248793587"><ele>8510.69</ele><time>2026-08-20T09:47:35Z</time></trkpt><trkpt lat="60.1238546334" lon="30.5248988047"><ele>8505.88</ele><time>2026-08-20T09:47:36Z</time></trkpt><trkpt lat="60.1238332596" lon="30.5249262135"><ele>8501.56</ele><time>2026-08-20T09:47:37Z</time></trkpt><trkpt lat="60.1238123048" lon="30.5249543767"><ele>8496.75</ele><time>2026-08-20T09:47:38Z</time></trkpt><trkpt lat="60.1237900928" lon="30.5249823723"><ele>8491.94</ele><time>2026-08-20T09:47:39Z</time></trkpt><trkpt lat="60.1237719879" lon="30.5250111222"><ele>8487.14</ele><time>2026-08-20T09:47:40Z</time></trkpt><trkpt lat="60.1237619296" lon="30.5250406265"><ele>8482.33</ele><time>2026-08-20T09:47:41Z</time></trkpt><trkpt lat="60.1237528771" lon="30.5250792671"><ele>8478.00</ele><time>2026-08-20T09:47:42Z</time></trkpt><trkpt lat="60.1237527933" lon="30.5250951927"><ele>8473.20</ele><time>2026-08-20T09:47:43Z</time></trkpt><trkpt lat="60.1237387955" lon="30.5251084361"><ele>8468.39</ele><time>2026-08-20T09:47:44Z</time></trkpt><trkpt lat="60.1237305813" lon="30.5251262896"><ele>8464.07</ele><time>2026-08-20T09:47:45Z</time></trkpt><trkpt lat="60.1237223670" lon="30.5251443945"><ele>8459.26</ele><time>2026-08-20T09:47:46Z</time></trkpt><trkpt lat="60.1237154938" lon="30.5251623318"><ele>8454.45</ele><time>2026-08-20T09:47:47Z</time></trkpt><trkpt lat="60.1237056032" lon="30.5251814425"><ele>8449.64</ele><time>2026-08-20T09:47:48Z</time></trkpt><trkpt lat="60.1236972213" lon="30.5251972843"><ele>8445.32</ele><time>2026-08-20T09:47:49Z</time></trkpt><trkpt lat="60.1236983947" lon="30.5252142157"><ele>8440.51</ele><time>2026-08-20T09:47:50Z</time></trkpt><trkpt lat="60.1237028372" lon="30.5252224300"><ele>8435.71</ele><time>2026-08-20T09:47:51Z</time></trkpt><trkpt lat="60.1236952096" lon="30.5252308119"><ele>8431.38</ele><time>2026-08-20T09:47:52Z</time></trkpt><trkpt lat="60.1236904319" lon="30.5252471566"><ele>8426.57</ele><time>2026-08-20T09:47:53Z</time></trkpt><trkpt lat="60.1236863248" lon="30.5252630822"><ele>8421.77</ele><time>2026-08-20T09:47:54Z</time></trkpt><trkpt lat="60.1236847322" lon="30.5252664350"><ele>8417.44</ele><time>2026-08-20T09:47:55Z</time></trkpt><trkpt lat="60.1236758474" lon="30.5252824444"><ele>8412.63</ele><time>2026-08-20T09:47:56Z</time></trkpt><trkpt lat="60.1236733329" lon="30.5252909940"><ele>8407.83</ele><time>2026-08-20T09:47:57Z</time></trkpt><trkpt lat="60.1236725785" lon="30.5252976995"><ele>8403.50</ele><time>2026-08-20T09:47:58Z</time></trkpt><trkpt lat="60.1236750092" lon="30.5252963584"><ele>8398.70</ele><time>2026-08-20T09:47:59Z</time></trkpt><trkpt lat="60.1236713212" lon="30.5252995435"><ele>8393.89</ele><time>2026-08-20T09:48:00Z</time></trkpt><trkpt lat="60.1236707345" lon="30.5253007170"><ele>8389.56</ele><time>2026-08-20T09:48:01Z</time></trkpt><trkpt lat="60.1236696448" lon="30.5253036506"><ele>8384.76</ele><time>2026-08-20T09:48:02Z</time></trkpt><trkpt lat="60.1236655377" lon="30.5253126193"><ele>8379.95</ele><time>2026-08-20T09:48:03Z</time></trkpt><trkpt lat="60.1236621849" lon="30.5253186543"><ele>8375.62</ele><time>2026-08-20T09:48:04Z</time></trkpt><trkpt lat="60.1236576587" lon="30.5253376812"><ele>8370.82</ele><time>2026-08-20T09:48:05Z</time></trkpt><trkpt lat="60.1236512046" lon="30.5253503378"><ele>8366.01</ele><time>2026-08-20T09:48:06Z</time></trkpt><trkpt lat="60.1236486901" lon="30.5253548641"><ele>8361.68</ele><time>2026-08-20T09:48:07Z</time></trkpt><trkpt lat="60.1236470975" lon="30.5253525171"><ele>8356.88</ele><time>2026-08-20T09:48:08Z</time></trkpt><trkpt lat="60.1236457564" lon="30.5253659282"><ele>8352.55</ele><time>2026-08-20T09:48:09Z</time></trkpt><trkpt lat="60.1236447506" lon="30.5253699515"><ele>8347.75</ele><time>2026-08-20T09:48:10Z</time></trkpt><trkpt lat="60.1236368716" lon="30.5253799260"><ele>8342.94</ele><time>2026-08-20T09:48:11Z</time></trkpt><trkpt lat="60.1236328483" lon="30.5253868829"><ele>8338.61</ele><time>2026-08-20T09:48:12Z</time></trkpt><trkpt lat="60.1236290764" lon="30.5253956001"><ele>8333.81</ele><time>2026-08-20T09:48:13Z</time></trkpt><trkpt lat="60.1236272324" lon="30.5254014675"><ele>8329.48</ele><time>2026-08-20T09:48:14Z</time></trkpt><trkpt lat="60.1236258913" lon="30.5254059937"><ele>8324.67</ele><time>2026-08-20T09:48:15Z</time></trkpt><trkpt lat="60.1236256398" lon="30.5254080892"><ele>8320.35</ele><time>2026-08-20T09:48:16Z</time></trkpt><trkpt lat="60.1236253045" lon="30.5254090112"><ele>8315.54</ele><time>2026-08-20T09:48:17Z</time></trkpt><trkpt lat="60.1236253884" lon="30.5254096817"><ele>8310.73</ele><time>2026-08-20T09:48:18Z</time></trkpt><trkpt lat="60.1236247178" lon="30.5254095141"><ele>8306.41</ele><time>2026-08-20T09:48:19Z</time></trkpt><trkpt lat="60.1236240473" lon="30.5254085921"><ele>8301.60</ele><time>2026-08-20T09:48:20Z</time></trkpt><trkpt lat="60.1236219518" lon="30.5254194047"><ele>8297.28</ele><time>2026-08-20T09:48:21Z</time></trkpt><trkpt lat="60.1236201916" lon="30.5254166387"><ele>8292.47</ele><time>2026-08-20T09:48:22Z</time></trkpt><trkpt lat="60.1236190181" lon="30.5254176445"><ele>8288.14</ele><time>2026-08-20T09:48:23Z</time></trkpt><trkpt lat="60.1236181799" lon="30.5254168902"><ele>8283.34</ele><time>2026-08-20T09:48:24Z</time></trkpt><trkpt lat="60.1236157492" lon="30.5254201591"><ele>8279.01</ele><time>2026-08-20T09:48:25Z</time></trkpt><trkpt lat="60.1236182638" lon="30.5254272837"><ele>8274.21</ele><time>2026-08-20T09:48:26Z</time></trkpt><trkpt lat="60.1236132346" lon="30.5254264455"><ele>8269.88</ele><time>2026-08-20T09:48:27Z</time></trkpt><trkpt lat="60.1236142404" lon="30.5254345760"><ele>8265.07</ele><time>2026-08-20T09:48:28Z</time></trkpt><trkpt lat="60.1236100495" lon="30.5254343245"><ele>8260.75</ele><time>2026-08-20T09:48:29Z</time></trkpt><trkpt lat="60.1236096304" lon="30.5254433770"><ele>8255.94</ele><time>2026-08-20T09:48:30Z</time></trkpt><trkpt lat="60.1236017514" lon="30.5254445504"><ele>8251.61</ele><time>2026-08-20T09:48:31Z</time></trkpt><trkpt lat="60.1235973090" lon="30.5254590511"><ele>8246.81</ele><time>2026-08-20T09:48:32Z</time></trkpt><trkpt lat="60.1235942077" lon="30.5254710373"><ele>8242.48</ele><time>2026-08-20T09:48:33Z</time></trkpt><trkpt lat="60.1235928666" lon="30.5254834425"><ele>8237.67</ele><time>2026-08-20T09:48:34Z</time></trkpt><trkpt lat="60.1235926151" lon="30.5254969373"><ele>8233.35</ele><time>2026-08-20T09:48:35Z</time></trkpt><trkpt lat="60.1235922799" lon="30.5255095940"><ele>8229.02</ele><time>2026-08-20T09:48:36Z</time></trkpt><trkpt lat="60.1235890947" lon="30.5255294591"><ele>8224.22</ele><time>2026-08-20T09:48:37Z</time></trkpt><trkpt lat="60.1235905197" lon="30.5255439598"><ele>8219.89</ele><time>2026-08-20T09:48:38Z</time></trkpt><trkpt lat="60.1235891785" lon="30.5255473126"><ele>8215.08</ele><time>2026-08-20T09:48:39Z</time></trkpt><trkpt lat="60.1235916931" lon="30.5255496595"><ele>8210.76</ele><time>2026-08-20T09:48:40Z</time></trkpt><trkpt lat="60.1235921122" lon="30.5255498271"><ele>8205.95</ele><time>2026-08-20T09:48:41Z</time></trkpt><trkpt lat="60.1235869993" lon="30.5255566165"><ele>8201.62</ele><time>2026-08-20T09:48:42Z</time></trkpt><trkpt lat="60.1235844847" lon="30.5255559459"><ele>8197.30</ele><time>2026-08-20T09:48:43Z</time></trkpt><trkpt lat="60.1235873345" lon="30.5255572032"><ele>8192.49</ele><time>2026-08-20T09:48:44Z</time></trkpt><trkpt lat="60.1235875022" lon="30.5255572870"><ele>8188.17</ele><time>2026-08-20T09:48:45Z</time></trkpt><trkpt lat="60.1235874183" lon="30.5255572032"><ele>8183.36</ele><time>2026-08-20T09:48:46Z</time></trkpt><trkpt lat="60.1235872507" lon="30.5255571194"><ele>8179.03</ele><time>2026-08-20T09:48:47Z</time></trkpt><trkpt lat="60.1235867478" lon="30.5255569518"><ele>8174.71</ele><time>2026-08-20T09:48:48Z</time></trkpt><trkpt lat="60.1235823054" lon="30.5255630706"><ele>8169.90</ele><time>2026-08-20T09:48:49Z</time></trkpt><trkpt lat="60.1235820539" lon="30.5255638249"><ele>8165.58</ele><time>2026-08-20T09:48:50Z</time></trkpt><trkpt lat="60.1235747617" lon="30.5255789962"><ele>8160.77</ele><time>2026-08-20T09:48:51Z</time></trkpt><trkpt lat="60.1235657930" lon="30.5255994480"><ele>8156.44</ele><time>2026-08-20T09:48:52Z</time></trkpt><trkpt lat="60.1235596742" lon="30.5256120209"><ele>8152.12</ele><time>2026-08-20T09:48:53Z</time></trkpt><trkpt lat="60.1235541422" lon="30.5256241746"><ele>8147.31</ele><time>2026-08-20T09:48:54Z</time></trkpt><trkpt lat="60.1235457603" lon="30.5256317183"><ele>8142.99</ele><time>2026-08-20T09:48:55Z</time></trkpt><trkpt lat="60.1235392224" lon="30.5256379209"><ele>8138.66</ele><time>2026-08-20T09:48:56Z</time></trkpt><trkpt lat="60.1235329360" lon="30.5256449617"><ele>8133.85</ele><time>2026-08-20T09:48:57Z</time></trkpt><trkpt lat="60.1235279068" lon="30.5256521702"><ele>8129.53</ele><time>2026-08-20T09:48:58Z</time></trkpt><trkpt lat="60.1235247217" lon="30.5256572831"><ele>8125.20</ele><time>2026-08-20T09:48:59Z</time></trkpt><trkpt lat="60.1235274039" lon="30.5256585404"><ele>8120.39</ele><time>2026-08-20T09:49:00Z</time></trkpt><trkpt lat="60.1235227939" lon="30.5256626476"><ele>8116.07</ele><time>2026-08-20T09:49:01Z</time></trkpt><trkpt lat="60.1235217880" lon="30.5256727058"><ele>8111.74</ele><time>2026-08-20T09:49:02Z</time></trkpt><trkpt lat="60.1235206146" lon="30.5256825965"><ele>8106.94</ele><time>2026-08-20T09:49:03Z</time></trkpt><trkpt lat="60.1235180162" lon="30.5256874580"><ele>8102.61</ele><time>2026-08-20T09:49:04Z</time></trkpt><trkpt lat="60.1235140767" lon="30.5256970972"><ele>8098.28</ele><time>2026-08-20T09:49:05Z</time></trkpt><trkpt lat="60.1235128194" lon="30.5256988574"><ele>8093.48</ele><time>2026-08-20T09:49:06Z</time></trkpt><trkpt lat="60.1235114783" lon="30.5257060658"><ele>8089.15</ele><time>2026-08-20T09:49:07Z</time></trkpt><trkpt lat="60.1235051919" lon="30.5257124361"><ele>8084.83</ele><time>2026-08-20T09:49:08Z</time></trkpt><trkpt lat="60.1235020068" lon="30.5257161241"><ele>8080.50</ele><time>2026-08-20T09:49:09Z</time></trkpt><trkpt lat="60.1234973129" lon="30.5257430300"><ele>8075.69</ele><time>2026-08-20T09:49:10Z</time></trkpt><trkpt lat="60.1234891824" lon="30.5257619731"><ele>8071.37</ele><time>2026-08-20T09:49:11Z</time></trkpt><trkpt lat="60.1234812196" lon="30.5257781502"><ele>8067.04</ele><time>2026-08-20T09:49:12Z</time></trkpt><trkpt lat="60.1234721672" lon="30.5257939920"><ele>8062.23</ele><time>2026-08-20T09:49:13Z</time></trkpt><trkpt lat="60.1234618574" lon="30.5257960036"><ele>8057.91</ele><time>2026-08-20T09:49:14Z</time></trkpt><trkpt lat="60.1234525535" lon="30.5257992726"><ele>8053.58</ele><time>2026-08-20T09:49:15Z</time></trkpt><trkpt lat="60.1234508771" lon="30.5257970095"><ele>8049.26</ele><time>2026-08-20T09:49:16Z</time></trkpt><trkpt lat="60.1234487817" lon="30.5258028768"><ele>8044.93</ele><time>2026-08-20T09:49:17Z</time></trkpt><trkpt lat="60.1234484464" lon="30.5258042179"><ele>8040.12</ele><time>2026-08-20T09:49:18Z</time></trkpt><trkpt lat="60.1234481111" lon="30.5258046370"><ele>8035.80</ele><time>2026-08-20T09:49:19Z</time></trkpt><trkpt lat="60.1234473567" lon="30.5258052237"><ele>8031.47</ele><time>2026-08-20T09:49:20Z</time></trkpt><trkpt lat="60.1234462671" lon="30.5258043855"><ele>8027.15</ele><time>2026-08-20T09:49:21Z</time></trkpt><trkpt lat="60.1234461833" lon="30.5258048885"><ele>8022.34</ele><time>2026-08-20T09:49:22Z</time></trkpt><trkpt lat="60.1234467700" lon="30.5258022062"><ele>8018.01</ele><time>2026-08-20T09:49:23Z</time></trkpt><trkpt lat="60.1234458480" lon="30.5258033797"><ele>8013.69</ele><time>2026-08-20T09:49:24Z</time></trkpt><trkpt lat="60.1234433334" lon="30.5258059781"><ele>8009.36</ele><time>2026-08-20T09:49:25Z</time></trkpt><trkpt lat="60.1234435011" lon="30.5258116778"><ele>8005.04</ele><time>2026-08-20T09:49:26Z</time></trkpt><trkpt lat="60.1234409027" lon="30.5258115102"><ele>8000.23</ele><time>2026-08-20T09:49:27Z</time></trkpt><trkpt lat="60.1234401483" lon="30.5258126836"><ele>7995.90</ele><time>2026-08-20T09:49:28Z</time></trkpt><trkpt lat="60.1234389748" lon="30.5258193053"><ele>7991.58</ele><time>2026-08-20T09:49:29Z</time></trkpt><trkpt lat="60.1234383043" lon="30.5258159526"><ele>7987.25</ele><time>2026-08-20T09:49:30Z</time></trkpt><trkpt lat="60.1234374661" lon="30.5258168746"><ele>7982.92</ele><time>2026-08-20T09:49:31Z</time></trkpt><trkpt lat="60.1234373823" lon="30.5258177966"><ele>7978.60</ele><time>2026-08-20T09:49:32Z</time></trkpt><trkpt lat="60.1234355383" lon="30.5258198921"><ele>7973.79</ele><time>2026-08-20T09:49:33Z</time></trkpt><trkpt lat="60.1234341972" lon="30.5258203950"><ele>7969.47</ele><time>2026-08-20T09:49:34Z</time></trkpt><trkpt lat="60.1234324370" lon="30.5258211493"><ele>7965.14</ele><time>2026-08-20T09:49:35Z</time></trkpt><trkpt lat="60.1234300062" lon="30.5258260947"><ele>7960.82</ele><time>2026-08-20T09:49:36Z</time></trkpt><trkpt lat="60.1234300062" lon="30.5258229095"><ele>7956.49</ele><time>2026-08-20T09:49:37Z</time></trkpt><trkpt lat="60.1234286651" lon="30.5258237477"><ele>7952.16</ele><time>2026-08-20T09:49:38Z</time></trkpt><trkpt lat="60.1234276593" lon="30.5258245021"><ele>7947.84</ele><time>2026-08-20T09:49:39Z</time></trkpt><trkpt lat="60.1234250609" lon="30.5258272681"><ele>7943.03</ele><time>2026-08-20T09:49:40Z</time></trkpt><trkpt lat="60.1234245580" lon="30.5258322135"><ele>7938.70</ele><time>2026-08-20T09:49:41Z</time></trkpt><trkpt lat="60.1234177686" lon="30.5258352309"><ele>7934.38</ele><time>2026-08-20T09:49:42Z</time></trkpt><trkpt lat="60.1234145835" lon="30.5258381646"><ele>7930.05</ele><time>2026-08-20T09:49:43Z</time></trkpt><trkpt lat="60.1234113146" lon="30.5258410983"><ele>7925.73</ele><time>2026-08-20T09:49:44Z</time></trkpt><trkpt lat="60.1234031841" lon="30.5258421041"><ele>7921.40</ele><time>2026-08-20T09:49:45Z</time></trkpt><trkpt lat="60.1233977359" lon="30.5258366559"><ele>7917.08</ele><time>2026-08-20T09:49:46Z</time></trkpt><trkpt lat="60.1233900245" lon="30.5258473847"><ele>7912.75</ele><time>2026-08-20T09:49:47Z</time></trkpt><trkpt lat="60.1233893540" lon="30.5258406792"><ele>7908.42</ele><time>2026-08-20T09:49:48Z</time></trkpt><trkpt lat="60.1233803015" lon="30.5258496478"><ele>7904.10</ele><time>2026-08-20T09:49:49Z</time></trkpt><trkpt lat="60.1233808044" lon="30.5258410145"><ele>7899.29</ele><time>2026-08-20T09:49:50Z</time></trkpt><trkpt lat="60.1233809721" lon="30.5258509051"><ele>7894.96</ele><time>2026-08-20T09:49:51Z</time></trkpt><trkpt lat="60.1233812235" lon="30.5258540902"><ele>7890.64</ele><time>2026-08-20T09:49:52Z</time></trkpt><trkpt lat="60.1233818941" lon="30.5258571077"><ele>7886.31</ele><time>2026-08-20T09:49:53Z</time></trkpt><trkpt lat="60.1233825646" lon="30.5258592870"><ele>7881.99</ele><time>2026-08-20T09:49:54Z</time></trkpt><trkpt lat="60.1233807206" lon="30.5258623883"><ele>7877.66</ele><time>2026-08-20T09:49:55Z</time></trkpt><trkpt lat="60.1233779546" lon="30.5258651543"><ele>7873.33</ele><time>2026-08-20T09:49:56Z</time></trkpt><trkpt lat="60.1233746018" lon="30.5258683395"><ele>7869.01</ele><time>2026-08-20T09:49:57Z</time></trkpt><trkpt lat="60.1233704109" lon="30.5258718599"><ele>7864.68</ele><time>2026-08-20T09:49:58Z</time></trkpt><trkpt lat="60.1233658846" lon="30.5258745421"><ele>7860.36</ele><time>2026-08-20T09:49:59Z</time></trkpt><trkpt lat="60.1233633701" lon="30.5258766375"><ele>7856.03</ele><time>2026-08-20T09:50:00Z</time></trkpt><trkpt lat="60.1233613584" lon="30.5258789007"><ele>7851.71</ele><time>2026-08-20T09:50:01Z</time></trkpt><trkpt lat="60.1233598497" lon="30.5258808285"><ele>7847.38</ele><time>2026-08-20T09:50:02Z</time></trkpt><trkpt lat="60.1233595144" lon="30.5258812476"><ele>7843.05</ele><time>2026-08-20T09:50:03Z</time></trkpt><trkpt lat="60.1233593468" lon="30.5258817505"><ele>7838.73</ele><time>2026-08-20T09:50:04Z</time></trkpt><trkpt lat="60.1233597659" lon="30.5258826725"><ele>7834.40</ele><time>2026-08-20T09:50:05Z</time></trkpt><trkpt lat="60.1233585086" lon="30.5258838460"><ele>7830.08</ele><time>2026-08-20T09:50:06Z</time></trkpt><trkpt lat="60.1233575027" lon="30.5258863606"><ele>7825.75</ele><time>2026-08-20T09:50:07Z</time></trkpt><trkpt lat="60.1233575866" lon="30.5258877017"><ele>7821.42</ele><time>2026-08-20T09:50:08Z</time></trkpt><trkpt lat="60.1233560778" lon="30.5258876178"><ele>7817.10</ele><time>2026-08-20T09:50:09Z</time></trkpt><trkpt lat="60.1233514678" lon="30.5258913897"><ele>7812.77</ele><time>2026-08-20T09:50:10Z</time></trkpt><trkpt lat="60.1233483665" lon="30.5258961674"><ele>7808.45</ele><time>2026-08-20T09:50:11Z</time></trkpt><trkpt lat="60.1233482827" lon="30.5258946586"><ele>7804.12</ele><time>2026-08-20T09:50:12Z</time></trkpt><trkpt lat="60.1233480312" lon="30.5258954968"><ele>7799.79</ele><time>2026-08-20T09:50:13Z</time></trkpt><trkpt lat="60.1233480312" lon="30.5258950777"><ele>7795.47</ele><time>2026-08-20T09:50:14Z</time></trkpt><trkpt lat="60.1233487856" lon="30.5258949939"><ele>7791.14</ele><time>2026-08-20T09:50:15Z</time></trkpt><trkpt lat="60.1233487017" lon="30.5258952454"><ele>7786.82</ele><time>2026-08-20T09:50:16Z</time></trkpt><trkpt lat="60.1233486179" lon="30.5258959997"><ele>7782.49</ele><time>2026-08-20T09:50:17Z</time></trkpt><trkpt lat="60.1233479474" lon="30.5258968379"><ele>7778.65</ele><time>2026-08-20T09:50:18Z</time></trkpt><trkpt lat="60.1233469415" lon="30.5258975085"><ele>7774.32</ele><time>2026-08-20T09:50:19Z</time></trkpt><trkpt lat="60.1233456843" lon="30.5258961674"><ele>7769.99</ele><time>2026-08-20T09:50:20Z</time></trkpt><trkpt lat="60.1233443432" lon="30.5258938204"><ele>7765.67</ele><time>2026-08-20T09:50:21Z</time></trkpt><trkpt lat="60.1233412419" lon="30.5258908868"><ele>7761.34</ele><time>2026-08-20T09:50:22Z</time></trkpt><trkpt lat="60.1233386435" lon="30.5258880369"><ele>7757.02</ele><time>2026-08-20T09:50:23Z</time></trkpt><trkpt lat="60.1233378053" lon="30.5258881208"><ele>7752.69</ele><time>2026-08-20T09:50:24Z</time></trkpt><trkpt lat="60.1233371347" lon="30.5258882884"><ele>7748.36</ele><time>2026-08-20T09:50:25Z</time></trkpt><trkpt lat="60.1233364642" lon="30.5258882046"><ele>7744.04</ele><time>2026-08-20T09:50:26Z</time></trkpt><trkpt lat="60.1233363803" lon="30.5258871149"><ele>7739.71</ele><time>2026-08-20T09:50:27Z</time></trkpt><trkpt lat="60.1233364642" lon="30.5258865282"><ele>7735.87</ele><time>2026-08-20T09:50:28Z</time></trkpt><trkpt lat="60.1233375538" lon="30.5258870311"><ele>7731.54</ele><time>2026-08-20T09:50:29Z</time></trkpt><trkpt lat="60.1233390626" lon="30.5258885399"><ele>7727.21</ele><time>2026-08-20T09:50:30Z</time></trkpt><trkpt lat="60.1233396493" lon="30.5258897971"><ele>7722.89</ele><time>2026-08-20T09:50:31Z</time></trkpt><trkpt lat="60.1233423315" lon="30.5258919764"><ele>7718.56</ele><time>2026-08-20T09:50:32Z</time></trkpt><trkpt lat="60.1233430021" lon="30.5258919764"><ele>7714.24</ele><time>2026-08-20T09:50:33Z</time></trkpt><trkpt lat="60.1233435888" lon="30.5258918926"><ele>7709.91</ele><time>2026-08-20T09:50:34Z</time></trkpt><trkpt lat="60.1233437564" lon="30.5258919764"><ele>7706.07</ele><time>2026-08-20T09:50:35Z</time></trkpt><trkpt lat="60.1233445108" lon="30.5258918088"><ele>7701.74</ele><time>2026-08-20T09:50:36Z</time></trkpt><trkpt lat="60.1233456843" lon="30.5258918926"><ele>7697.41</ele><time>2026-08-20T09:50:37Z</time></trkpt><trkpt lat="60.1233463548" lon="30.5258923955"><ele>7693.09</ele><time>2026-08-20T09:50:38Z</time></trkpt><trkpt lat="60.1233472768" lon="30.5258931499"><ele>7688.76</ele><time>2026-08-20T09:50:39Z</time></trkpt><trkpt lat="60.1233482827" lon="30.5258936528"><ele>7684.44</ele><time>2026-08-20T09:50:40Z</time></trkpt><trkpt lat="60.1233479474" lon="30.5258928146"><ele>7680.59</ele><time>2026-08-20T09:50:41Z</time></trkpt><trkpt lat="60.1233471092" lon="30.5258989334"><ele>7676.26</ele><time>2026-08-20T09:50:42Z</time></trkpt><trkpt lat="60.1233480312" lon="30.5258949939"><ele>7671.94</ele><time>2026-08-20T09:50:43Z</time></trkpt><trkpt lat="60.1233481150" lon="30.5258953292"><ele>7667.61</ele><time>2026-08-20T09:50:44Z</time></trkpt><trkpt lat="60.1233474445" lon="30.5258936528"><ele>7663.29</ele><time>2026-08-20T09:50:45Z</time></trkpt><trkpt lat="60.1233470254" lon="30.5258929823"><ele>7659.44</ele><time>2026-08-20T09:50:46Z</time></trkpt><trkpt lat="60.1233467739" lon="30.5258923117"><ele>7655.12</ele><time>2026-08-20T09:50:47Z</time></trkpt><trkpt lat="60.1233466901" lon="30.5258989334"><ele>7650.79</ele><time>2026-08-20T09:50:48Z</time></trkpt><trkpt lat="60.1233471092" lon="30.5259049684"><ele>7646.46</ele><time>2026-08-20T09:50:49Z</time></trkpt><trkpt lat="60.1233480312" lon="30.5259094108"><ele>7642.14</ele><time>2026-08-20T09:50:50Z</time></trkpt><trkpt lat="60.1233492885" lon="30.5259094108"><ele>7638.29</ele><time>2026-08-20T09:50:51Z</time></trkpt><trkpt lat="60.1233492047" lon="30.5259086564"><ele>7633.97</ele><time>2026-08-20T09:50:52Z</time></trkpt><trkpt lat="60.1233492047" lon="30.5259078182"><ele>7629.64</ele><time>2026-08-20T09:50:53Z</time></trkpt><trkpt lat="60.1233476121" lon="30.5259077344"><ele>7625.32</ele><time>2026-08-20T09:50:54Z</time></trkpt><trkpt lat="60.1233440079" lon="30.5259065609"><ele>7621.47</ele><time>2026-08-20T09:50:55Z</time></trkpt><trkpt lat="60.1233437564" lon="30.5259057228"><ele>7617.14</ele><time>2026-08-20T09:50:56Z</time></trkpt><trkpt lat="60.1233367994" lon="30.5259094946"><ele>7612.82</ele><time>2026-08-20T09:50:57Z</time></trkpt><trkpt lat="60.1233274117" lon="30.5259142723"><ele>7608.97</ele><time>2026-08-20T09:50:58Z</time></trkpt><trkpt lat="60.1233176887" lon="30.5259164516"><ele>7604.65</ele><time>2026-08-20T09:50:59Z</time></trkpt><trkpt lat="60.1233108994" lon="30.5259119254"><ele>7600.32</ele><time>2026-08-20T09:51:00Z</time></trkpt><trkpt lat="60.1233087201" lon="30.5259145238"><ele>7595.99</ele><time>2026-08-20T09:51:01Z</time></trkpt><trkpt lat="60.1233113185" lon="30.5259107519"><ele>7592.15</ele><time>2026-08-20T09:51:02Z</time></trkpt><trkpt lat="60.1233115699" lon="30.5259107519"><ele>7587.82</ele><time>2026-08-20T09:51:03Z</time></trkpt><trkpt lat="60.1233126596" lon="30.5259145238"><ele>7583.50</ele><time>2026-08-20T09:51:04Z</time></trkpt><trkpt lat="60.1233113185" lon="30.5259174574"><ele>7579.65</ele><time>2026-08-20T09:51:05Z</time></trkpt><trkpt lat="60.1233086362" lon="30.5259168707"><ele>7575.33</ele><time>2026-08-20T09:51:06Z</time></trkpt><trkpt lat="60.1233073790" lon="30.5259168707"><ele>7571.00</ele><time>2026-08-20T09:51:07Z</time></trkpt><trkpt lat="60.1233066246" lon="30.5259150267"><ele>7566.67</ele><time>2026-08-20T09:51:08Z</time></trkpt><trkpt lat="60.1233065408" lon="30.5259125121"><ele>7562.83</ele><time>2026-08-20T09:51:09Z</time></trkpt><trkpt lat="60.1233079657" lon="30.5259109195"><ele>7558.50</ele><time>2026-08-20T09:51:10Z</time></trkpt><trkpt lat="60.1233102288" lon="30.5259089917"><ele>7554.18</ele><time>2026-08-20T09:51:11Z</time></trkpt><trkpt lat="60.1233098935" lon="30.5259040464"><ele>7550.33</ele><time>2026-08-20T09:51:12Z</time></trkpt><trkpt lat="60.1233184431" lon="30.5258980114"><ele>7546.01</ele><time>2026-08-20T09:51:13Z</time></trkpt><trkpt lat="60.1233199518" lon="30.5258961674"><ele>7541.68</ele><time>2026-08-20T09:51:14Z</time></trkpt><trkpt lat="60.1233229693" lon="30.5258905515"><ele>7537.83</ele><time>2026-08-20T09:51:15Z</time></trkpt><trkpt lat="60.1233248133" lon="30.5258859415"><ele>7533.51</ele><time>2026-08-20T09:51:16Z</time></trkpt><trkpt lat="60.1233254001" lon="30.5258850195"><ele>7529.66</ele><time>2026-08-20T09:51:17Z</time></trkpt><trkpt lat="60.1233243942" lon="30.5258897133"><ele>7525.34</ele><time>2026-08-20T09:51:18Z</time></trkpt><trkpt lat="60.1233246457" lon="30.5258861091"><ele>7521.01</ele><time>2026-08-20T09:51:19Z</time></trkpt><trkpt lat="60.1233232208" lon="30.5258880369"><ele>7517.17</ele><time>2026-08-20T09:51:20Z</time></trkpt><trkpt lat="60.1233230531" lon="30.5258891266"><ele>7512.84</ele><time>2026-08-20T09:51:21Z</time></trkpt><trkpt lat="60.1233225502" lon="30.5258884560"><ele>7508.51</ele><time>2026-08-20T09:51:22Z</time></trkpt><trkpt lat="60.1233220473" lon="30.5258879531"><ele>7504.67</ele><time>2026-08-20T09:51:23Z</time></trkpt><trkpt lat="60.1233216282" lon="30.5258875340"><ele>7500.34</ele><time>2026-08-20T09:51:24Z</time></trkpt><trkpt lat="60.1233216282" lon="30.5258876178"><ele>7496.50</ele><time>2026-08-20T09:51:25Z</time></trkpt><trkpt lat="60.1233207062" lon="30.5258881208"><ele>7492.17</ele><time>2026-08-20T09:51:26Z</time></trkpt><trkpt lat="60.1233181078" lon="30.5258890428"><ele>7487.85</ele><time>2026-08-20T09:51:27Z</time></trkpt><trkpt lat="60.1233170182" lon="30.5258878693"><ele>7484.00</ele><time>2026-08-20T09:51:28Z</time></trkpt><trkpt lat="60.1233149227" lon="30.5258874502"><ele>7479.67</ele><time>2026-08-20T09:51:29Z</time></trkpt><trkpt lat="60.1233162638" lon="30.5258854385"><ele>7475.83</ele><time>2026-08-20T09:51:30Z</time></trkpt><trkpt lat="60.1233160123" lon="30.5258840974"><ele>7471.50</ele><time>2026-08-20T09:51:31Z</time></trkpt><trkpt lat="60.1233160961" lon="30.5258827563"><ele>7467.66</ele><time>2026-08-20T09:51:32Z</time></trkpt><trkpt lat="60.1233163476" lon="30.5258825049"><ele>7463.33</ele><time>2026-08-20T09:51:33Z</time></trkpt><trkpt lat="60.1233170182" lon="30.5258817505"><ele>7459.01</ele><time>2026-08-20T09:51:34Z</time></trkpt><trkpt lat="60.1233173534" lon="30.5258813314"><ele>7455.16</ele><time>2026-08-20T09:51:35Z</time></trkpt><trkpt lat="60.1233177725" lon="30.5258807447"><ele>7450.84</ele><time>2026-08-20T09:51:36Z</time></trkpt><trkpt lat="60.1233181078" lon="30.5258804932"><ele>7446.99</ele><time>2026-08-20T09:51:37Z</time></trkpt><trkpt lat="60.1233183593" lon="30.5258804932"><ele>7442.66</ele><time>2026-08-20T09:51:38Z</time></trkpt><trkpt lat="60.1233186107" lon="30.5258803256"><ele>7438.82</ele><time>2026-08-20T09:51:39Z</time></trkpt><trkpt lat="60.1233185269" lon="30.5258800741"><ele>7434.49</ele><time>2026-08-20T09:51:40Z</time></trkpt><trkpt lat="60.1233181916" lon="30.5258794874"><ele>7430.65</ele><time>2026-08-20T09:51:41Z</time></trkpt><trkpt lat="60.1233181078" lon="30.5258789007"><ele>7426.32</ele><time>2026-08-20T09:51:42Z</time></trkpt><trkpt lat="60.1233180240" lon="30.5258779787"><ele>7422.48</ele><time>2026-08-20T09:51:43Z</time></trkpt><trkpt lat="60.1233183593" lon="30.5258757155"><ele>7418.15</ele><time>2026-08-20T09:51:44Z</time></trkpt><trkpt lat="60.1233182754" lon="30.5258731171"><ele>7414.30</ele><time>2026-08-20T09:51:45Z</time></trkpt><trkpt lat="60.1233182754" lon="30.5258699320"><ele>7409.98</ele><time>2026-08-20T09:51:46Z</time></trkpt><trkpt lat="60.1233183593" lon="30.5258689262"><ele>7406.13</ele><time>2026-08-20T09:51:47Z</time></trkpt><trkpt lat="60.1233182754" lon="30.5258687586"><ele>7401.81</ele><time>2026-08-20T09:51:48Z</time></trkpt><trkpt lat="60.1233183593" lon="30.5258699320"><ele>7397.96</ele><time>2026-08-20T09:51:49Z</time></trkpt><trkpt lat="60.1233177725" lon="30.5258714408"><ele>7393.64</ele><time>2026-08-20T09:51:50Z</time></trkpt><trkpt lat="60.1233173534" lon="30.5258728657"><ele>7389.79</ele><time>2026-08-20T09:51:51Z</time></trkpt><trkpt lat="60.1233170182" lon="30.5258746259"><ele>7385.47</ele><time>2026-08-20T09:51:52Z</time></trkpt><trkpt lat="60.1233163476" lon="30.5258756317"><ele>7381.62</ele><time>2026-08-20T09:51:53Z</time></trkpt><trkpt lat="60.1233151741" lon="30.5258743744"><ele>7377.29</ele><time>2026-08-20T09:51:56Z</time></trkpt><trkpt lat="60.1233157609" lon="30.5258804932"><ele>7373.45</ele><time>2026-08-20T09:51:57Z</time></trkpt><trkpt lat="60.1233157609" lon="30.5258816667"><ele>7369.12</ele><time>2026-08-20T09:51:58Z</time></trkpt><trkpt lat="60.1233159285" lon="30.5258820858"><ele>7365.28</ele><time>2026-08-20T09:51:59Z</time></trkpt><trkpt lat="60.1233160961" lon="30.5258829240"><ele>7360.95</ele><time>2026-08-20T09:52:00Z</time></trkpt><trkpt lat="60.1233157609" lon="30.5258834269"><ele>7357.11</ele><time>2026-08-20T09:52:01Z</time></trkpt><trkpt lat="60.1233153418" lon="30.5258836783"><ele>7353.26</ele><time>2026-08-20T09:52:02Z</time></trkpt><trkpt lat="60.1233145874" lon="30.5258842651"><ele>7348.94</ele><time>2026-08-20T09:52:03Z</time></trkpt><trkpt lat="60.1233142521" lon="30.5258847680"><ele>7345.09</ele><time>2026-08-20T09:52:04Z</time></trkpt><trkpt lat="60.1233142521" lon="30.5258849356"><ele>7340.76</ele><time>2026-08-20T09:52:05Z</time></trkpt><trkpt lat="60.1233145036" lon="30.5258855224"><ele>7336.92</ele><time>2026-08-20T09:52:06Z</time></trkpt><trkpt lat="60.1233149227" lon="30.5258862767"><ele>7332.59</ele><time>2026-08-20T09:52:07Z</time></trkpt><trkpt lat="60.1233152580" lon="30.5258870311"><ele>7328.75</ele><time>2026-08-20T09:52:08Z</time></trkpt><trkpt lat="60.1233146712" lon="30.5258871149"><ele>7324.90</ele><time>2026-08-20T09:52:09Z</time></trkpt><trkpt lat="60.1233127434" lon="30.5258881208"><ele>7320.58</ele><time>2026-08-20T09:52:10Z</time></trkpt><trkpt lat="60.1233138330" lon="30.5258849356"><ele>7316.73</ele><time>2026-08-20T09:52:11Z</time></trkpt><trkpt lat="60.1233133301" lon="30.5258869473"><ele>7312.41</ele><time>2026-08-20T09:52:12Z</time></trkpt><trkpt lat="60.1233150903" lon="30.5258877017"><ele>7308.56</ele><time>2026-08-20T09:52:13Z</time></trkpt><trkpt lat="60.1233135816" lon="30.5258903001"><ele>7304.72</ele><time>2026-08-20T09:52:14Z</time></trkpt><trkpt lat="60.1233147550" lon="30.5258900486"><ele>7300.39</ele><time>2026-08-20T09:52:15Z</time></trkpt><trkpt lat="60.1233124081" lon="30.5258920603"><ele>7296.54</ele><time>2026-08-20T09:52:16Z</time></trkpt><trkpt lat="60.1233139168" lon="30.5258903001"><ele>7292.70</ele><time>2026-08-20T09:52:17Z</time></trkpt><trkpt lat="60.1233120728" lon="30.5258915573"><ele>7288.37</ele><time>2026-08-20T09:52:18Z</time></trkpt><trkpt lat="60.1233130787" lon="30.5258902162"><ele>7284.53</ele><time>2026-08-20T09:52:19Z</time></trkpt><trkpt lat="60.1233130787" lon="30.5258895457"><ele>7280.68</ele><time>2026-08-20T09:52:20Z</time></trkpt><trkpt lat="60.1233144198" lon="30.5258879531"><ele>7276.36</ele><time>2026-08-20T09:52:21Z</time></trkpt><trkpt lat="60.1233157609" lon="30.5258863606"><ele>7272.51</ele><time>2026-08-20T09:52:22Z</time></trkpt><trkpt lat="60.1233175211" lon="30.5258847680"><ele>7268.67</ele><time>2026-08-20T09:52:23Z</time></trkpt><trkpt lat="60.1233191136" lon="30.5258835107"><ele>7264.34</ele><time>2026-08-20T09:52:24Z</time></trkpt><trkpt lat="60.1233216282" lon="30.5258795712"><ele>7260.49</ele><time>2026-08-20T09:52:25Z</time></trkpt><trkpt lat="60.1233210415" lon="30.5258821696"><ele>7256.65</ele><time>2026-08-20T09:52:26Z</time></trkpt><trkpt lat="60.1233209576" lon="30.5258832593"><ele>7252.32</ele><time>2026-08-20T09:52:27Z</time></trkpt><trkpt lat="60.1233203709" lon="30.5258842651"><ele>7248.48</ele><time>2026-08-20T09:52:28Z</time></trkpt><trkpt lat="60.1233195327" lon="30.5258909706"><ele>7244.63</ele><time>2026-08-20T09:52:29Z</time></trkpt><trkpt lat="60.1233187784" lon="30.5258946586"><ele>7240.31</ele><time>2026-08-20T09:52:30Z</time></trkpt><trkpt lat="60.1233191136" lon="30.5258937366"><ele>7236.46</ele><time>2026-08-20T09:52:31Z</time></trkpt><trkpt lat="60.1233186107" lon="30.5258948263"><ele>7232.62</ele><time>2026-08-20T09:52:32Z</time></trkpt><trkpt lat="60.1233180240" lon="30.5258951616"><ele>7228.29</ele><time>2026-08-20T09:52:33Z</time></trkpt><trkpt lat="60.1233180240" lon="30.5258950777"><ele>7224.44</ele><time>2026-08-20T09:52:34Z</time></trkpt><trkpt lat="60.1233179402" lon="30.5258954968"><ele>7220.60</ele><time>2026-08-20T09:52:35Z</time></trkpt><trkpt lat="60.1233185269" lon="30.5258956645"><ele>7216.75</ele><time>2026-08-20T09:52:36Z</time></trkpt><trkpt lat="60.1233194489" lon="30.5258925632"><ele>7212.43</ele><time>2026-08-20T09:52:37Z</time></trkpt><trkpt lat="60.1233192813" lon="30.5258927308"><ele>7208.58</ele><time>2026-08-20T09:52:38Z</time></trkpt><trkpt lat="60.1233195327" lon="30.5258928146"><ele>7204.74</ele><time>2026-08-20T09:52:39Z</time></trkpt><trkpt lat="60.1233197842" lon="30.5258934852"><ele>7200.41</ele><time>2026-08-20T09:52:40Z</time></trkpt><trkpt lat="60.1233201195" lon="30.5258937366"><ele>7196.57</ele><time>2026-08-20T09:52:41Z</time></trkpt><trkpt lat="60.1233205386" lon="30.5258931499"><ele>7192.72</ele><time>2026-08-20T09:52:42Z</time></trkpt><trkpt lat="60.1233215444" lon="30.5258928984"><ele>7188.88</ele><time>2026-08-20T09:52:43Z</time></trkpt><trkpt lat="60.1233219635" lon="30.5258926470"><ele>7184.55</ele><time>2026-08-20T09:52:44Z</time></trkpt><trkpt lat="60.1233231369" lon="30.5258931499"><ele>7180.71</ele><time>2026-08-20T09:52:45Z</time></trkpt><trkpt lat="60.1233243104" lon="30.5258937366"><ele>7176.86</ele><time>2026-08-20T09:52:46Z</time></trkpt><trkpt lat="60.1233252324" lon="30.5258941557"><ele>7173.01</ele><time>2026-08-20T09:52:47Z</time></trkpt><trkpt lat="60.1233260706" lon="30.5258941557"><ele>7169.17</ele><time>2026-08-20T09:52:48Z</time></trkpt><trkpt lat="60.1233269088" lon="30.5258940719"><ele>7164.84</ele><time>2026-08-20T09:52:49Z</time></trkpt><trkpt lat="60.1233275793" lon="30.5258939881"><ele>7161.00</ele><time>2026-08-20T09:52:50Z</time></trkpt><trkpt lat="60.1233280823" lon="30.5258937366"><ele>7157.15</ele><time>2026-08-20T09:52:51Z</time></trkpt><trkpt lat="60.1233284175" lon="30.5258943234"><ele>7153.31</ele><time>2026-08-20T09:52:52Z</time></trkpt><trkpt lat="60.1233287528" lon="30.5258949101"><ele>7149.46</ele><time>2026-08-20T09:52:53Z</time></trkpt><trkpt lat="60.1233287528" lon="30.5258954130"><ele>7145.14</ele><time>2026-08-20T09:52:54Z</time></trkpt><trkpt lat="60.1233289205" lon="30.5258959997"><ele>7141.29</ele><time>2026-08-20T09:52:55Z</time></trkpt><trkpt lat="60.1233292557" lon="30.5258962512"><ele>7137.45</ele><time>2026-08-20T09:52:56Z</time></trkpt><trkpt lat="60.1233295072" lon="30.5258963350"><ele>7133.60</ele><time>2026-08-20T09:52:57Z</time></trkpt><trkpt lat="60.1233276632" lon="30.5258962512"><ele>7129.75</ele><time>2026-08-20T09:52:58Z</time></trkpt><trkpt lat="60.1233300101" lon="30.5258973408"><ele>7125.43</ele><time>2026-08-20T09:52:59Z</time></trkpt><trkpt lat="60.1233300939" lon="30.5258965027"><ele>7121.58</ele><time>2026-08-20T09:53:00Z</time></trkpt><trkpt lat="60.1233306807" lon="30.5258948263"><ele>7117.74</ele><time>2026-08-20T09:53:01Z</time></trkpt><trkpt lat="60.1233303454" lon="30.5258937366"><ele>7113.89</ele><time>2026-08-20T09:53:02Z</time></trkpt><trkpt lat="60.1233301777" lon="30.5258930661"><ele>7110.05</ele><time>2026-08-20T09:53:03Z</time></trkpt><trkpt lat="60.1233285014" lon="30.5258955806"><ele>7106.20</ele><time>2026-08-20T09:53:04Z</time></trkpt><trkpt lat="60.1233299263" lon="30.5258916412"><ele>7101.88</ele><time>2026-08-20T09:53:05Z</time></trkpt><trkpt lat="60.1233298425" lon="30.5258913059"><ele>7098.03</ele><time>2026-08-20T09:53:06Z</time></trkpt><trkpt lat="60.1233296748" lon="30.5258907191"><ele>7094.19</ele><time>2026-08-20T09:53:07Z</time></trkpt><trkpt lat="60.1233297586" lon="30.5258908030"><ele>7090.34</ele><time>2026-08-20T09:53:08Z</time></trkpt><trkpt lat="60.1233297586" lon="30.5258903001"><ele>7086.50</ele><time>2026-08-20T09:53:09Z</time></trkpt><trkpt lat="60.1233288366" lon="30.5258896295"><ele>7082.65</ele><time>2026-08-20T09:53:10Z</time></trkpt><trkpt lat="60.1233274117" lon="30.5258893780"><ele>7078.80</ele><time>2026-08-20T09:53:11Z</time></trkpt><trkpt lat="60.1233251486" lon="30.5258906353"><ele>7074.96</ele><time>2026-08-20T09:53:12Z</time></trkpt><trkpt lat="60.1233272441" lon="30.5258871149"><ele>7070.63</ele><time>2026-08-20T09:53:13Z</time></trkpt><trkpt lat="60.1233269926" lon="30.5258870311"><ele>7066.79</ele><time>2026-08-20T09:53:14Z</time></trkpt><trkpt lat="60.1233261544" lon="30.5258910544"><ele>7062.94</ele><time>2026-08-20T09:53:15Z</time></trkpt><trkpt lat="60.1233285852" lon="30.5258882884"><ele>7059.10</ele><time>2026-08-20T09:53:16Z</time></trkpt><trkpt lat="60.1233293395" lon="30.5258885399"><ele>7055.25</ele><time>2026-08-20T09:53:17Z</time></trkpt><trkpt lat="60.1233303454" lon="30.5258887075"><ele>7051.41</ele><time>2026-08-20T09:53:18Z</time></trkpt><trkpt lat="60.1233310997" lon="30.5258879531"><ele>7047.56</ele><time>2026-08-20T09:53:19Z</time></trkpt><trkpt lat="60.1233314350" lon="30.5258877017"><ele>7043.72</ele><time>2026-08-20T09:53:20Z</time></trkpt><trkpt lat="60.1233282499" lon="30.5258903839"><ele>7039.87</ele><time>2026-08-20T09:53:21Z</time></trkpt><trkpt lat="60.1233310997" lon="30.5258871987"><ele>7036.03</ele><time>2026-08-20T09:53:22Z</time></trkpt><trkpt lat="60.1233308483" lon="30.5258872826"><ele>7032.18</ele><time>2026-08-20T09:53:23Z</time></trkpt><trkpt lat="60.1233307645" lon="30.5258872826"><ele>7028.34</ele><time>2026-08-20T09:53:24Z</time></trkpt><trkpt lat="60.1233304292" lon="30.5258874502"><ele>7024.49</ele><time>2026-08-20T09:53:25Z</time></trkpt><trkpt lat="60.1233298425" lon="30.5258883722"><ele>7020.17</ele><time>2026-08-20T09:53:26Z</time></trkpt><trkpt lat="60.1233292557" lon="30.5258888751"><ele>7016.32</ele><time>2026-08-20T09:53:27Z</time></trkpt><trkpt lat="60.1233290043" lon="30.5258893780"><ele>7012.47</ele><time>2026-08-20T09:53:28Z</time></trkpt><trkpt lat="60.1233286690" lon="30.5258895457"><ele>7008.63</ele><time>2026-08-20T09:53:29Z</time></trkpt><trkpt lat="60.1233276632" lon="30.5258895457"><ele>7004.78</ele><time>2026-08-20T09:53:30Z</time></trkpt><trkpt lat="60.1233267412" lon="30.5258895457"><ele>7000.94</ele><time>2026-08-20T09:53:31Z</time></trkpt><trkpt lat="60.1233257353" lon="30.5258904677"><ele>6997.09</ele><time>2026-08-20T09:53:32Z</time></trkpt><trkpt lat="60.1233244780" lon="30.5258921441"><ele>6993.25</ele><time>2026-08-20T09:53:33Z</time></trkpt><trkpt lat="60.1233220473" lon="30.5258953292"><ele>6989.40</ele><time>2026-08-20T09:53:34Z</time></trkpt><trkpt lat="60.1233229693" lon="30.5258940719"><ele>6985.56</ele><time>2026-08-20T09:53:35Z</time></trkpt><trkpt lat="60.1233217120" lon="30.5258955806"><ele>6981.71</ele><time>2026-08-20T09:53:36Z</time></trkpt><trkpt lat="60.1233211253" lon="30.5258969218"><ele>6977.87</ele><time>2026-08-20T09:53:37Z</time></trkpt><trkpt lat="60.1233203709" lon="30.5258981790"><ele>6974.02</ele><time>2026-08-20T09:53:38Z</time></trkpt><trkpt lat="60.1233191974" lon="30.5258989334"><ele>6970.18</ele><time>2026-08-20T09:53:39Z</time></trkpt><trkpt lat="60.1233183593" lon="30.5259004422"><ele>6966.33</ele><time>2026-08-20T09:53:40Z</time></trkpt><trkpt lat="60.1233176887" lon="30.5259006936"><ele>6962.49</ele><time>2026-08-20T09:53:41Z</time></trkpt><trkpt lat="60.1233160961" lon="30.5259024538"><ele>6958.64</ele><time>2026-08-20T09:53:42Z</time></trkpt><trkpt lat="60.1233154256" lon="30.5259036273"><ele>6954.79</ele><time>2026-08-20T09:53:43Z</time></trkpt><trkpt lat="60.1233148389" lon="30.5259042978"><ele>6950.95</ele><time>2026-08-20T09:53:44Z</time></trkpt><trkpt lat="60.1233147550" lon="30.5259046331"><ele>6947.10</ele><time>2026-08-20T09:53:45Z</time></trkpt><trkpt lat="60.1233107317" lon="30.5259041302"><ele>6943.26</ele><time>2026-08-20T09:53:46Z</time></trkpt><trkpt lat="60.1233143359" lon="30.5259053875"><ele>6939.41</ele><time>2026-08-20T09:53:47Z</time></trkpt><trkpt lat="60.1233141683" lon="30.5259055551"><ele>6935.57</ele><time>2026-08-20T09:53:48Z</time></trkpt><trkpt lat="60.1233140845" lon="30.5259057228"><ele>6931.72</ele><time>2026-08-20T09:53:49Z</time></trkpt><trkpt lat="60.1233138330" lon="30.5259063933"><ele>6928.36</ele><time>2026-08-20T09:53:50Z</time></trkpt><trkpt lat="60.1233137492" lon="30.5259068962"><ele>6924.51</ele><time>2026-08-20T09:53:51Z</time></trkpt><trkpt lat="60.1233135816" lon="30.5259078182"><ele>6920.67</ele><time>2026-08-20T09:53:52Z</time></trkpt><trkpt lat="60.1233123243" lon="30.5259115063"><ele>6916.82</ele><time>2026-08-20T09:53:53Z</time></trkpt><trkpt lat="60.1233129948" lon="30.5259087402"><ele>6912.98</ele><time>2026-08-20T09:53:54Z</time></trkpt><trkpt lat="60.1233127434" lon="30.5259089917"><ele>6909.13</ele><time>2026-08-20T09:53:55Z</time></trkpt><trkpt lat="60.1233126596" lon="30.5259092432"><ele>6905.29</ele><time>2026-08-20T09:53:56Z</time></trkpt><trkpt lat="60.1233125757" lon="30.5259094108"><ele>6901.44</ele><time>2026-08-20T09:53:57Z</time></trkpt><trkpt lat="60.1233124919" lon="30.5259099975"><ele>6897.60</ele><time>2026-08-20T09:53:58Z</time></trkpt><trkpt lat="60.1233114861" lon="30.5259118415"><ele>6893.75</ele><time>2026-08-20T09:54:01Z</time></trkpt><trkpt lat="60.1233113185" lon="30.5259125959"><ele>6889.91</ele><time>2026-08-20T09:54:02Z</time></trkpt><trkpt lat="60.1233111508" lon="30.5259129312"><ele>6886.06</ele><time>2026-08-20T09:54:03Z</time></trkpt><trkpt lat="60.1233106479" lon="30.5259134341"><ele>6882.70</ele><time>2026-08-20T09:54:04Z</time></trkpt><trkpt lat="60.1233093906" lon="30.5259142723"><ele>6878.85</ele><time>2026-08-20T09:54:05Z</time></trkpt><trkpt lat="60.1233074628" lon="30.5259163678"><ele>6875.01</ele><time>2026-08-20T09:54:06Z</time></trkpt><trkpt lat="60.1233050320" lon="30.5259187985"><ele>6871.16</ele><time>2026-08-20T09:54:07Z</time></trkpt><trkpt lat="60.1232958119" lon="30.5259317905"><ele>6867.32</ele><time>2026-08-20T09:54:08Z</time></trkpt><trkpt lat="60.1232875139" lon="30.5259419326"><ele>6863.47</ele><time>2026-08-20T09:54:09Z</time></trkpt><trkpt lat="60.1232786290" lon="30.5259498954"><ele>6859.62</ele><time>2026-08-20T09:54:10Z</time></trkpt><trkpt lat="60.1232709177" lon="30.5259579420"><ele>6855.78</ele><time>2026-08-20T09:54:11Z</time></trkpt><trkpt lat="60.1232645474" lon="30.5259611271"><ele>6852.42</ele><time>2026-08-20T09:54:12Z</time></trkpt><trkpt lat="60.1232615300" lon="30.5259646475"><ele>6848.57</ele><time>2026-08-20T09:54:13Z</time></trkpt><trkpt lat="60.1232627034" lon="30.5259746220"><ele>6844.72</ele><time>2026-08-20T09:54:14Z</time></trkpt><trkpt lat="60.1232622005" lon="30.5259844288"><ele>6840.88</ele><time>2026-08-20T09:54:15Z</time></trkpt><trkpt lat="60.1232616138" lon="30.5259932298"><ele>6837.03</ele><time>2026-08-20T09:54:16Z</time></trkpt><trkpt lat="60.1232583448" lon="30.5259907991"><ele>6833.19</ele><time>2026-08-20T09:54:17Z</time></trkpt><trkpt lat="60.1232559141" lon="30.5259928945"><ele>6829.34</ele><time>2026-08-20T09:54:18Z</time></trkpt><trkpt lat="60.1232533157" lon="30.5259935651"><ele>6825.98</ele><time>2026-08-20T09:54:19Z</time></trkpt><trkpt lat="60.1232522260" lon="30.5259933136"><ele>6822.13</ele><time>2026-08-20T09:54:20Z</time></trkpt><trkpt lat="60.1232514717" lon="30.5259946547"><ele>6818.29</ele><time>2026-08-20T09:54:21Z</time></trkpt><trkpt lat="60.1232511364" lon="30.5259949062"><ele>6814.44</ele><time>2026-08-20T09:54:22Z</time></trkpt><trkpt lat="60.1232490409" lon="30.5259937327"><ele>6810.60</ele><time>2026-08-20T09:54:23Z</time></trkpt><trkpt lat="60.1232501306" lon="30.5259954929"><ele>6807.23</ele><time>2026-08-20T09:54:24Z</time></trkpt><trkpt lat="60.1232497953" lon="30.5259962473"><ele>6803.39</ele><time>2026-08-20T09:54:25Z</time></trkpt><trkpt lat="60.1232472807" lon="30.5259980913"><ele>6799.54</ele><time>2026-08-20T09:54:26Z</time></trkpt><trkpt lat="60.1232462749" lon="30.5260014441"><ele>6795.70</ele><time>2026-08-20T09:54:27Z</time></trkpt><trkpt lat="60.1232424192" lon="30.5260017794"><ele>6791.85</ele><time>2026-08-20T09:54:28Z</time></trkpt><trkpt lat="60.1232402399" lon="30.5260029528"><ele>6788.49</ele><time>2026-08-20T09:54:29Z</time></trkpt><trkpt lat="60.1232378930" lon="30.5259987619"><ele>6784.64</ele><time>2026-08-20T09:54:30Z</time></trkpt><trkpt lat="60.1232326962" lon="30.5260050483"><ele>6780.80</ele><time>2026-08-20T09:54:31Z</time></trkpt><trkpt lat="60.1232316066" lon="30.5260063894"><ele>6776.95</ele><time>2026-08-20T09:54:32Z</time></trkpt><trkpt lat="60.1232302655" lon="30.5260078982"><ele>6773.11</ele><time>2026-08-20T09:54:33Z</time></trkpt><trkpt lat="60.1232285053" lon="30.5260099098"><ele>6769.74</ele><time>2026-08-20T09:54:34Z</time></trkpt><trkpt lat="60.1232243981" lon="30.5260126758"><ele>6765.90</ele><time>2026-08-20T09:54:35Z</time></trkpt><trkpt lat="60.1232229732" lon="30.5260139331"><ele>6762.05</ele><time>2026-08-20T09:54:36Z</time></trkpt><trkpt lat="60.1232215483" lon="30.5260153580"><ele>6758.21</ele><time>2026-08-20T09:54:37Z</time></trkpt><trkpt lat="60.1232193690" lon="30.5260137655"><ele>6754.84</ele><time>2026-08-20T09:54:38Z</time></trkpt><trkpt lat="60.1232168544" lon="30.5260133464"><ele>6751.00</ele><time>2026-08-20T09:54:39Z</time></trkpt><trkpt lat="60.1232150942" lon="30.5260120891"><ele>6747.15</ele><time>2026-08-20T09:54:40Z</time></trkpt><trkpt lat="60.1232134178" lon="30.5260120053"><ele>6743.31</ele><time>2026-08-20T09:54:41Z</time></trkpt><trkpt lat="60.1232114900" lon="30.5260120053"><ele>6739.94</ele><time>2026-08-20T09:54:42Z</time></trkpt><trkpt lat="60.1232087240" lon="30.5260130111"><ele>6736.10</ele><time>2026-08-20T09:54:43Z</time></trkpt><trkpt lat="60.1232072152" lon="30.5260130111"><ele>6732.25</ele><time>2026-08-20T09:54:44Z</time></trkpt><trkpt lat="60.1232052874" lon="30.5260120053"><ele>6728.89</ele><time>2026-08-20T09:54:45Z</time></trkpt><trkpt lat="60.1231991686" lon="30.5260144360"><ele>6725.04</ele><time>2026-08-20T09:54:46Z</time></trkpt><trkpt lat="60.1231966540" lon="30.5260135978"><ele>6721.19</ele><time>2026-08-20T09:54:47Z</time></trkpt><trkpt lat="60.1231944747" lon="30.5260133464"><ele>6717.35</ele><time>2026-08-20T09:54:48Z</time></trkpt><trkpt lat="60.1231920440" lon="30.5260137655"><ele>6713.98</ele><time>2026-08-20T09:54:49Z</time></trkpt><trkpt lat="60.1231893618" lon="30.5260143522"><ele>6710.14</ele><time>2026-08-20T09:54:50Z</time></trkpt><trkpt lat="60.1231834106" lon="30.5260187946"><ele>6706.29</ele><time>2026-08-20T09:54:51Z</time></trkpt><trkpt lat="60.1231817342" lon="30.5260193814"><ele>6702.93</ele><time>2026-08-20T09:54:52Z</time></trkpt><trkpt lat="60.1231757831" lon="30.5260237399"><ele>6699.08</ele><time>2026-08-20T09:54:53Z</time></trkpt><trkpt lat="60.1231730171" lon="30.5260223150"><ele>6695.24</ele><time>2026-08-20T09:54:54Z</time></trkpt><trkpt lat="60.1231739391" lon="30.5260256678"><ele>6691.87</ele><time>2026-08-20T09:54:55Z</time></trkpt><trkpt lat="60.1231727656" lon="30.5260270089"><ele>6688.03</ele><time>2026-08-20T09:54:56Z</time></trkpt><trkpt lat="60.1231659763" lon="30.5260335468"><ele>6684.18</ele><time>2026-08-20T09:54:57Z</time></trkpt><trkpt lat="60.1231658924" lon="30.5260411743"><ele>6680.82</ele><time>2026-08-20T09:54:58Z</time></trkpt><trkpt lat="60.1231606957" lon="30.5260378215"><ele>6676.97</ele><time>2026-08-20T09:54:59Z</time></trkpt><trkpt lat="60.1231549121" lon="30.5260411743"><ele>6673.13</ele><time>2026-08-20T09:55:00Z</time></trkpt><trkpt lat="60.1231482066" lon="30.5260408390"><ele>6669.76</ele><time>2026-08-20T09:55:01Z</time></trkpt><trkpt lat="60.1231436804" lon="30.5260446947"><ele>6665.92</ele><time>2026-08-20T09:55:02Z</time></trkpt><trkpt lat="60.1231404115" lon="30.5260471255"><ele>6662.07</ele><time>2026-08-20T09:55:03Z</time></trkpt><trkpt lat="60.1231383998" lon="30.5260489695"><ele>6658.71</ele><time>2026-08-20T09:55:04Z</time></trkpt><trkpt lat="60.1231354661" lon="30.5260513164"><ele>6654.86</ele><time>2026-08-20T09:55:05Z</time></trkpt><trkpt lat="60.1231328677" lon="30.5260589439"><ele>6651.02</ele><time>2026-08-20T09:55:06Z</time></trkpt><trkpt lat="60.1231290121" lon="30.5260564294"><ele>6647.65</ele><time>2026-08-20T09:55:07Z</time></trkpt><trkpt lat="60.1231270004" lon="30.5260577705"><ele>6643.81</ele><time>2026-08-20T09:55:08Z</time></trkpt><trkpt lat="60.1231246535" lon="30.5260582734"><ele>6640.44</ele><time>2026-08-20T09:55:09Z</time></trkpt><trkpt lat="60.1231223065" lon="30.5260586087"><ele>6636.60</ele><time>2026-08-20T09:55:10Z</time></trkpt><trkpt lat="60.1231191214" lon="30.5260602012"><ele>6632.75</ele><time>2026-08-20T09:55:11Z</time></trkpt><trkpt lat="60.1231161039" lon="30.5260617100"><ele>6629.39</ele><time>2026-08-20T09:55:12Z</time></trkpt><trkpt lat="60.1231137570" lon="30.5260626320"><ele>6625.54</ele><time>2026-08-20T09:55:13Z</time></trkpt><trkpt lat="60.1231107395" lon="30.5260643922"><ele>6621.70</ele><time>2026-08-20T09:55:14Z</time></trkpt><trkpt lat="60.1231077220" lon="30.5260686669"><ele>6618.33</ele><time>2026-08-20T09:55:15Z</time></trkpt><trkpt lat="60.1231077220" lon="30.5260672420"><ele>6614.49</ele><time>2026-08-20T09:55:16Z</time></trkpt><trkpt lat="60.1231059618" lon="30.5260670744"><ele>6611.12</ele><time>2026-08-20T09:55:17Z</time></trkpt><trkpt lat="60.1231048722" lon="30.5260673258"><ele>6607.28</ele><time>2026-08-20T09:55:18Z</time></trkpt><trkpt lat="60.1231028605" lon="30.5260683317"><ele>6603.91</ele><time>2026-08-20T09:55:19Z</time></trkpt><trkpt lat="60.1231015194" lon="30.5260685831"><ele>6600.07</ele><time>2026-08-20T09:55:20Z</time></trkpt><trkpt lat="60.1231002621" lon="30.5260685831"><ele>6596.22</ele><time>2026-08-20T09:55:21Z</time></trkpt><trkpt lat="60.1230990887" lon="30.5260700081"><ele>6592.86</ele><time>2026-08-20T09:55:22Z</time></trkpt><trkpt lat="60.1230983343" lon="30.5260708462"><ele>6589.01</ele><time>2026-08-20T09:55:23Z</time></trkpt><trkpt lat="60.1230977476" lon="30.5260767974"><ele>6585.65</ele><time>2026-08-20T09:55:24Z</time></trkpt><trkpt lat="60.1230968256" lon="30.5260728579"><ele>6581.80</ele><time>2026-08-20T09:55:25Z</time></trkpt><trkpt lat="60.1230959874" lon="30.5260728579"><ele>6578.44</ele><time>2026-08-20T09:55:26Z</time></trkpt><trkpt lat="60.1230952330" lon="30.5260726903"><ele>6574.59</ele><time>2026-08-20T09:55:27Z</time></trkpt><trkpt lat="60.1230934728" lon="30.5260721035"><ele>6571.23</ele><time>2026-08-20T09:55:28Z</time></trkpt><trkpt lat="60.1230918802" lon="30.5260716844"><ele>6567.38</ele><time>2026-08-20T09:55:29Z</time></trkpt><trkpt lat="60.1230906229" lon="30.5260715168"><ele>6563.54</ele><time>2026-08-20T09:55:30Z</time></trkpt><trkpt lat="60.1230901200" lon="30.5260716844"><ele>6560.17</ele><time>2026-08-20T09:55:31Z</time></trkpt><trkpt lat="60.1230888627" lon="30.5260721035"><ele>6556.33</ele><time>2026-08-20T09:55:32Z</time></trkpt><trkpt lat="60.1230874378" lon="30.5260724388"><ele>6552.96</ele><time>2026-08-20T09:55:33Z</time></trkpt><trkpt lat="60.1230860967" lon="30.5260726903"><ele>6549.12</ele><time>2026-08-20T09:55:34Z</time></trkpt><trkpt lat="60.1230844203" lon="30.5260737799"><ele>6545.75</ele><time>2026-08-20T09:55:35Z</time></trkpt><trkpt lat="60.1230822410" lon="30.5260747019"><ele>6541.91</ele><time>2026-08-20T09:55:36Z</time></trkpt><trkpt lat="60.1230793912" lon="30.5260753725"><ele>6538.54</ele><time>2026-08-20T09:55:37Z</time></trkpt><trkpt lat="60.1230765413" lon="30.5260766298"><ele>6534.70</ele><time>2026-08-20T09:55:38Z</time></trkpt><trkpt lat="60.1230730209" lon="30.5260783900"><ele>6531.33</ele><time>2026-08-20T09:55:39Z</time></trkpt><trkpt lat="60.1230699196" lon="30.5260821618"><ele>6527.49</ele><time>2026-08-20T09:55:40Z</time></trkpt><trkpt lat="60.1230674051" lon="30.5260852631"><ele>6524.12</ele><time>2026-08-20T09:55:41Z</time></trkpt><trkpt lat="60.1230642200" lon="30.5260881968"><ele>6520.28</ele><time>2026-08-20T09:55:42Z</time></trkpt><trkpt lat="60.1230593584" lon="30.5260902084"><ele>6516.92</ele><time>2026-08-20T09:55:43Z</time></trkpt><trkpt lat="60.1230451930" lon="30.5261034518"><ele>6513.07</ele><time>2026-08-20T09:55:44Z</time></trkpt><trkpt lat="60.1230340451" lon="30.5261155218"><ele>6509.70</ele><time>2026-08-20T09:55:45Z</time></trkpt><trkpt lat="60.1230261661" lon="30.5261203833"><ele>6505.86</ele><time>2026-08-20T09:55:46Z</time></trkpt><trkpt lat="60.1230166107" lon="30.5261327047"><ele>6502.49</ele><time>2026-08-20T09:55:47Z</time></trkpt><trkpt lat="60.1230103243" lon="30.5261400808"><ele>6499.13</ele><time>2026-08-20T09:55:48Z</time></trkpt><trkpt lat="60.1230037026" lon="30.5261427630"><ele>6495.29</ele><time>2026-08-20T09:55:49Z</time></trkpt><trkpt lat="60.1229969133" lon="30.5261484627"><ele>6491.92</ele><time>2026-08-20T09:55:50Z</time></trkpt><trkpt lat="60.1229894534" lon="30.5261565931"><ele>6488.08</ele><time>2026-08-20T09:55:51Z</time></trkpt><trkpt lat="60.1229846757" lon="30.5261573475"><ele>6484.71</ele><time>2026-08-20T09:55:52Z</time></trkpt><trkpt lat="60.1229788084" lon="30.5261565093"><ele>6480.86</ele><time>2026-08-20T09:55:53Z</time></trkpt><trkpt lat="60.1229725219" lon="30.5261556711"><ele>6477.50</ele><time>2026-08-20T09:55:54Z</time></trkpt><trkpt lat="60.1229649782" lon="30.5261517316"><ele>6473.66</ele><time>2026-08-20T09:55:55Z</time></trkpt><trkpt lat="60.1229572669" lon="30.5261502229"><ele>6470.29</ele><time>2026-08-20T09:55:56Z</time></trkpt><trkpt lat="60.1229471248" lon="30.5261555873"><ele>6466.93</ele><time>2026-08-20T09:55:57Z</time></trkpt><trkpt lat="60.1229435205" lon="30.5261577666"><ele>6463.08</ele><time>2026-08-20T09:55:58Z</time></trkpt><trkpt lat="60.1229405869" lon="30.5261627119"><ele>6459.72</ele><time>2026-08-20T09:55:59Z</time></trkpt><trkpt lat="60.1229312830" lon="30.5261654779"><ele>6455.87</ele><time>2026-08-20T09:56:00Z</time></trkpt><trkpt lat="60.1229245774" lon="30.5261668190"><ele>6452.51</ele><time>2026-08-20T09:56:01Z</time></trkpt><trkpt lat="60.1229173690" lon="30.5261677410"><ele>6448.66</ele><time>2026-08-20T09:56:02Z</time></trkpt><trkpt lat="60.1229111664" lon="30.5261718482"><ele>6445.30</ele><time>2026-08-20T09:56:03Z</time></trkpt><trkpt lat="60.1228893735" lon="30.5262011010"><ele>6438.09</ele><time>2026-08-20T09:56:05Z</time></trkpt><trkpt lat="60.1228775550" lon="30.5262144282"><ele>6434.72</ele><time>2026-08-20T09:56:06Z</time></trkpt><trkpt lat="60.1228644792" lon="30.5262358859"><ele>6430.88</ele><time>2026-08-20T09:56:07Z</time></trkpt><trkpt lat="60.1228486374" lon="30.5262583494"><ele>6427.51</ele><time>2026-08-20T09:56:08Z</time></trkpt><trkpt lat="60.1228483021" lon="30.5262627080"><ele>6424.15</ele><time>2026-08-20T09:56:09Z</time></trkpt><trkpt lat="60.1228425186" lon="30.5262688268"><ele>6420.30</ele><time>2026-08-20T09:56:10Z</time></trkpt><trkpt lat="60.1228266768" lon="30.5262732692"><ele>6416.94</ele><time>2026-08-20T09:56:11Z</time></trkpt><trkpt lat="60.1228148583" lon="30.5262842495"><ele>6413.57</ele><time>2026-08-20T09:56:12Z</time></trkpt><trkpt lat="60.1228076499" lon="30.5262918770"><ele>6409.73</ele><time>2026-08-20T09:56:13Z</time></trkpt><trkpt lat="60.1228047162" lon="30.5262978282"><ele>6406.36</ele><time>2026-08-20T09:56:14Z</time></trkpt><trkpt lat="60.1227802411" lon="30.5262963194"><ele>6403.00</ele><time>2026-08-20T09:56:15Z</time></trkpt><trkpt lat="60.1227755472" lon="30.5263138376"><ele>6399.15</ele><time>2026-08-20T09:56:16Z</time></trkpt><trkpt lat="60.1227748767" lon="30.5263279192"><ele>6395.79</ele><time>2026-08-20T09:56:17Z</time></trkpt><trkpt lat="60.1227576099" lon="30.5263488740"><ele>6392.42</ele><time>2026-08-20T09:56:18Z</time></trkpt><trkpt lat="60.1227526646" lon="30.5263521429"><ele>6388.58</ele><time>2026-08-20T09:56:19Z</time></trkpt><trkpt lat="60.1227495633" lon="30.5263546575"><ele>6385.21</ele><time>2026-08-20T09:56:20Z</time></trkpt><trkpt lat="60.1227444503" lon="30.5263611954"><ele>6381.85</ele><time>2026-08-20T09:56:21Z</time></trkpt><trkpt lat="60.1227269322" lon="30.5263852514"><ele>6378.00</ele><time>2026-08-20T09:56:22Z</time></trkpt><trkpt lat="60.1227233279" lon="30.5263901129"><ele>6374.64</ele><time>2026-08-20T09:56:23Z</time></trkpt><trkpt lat="60.1227084920" lon="30.5264269933"><ele>6371.27</ele><time>2026-08-20T09:56:24Z</time></trkpt><trkpt lat="60.1227027923" lon="30.5264379736"><ele>6367.43</ele><time>2026-08-20T09:56:25Z</time></trkpt><trkpt lat="60.1226777304" lon="30.5264737643"><ele>6364.06</ele><time>2026-08-20T09:56:26Z</time></trkpt><trkpt lat="60.1226641517" lon="30.5264895223"><ele>6360.70</ele><time>2026-08-20T09:56:27Z</time></trkpt><trkpt lat="60.1226564404" lon="30.5264982395"><ele>6356.86</ele><time>2026-08-20T09:56:28Z</time></trkpt><trkpt lat="60.1226401795" lon="30.5265147518"><ele>6353.49</ele><time>2026-08-20T09:56:29Z</time></trkpt><trkpt lat="60.1225980185" lon="30.5265526380"><ele>6350.13</ele><time>2026-08-20T09:56:30Z</time></trkpt><trkpt lat="60.1225680113" lon="30.5265866686"><ele>6346.76</ele><time>2026-08-20T09:56:31Z</time></trkpt><trkpt lat="60.1225649100" lon="30.5265918653"><ele>6342.92</ele><time>2026-08-20T09:56:32Z</time></trkpt><trkpt lat="60.1225608867" lon="30.5265969783"><ele>6339.55</ele><time>2026-08-20T09:56:33Z</time></trkpt><trkpt lat="60.1225419436" lon="30.5266212020"><ele>6336.19</ele><time>2026-08-20T09:56:34Z</time></trkpt><trkpt lat="60.1225272752" lon="30.5266404804"><ele>6332.34</ele><time>2026-08-20T09:56:35Z</time></trkpt><trkpt lat="60.1225147862" lon="30.5266535562"><ele>6328.98</ele><time>2026-08-20T09:56:36Z</time></trkpt><trkpt lat="60.1225018781" lon="30.5266640335"><ele>6325.61</ele><time>2026-08-20T09:56:37Z</time></trkpt><trkpt lat="60.1224802528" lon="30.5266890116"><ele>6322.25</ele><time>2026-08-20T09:56:38Z</time></trkpt><trkpt lat="60.1224599686" lon="30.5267106369"><ele>6318.40</ele><time>2026-08-20T09:56:39Z</time></trkpt><trkpt lat="60.1224508323" lon="30.5267175939"><ele>6315.04</ele><time>2026-08-20T09:56:40Z</time></trkpt><trkpt lat="60.1224354096" lon="30.5267324299"><ele>6311.67</ele><time>2026-08-20T09:56:41Z</time></trkpt><trkpt lat="60.1224205736" lon="30.5267459247"><ele>6308.31</ele><time>2026-08-20T09:56:42Z</time></trkpt><trkpt lat="60.1224080008" lon="30.5267570727"><ele>6304.46</ele><time>2026-08-20T09:56:43Z</time></trkpt><trkpt lat="60.1223967690" lon="30.5267671309"><ele>6301.10</ele><time>2026-08-20T09:56:44Z</time></trkpt><trkpt lat="60.1223896444" lon="30.5267759319"><ele>6297.73</ele><time>2026-08-20T09:56:45Z</time></trkpt><trkpt lat="60.1223806757" lon="30.5267815478"><ele>6294.37</ele><time>2026-08-20T09:56:46Z</time></trkpt><trkpt lat="60.1223738864" lon="30.5267850682"><ele>6291.00</ele><time>2026-08-20T09:56:47Z</time></trkpt><trkpt lat="60.1223679353" lon="30.5267890077"><ele>6287.16</ele><time>2026-08-20T09:56:48Z</time></trkpt><trkpt lat="60.1223574579" lon="30.5268041790"><ele>6283.79</ele><time>2026-08-20T09:56:49Z</time></trkpt><trkpt lat="60.1223475672" lon="30.5268149078"><ele>6280.43</ele><time>2026-08-20T09:56:50Z</time></trkpt><trkpt lat="60.1223385148" lon="30.5268233735"><ele>6277.07</ele><time>2026-08-20T09:56:51Z</time></trkpt><trkpt lat="60.1223279536" lon="30.5268310849"><ele>6273.70</ele><time>2026-08-20T09:56:52Z</time></trkpt><trkpt lat="60.1223169733" lon="30.5268357787"><ele>6269.86</ele><time>2026-08-20T09:56:53Z</time></trkpt><trkpt lat="60.1223078370" lon="30.5268367846"><ele>6266.49</ele><time>2026-08-20T09:56:54Z</time></trkpt><trkpt lat="60.1223002933" lon="30.5268374551"><ele>6263.13</ele><time>2026-08-20T09:56:55Z</time></trkpt><trkpt lat="60.1222940069" lon="30.5268495250"><ele>6259.76</ele><time>2026-08-20T09:56:56Z</time></trkpt><trkpt lat="60.1222867146" lon="30.5268623494"><ele>6256.40</ele><time>2026-08-20T09:56:57Z</time></trkpt><trkpt lat="60.1222759020" lon="30.5268701445"><ele>6252.55</ele><time>2026-08-20T09:56:58Z</time></trkpt><trkpt lat="60.1222690288" lon="30.5268760119"><ele>6249.19</ele><time>2026-08-20T09:56:59Z</time></trkpt><trkpt lat="60.1222664304" lon="30.5268829688"><ele>6245.82</ele><time>2026-08-20T09:57:00Z</time></trkpt><trkpt lat="60.1222635806" lon="30.5268781073"><ele>6242.46</ele><time>2026-08-20T09:57:01Z</time></trkpt><trkpt lat="60.1222645026" lon="30.5268724076"><ele>6239.09</ele><time>2026-08-20T09:57:02Z</time></trkpt><trkpt lat="60.1222598925" lon="30.5268788617"><ele>6235.73</ele><time>2026-08-20T09:57:03Z</time></trkpt><trkpt lat="60.1222533546" lon="30.5268864054"><ele>6231.88</ele><time>2026-08-20T09:57:04Z</time></trkpt><trkpt lat="60.1222515944" lon="30.5268910155"><ele>6228.52</ele><time>2026-08-20T09:57:05Z</time></trkpt><trkpt lat="60.1222489960" lon="30.5268910993"><ele>6225.15</ele><time>2026-08-20T09:57:06Z</time></trkpt><trkpt lat="60.1222484093" lon="30.5268905126"><ele>6221.79</ele><time>2026-08-20T09:57:07Z</time></trkpt><trkpt lat="60.1222463138" lon="30.5268890876"><ele>6218.43</ele><time>2026-08-20T09:57:08Z</time></trkpt><trkpt lat="60.1222477388" lon="30.5268900096"><ele>6215.06</ele><time>2026-08-20T09:57:09Z</time></trkpt><trkpt lat="60.1222473197" lon="30.5268893391"><ele>6211.70</ele><time>2026-08-20T09:57:10Z</time></trkpt><trkpt lat="60.1222463138" lon="30.5268891715"><ele>6208.33</ele><time>2026-08-20T09:57:11Z</time></trkpt><trkpt lat="60.1222481579" lon="30.5268840585"><ele>6204.49</ele><time>2026-08-20T09:57:12Z</time></trkpt><trkpt lat="60.1222451404" lon="30.5268890876"><ele>6201.12</ele><time>2026-08-20T09:57:13Z</time></trkpt><trkpt lat="60.1222445536" lon="30.5268880818"><ele>6197.76</ele><time>2026-08-20T09:57:14Z</time></trkpt><trkpt lat="60.1222437155" lon="30.5268865731"><ele>6194.39</ele><time>2026-08-20T09:57:15Z</time></trkpt><trkpt lat="60.1222439669" lon="30.5268847290"><ele>6191.03</ele><time>2026-08-20T09:57:16Z</time></trkpt><trkpt lat="60.1222424582" lon="30.5268829688"><ele>6187.66</ele><time>2026-08-20T09:57:17Z</time></trkpt><trkpt lat="60.1222415362" lon="30.5268802866"><ele>6184.30</ele><time>2026-08-20T09:57:18Z</time></trkpt><trkpt lat="60.1222415362" lon="30.5268788617"><ele>6180.93</ele><time>2026-08-20T09:57:19Z</time></trkpt><trkpt lat="60.1222404465" lon="30.5268784426"><ele>6177.57</ele><time>2026-08-20T09:57:20Z</time></trkpt><trkpt lat="60.1222404465" lon="30.5268778559"><ele>6174.20</ele><time>2026-08-20T09:57:21Z</time></trkpt><trkpt lat="60.1222408656" lon="30.5268777721"><ele>6170.36</ele><time>2026-08-20T09:57:22Z</time></trkpt><trkpt lat="60.1222412847" lon="30.5268772691"><ele>6167.00</ele><time>2026-08-20T09:57:23Z</time></trkpt><trkpt lat="60.1222433802" lon="30.5268778559"><ele>6163.63</ele><time>2026-08-20T09:57:24Z</time></trkpt><trkpt lat="60.1222417876" lon="30.5268767662"><ele>6160.27</ele><time>2026-08-20T09:57:25Z</time></trkpt><trkpt lat="60.1222417876" lon="30.5268765986"><ele>6156.90</ele><time>2026-08-20T09:57:26Z</time></trkpt><trkpt lat="60.1222417038" lon="30.5268763471"><ele>6153.54</ele><time>2026-08-20T09:57:27Z</time></trkpt><trkpt lat="60.1222417876" lon="30.5268762633"><ele>6150.17</ele><time>2026-08-20T09:57:28Z</time></trkpt><trkpt lat="60.1222421229" lon="30.5268760957"><ele>6146.81</ele><time>2026-08-20T09:57:29Z</time></trkpt><trkpt lat="60.1222419553" lon="30.5268757604"><ele>6143.44</ele><time>2026-08-20T09:57:30Z</time></trkpt><trkpt lat="60.1222417038" lon="30.5268749222"><ele>6140.08</ele><time>2026-08-20T09:57:31Z</time></trkpt><trkpt lat="60.1222410332" lon="30.5268741678"><ele>6136.71</ele><time>2026-08-20T09:57:32Z</time></trkpt><trkpt lat="60.1222385187" lon="30.5268788617"><ele>6133.35</ele><time>2026-08-20T09:57:33Z</time></trkpt><trkpt lat="60.1222410332" lon="30.5268714018"><ele>6129.98</ele><time>2026-08-20T09:57:34Z</time></trkpt><trkpt lat="60.1222411171" lon="30.5268709827"><ele>6126.62</ele><time>2026-08-20T09:57:35Z</time></trkpt><trkpt lat="60.1222408656" lon="30.5268708151"><ele>6123.25</ele><time>2026-08-20T09:57:36Z</time></trkpt><trkpt lat="60.1222403627" lon="30.5268703960"><ele>6119.89</ele><time>2026-08-20T09:57:37Z</time></trkpt><trkpt lat="60.1222394407" lon="30.5268715695"><ele>6116.53</ele><time>2026-08-20T09:57:38Z</time></trkpt><trkpt lat="60.1222376805" lon="30.5268725753"><ele>6113.16</ele><time>2026-08-20T09:57:39Z</time></trkpt><trkpt lat="60.1222363394" lon="30.5268745031"><ele>6109.80</ele><time>2026-08-20T09:57:40Z</time></trkpt><trkpt lat="60.1222352497" lon="30.5268760957"><ele>6106.43</ele><time>2026-08-20T09:57:41Z</time></trkpt><trkpt lat="60.1222324837" lon="30.5268777721"><ele>6103.07</ele><time>2026-08-20T09:57:42Z</time></trkpt><trkpt lat="60.1222298853" lon="30.5268787779"><ele>6099.70</ele><time>2026-08-20T09:57:43Z</time></trkpt><trkpt lat="60.1222264487" lon="30.5268802866"><ele>6096.34</ele><time>2026-08-20T09:57:44Z</time></trkpt><trkpt lat="60.1222251914" lon="30.5268802028"><ele>6092.97</ele><time>2026-08-20T09:57:45Z</time></trkpt><trkpt lat="60.1222255267" lon="30.5268788617"><ele>6089.61</ele><time>2026-08-20T09:57:46Z</time></trkpt><trkpt lat="60.1222246885" lon="30.5268783588"><ele>6086.24</ele><time>2026-08-20T09:57:47Z</time></trkpt><trkpt lat="60.1222236827" lon="30.5268781073"><ele>6082.88</ele><time>2026-08-20T09:57:48Z</time></trkpt><trkpt lat="60.1222228445" lon="30.5268768501"><ele>6079.51</ele><time>2026-08-20T09:57:49Z</time></trkpt><trkpt lat="60.1222215872" lon="30.5268762633"><ele>6076.15</ele><time>2026-08-20T09:57:50Z</time></trkpt><trkpt lat="60.1222193241" lon="30.5268755089"><ele>6072.79</ele><time>2026-08-20T09:57:51Z</time></trkpt><trkpt lat="60.1222171448" lon="30.5268755928"><ele>6069.42</ele><time>2026-08-20T09:57:52Z</time></trkpt><trkpt lat="60.1222142950" lon="30.5268750060"><ele>6066.06</ele><time>2026-08-20T09:57:53Z</time></trkpt><trkpt lat="60.1222111937" lon="30.5268747546"><ele>6062.69</ele><time>2026-08-20T09:57:54Z</time></trkpt><trkpt lat="60.1222093496" lon="30.5268751737"><ele>6059.33</ele><time>2026-08-20T09:57:55Z</time></trkpt><trkpt lat="60.1222082600" lon="30.5268747546"><ele>6055.96</ele><time>2026-08-20T09:57:56Z</time></trkpt><trkpt lat="60.1222067513" lon="30.5268735811"><ele>6052.60</ele><time>2026-08-20T09:57:57Z</time></trkpt><trkpt lat="60.1222055778" lon="30.5268724915"><ele>6049.23</ele><time>2026-08-20T09:57:58Z</time></trkpt><trkpt lat="60.1222057454" lon="30.5268711504"><ele>6045.87</ele><time>2026-08-20T09:57:59Z</time></trkpt><trkpt lat="60.1222070027" lon="30.5268688872"><ele>6042.50</ele><time>2026-08-20T09:58:00Z</time></trkpt><trkpt lat="60.1222069189" lon="30.5268671270"><ele>6039.62</ele><time>2026-08-20T09:58:01Z</time></trkpt><trkpt lat="60.1222061645" lon="30.5268653668"><ele>6036.26</ele><time>2026-08-20T09:58:02Z</time></trkpt><trkpt lat="60.1222060807" lon="30.5268637743"><ele>6032.89</ele><time>2026-08-20T09:58:03Z</time></trkpt><trkpt lat="60.1222061645" lon="30.5268624332"><ele>6029.53</ele><time>2026-08-20T09:58:04Z</time></trkpt><trkpt lat="60.1222059131" lon="30.5268609244"><ele>6026.16</ele><time>2026-08-20T09:58:05Z</time></trkpt><trkpt lat="60.1222054940" lon="30.5268590804"><ele>6022.80</ele><time>2026-08-20T09:58:06Z</time></trkpt><trkpt lat="60.1222049911" lon="30.5268585775"><ele>6019.43</ele><time>2026-08-20T09:58:07Z</time></trkpt><trkpt lat="60.1222046558" lon="30.5268579908"><ele>6016.07</ele><time>2026-08-20T09:58:08Z</time></trkpt><trkpt lat="60.1222047396" lon="30.5268559791"><ele>6012.70</ele><time>2026-08-20T09:58:09Z</time></trkpt><trkpt lat="60.1222044043" lon="30.5268543866"><ele>6009.34</ele><time>2026-08-20T09:58:10Z</time></trkpt><trkpt lat="60.1222047396" lon="30.5268549733"><ele>6006.45</ele><time>2026-08-20T09:58:11Z</time></trkpt><trkpt lat="60.1222046558" lon="30.5268563982"><ele>6003.09</ele><time>2026-08-20T09:58:12Z</time></trkpt><trkpt lat="60.1222049911" lon="30.5268575717"><ele>5999.73</ele><time>2026-08-20T09:58:13Z</time></trkpt><trkpt lat="60.1222054102" lon="30.5268581584"><ele>5996.36</ele><time>2026-08-20T09:58:14Z</time></trkpt><trkpt lat="60.1222054102" lon="30.5268603377"><ele>5993.00</ele><time>2026-08-20T09:58:15Z</time></trkpt><trkpt lat="60.1222056616" lon="30.5268612597"><ele>5989.63</ele><time>2026-08-20T09:58:16Z</time></trkpt><trkpt lat="60.1222057454" lon="30.5268629361"><ele>5986.27</ele><time>2026-08-20T09:58:17Z</time></trkpt><trkpt lat="60.1222058292" lon="30.5268651992"><ele>5982.90</ele><time>2026-08-20T09:58:18Z</time></trkpt><trkpt lat="60.1222059131" lon="30.5268665403"><ele>5980.02</ele><time>2026-08-20T09:58:19Z</time></trkpt><trkpt lat="60.1222060807" lon="30.5268801190"><ele>5976.65</ele><time>2026-08-20T09:58:20Z</time></trkpt><trkpt lat="60.1222085953" lon="30.5268956255"><ele>5973.29</ele><time>2026-08-20T09:58:21Z</time></trkpt><trkpt lat="60.1222064998" lon="30.5269137304"><ele>5969.92</ele><time>2026-08-20T09:58:22Z</time></trkpt><trkpt lat="60.1222008001" lon="30.5269569810"><ele>5963.20</ele><time>2026-08-20T09:58:24Z</time></trkpt><trkpt lat="60.1222000457" lon="30.5269779358"><ele>5960.31</ele><time>2026-08-20T09:58:25Z</time></trkpt><trkpt lat="60.1221984532" lon="30.5269985553"><ele>5956.95</ele><time>2026-08-20T09:58:26Z</time></trkpt><trkpt lat="60.1221957710" lon="30.5270190071"><ele>5953.58</ele><time>2026-08-20T09:58:27Z</time></trkpt><trkpt lat="60.1221953519" lon="30.5270401295"><ele>5950.22</ele><time>2026-08-20T09:58:28Z</time></trkpt><trkpt lat="60.1221928373" lon="30.5270629283"><ele>5946.85</ele><time>2026-08-20T09:58:29Z</time></trkpt><trkpt lat="60.1221923344" lon="30.5270863976"><ele>5943.49</ele><time>2026-08-20T09:58:30Z</time></trkpt><trkpt lat="60.1221921667" lon="30.5271071009"><ele>5940.60</ele><time>2026-08-20T09:58:31Z</time></trkpt><trkpt lat="60.1221891493" lon="30.5271211825"><ele>5937.24</ele><time>2026-08-20T09:58:32Z</time></trkpt><trkpt lat="60.1221852936" lon="30.5271294806"><ele>5933.88</ele><time>2026-08-20T09:58:33Z</time></trkpt><trkpt lat="60.1221854612" lon="30.5271283910"><ele>5930.51</ele><time>2026-08-20T09:58:34Z</time></trkpt><trkpt lat="60.1221852098" lon="30.5271288939"><ele>5927.15</ele><time>2026-08-20T09:58:35Z</time></trkpt><trkpt lat="60.1221831981" lon="30.5271267984"><ele>5924.26</ele><time>2026-08-20T09:58:36Z</time></trkpt><trkpt lat="60.1221850421" lon="30.5271325819"><ele>5920.90</ele><time>2026-08-20T09:58:37Z</time></trkpt><trkpt lat="60.1221847069" lon="30.5271339230"><ele>5917.53</ele><time>2026-08-20T09:58:38Z</time></trkpt><trkpt lat="60.1221839525" lon="30.5271353479"><ele>5914.17</ele><time>2026-08-20T09:58:39Z</time></trkpt><trkpt lat="60.1221837848" lon="30.5271392874"><ele>5910.80</ele><time>2026-08-20T09:58:40Z</time></trkpt><trkpt lat="60.1221824437" lon="30.5271457415"><ele>5907.92</ele><time>2026-08-20T09:58:41Z</time></trkpt><trkpt lat="60.1221803483" lon="30.5271516927"><ele>5904.55</ele><time>2026-08-20T09:58:42Z</time></trkpt><trkpt lat="60.1221795939" lon="30.5271552969"><ele>5901.19</ele><time>2026-08-20T09:58:43Z</time></trkpt><trkpt lat="60.1221799292" lon="30.5271581467"><ele>5897.83</ele><time>2026-08-20T09:58:44Z</time></trkpt><trkpt lat="60.1221794263" lon="30.5271605775"><ele>5894.94</ele><time>2026-08-20T09:58:45Z</time></trkpt><trkpt lat="60.1221797615" lon="30.5271626730"><ele>5891.58</ele><time>2026-08-20T09:58:46Z</time></trkpt><trkpt lat="60.1221790910" lon="30.5271732341"><ele>5888.21</ele><time>2026-08-20T09:58:47Z</time></trkpt><trkpt lat="60.1221706253" lon="30.5271888245"><ele>5884.85</ele><time>2026-08-20T09:58:48Z</time></trkpt><trkpt lat="60.1221640036" lon="30.5271977093"><ele>5881.96</ele><time>2026-08-20T09:58:49Z</time></trkpt><trkpt lat="60.1221599802" lon="30.5272070970"><ele>5878.60</ele><time>2026-08-20T09:58:50Z</time></trkpt><trkpt lat="60.1221546996" lon="30.5272127129"><ele>5875.23</ele><time>2026-08-20T09:58:51Z</time></trkpt><trkpt lat="60.1221499220" lon="30.5272205919"><ele>5871.87</ele><time>2026-08-20T09:58:52Z</time></trkpt><trkpt lat="60.1221427973" lon="30.5272311531"><ele>5868.99</ele><time>2026-08-20T09:58:53Z</time></trkpt><trkpt lat="60.1221384387" lon="30.5272347573"><ele>5865.62</ele><time>2026-08-20T09:58:54Z</time></trkpt><trkpt lat="60.1221354213" lon="30.5272391159"><ele>5862.26</ele><time>2026-08-20T09:58:55Z</time></trkpt><trkpt lat="60.1221335772" lon="30.5272420496"><ele>5858.89</ele><time>2026-08-20T09:58:56Z</time></trkpt><trkpt lat="60.1221346669" lon="30.5272395350"><ele>5856.01</ele><time>2026-08-20T09:58:57Z</time></trkpt><trkpt lat="60.1221344993" lon="30.5272397865"><ele>5852.64</ele><time>2026-08-20T09:58:58Z</time></trkpt><trkpt lat="60.1221344993" lon="30.5272404570"><ele>5849.28</ele><time>2026-08-20T09:58:59Z</time></trkpt><trkpt lat="60.1221335772" lon="30.5272405408"><ele>5846.40</ele><time>2026-08-20T09:59:00Z</time></trkpt><trkpt lat="60.1221319009" lon="30.5272411276"><ele>5843.03</ele><time>2026-08-20T09:59:01Z</time></trkpt><trkpt lat="60.1221313141" lon="30.5272412114"><ele>5839.67</ele><time>2026-08-20T09:59:02Z</time></trkpt><trkpt lat="60.1221303083" lon="30.5272412114"><ele>5836.78</ele><time>2026-08-20T09:59:03Z</time></trkpt><trkpt lat="60.1221297216" lon="30.5272407923"><ele>5833.42</ele><time>2026-08-20T09:59:04Z</time></trkpt><trkpt lat="60.1221292187" lon="30.5272405408"><ele>5830.05</ele><time>2026-08-20T09:59:05Z</time></trkpt><trkpt lat="60.1221272908" lon="30.5272428039"><ele>5826.69</ele><time>2026-08-20T09:59:06Z</time></trkpt><trkpt lat="60.1221287996" lon="30.5272428878"><ele>5823.80</ele><time>2026-08-20T09:59:07Z</time></trkpt><trkpt lat="60.1221284643" lon="30.5272443965"><ele>5820.44</ele><time>2026-08-20T09:59:08Z</time></trkpt><trkpt lat="60.1221282966" lon="30.5272455700"><ele>5817.08</ele><time>2026-08-20T09:59:09Z</time></trkpt><trkpt lat="60.1221274585" lon="30.5272460729"><ele>5814.19</ele><time>2026-08-20T09:59:10Z</time></trkpt><trkpt lat="60.1221255306" lon="30.5272470787"><ele>5810.83</ele><time>2026-08-20T09:59:11Z</time></trkpt><trkpt lat="60.1221263688" lon="30.5272469949"><ele>5807.46</ele><time>2026-08-20T09:59:12Z</time></trkpt><trkpt lat="60.1221258659" lon="30.5272485036"><ele>5804.58</ele><time>2026-08-20T09:59:13Z</time></trkpt><trkpt lat="60.1221252792" lon="30.5272505153"><ele>5801.21</ele><time>2026-08-20T09:59:14Z</time></trkpt><trkpt lat="60.1221256983" lon="30.5272521079"><ele>5797.85</ele><time>2026-08-20T09:59:15Z</time></trkpt><trkpt lat="60.1221234351" lon="30.5272527784"><ele>5794.96</ele><time>2026-08-20T09:59:16Z</time></trkpt><trkpt lat="60.1221208367" lon="30.5272538681"><ele>5791.60</ele><time>2026-08-20T09:59:17Z</time></trkpt><trkpt lat="60.1221202500" lon="30.5272531975"><ele>5788.72</ele><time>2026-08-20T09:59:18Z</time></trkpt><trkpt lat="60.1221161429" lon="30.5272537004"><ele>5785.35</ele><time>2026-08-20T09:59:19Z</time></trkpt><trkpt lat="60.1221164782" lon="30.5272576399"><ele>5781.99</ele><time>2026-08-20T09:59:20Z</time></trkpt><trkpt lat="60.1221142150" lon="30.5272580590"><ele>5779.10</ele><time>2026-08-20T09:59:21Z</time></trkpt><trkpt lat="60.1221119519" lon="30.5272578914"><ele>5775.74</ele><time>2026-08-20T09:59:22Z</time></trkpt><trkpt lat="60.1221096050" lon="30.5272583105"><ele>5772.37</ele><time>2026-08-20T09:59:23Z</time></trkpt><trkpt lat="60.1221072581" lon="30.5272594001"><ele>5769.49</ele><time>2026-08-20T09:59:24Z</time></trkpt><trkpt lat="60.1221049111" lon="30.5272609089"><ele>5766.12</ele><time>2026-08-20T09:59:25Z</time></trkpt><trkpt lat="60.1221025642" lon="30.5272616632"><ele>5763.24</ele><time>2026-08-20T09:59:26Z</time></trkpt><trkpt lat="60.1220999658" lon="30.5272628367"><ele>5759.88</ele><time>2026-08-20T09:59:27Z</time></trkpt><trkpt lat="60.1220978703" lon="30.5272636749"><ele>5756.51</ele><time>2026-08-20T09:59:28Z</time></trkpt><trkpt lat="60.1220954396" lon="30.5272640940"><ele>5753.63</ele><time>2026-08-20T09:59:29Z</time></trkpt><trkpt lat="60.1220968645" lon="30.5272721406"><ele>5750.26</ele><time>2026-08-20T09:59:30Z</time></trkpt><trkpt lat="60.1220930088" lon="30.5272640102"><ele>5747.38</ele><time>2026-08-20T09:59:31Z</time></trkpt><trkpt lat="60.1220922545" lon="30.5272645969"><ele>5744.01</ele><time>2026-08-20T09:59:32Z</time></trkpt><trkpt lat="60.1220922545" lon="30.5272661895"><ele>5740.65</ele><time>2026-08-20T09:59:33Z</time></trkpt><trkpt lat="60.1220915839" lon="30.5272661056"><ele>5737.77</ele><time>2026-08-20T09:59:34Z</time></trkpt><trkpt lat="60.1220910810" lon="30.5272662733"><ele>5734.40</ele><time>2026-08-20T09:59:35Z</time></trkpt><trkpt lat="60.1220897399" lon="30.5272659380"><ele>5731.52</ele><time>2026-08-20T09:59:36Z</time></trkpt><trkpt lat="60.1220914163" lon="30.5272718053"><ele>5728.15</ele><time>2026-08-20T09:59:37Z</time></trkpt><trkpt lat="60.1220890693" lon="30.5272702128"><ele>5725.27</ele><time>2026-08-20T09:59:38Z</time></trkpt><trkpt lat="60.1220905781" lon="30.5272768345"><ele>5721.90</ele><time>2026-08-20T09:59:39Z</time></trkpt><trkpt lat="60.1220878959" lon="30.5272775050"><ele>5718.54</ele><time>2026-08-20T09:59:40Z</time></trkpt><trkpt lat="60.1220880635" lon="30.5272917543"><ele>5715.66</ele><time>2026-08-20T09:59:41Z</time></trkpt><trkpt lat="60.1220898237" lon="30.5273013934"><ele>5712.29</ele><time>2026-08-20T09:59:42Z</time></trkpt><trkpt lat="60.1220919192" lon="30.5273056682"><ele>5709.41</ele><time>2026-08-20T09:59:43Z</time></trkpt><trkpt lat="60.1220889855" lon="30.5273083504"><ele>5706.04</ele><time>2026-08-20T09:59:44Z</time></trkpt><trkpt lat="60.1220874768" lon="30.5273116194"><ele>5703.16</ele><time>2026-08-20T09:59:45Z</time></trkpt><trkpt lat="60.1220860519" lon="30.5273149721"><ele>5699.79</ele><time>2026-08-20T09:59:46Z</time></trkpt><trkpt lat="60.1220787596" lon="30.5273233540"><ele>5696.91</ele><time>2026-08-20T09:59:47Z</time></trkpt><trkpt lat="60.1220768318" lon="30.5273249466"><ele>5693.55</ele><time>2026-08-20T09:59:48Z</time></trkpt><trkpt lat="60.1220797654" lon="30.5273265392"><ele>5690.66</ele><time>2026-08-20T09:59:49Z</time></trkpt><trkpt lat="60.1220789272" lon="30.5273298919"><ele>5687.30</ele><time>2026-08-20T09:59:50Z</time></trkpt><trkpt lat="60.1220767479" lon="30.5273344181"><ele>5684.41</ele><time>2026-08-20T09:59:51Z</time></trkpt><trkpt lat="60.1220757421" lon="30.5273402017"><ele>5681.05</ele><time>2026-08-20T09:59:52Z</time></trkpt><trkpt lat="60.1220755745" lon="30.5273435544"><ele>5678.16</ele><time>2026-08-20T09:59:53Z</time></trkpt><trkpt lat="60.1220744010" lon="30.5273488350"><ele>5674.80</ele><time>2026-08-20T09:59:54Z</time></trkpt><trkpt lat="60.1220728923" lon="30.5273556244"><ele>5671.92</ele><time>2026-08-20T09:59:55Z</time></trkpt><trkpt lat="60.1220653486" lon="30.5273790099"><ele>5668.55</ele><time>2026-08-20T09:59:56Z</time></trkpt><trkpt lat="60.1220584754" lon="30.5273907445"><ele>5665.67</ele><time>2026-08-20T09:59:57Z</time></trkpt><trkpt lat="60.1220513508" lon="30.5274100229"><ele>5662.30</ele><time>2026-08-20T09:59:58Z</time></trkpt><trkpt lat="60.1220443100" lon="30.5274270382"><ele>5659.42</ele><time>2026-08-20T09:59:59Z</time></trkpt><trkpt lat="60.1220375206" lon="30.5274388567"><ele>5656.05</ele><time>2026-08-20T10:00:00Z</time></trkpt><trkpt lat="60.1220314857" lon="30.5274503399"><ele>5653.17</ele><time>2026-08-20T10:00:01Z</time></trkpt><trkpt lat="60.1220263727" lon="30.5274620745"><ele>5649.81</ele><time>2026-08-20T10:00:02Z</time></trkpt><trkpt lat="60.1220239419" lon="30.5274708755"><ele>5646.92</ele><time>2026-08-20T10:00:03Z</time></trkpt><trkpt lat="60.1220215112" lon="30.5274805147"><ele>5643.56</ele><time>2026-08-20T10:00:04Z</time></trkpt><trkpt lat="60.1220189966" lon="30.5274871364"><ele>5640.67</ele><time>2026-08-20T10:00:05Z</time></trkpt><trkpt lat="60.1220049150" lon="30.5275084265"><ele>5637.31</ele><time>2026-08-20T10:00:06Z</time></trkpt><trkpt lat="60.1220006403" lon="30.5275122821"><ele>5634.42</ele><time>2026-08-20T10:00:07Z</time></trkpt><trkpt lat="60.1219866425" lon="30.5275427923"><ele>5631.06</ele><time>2026-08-20T10:00:08Z</time></trkpt><trkpt lat="60.1219791826" lon="30.5275501683"><ele>5628.18</ele><time>2026-08-20T10:00:09Z</time></trkpt><trkpt lat="60.1219816133" lon="30.5275482405"><ele>5624.81</ele><time>2026-08-20T10:00:10Z</time></trkpt><trkpt lat="60.1219665259" lon="30.5275698658"><ele>5621.93</ele><time>2026-08-20T10:00:11Z</time></trkpt><trkpt lat="60.1219569705" lon="30.5275806785"><ele>5619.04</ele><time>2026-08-20T10:00:12Z</time></trkpt><trkpt lat="60.1219511032" lon="30.5275870487"><ele>5615.68</ele><time>2026-08-20T10:00:13Z</time></trkpt><trkpt lat="60.1219495106" lon="30.5275846180"><ele>5612.79</ele><time>2026-08-20T10:00:14Z</time></trkpt><trkpt lat="60.1219390333" lon="30.5276017170"><ele>5609.43</ele><time>2026-08-20T10:00:15Z</time></trkpt><trkpt lat="60.1219362672" lon="30.5276039802"><ele>5606.55</ele><time>2026-08-20T10:00:16Z</time></trkpt><trkpt lat="60.1219324954" lon="30.5276081711"><ele>5603.18</ele><time>2026-08-20T10:00:17Z</time></trkpt><trkpt lat="60.1219289750" lon="30.5276108533"><ele>5600.30</ele><time>2026-08-20T10:00:18Z</time></trkpt><trkpt lat="60.1219257899" lon="30.5276155472"><ele>5597.41</ele><time>2026-08-20T10:00:19Z</time></trkpt><trkpt lat="60.1219220180" lon="30.5276190676"><ele>5594.05</ele><time>2026-08-20T10:00:20Z</time></trkpt><trkpt lat="60.1219185814" lon="30.5276224203"><ele>5591.17</ele><time>2026-08-20T10:00:21Z</time></trkpt><trkpt lat="60.1219100319" lon="30.5276174750"><ele>5587.80</ele><time>2026-08-20T10:00:22Z</time></trkpt><trkpt lat="60.1219092775" lon="30.5276209954"><ele>5584.92</ele><time>2026-08-20T10:00:23Z</time></trkpt><trkpt lat="60.1219091937" lon="30.5276263598"><ele>5581.55</ele><time>2026-08-20T10:00:24Z</time></trkpt><trkpt lat="60.1219015662" lon="30.5276157148"><ele>5578.67</ele><time>2026-08-20T10:00:25Z</time></trkpt><trkpt lat="60.1219012309" lon="30.5276190676"><ele>5575.78</ele><time>2026-08-20T10:00:26Z</time></trkpt><trkpt lat="60.1219006442" lon="30.5276221689"><ele>5572.42</ele><time>2026-08-20T10:00:27Z</time></trkpt><trkpt lat="60.1218953636" lon="30.5276252702"><ele>5569.54</ele><time>2026-08-20T10:00:28Z</time></trkpt><trkpt lat="60.1218908373" lon="30.5276260246"><ele>5566.65</ele><time>2026-08-20T10:00:29Z</time></trkpt><trkpt lat="60.1218885742" lon="30.5276299641"><ele>5563.29</ele><time>2026-08-20T10:00:30Z</time></trkpt><trkpt lat="60.1218864787" lon="30.5276290420"><ele>5560.40</ele><time>2026-08-20T10:00:31Z</time></trkpt><trkpt lat="60.1218827907" lon="30.5276359152"><ele>5557.04</ele><time>2026-08-20T10:00:32Z</time></trkpt><trkpt lat="60.1218806114" lon="30.5276380107"><ele>5554.15</ele><time>2026-08-20T10:00:33Z</time></trkpt><trkpt lat="60.1218785159" lon="30.5276399385"><ele>5551.27</ele><time>2026-08-20T10:00:34Z</time></trkpt><trkpt lat="60.1218755823" lon="30.5276393518"><ele>5547.91</ele><time>2026-08-20T10:00:35Z</time></trkpt><trkpt lat="60.1218734868" lon="30.5276401062"><ele>5545.02</ele><time>2026-08-20T10:00:36Z</time></trkpt><trkpt lat="60.1218694635" lon="30.5276373401"><ele>5542.14</ele><time>2026-08-20T10:00:37Z</time></trkpt><trkpt lat="60.1218687929" lon="30.5276436266"><ele>5538.77</ele><time>2026-08-20T10:00:38Z</time></trkpt><trkpt lat="60.1218670327" lon="30.5276440457"><ele>5535.89</ele><time>2026-08-20T10:00:39Z</time></trkpt><trkpt lat="60.1218658593" lon="30.5276455544"><ele>5533.01</ele><time>2026-08-20T10:00:40Z</time></trkpt><trkpt lat="60.1218649372" lon="30.5276468117"><ele>5529.64</ele><time>2026-08-20T10:00:41Z</time></trkpt><trkpt lat="60.1218640152" lon="30.5276477337"><ele>5526.76</ele><time>2026-08-20T10:00:42Z</time></trkpt><trkpt lat="60.1218633447" lon="30.5276489072"><ele>5523.87</ele><time>2026-08-20T10:00:43Z</time></trkpt><trkpt lat="60.1218604110" lon="30.5276463926"><ele>5520.51</ele><time>2026-08-20T10:00:44Z</time></trkpt><trkpt lat="60.1218537055" lon="30.5276406091"><ele>5517.62</ele><time>2026-08-20T10:00:45Z</time></trkpt><trkpt lat="60.1218463294" lon="30.5276406929"><ele>5514.74</ele><time>2026-08-20T10:00:46Z</time></trkpt><trkpt lat="60.1218435634" lon="30.5276391841"><ele>5511.38</ele><time>2026-08-20T10:00:47Z</time></trkpt><trkpt lat="60.1218404621" lon="30.5276380945"><ele>5508.49</ele><time>2026-08-20T10:00:48Z</time></trkpt><trkpt lat="60.1218387857" lon="30.5276385136"><ele>5505.61</ele><time>2026-08-20T10:00:49Z</time></trkpt><trkpt lat="60.1218371093" lon="30.5276400223"><ele>5502.24</ele><time>2026-08-20T10:00:50Z</time></trkpt><trkpt lat="60.1218348462" lon="30.5276406091"><ele>5499.36</ele><time>2026-08-20T10:00:51Z</time></trkpt><trkpt lat="60.1218334213" lon="30.5276421178"><ele>5496.48</ele><time>2026-08-20T10:00:52Z</time></trkpt><trkpt lat="60.1218322478" lon="30.5276437104"><ele>5493.11</ele><time>2026-08-20T10:00:53Z</time></trkpt><trkpt lat="60.1218302362" lon="30.5276463088"><ele>5490.23</ele><time>2026-08-20T10:00:54Z</time></trkpt><trkpt lat="60.1218287274" lon="30.5276477337"><ele>5487.34</ele><time>2026-08-20T10:00:55Z</time></trkpt><trkpt lat="60.1218262129" lon="30.5276479013"><ele>5484.46</ele><time>2026-08-20T10:00:56Z</time></trkpt><trkpt lat="60.1218231954" lon="30.5276509188"><ele>5481.09</ele><time>2026-08-20T10:00:57Z</time></trkpt><trkpt lat="60.1218207646" lon="30.5276528466"><ele>5478.21</ele><time>2026-08-20T10:00:58Z</time></trkpt><trkpt lat="60.1218193397" lon="30.5276544392"><ele>5475.33</ele><time>2026-08-20T10:00:59Z</time></trkpt><trkpt lat="60.1218190044" lon="30.5276632402"><ele>5471.96</ele><time>2026-08-20T10:01:00Z</time></trkpt><trkpt lat="60.1218159031" lon="30.5276549421"><ele>5469.08</ele><time>2026-08-20T10:01:01Z</time></trkpt><trkpt lat="60.1218142267" lon="30.5276562832"><ele>5466.19</ele><time>2026-08-20T10:01:02Z</time></trkpt><trkpt lat="60.1218122151" lon="30.5276579596"><ele>5463.31</ele><time>2026-08-20T10:01:03Z</time></trkpt><trkpt lat="60.1218108740" lon="30.5276612286"><ele>5459.94</ele><time>2026-08-20T10:01:04Z</time></trkpt><trkpt lat="60.1218065154" lon="30.5276591331"><ele>5457.06</ele><time>2026-08-20T10:01:05Z</time></trkpt><trkpt lat="60.1218055934" lon="30.5276590493"><ele>5454.18</ele><time>2026-08-20T10:01:06Z</time></trkpt><trkpt lat="60.1218015701" lon="30.5276568700"><ele>5451.29</ele><time>2026-08-20T10:01:07Z</time></trkpt><trkpt lat="60.1218008157" lon="30.5276636593"><ele>5447.93</ele><time>2026-08-20T10:01:08Z</time></trkpt><trkpt lat="60.1217962895" lon="30.5276681017"><ele>5442.16</ele><time>2026-08-20T10:01:10Z</time></trkpt><trkpt lat="60.1217908412" lon="30.5276668444"><ele>5435.91</ele><time>2026-08-20T10:01:12Z</time></trkpt><trkpt lat="60.1217888296" lon="30.5276689399"><ele>5430.14</ele><time>2026-08-20T10:01:14Z</time></trkpt><trkpt lat="60.1217826270" lon="30.5276656710"><ele>5424.38</ele><time>2026-08-20T10:01:16Z</time></trkpt><trkpt lat="60.1217804477" lon="30.5276626535"><ele>5418.13</ele><time>2026-08-20T10:01:18Z</time></trkpt><trkpt lat="60.1217790227" lon="30.5276598036"><ele>5412.36</ele><time>2026-08-20T10:01:20Z</time></trkpt><trkpt lat="60.1217753347" lon="30.5276599713"><ele>5406.11</ele><time>2026-08-20T10:01:22Z</time></trkpt><trkpt lat="60.1217730716" lon="30.5276616476"><ele>5400.34</ele><time>2026-08-20T10:01:24Z</time></trkpt><trkpt lat="60.1217698026" lon="30.5276649166"><ele>5394.58</ele><time>2026-08-20T10:01:26Z</time></trkpt><trkpt lat="60.1217698865" lon="30.5276708677"><ele>5388.33</ele><time>2026-08-20T10:01:28Z</time></trkpt><trkpt lat="60.1217654441" lon="30.5276661739"><ele>5382.56</ele><time>2026-08-20T10:01:30Z</time></trkpt><trkpt lat="60.1217641030" lon="30.5276653357"><ele>5376.79</ele><time>2026-08-20T10:01:32Z</time></trkpt><trkpt lat="60.1217623428" lon="30.5276634917"><ele>5370.54</ele><time>2026-08-20T10:01:34Z</time></trkpt><trkpt lat="60.1217592414" lon="30.5276613962"><ele>5364.77</ele><time>2026-08-20T10:01:36Z</time></trkpt><trkpt lat="60.1217513625" lon="30.5276673473"><ele>5359.01</ele><time>2026-08-20T10:01:38Z</time></trkpt><trkpt lat="60.1217449922" lon="30.5276752263"><ele>5352.76</ele><time>2026-08-20T10:01:40Z</time></trkpt><trkpt lat="60.1217416395" lon="30.5276784115"><ele>5346.99</ele><time>2026-08-20T10:01:42Z</time></trkpt><trkpt lat="60.1217385381" lon="30.5276827700"><ele>5341.22</ele><time>2026-08-20T10:01:44Z</time></trkpt><trkpt lat="60.1217319164" lon="30.5276788305"><ele>5335.45</ele><time>2026-08-20T10:01:46Z</time></trkpt><trkpt lat="60.1217288151" lon="30.5276795849"><ele>5329.21</ele><time>2026-08-20T10:01:48Z</time></trkpt><trkpt lat="60.1217232831" lon="30.5276670959"><ele>5323.44</ele><time>2026-08-20T10:01:50Z</time></trkpt><trkpt lat="60.1217188407" lon="30.5276691075"><ele>5317.67</ele><time>2026-08-20T10:01:52Z</time></trkpt><trkpt lat="60.1217156556" lon="30.5276666768"><ele>5311.90</ele><time>2026-08-20T10:01:54Z</time></trkpt><trkpt lat="60.1217142306" lon="30.5276672635"><ele>5306.13</ele><time>2026-08-20T10:01:56Z</time></trkpt><trkpt lat="60.1217076927" lon="30.5276682694"><ele>5300.37</ele><time>2026-08-20T10:01:58Z</time></trkpt><trkpt lat="60.1216994785" lon="30.5276753101"><ele>5294.12</ele><time>2026-08-20T10:02:00Z</time></trkpt><trkpt lat="60.1216947846" lon="30.5276741367"><ele>5288.35</ele><time>2026-08-20T10:02:02Z</time></trkpt><trkpt lat="60.1216832176" lon="30.5276841111"><ele>5282.58</ele><time>2026-08-20T10:02:04Z</time></trkpt><trkpt lat="60.1216646098" lon="30.5276912358"><ele>5276.81</ele><time>2026-08-20T10:02:06Z</time></trkpt><trkpt lat="60.1216460858" lon="30.5276956782"><ele>5271.05</ele><time>2026-08-20T10:02:08Z</time></trkpt><trkpt lat="60.1216077805" lon="30.5277168844"><ele>5265.28</ele><time>2026-08-20T10:02:10Z</time></trkpt><trkpt lat="60.1215855684" lon="30.5277121905"><ele>5259.51</ele><time>2026-08-20T10:02:12Z</time></trkpt><trkpt lat="60.1215401385" lon="30.5277397670"><ele>5253.74</ele><time>2026-08-20T10:02:14Z</time></trkpt><trkpt lat="60.1215091255" lon="30.5277566984"><ele>5247.97</ele><time>2026-08-20T10:02:16Z</time></trkpt><trkpt lat="60.1214981452" lon="30.5277652480"><ele>5242.21</ele><time>2026-08-20T10:02:18Z</time></trkpt><trkpt lat="60.1214840636" lon="30.5277758092"><ele>5236.44</ele><time>2026-08-20T10:02:20Z</time></trkpt><trkpt lat="60.1214713231" lon="30.5277829338"><ele>5230.67</ele><time>2026-08-20T10:02:22Z</time></trkpt><trkpt lat="60.1214595884" lon="30.5277893040"><ele>5224.90</ele><time>2026-08-20T10:02:24Z</time></trkpt><trkpt lat="60.1214481052" lon="30.5277942494"><ele>5219.13</ele><time>2026-08-20T10:02:26Z</time></trkpt><trkpt lat="60.1214361191" lon="30.5277971830"><ele>5213.37</ele><time>2026-08-20T10:02:28Z</time></trkpt><trkpt lat="60.1214293297" lon="30.5277968477"><ele>5207.60</ele><time>2026-08-20T10:02:30Z</time></trkpt><trkpt lat="60.1214236300" lon="30.5277945008"><ele>5201.83</ele><time>2026-08-20T10:02:32Z</time></trkpt><trkpt lat="60.1214175951" lon="30.5277935788"><ele>5196.06</ele><time>2026-08-20T10:02:34Z</time></trkpt><trkpt lat="60.1214111410" lon="30.5277877953"><ele>5190.30</ele><time>2026-08-20T10:02:36Z</time></trkpt><trkpt lat="60.1214066148" lon="30.5277833529"><ele>5184.53</ele><time>2026-08-20T10:02:38Z</time></trkpt><trkpt lat="60.1214034297" lon="30.5277799163"><ele>5178.76</ele><time>2026-08-20T10:02:40Z</time></trkpt><trkpt lat="60.1214009989" lon="30.5277784914"><ele>5173.47</ele><time>2026-08-20T10:02:42Z</time></trkpt><trkpt lat="60.1213963050" lon="30.5277768988"><ele>5167.70</ele><time>2026-08-20T10:02:44Z</time></trkpt><trkpt lat="60.1213952154" lon="30.5277775694"><ele>5161.94</ele><time>2026-08-20T10:02:46Z</time></trkpt><trkpt lat="60.1213956345" lon="30.5277819280"><ele>5156.17</ele><time>2026-08-20T10:02:48Z</time></trkpt><trkpt lat="60.1213942096" lon="30.5277776532"><ele>5150.40</ele><time>2026-08-20T10:02:50Z</time></trkpt><trkpt lat="60.1213917788" lon="30.5277788267"><ele>5144.63</ele><time>2026-08-20T10:02:52Z</time></trkpt><trkpt lat="60.1213884261" lon="30.5277715344"><ele>5139.35</ele><time>2026-08-20T10:02:54Z</time></trkpt><trkpt lat="60.1213852409" lon="30.5277716182"><ele>5133.58</ele><time>2026-08-20T10:02:56Z</time></trkpt><trkpt lat="60.1213811338" lon="30.5277686846"><ele>5127.81</ele><time>2026-08-20T10:02:58Z</time></trkpt><trkpt lat="60.1213768590" lon="30.5277654994"><ele>5122.04</ele><time>2026-08-20T10:03:00Z</time></trkpt><trkpt lat="60.1213751826" lon="30.5277651642"><ele>5116.75</ele><time>2026-08-20T10:03:02Z</time></trkpt><trkpt lat="60.1213778649" lon="30.5277649127"><ele>5110.99</ele><time>2026-08-20T10:03:03Z</time></trkpt><trkpt lat="60.1213692315" lon="30.5277700257"><ele>5105.22</ele><time>2026-08-20T10:03:06Z</time></trkpt><trkpt lat="60.1213662978" lon="30.5277702771"><ele>5099.45</ele><time>2026-08-20T10:03:08Z</time></trkpt><trkpt lat="60.1213612687" lon="30.5277686007"><ele>5094.16</ele><time>2026-08-20T10:03:10Z</time></trkpt><trkpt lat="60.1213582512" lon="30.5277707800"><ele>5088.40</ele><time>2026-08-20T10:03:12Z</time></trkpt><trkpt lat="60.1213593408" lon="30.5277657509"><ele>5082.63</ele><time>2026-08-20T10:03:14Z</time></trkpt><trkpt lat="60.1213589218" lon="30.5277641583"><ele>5077.34</ele><time>2026-08-20T10:03:16Z</time></trkpt><trkpt lat="60.1213590894" lon="30.5277606379"><ele>5071.57</ele><time>2026-08-20T10:03:18Z</time></trkpt><trkpt lat="60.1213588379" lon="30.5277582910"><ele>5066.29</ele><time>2026-08-20T10:03:20Z</time></trkpt><trkpt lat="60.1213579159" lon="30.5277574528"><ele>5060.52</ele><time>2026-08-20T10:03:22Z</time></trkpt><trkpt lat="60.1213557366" lon="30.5277562793"><ele>5054.75</ele><time>2026-08-20T10:03:24Z</time></trkpt><trkpt lat="60.1213533059" lon="30.5277546030"><ele>5049.46</ele><time>2026-08-20T10:03:26Z</time></trkpt><trkpt lat="60.1213523000" lon="30.5277532618"><ele>5043.69</ele><time>2026-08-20T10:03:28Z</time></trkpt><trkpt lat="60.1213512942" lon="30.5277504958"><ele>5038.41</ele><time>2026-08-20T10:03:30Z</time></trkpt><trkpt lat="60.1213493664" lon="30.5277482327"><ele>5032.64</ele><time>2026-08-20T10:03:32Z</time></trkpt><trkpt lat="60.1213486120" lon="30.5277451314"><ele>5027.35</ele><time>2026-08-20T10:03:34Z</time></trkpt><trkpt lat="60.1213476062" lon="30.5277449638"><ele>5021.58</ele><time>2026-08-20T10:03:36Z</time></trkpt><trkpt lat="60.1213461813" lon="30.5277447123"><ele>5016.30</ele><time>2026-08-20T10:03:38Z</time></trkpt><trkpt lat="60.1213447563" lon="30.5277447123"><ele>5010.53</ele><time>2026-08-20T10:03:40Z</time></trkpt><trkpt lat="60.1213426609" lon="30.5277449638"><ele>5005.24</ele><time>2026-08-20T10:03:42Z</time></trkpt><trkpt lat="60.1213416550" lon="30.5277431197"><ele>4999.47</ele><time>2026-08-20T10:03:44Z</time></trkpt><trkpt lat="60.1213405654" lon="30.5277407728"><ele>4994.19</ele><time>2026-08-20T10:03:46Z</time></trkpt><trkpt lat="60.1213379670" lon="30.5277314689"><ele>4988.42</ele><time>2026-08-20T10:03:48Z</time></trkpt><trkpt lat="60.1213363744" lon="30.5277267750"><ele>4983.13</ele><time>2026-08-20T10:03:50Z</time></trkpt><trkpt lat="60.1213351171" lon="30.5277235899"><ele>4977.36</ele><time>2026-08-20T10:03:52Z</time></trkpt><trkpt lat="60.1213346142" lon="30.5277225841"><ele>4972.08</ele><time>2026-08-20T10:03:54Z</time></trkpt><trkpt lat="60.1213338599" lon="30.5277223326"><ele>4966.79</ele><time>2026-08-20T10:03:56Z</time></trkpt><trkpt lat="60.1213353686" lon="30.5277194828"><ele>4963.90</ele><time>2026-08-20T10:03:57Z</time></trkpt><trkpt lat="60.1213337760" lon="30.5277221650"><ele>4958.62</ele><time>2026-08-20T10:04:01Z</time></trkpt><trkpt lat="60.1213361230" lon="30.5277214944"><ele>4952.85</ele><time>2026-08-20T10:04:03Z</time></trkpt><trkpt lat="60.1213333569" lon="30.5277225003"><ele>4947.56</ele><time>2026-08-20T10:04:05Z</time></trkpt><trkpt lat="60.1213292498" lon="30.5277263559"><ele>4942.27</ele><time>2026-08-20T10:04:07Z</time></trkpt><trkpt lat="60.1213331055" lon="30.5277261883"><ele>4936.51</ele><time>2026-08-20T10:04:09Z</time></trkpt><trkpt lat="60.1213289145" lon="30.5277285352"><ele>4931.22</ele><time>2026-08-20T10:04:11Z</time></trkpt><trkpt lat="60.1213305909" lon="30.5277320556"><ele>4925.93</ele><time>2026-08-20T10:04:13Z</time></trkpt><trkpt lat="60.1213201974" lon="30.5277554411"><ele>4920.17</ele><time>2026-08-20T10:04:15Z</time></trkpt><trkpt lat="60.1213072054" lon="30.5277796648"><ele>4914.88</ele><time>2026-08-20T10:04:17Z</time></trkpt><trkpt lat="60.1212957222" lon="30.5278031342"><ele>4909.59</ele><time>2026-08-20T10:04:19Z</time></trkpt><trkpt lat="60.1212838199" lon="30.5278137792"><ele>4904.30</ele><time>2026-08-20T10:04:21Z</time></trkpt><trkpt lat="60.1212772820" lon="30.5278424453"><ele>4898.54</ele><time>2026-08-20T10:04:23Z</time></trkpt><trkpt lat="60.1212738454" lon="30.5278636515"><ele>4893.25</ele><time>2026-08-20T10:04:25Z</time></trkpt><trkpt lat="60.1212708279" lon="30.5278804153"><ele>4887.96</ele><time>2026-08-20T10:04:27Z</time></trkpt><trkpt lat="60.1212676428" lon="30.5278974306"><ele>4882.67</ele><time>2026-08-20T10:04:29Z</time></trkpt><trkpt lat="60.1212653797" lon="30.5279120989"><ele>4877.39</ele><time>2026-08-20T10:04:31Z</time></trkpt><trkpt lat="60.1212616079" lon="30.5279214028"><ele>4871.62</ele><time>2026-08-20T10:04:33Z</time></trkpt><trkpt lat="60.1212571654" lon="30.5279358197"><ele>4866.33</ele><time>2026-08-20T10:04:35Z</time></trkpt><trkpt lat="60.1212542318" lon="30.5279424414"><ele>4861.04</ele><time>2026-08-20T10:04:37Z</time></trkpt><trkpt lat="60.1212529745" lon="30.5279526673"><ele>4855.76</ele><time>2026-08-20T10:04:39Z</time></trkpt><trkpt lat="60.1212481968" lon="30.5279699340"><ele>4850.47</ele><time>2026-08-20T10:04:41Z</time></trkpt><trkpt lat="60.1212352887" lon="30.5280053057"><ele>4845.18</ele><time>2026-08-20T10:04:43Z</time></trkpt><trkpt lat="60.1212010905" lon="30.5280809943"><ele>4837.01</ele><time>2026-08-20T10:04:46Z</time></trkpt><trkpt lat="60.1211800519" lon="30.5281016137"><ele>4831.72</ele><time>2026-08-20T10:04:48Z</time></trkpt><trkpt lat="60.1211640425" lon="30.5281143542"><ele>4826.44</ele><time>2026-08-20T10:04:50Z</time></trkpt><trkpt lat="60.1211496256" lon="30.5281328782"><ele>4821.15</ele><time>2026-08-20T10:04:52Z</time></trkpt><trkpt lat="60.1211406570" lon="30.5281638075"><ele>4815.86</ele><time>2026-08-20T10:04:54Z</time></trkpt><trkpt lat="60.1211202890" lon="30.5281656515"><ele>4810.57</ele><time>2026-08-20T10:04:56Z</time></trkpt><trkpt lat="60.1211031061" lon="30.5281788111"><ele>4805.29</ele><time>2026-08-20T10:04:58Z</time></trkpt><trkpt lat="60.1210859232" lon="30.5281824153"><ele>4800.00</ele><time>2026-08-20T10:05:00Z</time></trkpt><trkpt lat="60.1210731827" lon="30.5281790625"><ele>4794.71</ele><time>2026-08-20T10:05:02Z</time></trkpt><trkpt lat="60.1210565027" lon="30.5281765480"><ele>4789.43</ele><time>2026-08-20T10:05:04Z</time></trkpt><trkpt lat="60.1210337039" lon="30.5281704292"><ele>4784.14</ele><time>2026-08-20T10:05:06Z</time></trkpt><trkpt lat="60.1210252382" lon="30.5281637236"><ele>4778.85</ele><time>2026-08-20T10:05:08Z</time></trkpt><trkpt lat="60.1210187003" lon="30.5281664059"><ele>4773.56</ele><time>2026-08-20T10:05:10Z</time></trkpt><trkpt lat="60.1210076362" lon="30.5281531624"><ele>4768.28</ele><time>2026-08-20T10:05:12Z</time></trkpt><trkpt lat="60.1209993381" lon="30.5281426013"><ele>4762.99</ele><time>2026-08-20T10:05:14Z</time></trkpt><trkpt lat="60.1209946442" lon="30.5281329621"><ele>4757.70</ele><time>2026-08-20T10:05:16Z</time></trkpt><trkpt lat="60.1209913753" lon="30.5281294417"><ele>4752.41</ele><time>2026-08-20T10:05:18Z</time></trkpt><trkpt lat="60.1209866814" lon="30.5281277653"><ele>4747.61</ele><time>2026-08-20T10:05:20Z</time></trkpt><trkpt lat="60.1209831610" lon="30.5281301122"><ele>4742.32</ele><time>2026-08-20T10:05:22Z</time></trkpt><trkpt lat="60.1209764555" lon="30.5281198025"><ele>4737.03</ele><time>2026-08-20T10:05:24Z</time></trkpt><trkpt lat="60.1209683251" lon="30.5280921422"><ele>4731.75</ele><time>2026-08-20T10:05:26Z</time></trkpt><trkpt lat="60.1209599432" lon="30.5280748755"><ele>4726.46</ele><time>2026-08-20T10:05:28Z</time></trkpt><trkpt lat="60.1209535729" lon="30.5280640628"><ele>4721.17</ele><time>2026-08-20T10:05:30Z</time></trkpt><trkpt lat="60.1209502202" lon="30.5280447844"><ele>4715.88</ele><time>2026-08-20T10:05:32Z</time></trkpt><trkpt lat="60.1209408324" lon="30.5280255899"><ele>4711.08</ele><time>2026-08-20T10:05:34Z</time></trkpt><trkpt lat="60.1209249068" lon="30.5279861949"><ele>4705.79</ele><time>2026-08-20T10:05:36Z</time></trkpt><trkpt lat="60.1209056284" lon="30.5279265158"><ele>4700.50</ele><time>2026-08-20T10:05:38Z</time></trkpt><trkpt lat="60.1208925527" lon="30.5278779007"><ele>4695.22</ele><time>2026-08-20T10:05:40Z</time></trkpt><trkpt lat="60.1208865177" lon="30.5278477259"><ele>4690.41</ele><time>2026-08-20T10:05:42Z</time></trkpt><trkpt lat="60.1208683290" lon="30.5277917348"><ele>4685.12</ele><time>2026-08-20T10:05:44Z</time></trkpt><trkpt lat="60.1208586898" lon="30.5277588777"><ele>4679.83</ele><time>2026-08-20T10:05:46Z</time></trkpt><trkpt lat="60.1208573487" lon="30.5277481489"><ele>4674.55</ele><time>2026-08-20T10:05:48Z</time></trkpt><trkpt lat="60.1208542474" lon="30.5277305469"><ele>4669.74</ele><time>2026-08-20T10:05:50Z</time></trkpt><trkpt lat="60.1208529901" lon="30.5277174711"><ele>4664.45</ele><time>2026-08-20T10:05:52Z</time></trkpt><trkpt lat="60.1208522357" lon="30.5277041439"><ele>4659.17</ele><time>2026-08-20T10:05:54Z</time></trkpt><trkpt lat="60.1208442729" lon="30.5276836921"><ele>4654.36</ele><time>2026-08-20T10:05:56Z</time></trkpt><trkpt lat="60.1208439376" lon="30.5276675988"><ele>4649.07</ele><time>2026-08-20T10:05:58Z</time></trkpt><trkpt lat="60.1208420098" lon="30.5276466440"><ele>4643.79</ele><time>2026-08-20T10:06:00Z</time></trkpt><trkpt lat="60.1208431832" lon="30.5276289582"><ele>4638.98</ele><time>2026-08-20T10:06:02Z</time></trkpt><trkpt lat="60.1208342984" lon="30.5275994539"><ele>4633.69</ele><time>2026-08-20T10:06:04Z</time></trkpt><trkpt lat="60.1208352204" lon="30.5275772419"><ele>4628.40</ele><time>2026-08-20T10:06:06Z</time></trkpt><trkpt lat="60.1208353043" lon="30.5275587179"><ele>4623.60</ele><time>2026-08-20T10:06:08Z</time></trkpt><trkpt lat="60.1208373159" lon="30.5275490787"><ele>4618.31</ele><time>2026-08-20T10:06:10Z</time></trkpt><trkpt lat="60.1208410040" lon="30.5275432952"><ele>4613.50</ele><time>2026-08-20T10:06:12Z</time></trkpt><trkpt lat="60.1208425127" lon="30.5275212508"><ele>4608.22</ele><time>2026-08-20T10:06:14Z</time></trkpt><trkpt lat="60.1208462007" lon="30.5275070015"><ele>4602.93</ele><time>2026-08-20T10:06:16Z</time></trkpt><trkpt lat="60.1208479609" lon="30.5275018886"><ele>4598.12</ele><time>2026-08-20T10:06:18Z</time></trkpt><trkpt lat="60.1208487153" lon="30.5274926685"><ele>4592.84</ele><time>2026-08-20T10:06:20Z</time></trkpt><trkpt lat="60.1208560914" lon="30.5274829455"><ele>4588.03</ele><time>2026-08-20T10:06:22Z</time></trkpt><trkpt lat="60.1208601147" lon="30.5274737254"><ele>4582.74</ele><time>2026-08-20T10:06:24Z</time></trkpt><trkpt lat="60.1208609529" lon="30.5274640024"><ele>4577.94</ele><time>2026-08-20T10:06:26Z</time></trkpt><trkpt lat="60.1208623778" lon="30.5274523515"><ele>4572.65</ele><time>2026-08-20T10:06:28Z</time></trkpt><trkpt lat="60.1208626293" lon="30.5274422932"><ele>4567.84</ele><time>2026-08-20T10:06:30Z</time></trkpt><trkpt lat="60.1208643895" lon="30.5274369288"><ele>4565.44</ele><time>2026-08-20T10:06:31Z</time></trkpt><trkpt lat="60.1208581869" lon="30.5274057481"><ele>4557.75</ele><time>2026-08-20T10:06:34Z</time></trkpt><trkpt lat="60.1208544150" lon="30.5273866374"><ele>4552.94</ele><time>2026-08-20T10:06:36Z</time></trkpt><trkpt lat="60.1208478771" lon="30.5273874756"><ele>4547.65</ele><time>2026-08-20T10:06:38Z</time></trkpt><trkpt lat="60.1208482962" lon="30.5273150560"><ele>4540.44</ele><time>2026-08-20T10:06:41Z</time></trkpt><trkpt lat="60.1208234858" lon="30.5272604898"><ele>4532.75</ele><time>2026-08-20T10:06:44Z</time></trkpt><trkpt lat="60.1208090689" lon="30.5271683726"><ele>4525.06</ele><time>2026-08-20T10:06:47Z</time></trkpt><trkpt lat="60.1208006870" lon="30.5271321628"><ele>4520.26</ele><time>2026-08-20T10:06:49Z</time></trkpt><trkpt lat="60.1207925566" lon="30.5271081068"><ele>4515.45</ele><time>2026-08-20T10:06:51Z</time></trkpt><trkpt lat="60.1207937300" lon="30.5270718131"><ele>4510.16</ele><time>2026-08-20T10:06:53Z</time></trkpt><trkpt lat="60.1207907964" lon="30.5270091165"><ele>4505.36</ele><time>2026-08-20T10:06:55Z</time></trkpt><trkpt lat="60.1207788102" lon="30.5269216932"><ele>4498.15</ele><time>2026-08-20T10:06:58Z</time></trkpt><trkpt lat="60.1207780559" lon="30.5268790293"><ele>4492.86</ele><time>2026-08-20T10:07:00Z</time></trkpt><trkpt lat="60.1207658183" lon="30.5268289056"><ele>4488.05</ele><time>2026-08-20T10:07:02Z</time></trkpt><trkpt lat="60.1207622979" lon="30.5267714895"><ele>4483.25</ele><time>2026-08-20T10:07:04Z</time></trkpt><trkpt lat="60.1207552571" lon="30.5266963039"><ele>4477.96</ele><time>2026-08-20T10:07:06Z</time></trkpt><trkpt lat="60.1207503118" lon="30.5266745947"><ele>4473.15</ele><time>2026-08-20T10:07:08Z</time></trkpt><trkpt lat="60.1207321230" lon="30.5266289972"><ele>4468.35</ele><time>2026-08-20T10:07:10Z</time></trkpt><trkpt lat="60.1207234059" lon="30.5265756045"><ele>4463.54</ele><time>2026-08-20T10:07:12Z</time></trkpt><trkpt lat="60.1207167003" lon="30.5265246425"><ele>4458.25</ele><time>2026-08-20T10:07:14Z</time></trkpt><trkpt lat="60.1207133476" lon="30.5264733452"><ele>4453.44</ele><time>2026-08-20T10:07:16Z</time></trkpt><trkpt lat="60.1207073964" lon="30.5264442600"><ele>4448.64</ele><time>2026-08-20T10:07:18Z</time></trkpt><trkpt lat="60.1206991822" lon="30.5263772048"><ele>4441.43</ele><time>2026-08-20T10:07:21Z</time></trkpt><trkpt lat="60.1206871122" lon="30.5263456050"><ele>4436.14</ele><time>2026-08-20T10:07:23Z</time></trkpt><trkpt lat="60.1206769701" lon="30.5263046175"><ele>4431.33</ele><time>2026-08-20T10:07:25Z</time></trkpt><trkpt lat="60.1206690073" lon="30.5262565054"><ele>4426.53</ele><time>2026-08-20T10:07:27Z</time></trkpt><trkpt lat="60.1206479687" lon="30.5261897016"><ele>4419.32</ele><time>2026-08-20T10:07:30Z</time></trkpt><trkpt lat="60.1206430234" lon="30.5261627957"><ele>4414.51</ele><time>2026-08-20T10:07:32Z</time></trkpt><trkpt lat="60.1206342224" lon="30.5261179525"><ele>4407.30</ele><time>2026-08-20T10:07:35Z</time></trkpt><trkpt lat="60.1206370723" lon="30.5261052959"><ele>4404.42</ele><time>2026-08-20T10:07:36Z</time></trkpt><trkpt lat="60.1206286903" lon="30.5260181241"><ele>4397.21</ele><time>2026-08-20T10:07:39Z</time></trkpt><trkpt lat="60.1206203084" lon="30.5260039587"><ele>4394.80</ele><time>2026-08-20T10:07:40Z</time></trkpt><trkpt lat="60.1205987670" lon="30.5259395018"><ele>4387.59</ele><time>2026-08-20T10:07:43Z</time></trkpt><trkpt lat="60.1205799915" lon="30.5258795712"><ele>4382.79</ele><time>2026-08-20T10:07:45Z</time></trkpt><trkpt lat="60.1205534209" lon="30.5258309562"><ele>4375.58</ele><time>2026-08-20T10:07:48Z</time></trkpt><trkpt lat="60.1205467992" lon="30.5258022062"><ele>4370.77</ele><time>2026-08-20T10:07:50Z</time></trkpt><trkpt lat="60.1205398422" lon="30.5257940758"><ele>4370.77</ele><time>2026-08-20T10:07:51Z</time></trkpt><trkpt lat="60.1205265149" lon="30.5257679243"><ele>4368.37</ele><time>2026-08-20T10:07:53Z</time></trkpt><trkpt lat="60.1205097511" lon="30.5257434491"><ele>4363.56</ele><time>2026-08-20T10:07:55Z</time></trkpt><trkpt lat="60.1204855274" lon="30.5256661680"><ele>4356.35</ele><time>2026-08-20T10:07:58Z</time></trkpt><trkpt lat="60.1204700209" lon="30.5256364122"><ele>4351.54</ele><time>2026-08-20T10:08:00Z</time></trkpt><trkpt lat="60.1204571966" lon="30.5256143678"><ele>4346.74</ele><time>2026-08-20T10:08:02Z</time></trkpt><trkpt lat="60.1204279438" lon="30.5256025493"><ele>4339.53</ele><time>2026-08-20T10:08:05Z</time></trkpt><trkpt lat="60.1204130240" lon="30.5255748890"><ele>4334.72</ele><time>2026-08-20T10:08:07Z</time></trkpt><trkpt lat="60.1203992777" lon="30.5255617294"><ele>4329.92</ele><time>2026-08-20T10:08:09Z</time></trkpt><trkpt lat="60.1203871239" lon="30.5255423672"><ele>4325.11</ele><time>2026-08-20T10:08:11Z</time></trkpt><trkpt lat="60.1203738805" lon="30.5255194008"><ele>4320.30</ele><time>2026-08-20T10:08:13Z</time></trkpt><trkpt lat="60.1203602180" lon="30.5255067442"><ele>4315.98</ele><time>2026-08-20T10:08:15Z</time></trkpt><trkpt lat="60.1203481480" lon="30.5254782457"><ele>4311.17</ele><time>2026-08-20T10:08:17Z</time></trkpt><trkpt lat="60.1203357428" lon="30.5254576262"><ele>4306.36</ele><time>2026-08-20T10:08:19Z</time></trkpt><trkpt lat="60.1203227509" lon="30.5254231766"><ele>4301.56</ele><time>2026-08-20T10:08:21Z</time></trkpt><trkpt lat="60.1203199849" lon="30.5254175607"><ele>4296.75</ele><time>2026-08-20T10:08:23Z</time></trkpt><trkpt lat="60.1203205716" lon="30.5254163872"><ele>4291.94</ele><time>2026-08-20T10:08:25Z</time></trkpt><trkpt lat="60.1203198172" lon="30.5254199076"><ele>4287.14</ele><time>2026-08-20T10:08:27Z</time></trkpt><trkpt lat="60.1203223318" lon="30.5254166387"><ele>4282.81</ele><time>2026-08-20T10:08:29Z</time></trkpt><trkpt lat="60.1203152910" lon="30.5254157167"><ele>4278.00</ele><time>2026-08-20T10:08:31Z</time></trkpt><trkpt lat="60.1203137822" lon="30.5254150461"><ele>4273.20</ele><time>2026-08-20T10:08:33Z</time></trkpt><trkpt lat="60.1203137822" lon="30.5254157167"><ele>4268.39</ele><time>2026-08-20T10:08:35Z</time></trkpt><trkpt lat="60.1203138661" lon="30.5254153814"><ele>4263.58</ele><time>2026-08-20T10:08:37Z</time></trkpt><trkpt lat="60.1203129441" lon="30.5254144594"><ele>4259.26</ele><time>2026-08-20T10:08:39Z</time></trkpt><trkpt lat="60.1203126926" lon="30.5254135374"><ele>4254.45</ele><time>2026-08-20T10:08:41Z</time></trkpt><trkpt lat="60.1203121059" lon="30.5254125316"><ele>4249.65</ele><time>2026-08-20T10:08:43Z</time></trkpt><trkpt lat="60.1203114353" lon="30.5254118610"><ele>4245.32</ele><time>2026-08-20T10:08:45Z</time></trkpt><trkpt lat="60.1203082502" lon="30.5254087597"><ele>4240.51</ele><time>2026-08-20T10:08:47Z</time></trkpt><trkpt lat="60.1203039754" lon="30.5254035629"><ele>4235.71</ele><time>2026-08-20T10:08:49Z</time></trkpt><trkpt lat="60.1202994492" lon="30.5253987014"><ele>4230.90</ele><time>2026-08-20T10:08:51Z</time></trkpt><trkpt lat="60.1202970184" lon="30.5253922474"><ele>4226.57</ele><time>2026-08-20T10:08:53Z</time></trkpt><trkpt lat="60.1202942524" lon="30.5253878888"><ele>4221.77</ele><time>2026-08-20T10:08:55Z</time></trkpt><trkpt lat="60.1202929113" lon="30.5253857095"><ele>4216.96</ele><time>2026-08-20T10:08:57Z</time></trkpt><trkpt lat="60.1202866249" lon="30.5253859609"><ele>4212.63</ele><time>2026-08-20T10:08:59Z</time></trkpt><trkpt lat="60.1202846132" lon="30.5253820214"><ele>4207.83</ele><time>2026-08-20T10:09:01Z</time></trkpt><trkpt lat="60.1202795841" lon="30.5253819376"><ele>4203.50</ele><time>2026-08-20T10:09:03Z</time></trkpt><trkpt lat="60.1202820987" lon="30.5253812671"><ele>4198.70</ele><time>2026-08-20T10:09:05Z</time></trkpt><trkpt lat="60.1202807575" lon="30.5253819376"><ele>4193.89</ele><time>2026-08-20T10:09:07Z</time></trkpt><trkpt lat="60.1202789135" lon="30.5253816862"><ele>4189.56</ele><time>2026-08-20T10:09:09Z</time></trkpt><trkpt lat="60.1202781592" lon="30.5253821053"><ele>4184.76</ele><time>2026-08-20T10:09:11Z</time></trkpt><trkpt lat="60.1202780753" lon="30.5253827758"><ele>4180.43</ele><time>2026-08-20T10:09:13Z</time></trkpt><trkpt lat="60.1202783268" lon="30.5253841169"><ele>4175.62</ele><time>2026-08-20T10:09:15Z</time></trkpt><trkpt lat="60.1202784106" lon="30.5253849551"><ele>4171.30</ele><time>2026-08-20T10:09:17Z</time></trkpt><trkpt lat="60.1202789973" lon="30.5253853742"><ele>4166.49</ele><time>2026-08-20T10:09:19Z</time></trkpt><trkpt lat="60.1202795003" lon="30.5253852066"><ele>4162.17</ele><time>2026-08-20T10:09:21Z</time></trkpt><trkpt lat="60.1202796679" lon="30.5253847875"><ele>4157.36</ele><time>2026-08-20T10:09:23Z</time></trkpt><trkpt lat="60.1202800870" lon="30.5253842007"><ele>4153.03</ele><time>2026-08-20T10:09:25Z</time></trkpt><trkpt lat="60.1202806737" lon="30.5253822729"><ele>4148.23</ele><time>2026-08-20T10:09:27Z</time></trkpt><trkpt lat="60.1202813443" lon="30.5253801774"><ele>4143.90</ele><time>2026-08-20T10:09:29Z</time></trkpt><trkpt lat="60.1202838589" lon="30.5253754836"><ele>4139.09</ele><time>2026-08-20T10:09:31Z</time></trkpt><trkpt lat="60.1202915702" lon="30.5253755674"><ele>4134.77</ele><time>2026-08-20T10:09:33Z</time></trkpt><trkpt lat="60.1202940010" lon="30.5253705382"><ele>4129.96</ele><time>2026-08-20T10:09:35Z</time></trkpt><trkpt lat="60.1202929951" lon="30.5253702030"><ele>4125.64</ele><time>2026-08-20T10:09:37Z</time></trkpt><trkpt lat="60.1202921569" lon="30.5253695324"><ele>4120.83</ele><time>2026-08-20T10:09:39Z</time></trkpt><trkpt lat="60.1202924084" lon="30.5253677722"><ele>4116.50</ele><time>2026-08-20T10:09:41Z</time></trkpt><trkpt lat="60.1202934980" lon="30.5253671017"><ele>4112.18</ele><time>2026-08-20T10:09:43Z</time></trkpt><trkpt lat="60.1202940010" lon="30.5253660958"><ele>4107.37</ele><time>2026-08-20T10:09:45Z</time></trkpt><trkpt lat="60.1202940010" lon="30.5253650900"><ele>4103.04</ele><time>2026-08-20T10:09:47Z</time></trkpt><trkpt lat="60.1202922408" lon="30.5253632460"><ele>4098.24</ele><time>2026-08-20T10:09:49Z</time></trkpt><trkpt lat="60.1202914026" lon="30.5253624078"><ele>4093.91</ele><time>2026-08-20T10:09:51Z</time></trkpt><trkpt lat="60.1202914026" lon="30.5253620725"><ele>4089.59</ele><time>2026-08-20T10:09:53Z</time></trkpt><trkpt lat="60.1202907320" lon="30.5253609829"><ele>4084.78</ele><time>2026-08-20T10:09:55Z</time></trkpt><trkpt lat="60.1202906482" lon="30.5253596418"><ele>4080.45</ele><time>2026-08-20T10:09:57Z</time></trkpt><trkpt lat="60.1202911511" lon="30.5253577977"><ele>4076.13</ele><time>2026-08-20T10:09:59Z</time></trkpt><trkpt lat="60.1202834398" lon="30.5253500864"><ele>4071.32</ele><time>2026-08-20T10:10:01Z</time></trkpt><trkpt lat="60.1202758960" lon="30.5253446382"><ele>4066.99</ele><time>2026-08-20T10:10:03Z</time></trkpt><trkpt lat="60.1202726271" lon="30.5253442191"><ele>4062.67</ele><time>2026-08-20T10:10:05Z</time></trkpt><trkpt lat="60.1202740520" lon="30.5253365077"><ele>4058.34</ele><time>2026-08-20T10:10:07Z</time></trkpt><trkpt lat="60.1202751417" lon="30.5253374297"><ele>4053.54</ele><time>2026-08-20T10:10:09Z</time></trkpt><trkpt lat="60.1202753093" lon="30.5253378488"><ele>4049.21</ele><time>2026-08-20T10:10:11Z</time></trkpt><trkpt lat="60.1202666759" lon="30.5253301375"><ele>4044.88</ele><time>2026-08-20T10:10:13Z</time></trkpt><trkpt lat="60.1202640776" lon="30.5253310595"><ele>4040.56</ele><time>2026-08-20T10:10:15Z</time></trkpt><trkpt lat="60.1202606410" lon="30.5253192410"><ele>4035.75</ele><time>2026-08-20T10:10:17Z</time></trkpt><trkpt lat="60.1202477328" lon="30.5253096018"><ele>4031.43</ele><time>2026-08-20T10:10:19Z</time></trkpt><trkpt lat="60.1202358305" lon="30.5252978671"><ele>4027.10</ele><time>2026-08-20T10:10:21Z</time></trkpt><trkpt lat="60.1202080026" lon="30.5252761580"><ele>4022.77</ele><time>2026-08-20T10:10:23Z</time></trkpt><trkpt lat="60.1201960165" lon="30.5252638366"><ele>4020.37</ele><time>2026-08-20T10:10:24Z</time></trkpt><trkpt lat="60.1201616507" lon="30.5252244417"><ele>4013.64</ele><time>2026-08-20T10:10:27Z</time></trkpt><trkpt lat="60.1201412827" lon="30.5252167303"><ele>4009.32</ele><time>2026-08-20T10:10:29Z</time></trkpt><trkpt lat="60.1201308891" lon="30.5251835380"><ele>4004.99</ele><time>2026-08-20T10:10:31Z</time></trkpt><trkpt lat="60.1201242674" lon="30.5251342524"><ele>3998.74</ele><time>2026-08-20T10:10:34Z</time></trkpt><trkpt lat="60.1201221719" lon="30.5251420476"><ele>3993.93</ele><time>2026-08-20T10:10:36Z</time></trkpt><trkpt lat="60.1201065816" lon="30.5251205899"><ele>3989.61</ele><time>2026-08-20T10:10:38Z</time></trkpt><trkpt lat="60.1200849563" lon="30.5251060054"><ele>3985.28</ele><time>2026-08-20T10:10:40Z</time></trkpt><trkpt lat="60.1200681087" lon="30.5250840448"><ele>3980.96</ele><time>2026-08-20T10:10:42Z</time></trkpt><trkpt lat="60.1200603135" lon="30.5250689574"><ele>3979.03</ele><time>2026-08-20T10:10:43Z</time></trkpt><trkpt lat="60.1200431306" lon="30.5250557140"><ele>3972.30</ele><time>2026-08-20T10:10:46Z</time></trkpt><trkpt lat="60.1200305577" lon="30.5250338372"><ele>3967.98</ele><time>2026-08-20T10:10:48Z</time></trkpt><trkpt lat="60.1200146321" lon="30.5250168219"><ele>3963.65</ele><time>2026-08-20T10:10:50Z</time></trkpt><trkpt lat="60.1200083457" lon="30.5250028241"><ele>3961.25</ele><time>2026-08-20T10:10:51Z</time></trkpt><trkpt lat="60.1199821942" lon="30.5249615014"><ele>3955.00</ele><time>2026-08-20T10:10:54Z</time></trkpt><trkpt lat="60.1199670229" lon="30.5249469168"><ele>3950.67</ele><time>2026-08-20T10:10:56Z</time></trkpt><trkpt lat="60.1199578866" lon="30.5249278899"><ele>3946.35</ele><time>2026-08-20T10:10:58Z</time></trkpt><trkpt lat="60.1199572999" lon="30.5249211006"><ele>3942.02</ele><time>2026-08-20T10:11:00Z</time></trkpt><trkpt lat="60.1199584734" lon="30.5249152333"><ele>3937.70</ele><time>2026-08-20T10:11:02Z</time></trkpt><trkpt lat="60.1199518517" lon="30.5249175802"><ele>3933.37</ele><time>2026-08-20T10:11:04Z</time></trkpt><trkpt lat="60.1199521031" lon="30.5249216035"><ele>3929.05</ele><time>2026-08-20T10:11:06Z</time></trkpt><trkpt lat="60.1199500915" lon="30.5249195918"><ele>3924.72</ele><time>2026-08-20T10:11:08Z</time></trkpt><trkpt lat="60.1199398655" lon="30.5248843040"><ele>3920.39</ele><time>2026-08-20T10:11:10Z</time></trkpt><trkpt lat="60.1199298073" lon="30.5248455796"><ele>3916.07</ele><time>2026-08-20T10:11:12Z</time></trkpt><trkpt lat="60.1199163124" lon="30.5248225294"><ele>3911.74</ele><time>2026-08-20T10:11:14Z</time></trkpt><trkpt lat="60.1199070085" lon="30.5248120520"><ele>3907.42</ele><time>2026-08-20T10:11:16Z</time></trkpt><trkpt lat="60.1199093554" lon="30.5248184223"><ele>3903.09</ele><time>2026-08-20T10:11:18Z</time></trkpt><trkpt lat="60.1199114509" lon="30.5248304922"><ele>3898.76</ele><time>2026-08-20T10:11:20Z</time></trkpt><trkpt lat="60.1199011412" lon="30.5248253793"><ele>3894.44</ele><time>2026-08-20T10:11:22Z</time></trkpt><trkpt lat="60.1198942680" lon="30.5248002335"><ele>3890.11</ele><time>2026-08-20T10:11:24Z</time></trkpt><trkpt lat="60.1198837906" lon="30.5247760098"><ele>3886.27</ele><time>2026-08-20T10:11:26Z</time></trkpt><trkpt lat="60.1198453177" lon="30.5247477628"><ele>3879.54</ele><time>2026-08-20T10:11:29Z</time></trkpt><trkpt lat="60.1198311523" lon="30.5247200187"><ele>3875.21</ele><time>2026-08-20T10:11:31Z</time></trkpt><trkpt lat="60.1198153105" lon="30.5246976390"><ele>3871.37</ele><time>2026-08-20T10:11:33Z</time></trkpt><trkpt lat="60.1198040787" lon="30.5246879999"><ele>3867.04</ele><time>2026-08-20T10:11:35Z</time></trkpt><trkpt lat="60.1198035758" lon="30.5246849824"><ele>3862.71</ele><time>2026-08-20T10:11:37Z</time></trkpt><trkpt lat="60.1198039111" lon="30.5246833898"><ele>3858.39</ele><time>2026-08-20T10:11:39Z</time></trkpt><trkpt lat="60.1198043302" lon="30.5246821325"><ele>3854.06</ele><time>2026-08-20T10:11:41Z</time></trkpt><trkpt lat="60.1198045816" lon="30.5246808752"><ele>3850.22</ele><time>2026-08-20T10:11:43Z</time></trkpt><trkpt lat="60.1197951939" lon="30.5246637762"><ele>3845.89</ele><time>2026-08-20T10:11:45Z</time></trkpt><trkpt lat="60.1197915059" lon="30.5246612616"><ele>3841.57</ele><time>2026-08-20T10:11:47Z</time></trkpt><trkpt lat="60.1197899133" lon="30.5246541370"><ele>3837.24</ele><time>2026-08-20T10:11:49Z</time></trkpt><trkpt lat="60.1197774243" lon="30.5246417318"><ele>3832.91</ele><time>2026-08-20T10:11:51Z</time></trkpt><trkpt lat="60.1197633427" lon="30.5246199388"><ele>3829.07</ele><time>2026-08-20T10:11:53Z</time></trkpt><trkpt lat="60.1197337545" lon="30.5245606788"><ele>3822.82</ele><time>2026-08-20T10:11:56Z</time></trkpt><trkpt lat="60.1197103690" lon="30.5245474353"><ele>3818.49</ele><time>2026-08-20T10:11:58Z</time></trkpt><trkpt lat="60.1196941081" lon="30.5245165061"><ele>3814.17</ele><time>2026-08-20T10:12:00Z</time></trkpt><trkpt lat="60.1196914259" lon="30.5244927853"><ele>3812.25</ele><time>2026-08-20T10:12:01Z</time></trkpt><trkpt lat="60.1196764223" lon="30.5244314298"><ele>3806.00</ele><time>2026-08-20T10:12:04Z</time></trkpt><trkpt lat="60.1196589042" lon="30.5244032666"><ele>3801.67</ele><time>2026-08-20T10:12:06Z</time></trkpt><trkpt lat="60.1196466666" lon="30.5243633687"><ele>3797.35</ele><time>2026-08-20T10:12:08Z</time></trkpt><trkpt lat="60.1196428109" lon="30.5243466049"><ele>3795.42</ele><time>2026-08-20T10:12:09Z</time></trkpt><trkpt lat="60.1196183357" lon="30.5243112333"><ele>3789.17</ele><time>2026-08-20T10:12:12Z</time></trkpt><trkpt lat="60.1195878256" lon="30.5242953915"><ele>3782.93</ele><time>2026-08-20T10:12:15Z</time></trkpt><trkpt lat="60.1195838023" lon="30.5242865067"><ele>3781.00</ele><time>2026-08-20T10:12:16Z</time></trkpt><trkpt lat="60.1195548009" lon="30.5242311023"><ele>3774.75</ele><time>2026-08-20T10:12:19Z</time></trkpt><trkpt lat="60.1195371989" lon="30.5242155958"><ele>3770.43</ele><time>2026-08-20T10:12:21Z</time></trkpt><trkpt lat="60.1195255481" lon="30.5241937190"><ele>3766.58</ele><time>2026-08-20T10:12:23Z</time></trkpt><trkpt lat="60.1195187587" lon="30.5241767876"><ele>3762.26</ele><time>2026-08-20T10:12:25Z</time></trkpt><trkpt lat="60.1195065212" lon="30.5241551623"><ele>3758.41</ele><time>2026-08-20T10:12:27Z</time></trkpt><trkpt lat="60.1195038389" lon="30.5241456069"><ele>3754.09</ele><time>2026-08-20T10:12:29Z</time></trkpt><trkpt lat="60.1195097901" lon="30.5241301842"><ele>3749.76</ele><time>2026-08-20T10:12:31Z</time></trkpt><trkpt lat="60.1195131429" lon="30.5241275020"><ele>3745.91</ele><time>2026-08-20T10:12:33Z</time></trkpt><trkpt lat="60.1195154898" lon="30.5241258256"><ele>3741.59</ele><time>2026-08-20T10:12:35Z</time></trkpt><trkpt lat="60.1195095386" lon="30.5241227243"><ele>3737.74</ele><time>2026-08-20T10:12:37Z</time></trkpt><trkpt lat="60.1195002347" lon="30.5240949802"><ele>3733.42</ele><time>2026-08-20T10:12:39Z</time></trkpt><trkpt lat="60.1194850635" lon="30.5240754504"><ele>3729.57</ele><time>2026-08-20T10:12:41Z</time></trkpt><trkpt lat="60.1194612589" lon="30.5240585189"><ele>3725.25</ele><time>2026-08-20T10:12:43Z</time></trkpt><trkpt lat="60.1194426510" lon="30.5240395758"><ele>3721.40</ele><time>2026-08-20T10:12:45Z</time></trkpt><trkpt lat="60.1194405556" lon="30.5240197107"><ele>3719.48</ele><time>2026-08-20T10:12:46Z</time></trkpt><trkpt lat="60.1194205228" lon="30.5239694193"><ele>3713.23</ele><time>2026-08-20T10:12:49Z</time></trkpt><trkpt lat="60.1194071118" lon="30.5239651445"><ele>3708.90</ele><time>2026-08-20T10:12:51Z</time></trkpt><trkpt lat="60.1194042619" lon="30.5239438545"><ele>3705.06</ele><time>2026-08-20T10:12:53Z</time></trkpt><trkpt lat="60.1193735842" lon="30.5239158589"><ele>3698.81</ele><time>2026-08-20T10:12:56Z</time></trkpt><trkpt lat="60.1193429902" lon="30.5238575209"><ele>3693.04</ele><time>2026-08-20T10:12:59Z</time></trkpt><trkpt lat="60.1193310879" lon="30.5238517374"><ele>3691.12</ele><time>2026-08-20T10:13:00Z</time></trkpt><trkpt lat="60.1193022542" lon="30.5238386616"><ele>3684.87</ele><time>2026-08-20T10:13:03Z</time></trkpt><trkpt lat="60.1192905195" lon="30.5238053855"><ele>3681.03</ele><time>2026-08-20T10:13:05Z</time></trkpt><trkpt lat="60.1192791201" lon="30.5237819161"><ele>3676.70</ele><time>2026-08-20T10:13:07Z</time></trkpt><trkpt lat="60.1192720793" lon="30.5237820838"><ele>3674.78</ele><time>2026-08-20T10:13:08Z</time></trkpt><trkpt lat="60.1192459278" lon="30.5237555131"><ele>3668.53</ele><time>2026-08-20T10:13:11Z</time></trkpt><trkpt lat="60.1192358695" lon="30.5237067305"><ele>3664.68</ele><time>2026-08-20T10:13:13Z</time></trkpt><trkpt lat="60.1192017552" lon="30.5236907210"><ele>3658.92</ele><time>2026-08-20T10:13:16Z</time></trkpt><trkpt lat="60.1191802975" lon="30.5236804113"><ele>3654.59</ele><time>2026-08-20T10:13:18Z</time></trkpt><trkpt lat="60.1191755198" lon="30.5236566905"><ele>3650.74</ele><time>2026-08-20T10:13:20Z</time></trkpt><trkpt lat="60.1191502064" lon="30.5236196425"><ele>3644.50</ele><time>2026-08-20T10:13:23Z</time></trkpt><trkpt lat="60.1191417407" lon="30.5236156192"><ele>3642.57</ele><time>2026-08-20T10:13:24Z</time></trkpt><trkpt lat="60.1191113144" lon="30.5236015376"><ele>3636.81</ele><time>2026-08-20T10:13:27Z</time></trkpt><trkpt lat="60.1190936286" lon="30.5235437024"><ele>3630.56</ele><time>2026-08-20T10:13:30Z</time></trkpt><trkpt lat="60.1190680638" lon="30.5235421937"><ele>3626.71</ele><time>2026-08-20T10:13:32Z</time></trkpt><trkpt lat="60.1190479472" lon="30.5235257652"><ele>3622.87</ele><time>2026-08-20T10:13:34Z</time></trkpt><trkpt lat="60.1190382242" lon="30.5234656669"><ele>3616.62</ele><time>2026-08-20T10:13:37Z</time></trkpt><trkpt lat="60.1190224662" lon="30.5234437902"><ele>3612.77</ele><time>2026-08-20T10:13:39Z</time></trkpt><trkpt lat="60.1190139167" lon="30.5234387610"><ele>3610.85</ele><time>2026-08-20T10:13:40Z</time></trkpt><trkpt lat="60.1189907826" lon="30.5234015454"><ele>3605.08</ele><time>2026-08-20T10:13:43Z</time></trkpt><trkpt lat="60.1189789642" lon="30.5233411957"><ele>3598.83</ele><time>2026-08-20T10:13:46Z</time></trkpt><trkpt lat="60.1189575065" lon="30.5233265273"><ele>3594.99</ele><time>2026-08-20T10:13:48Z</time></trkpt><trkpt lat="60.1189177763" lon="30.5232921615"><ele>3589.22</ele><time>2026-08-20T10:13:51Z</time></trkpt><trkpt lat="60.1188990008" lon="30.5232616514"><ele>3585.37</ele><time>2026-08-20T10:13:53Z</time></trkpt><trkpt lat="60.1188855059" lon="30.5232559517"><ele>3581.53</ele><time>2026-08-20T10:13:55Z</time></trkpt><trkpt lat="60.1188737713" lon="30.5232556164"><ele>3577.68</ele><time>2026-08-20T10:13:57Z</time></trkpt><trkpt lat="60.1188614499" lon="30.5232498329"><ele>3573.36</ele><time>2026-08-20T10:13:59Z</time></trkpt><trkpt lat="60.1188363042" lon="30.5232598912"><ele>3567.59</ele><time>2026-08-20T10:14:02Z</time></trkpt><trkpt lat="60.1188254077" lon="30.5232654233"><ele>3563.74</ele><time>2026-08-20T10:14:04Z</time></trkpt><trkpt lat="60.1188124996" lon="30.5232765712"><ele>3559.90</ele><time>2026-08-20T10:14:06Z</time></trkpt><trkpt lat="60.1188015193" lon="30.5232778285"><ele>3556.05</ele><time>2026-08-20T10:14:08Z</time></trkpt><trkpt lat="60.1187933050" lon="30.5232993700"><ele>3552.21</ele><time>2026-08-20T10:14:10Z</time></trkpt><trkpt lat="60.1187867671" lon="30.5233010463"><ele>3548.36</ele><time>2026-08-20T10:14:12Z</time></trkpt><trkpt lat="60.1187786367" lon="30.5233072490"><ele>3544.52</ele><time>2026-08-20T10:14:14Z</time></trkpt><trkpt lat="60.1187764574" lon="30.5233157985"><ele>3540.19</ele><time>2026-08-20T10:14:16Z</time></trkpt><trkpt lat="60.1187612861" lon="30.5233362503"><ele>3536.35</ele><time>2026-08-20T10:14:18Z</time></trkpt><trkpt lat="60.1187410019" lon="30.5233477335"><ele>3532.50</ele><time>2026-08-20T10:14:20Z</time></trkpt><trkpt lat="60.1187244058" lon="30.5233634077"><ele>3530.58</ele><time>2026-08-20T10:14:21Z</time></trkpt><trkpt lat="60.1186747011" lon="30.5234119389"><ele>3524.81</ele><time>2026-08-20T10:14:24Z</time></trkpt><trkpt lat="60.1186633855" lon="30.5234296247"><ele>3522.89</ele><time>2026-08-20T10:14:25Z</time></trkpt><trkpt lat="60.1186144352" lon="30.5234749708"><ele>3517.12</ele><time>2026-08-20T10:14:28Z</time></trkpt><trkpt lat="60.1185811590" lon="30.5235068221"><ele>3511.35</ele><time>2026-08-20T10:14:31Z</time></trkpt><trkpt lat="60.1185659040" lon="30.5235118512"><ele>3507.51</ele><time>2026-08-20T10:14:33Z</time></trkpt><trkpt lat="60.1185623836" lon="30.5234997813"><ele>3503.66</ele><time>2026-08-20T10:14:35Z</time></trkpt><trkpt lat="60.1185602043" lon="30.5235087499"><ele>3499.82</ele><time>2026-08-20T10:14:37Z</time></trkpt><trkpt lat="60.1185545046" lon="30.5235277768"><ele>3495.97</ele><time>2026-08-20T10:14:39Z</time></trkpt><trkpt lat="60.1185446978" lon="30.5235449597"><ele>3492.13</ele><time>2026-08-20T10:14:41Z</time></trkpt><trkpt lat="60.1185349748" lon="30.5235547666"><ele>3488.28</ele><time>2026-08-20T10:14:43Z</time></trkpt><trkpt lat="60.1185249165" lon="30.5235737935"><ele>3484.44</ele><time>2026-08-20T10:14:45Z</time></trkpt><trkpt lat="60.1185190491" lon="30.5235872883"><ele>3480.59</ele><time>2026-08-20T10:14:47Z</time></trkpt><trkpt lat="60.1185125113" lon="30.5236001965"><ele>3477.23</ele><time>2026-08-20T10:14:49Z</time></trkpt><trkpt lat="60.1185069792" lon="30.5236049742"><ele>3473.38</ele><time>2026-08-20T10:14:51Z</time></trkpt><trkpt lat="60.1185001060" lon="30.5236183014"><ele>3469.54</ele><time>2026-08-20T10:14:53Z</time></trkpt><trkpt lat="60.1184884552" lon="30.5236368254"><ele>3465.69</ele><time>2026-08-20T10:14:55Z</time></trkpt><trkpt lat="60.1184739545" lon="30.5236463808"><ele>3461.84</ele><time>2026-08-20T10:14:57Z</time></trkpt><trkpt lat="60.1184540894" lon="30.5236505717"><ele>3458.00</ele><time>2026-08-20T10:14:59Z</time></trkpt><trkpt lat="60.1184300333" lon="30.5236512423"><ele>3454.15</ele><time>2026-08-20T10:15:01Z</time></trkpt><trkpt lat="60.1184230763" lon="30.5236546788"><ele>3450.31</ele><time>2026-08-20T10:15:03Z</time></trkpt><trkpt lat="60.1184105035" lon="30.5236317962"><ele>3446.46</ele><time>2026-08-20T10:15:05Z</time></trkpt><trkpt lat="60.1184010319" lon="30.5236008670"><ele>3443.10</ele><time>2026-08-20T10:15:07Z</time></trkpt><trkpt lat="60.1183940750" lon="30.5235750508"><ele>3439.25</ele><time>2026-08-20T10:15:09Z</time></trkpt><trkpt lat="60.1183742937" lon="30.5235377513"><ele>3433.49</ele><time>2026-08-20T10:15:12Z</time></trkpt><trkpt lat="60.1183611341" lon="30.5235119350"><ele>3429.64</ele><time>2026-08-20T10:15:14Z</time></trkpt><trkpt lat="60.1183535904" lon="30.5234960094"><ele>3425.80</ele><time>2026-08-20T10:15:16Z</time></trkpt><trkpt lat="60.1183469687" lon="30.5234789941"><ele>3422.43</ele><time>2026-08-20T10:15:18Z</time></trkpt><trkpt lat="60.1183319651" lon="30.5234543514"><ele>3418.59</ele><time>2026-08-20T10:15:20Z</time></trkpt><trkpt lat="60.1183148660" lon="30.5234318040"><ele>3414.74</ele><time>2026-08-20T10:15:22Z</time></trkpt><trkpt lat="60.1183082443" lon="30.5234304629"><ele>3410.89</ele><time>2026-08-20T10:15:24Z</time></trkpt><trkpt lat="60.1183074061" lon="30.5234281160"><ele>3407.53</ele><time>2026-08-20T10:15:26Z</time></trkpt><trkpt lat="60.1183063164" lon="30.5234281998"><ele>3403.69</ele><time>2026-08-20T10:15:28Z</time></trkpt><trkpt lat="60.1183048915" lon="30.5234299600"><ele>3399.84</ele><time>2026-08-20T10:15:30Z</time></trkpt><trkpt lat="60.1183035504" lon="30.5234301277"><ele>3395.99</ele><time>2026-08-20T10:15:32Z</time></trkpt><trkpt lat="60.1183022093" lon="30.5234292056"><ele>3392.63</ele><time>2026-08-20T10:15:34Z</time></trkpt><trkpt lat="60.1183011197" lon="30.5234282836"><ele>3388.78</ele><time>2026-08-20T10:15:36Z</time></trkpt><trkpt lat="60.1182926539" lon="30.5234436225"><ele>3384.94</ele><time>2026-08-20T10:15:38Z</time></trkpt><trkpt lat="60.1182868704" lon="30.5234403536"><ele>3381.09</ele><time>2026-08-20T10:15:40Z</time></trkpt><trkpt lat="60.1182761416" lon="30.5234464724"><ele>3377.73</ele><time>2026-08-20T10:15:42Z</time></trkpt><trkpt lat="60.1182745490" lon="30.5234492384"><ele>3373.88</ele><time>2026-08-20T10:15:44Z</time></trkpt><trkpt lat="60.1182707772" lon="30.5234691035"><ele>3370.04</ele><time>2026-08-20T10:15:46Z</time></trkpt><trkpt lat="60.1182680950" lon="30.5234711152"><ele>3366.67</ele><time>2026-08-20T10:15:48Z</time></trkpt><trkpt lat="60.1182612218" lon="30.5234691873"><ele>3362.83</ele><time>2026-08-20T10:15:50Z</time></trkpt><trkpt lat="60.1182578690" lon="30.5234742165"><ele>3360.91</ele><time>2026-08-20T10:15:51Z</time></trkpt><trkpt lat="60.1182254311" lon="30.5235336442"><ele>3355.62</ele><time>2026-08-20T10:15:54Z</time></trkpt><trkpt lat="60.1181950886" lon="30.5235612206"><ele>3351.77</ele><time>2026-08-20T10:15:56Z</time></trkpt><trkpt lat="60.1181696914" lon="30.5235795770"><ele>3348.41</ele><time>2026-08-20T10:15:58Z</time></trkpt><trkpt lat="60.1181482337" lon="30.5235872045"><ele>3344.56</ele><time>2026-08-20T10:16:00Z</time></trkpt><trkpt lat="60.1181321405" lon="30.5235939100"><ele>3340.72</ele><time>2026-08-20T10:16:02Z</time></trkpt><trkpt lat="60.1181142032" lon="30.5236067344"><ele>3337.35</ele><time>2026-08-20T10:16:04Z</time></trkpt><trkpt lat="60.1180983614" lon="30.5236132722"><ele>3333.51</ele><time>2026-08-20T10:16:06Z</time></trkpt><trkpt lat="60.1180894766" lon="30.5236187205"><ele>3330.14</ele><time>2026-08-20T10:16:08Z</time></trkpt><trkpt lat="60.1180845313" lon="30.5236192234"><ele>3326.30</ele><time>2026-08-20T10:16:10Z</time></trkpt><trkpt lat="60.1180665102" lon="30.5236198939"><ele>3322.45</ele><time>2026-08-20T10:16:12Z</time></trkpt><trkpt lat="60.1180435438" lon="30.5236167926"><ele>3319.09</ele><time>2026-08-20T10:16:14Z</time></trkpt><trkpt lat="60.1180225890" lon="30.5236063991"><ele>3315.24</ele><time>2026-08-20T10:16:16Z</time></trkpt><trkpt lat="60.1180014666" lon="30.5236080755"><ele>3311.88</ele><time>2026-08-20T10:16:18Z</time></trkpt><trkpt lat="60.1179826073" lon="30.5236028787"><ele>3308.03</ele><time>2026-08-20T10:16:20Z</time></trkpt><trkpt lat="60.1179676037" lon="30.5236038007"><ele>3304.67</ele><time>2026-08-20T10:16:22Z</time></trkpt><trkpt lat="60.1179541927" lon="30.5236128531"><ele>3300.82</ele><time>2026-08-20T10:16:24Z</time></trkpt><trkpt lat="60.1179500856" lon="30.5236170441"><ele>3297.46</ele><time>2026-08-20T10:16:26Z</time></trkpt><trkpt lat="60.1179469842" lon="30.5236182176"><ele>3293.61</ele><time>2026-08-20T10:16:28Z</time></trkpt><trkpt lat="60.1179437991" lon="30.5236169603"><ele>3290.25</ele><time>2026-08-20T10:16:30Z</time></trkpt><trkpt lat="60.1179386023" lon="30.5236393400"><ele>3286.40</ele><time>2026-08-20T10:16:32Z</time></trkpt><trkpt lat="60.1179335732" lon="30.5236542597"><ele>3283.04</ele><time>2026-08-20T10:16:34Z</time></trkpt><trkpt lat="60.1179267839" lon="30.5236551818"><ele>3279.19</ele><time>2026-08-20T10:16:36Z</time></trkpt><trkpt lat="60.1179127023" lon="30.5236581992"><ele>3275.83</ele><time>2026-08-20T10:16:38Z</time></trkpt><trkpt lat="60.1178925857" lon="30.5236630607"><ele>3271.98</ele><time>2026-08-20T10:16:40Z</time></trkpt><trkpt lat="60.1178744808" lon="30.5236773100"><ele>3268.62</ele><time>2026-08-20T10:16:42Z</time></trkpt><trkpt lat="60.1178626623" lon="30.5236726999"><ele>3264.77</ele><time>2026-08-20T10:16:44Z</time></trkpt><trkpt lat="60.1178550348" lon="30.5236644018"><ele>3261.41</ele><time>2026-08-20T10:16:46Z</time></trkpt><trkpt lat="60.1178529393" lon="30.5236659106"><ele>3258.05</ele><time>2026-08-20T10:16:48Z</time></trkpt><trkpt lat="60.1178385224" lon="30.5236592889"><ele>3254.20</ele><time>2026-08-20T10:16:50Z</time></trkpt><trkpt lat="60.1178353373" lon="30.5236602109"><ele>3250.83</ele><time>2026-08-20T10:16:52Z</time></trkpt><trkpt lat="60.1178331580" lon="30.5236467998"><ele>3246.99</ele><time>2026-08-20T10:16:54Z</time></trkpt><trkpt lat="60.1178217586" lon="30.5236315448"><ele>3241.70</ele><time>2026-08-20T10:16:57Z</time></trkpt><trkpt lat="60.1178091019" lon="30.5236153677"><ele>3238.34</ele><time>2026-08-20T10:16:59Z</time></trkpt><trkpt lat="60.1177984569" lon="30.5236044712"><ele>3234.49</ele><time>2026-08-20T10:17:01Z</time></trkpt><trkpt lat="60.1177882310" lon="30.5235896353"><ele>3231.13</ele><time>2026-08-20T10:17:03Z</time></trkpt><trkpt lat="60.1177807711" lon="30.5235793255"><ele>3227.76</ele><time>2026-08-20T10:17:05Z</time></trkpt><trkpt lat="60.1177767478" lon="30.5235791579"><ele>3223.92</ele><time>2026-08-20T10:17:07Z</time></trkpt><trkpt lat="60.1177757420" lon="30.5235738773"><ele>3220.55</ele><time>2026-08-20T10:17:09Z</time></trkpt><trkpt lat="60.1177734789" lon="30.5235659145"><ele>3217.19</ele><time>2026-08-20T10:17:11Z</time></trkpt><trkpt lat="60.1177698746" lon="30.5235598795"><ele>3213.34</ele><time>2026-08-20T10:17:13Z</time></trkpt><trkpt lat="60.1177689526" lon="30.5235543475"><ele>3209.98</ele><time>2026-08-20T10:17:15Z</time></trkpt><trkpt lat="60.1177679468" lon="30.5235500727"><ele>3206.61</ele><time>2026-08-20T10:17:17Z</time></trkpt><trkpt lat="60.1177696232" lon="30.5235416908"><ele>3202.77</ele><time>2026-08-20T10:17:19Z</time></trkpt><trkpt lat="60.1177640073" lon="30.5235393438"><ele>3199.40</ele><time>2026-08-20T10:17:21Z</time></trkpt><trkpt lat="60.1177599840" lon="30.5235340632"><ele>3196.04</ele><time>2026-08-20T10:17:23Z</time></trkpt><trkpt lat="60.1177571341" lon="30.5235342309"><ele>3192.20</ele><time>2026-08-20T10:17:25Z</time></trkpt><trkpt lat="60.1177533623" lon="30.5235331412"><ele>3188.83</ele><time>2026-08-20T10:17:27Z</time></trkpt><trkpt lat="60.1177510154" lon="30.5235399306"><ele>3185.47</ele><time>2026-08-20T10:17:29Z</time></trkpt><trkpt lat="60.1177467406" lon="30.5235272739"><ele>3182.10</ele><time>2026-08-20T10:17:31Z</time></trkpt><trkpt lat="60.1177462377" lon="30.5235217419"><ele>3178.26</ele><time>2026-08-20T10:17:33Z</time></trkpt><trkpt lat="60.1177387778" lon="30.5235201493"><ele>3174.89</ele><time>2026-08-20T10:17:35Z</time></trkpt><trkpt lat="60.1177376043" lon="30.5235201493"><ele>3171.53</ele><time>2026-08-20T10:17:37Z</time></trkpt><trkpt lat="60.1177379396" lon="30.5235209875"><ele>3168.16</ele><time>2026-08-20T10:17:39Z</time></trkpt><trkpt lat="60.1177359279" lon="30.5235197302"><ele>3164.80</ele><time>2026-08-20T10:17:41Z</time></trkpt><trkpt lat="60.1177334134" lon="30.5235171318"><ele>3160.95</ele><time>2026-08-20T10:17:43Z</time></trkpt><trkpt lat="60.1177340839" lon="30.5235131923"><ele>3157.59</ele><time>2026-08-20T10:17:45Z</time></trkpt><trkpt lat="60.1177306473" lon="30.5235156231"><ele>3154.22</ele><time>2026-08-20T10:17:47Z</time></trkpt><trkpt lat="60.1177298930" lon="30.5235147011"><ele>3150.86</ele><time>2026-08-20T10:17:49Z</time></trkpt><trkpt lat="60.1177288871" lon="30.5235079117"><ele>3147.49</ele><time>2026-08-20T10:17:51Z</time></trkpt><trkpt lat="60.1177266240" lon="30.5234993622"><ele>3143.65</ele><time>2026-08-20T10:17:53Z</time></trkpt><trkpt lat="60.1177251153" lon="30.5234978534"><ele>3140.28</ele><time>2026-08-20T10:17:55Z</time></trkpt><trkpt lat="60.1177229360" lon="30.5234970991"><ele>3136.92</ele><time>2026-08-20T10:17:57Z</time></trkpt><trkpt lat="60.1177204214" lon="30.5234978534"><ele>3133.55</ele><time>2026-08-20T10:17:59Z</time></trkpt><trkpt lat="60.1177184936" lon="30.5234955065"><ele>3130.19</ele><time>2026-08-20T10:18:01Z</time></trkpt><trkpt lat="60.1177162305" lon="30.5234898906"><ele>3126.83</ele><time>2026-08-20T10:18:03Z</time></trkpt><trkpt lat="60.1177122071" lon="30.5234850291"><ele>3123.46</ele><time>2026-08-20T10:18:05Z</time></trkpt><trkpt lat="60.1177082676" lon="30.5234814249"><ele>3119.62</ele><time>2026-08-20T10:18:07Z</time></trkpt><trkpt lat="60.1176988799" lon="30.5234592129"><ele>3116.25</ele><time>2026-08-20T10:18:09Z</time></trkpt><trkpt lat="60.1176889054" lon="30.5234498251"><ele>3112.89</ele><time>2026-08-20T10:18:11Z</time></trkpt><trkpt lat="60.1176882349" lon="30.5234442931"><ele>3109.52</ele><time>2026-08-20T10:18:13Z</time></trkpt><trkpt lat="60.1176828705" lon="30.5234415270"><ele>3106.16</ele><time>2026-08-20T10:18:15Z</time></trkpt><trkpt lat="60.1176805235" lon="30.5234421138"><ele>3102.79</ele><time>2026-08-20T10:18:17Z</time></trkpt><trkpt lat="60.1176772546" lon="30.5234351568"><ele>3099.43</ele><time>2026-08-20T10:18:19Z</time></trkpt><trkpt lat="60.1176666096" lon="30.5234308820"><ele>3096.06</ele><time>2026-08-20T10:18:21Z</time></trkpt><trkpt lat="60.1176573895" lon="30.5234260205"><ele>3092.70</ele><time>2026-08-20T10:18:23Z</time></trkpt><trkpt lat="60.1176311541" lon="30.5234104302"><ele>3089.33</ele><time>2026-08-20T10:18:25Z</time></trkpt><trkpt lat="60.1176218502" lon="30.5234002881"><ele>3085.97</ele><time>2026-08-20T10:18:27Z</time></trkpt><trkpt lat="60.1176078524" lon="30.5233900622"><ele>3082.60</ele><time>2026-08-20T10:18:29Z</time></trkpt><trkpt lat="60.1175884064" lon="30.5233756453"><ele>3079.24</ele><time>2026-08-20T10:18:31Z</time></trkpt><trkpt lat="60.1175737381" lon="30.5233755615"><ele>3075.88</ele><time>2026-08-20T10:18:33Z</time></trkpt><trkpt lat="60.1175620873" lon="30.5233523436"><ele>3072.51</ele><time>2026-08-20T10:18:35Z</time></trkpt><trkpt lat="60.1175384503" lon="30.5233355798"><ele>3069.15</ele><time>2026-08-20T10:18:37Z</time></trkpt><trkpt lat="60.1175316609" lon="30.5233283713"><ele>3065.78</ele><time>2026-08-20T10:18:39Z</time></trkpt><trkpt lat="60.1175267156" lon="30.5233215820"><ele>3062.42</ele><time>2026-08-20T10:18:41Z</time></trkpt><trkpt lat="60.1175105385" lon="30.5233085062"><ele>3059.05</ele><time>2026-08-20T10:18:43Z</time></trkpt><trkpt lat="60.1174996421" lon="30.5233080871"><ele>3055.69</ele><time>2026-08-20T10:18:45Z</time></trkpt><trkpt lat="60.1174874883" lon="30.5233085062"><ele>3052.32</ele><time>2026-08-20T10:18:47Z</time></trkpt><trkpt lat="60.1174827944" lon="30.5233151279"><ele>3048.96</ele><time>2026-08-20T10:18:49Z</time></trkpt><trkpt lat="60.1174803637" lon="30.5233198218"><ele>3045.59</ele><time>2026-08-20T10:18:51Z</time></trkpt><trkpt lat="60.1174777653" lon="30.5233226717"><ele>3042.23</ele><time>2026-08-20T10:18:53Z</time></trkpt><trkpt lat="60.1174748316" lon="30.5233287904"><ele>3038.86</ele><time>2026-08-20T10:18:55Z</time></trkpt><trkpt lat="60.1174656115" lon="30.5233489070"><ele>3035.50</ele><time>2026-08-20T10:18:57Z</time></trkpt><trkpt lat="60.1174594089" lon="30.5233540200"><ele>3032.14</ele><time>2026-08-20T10:18:59Z</time></trkpt><trkpt lat="60.1174507756" lon="30.5233740527"><ele>3028.77</ele><time>2026-08-20T10:19:01Z</time></trkpt><trkpt lat="60.1174506079" lon="30.5233822670"><ele>3025.41</ele><time>2026-08-20T10:19:03Z</time></trkpt><trkpt lat="60.1174438186" lon="30.5233893916"><ele>3022.52</ele><time>2026-08-20T10:19:05Z</time></trkpt><trkpt lat="60.1174228638" lon="30.5234273616"><ele>3019.16</ele><time>2026-08-20T10:19:07Z</time></trkpt><trkpt lat="60.1174072735" lon="30.5234503280"><ele>3015.79</ele><time>2026-08-20T10:19:09Z</time></trkpt><trkpt lat="60.1173968799" lon="30.5234533455"><ele>3012.43</ele><time>2026-08-20T10:19:11Z</time></trkpt><trkpt lat="60.1173907612" lon="30.5234521721"><ele>3009.06</ele><time>2026-08-20T10:19:13Z</time></trkpt><trkpt lat="60.1173888333" lon="30.5234484840"><ele>3005.70</ele><time>2026-08-20T10:19:15Z</time></trkpt><trkpt lat="60.1173835527" lon="30.5234593805"><ele>3002.33</ele><time>2026-08-20T10:19:17Z</time></trkpt><trkpt lat="60.1173766796" lon="30.5234564468"><ele>2998.97</ele><time>2026-08-20T10:19:19Z</time></trkpt><trkpt lat="60.1173687167" lon="30.5234602187"><ele>2996.09</ele><time>2026-08-20T10:19:21Z</time></trkpt><trkpt lat="60.1173625141" lon="30.5234584585"><ele>2992.72</ele><time>2026-08-20T10:19:23Z</time></trkpt><trkpt lat="60.1173554733" lon="30.5234665889"><ele>2989.36</ele><time>2026-08-20T10:19:25Z</time></trkpt><trkpt lat="60.1173433196" lon="30.5234645773"><ele>2985.99</ele><time>2026-08-20T10:19:27Z</time></trkpt><trkpt lat="60.1173326746" lon="30.5234560277"><ele>2982.63</ele><time>2026-08-20T10:19:29Z</time></trkpt><trkpt lat="60.1173248794" lon="30.5234457180"><ele>2979.74</ele><time>2026-08-20T10:19:31Z</time></trkpt><trkpt lat="60.1173113007" lon="30.5234478135"><ele>2976.38</ele><time>2026-08-20T10:19:33Z</time></trkpt><trkpt lat="60.1173071936" lon="30.5234405212"><ele>2973.01</ele><time>2026-08-20T10:19:35Z</time></trkpt><trkpt lat="60.1173062716" lon="30.5234324746"><ele>2969.65</ele><time>2026-08-20T10:19:37Z</time></trkpt><trkpt lat="60.1173046790" lon="30.5234302953"><ele>2966.29</ele><time>2026-08-20T10:19:39Z</time></trkpt><trkpt lat="60.1172973868" lon="30.5234359112"><ele>2963.40</ele><time>2026-08-20T10:19:41Z</time></trkpt><trkpt lat="60.1172887534" lon="30.5234524235"><ele>2960.04</ele><time>2026-08-20T10:19:43Z</time></trkpt><trkpt lat="60.1172833052" lon="30.5234568659"><ele>2956.67</ele><time>2026-08-20T10:19:45Z</time></trkpt><trkpt lat="60.1172804553" lon="30.5234612245"><ele>2953.31</ele><time>2026-08-20T10:19:47Z</time></trkpt><trkpt lat="60.1172739174" lon="30.5234646611"><ele>2950.42</ele><time>2026-08-20T10:19:49Z</time></trkpt><trkpt lat="60.1172714867" lon="30.5234672595"><ele>2947.06</ele><time>2026-08-20T10:19:51Z</time></trkpt><trkpt lat="60.1172729116" lon="30.5234683491"><ele>2943.69</ele><time>2026-08-20T10:19:53Z</time></trkpt><trkpt lat="60.1172690559" lon="30.5234703608"><ele>2940.81</ele><time>2026-08-20T10:19:55Z</time></trkpt><trkpt lat="60.1172687206" lon="30.5234710313"><ele>2937.45</ele><time>2026-08-20T10:19:57Z</time></trkpt><trkpt lat="60.1172694750" lon="30.5234705284"><ele>2934.08</ele><time>2026-08-20T10:19:59Z</time></trkpt><trkpt lat="60.1172656193" lon="30.5234662537"><ele>2930.72</ele><time>2026-08-20T10:20:01Z</time></trkpt><trkpt lat="60.1172665413" lon="30.5234676786"><ele>2927.83</ele><time>2026-08-20T10:20:03Z</time></trkpt><trkpt lat="60.1172657870" lon="30.5234673433"><ele>2924.47</ele><time>2026-08-20T10:20:05Z</time></trkpt><trkpt lat="60.1172654517" lon="30.5234670080"><ele>2921.10</ele><time>2026-08-20T10:20:07Z</time></trkpt><trkpt lat="60.1172642782" lon="30.5234686844"><ele>2918.22</ele><time>2026-08-20T10:20:09Z</time></trkpt><trkpt lat="60.1172516216" lon="30.5234723724"><ele>2914.85</ele><time>2026-08-20T10:20:11Z</time></trkpt><trkpt lat="60.1172488555" lon="30.5234736297"><ele>2911.97</ele><time>2026-08-20T10:20:13Z</time></trkpt><trkpt lat="60.1172498614" lon="30.5234773178"><ele>2908.61</ele><time>2026-08-20T10:20:15Z</time></trkpt><trkpt lat="60.1172454190" lon="30.5234744679"><ele>2905.24</ele><time>2026-08-20T10:20:17Z</time></trkpt><trkpt lat="60.1172441617" lon="30.5234727077"><ele>2902.36</ele><time>2026-08-20T10:20:19Z</time></trkpt><trkpt lat="60.1172434911" lon="30.5234770663"><ele>2898.99</ele><time>2026-08-20T10:20:21Z</time></trkpt><trkpt lat="60.1172445808" lon="30.5234728754"><ele>2895.63</ele><time>2026-08-20T10:20:23Z</time></trkpt><trkpt lat="60.1172468439" lon="30.5234740488"><ele>2892.74</ele><time>2026-08-20T10:20:25Z</time></trkpt><trkpt lat="60.1172507834" lon="30.5234777369"><ele>2889.38</ele><time>2026-08-20T10:20:27Z</time></trkpt><trkpt lat="60.1172534656" lon="30.5234811734"><ele>2886.50</ele><time>2026-08-20T10:20:29Z</time></trkpt><trkpt lat="60.1172548067" lon="30.5234826822"><ele>2884.57</ele><time>2026-08-20T10:20:30Z</time></trkpt><trkpt lat="60.1172576565" lon="30.5234878790"><ele>2880.25</ele><time>2026-08-20T10:20:33Z</time></trkpt><trkpt lat="60.1172628533" lon="30.5234875437"><ele>2876.88</ele><time>2026-08-20T10:20:35Z</time></trkpt><trkpt lat="60.1172696427" lon="30.5234883819"><ele>2873.52</ele><time>2026-08-20T10:20:37Z</time></trkpt><trkpt lat="60.1172695588" lon="30.5234880466"><ele>2870.63</ele><time>2026-08-20T10:20:39Z</time></trkpt><trkpt lat="60.1172702294" lon="30.5234838556"><ele>2867.27</ele><time>2026-08-20T10:20:41Z</time></trkpt><trkpt lat="60.1172675472" lon="30.5234882142"><ele>2864.39</ele><time>2026-08-20T10:20:43Z</time></trkpt><trkpt lat="60.1172654517" lon="30.5234867055"><ele>2861.02</ele><time>2026-08-20T10:20:45Z</time></trkpt><trkpt lat="60.1172643621" lon="30.5234852806"><ele>2858.14</ele><time>2026-08-20T10:20:47Z</time></trkpt><trkpt lat="60.1172637753" lon="30.5234841909"><ele>2854.77</ele><time>2026-08-20T10:20:49Z</time></trkpt><trkpt lat="60.1172631048" lon="30.5234840233"><ele>2851.89</ele><time>2026-08-20T10:20:51Z</time></trkpt><trkpt lat="60.1172620989" lon="30.5234831851"><ele>2848.52</ele><time>2026-08-20T10:20:53Z</time></trkpt><trkpt lat="60.1172610931" lon="30.5234831851"><ele>2845.64</ele><time>2026-08-20T10:20:55Z</time></trkpt><trkpt lat="60.1172601711" lon="30.5234835204"><ele>2842.28</ele><time>2026-08-20T10:20:57Z</time></trkpt><trkpt lat="60.1172594167" lon="30.5234837718"><ele>2839.39</ele><time>2026-08-20T10:20:59Z</time></trkpt><trkpt lat="60.1172584947" lon="30.5234841909"><ele>2836.03</ele><time>2026-08-20T10:21:01Z</time></trkpt><trkpt lat="60.1172574889" lon="30.5234851968"><ele>2833.14</ele><time>2026-08-20T10:21:03Z</time></trkpt><trkpt lat="60.1172567345" lon="30.5234860349"><ele>2829.78</ele><time>2026-08-20T10:21:05Z</time></trkpt><trkpt lat="60.1172579080" lon="30.5234890524"><ele>2826.89</ele><time>2026-08-20T10:21:07Z</time></trkpt><trkpt lat="60.1172573213" lon="30.5234906450"><ele>2824.01</ele><time>2026-08-20T10:21:09Z</time></trkpt><trkpt lat="60.1172542199" lon="30.5234901421"><ele>2820.65</ele><time>2026-08-20T10:21:11Z</time></trkpt><trkpt lat="60.1172534656" lon="30.5234911479"><ele>2817.76</ele><time>2026-08-20T10:21:13Z</time></trkpt><trkpt lat="60.1172526274" lon="30.5234917346"><ele>2814.40</ele><time>2026-08-20T10:21:15Z</time></trkpt><trkpt lat="60.1172535494" lon="30.5234886333"><ele>2811.51</ele><time>2026-08-20T10:21:17Z</time></trkpt><trkpt lat="60.1172484364" lon="30.5234991945"><ele>2808.15</ele><time>2026-08-20T10:21:19Z</time></trkpt><trkpt lat="60.1172462571" lon="30.5234982725"><ele>2805.26</ele><time>2026-08-20T10:21:21Z</time></trkpt><trkpt lat="60.1172433235" lon="30.5234990269"><ele>2802.38</ele><time>2026-08-20T10:21:23Z</time></trkpt><trkpt lat="60.1172416471" lon="30.5235019606"><ele>2799.02</ele><time>2026-08-20T10:21:25Z</time></trkpt><trkpt lat="60.1172399707" lon="30.5235022958"><ele>2796.13</ele><time>2026-08-20T10:21:27Z</time></trkpt><trkpt lat="60.1172405574" lon="30.5235047266"><ele>2793.25</ele><time>2026-08-20T10:21:29Z</time></trkpt><trkpt lat="60.1172417309" lon="30.5235064030"><ele>2789.88</ele><time>2026-08-20T10:21:31Z</time></trkpt><trkpt lat="60.1172432397" lon="30.5234988593"><ele>2787.00</ele><time>2026-08-20T10:21:33Z</time></trkpt><trkpt lat="60.1172439102" lon="30.5234950874"><ele>2783.63</ele><time>2026-08-20T10:21:35Z</time></trkpt><trkpt lat="60.1172455866" lon="30.5234983563"><ele>2780.75</ele><time>2026-08-20T10:21:37Z</time></trkpt><trkpt lat="60.1172438264" lon="30.5234922376"><ele>2777.87</ele><time>2026-08-20T10:21:39Z</time></trkpt><trkpt lat="60.1172437426" lon="30.5234905612"><ele>2774.50</ele><time>2026-08-20T10:21:41Z</time></trkpt><trkpt lat="60.1172444969" lon="30.5234888848"><ele>2771.62</ele><time>2026-08-20T10:21:43Z</time></trkpt><trkpt lat="60.1172448322" lon="30.5234889686"><ele>2768.73</ele><time>2026-08-20T10:21:45Z</time></trkpt><trkpt lat="60.1172451675" lon="30.5234906450"><ele>2765.85</ele><time>2026-08-20T10:21:47Z</time></trkpt><trkpt lat="60.1172460895" lon="30.5234911479"><ele>2762.49</ele><time>2026-08-20T10:21:49Z</time></trkpt><trkpt lat="60.1172470115" lon="30.5234982725"><ele>2759.60</ele><time>2026-08-20T10:21:51Z</time></trkpt><trkpt lat="60.1172446646" lon="30.5235054810"><ele>2756.72</ele><time>2026-08-20T10:21:53Z</time></trkpt><trkpt lat="60.1172402222" lon="30.5235182215"><ele>2753.35</ele><time>2026-08-20T10:21:55Z</time></trkpt><trkpt lat="60.1172413118" lon="30.5235301238"><ele>2750.47</ele><time>2026-08-20T10:21:57Z</time></trkpt><trkpt lat="60.1172401384" lon="30.5235431995"><ele>2747.59</ele><time>2026-08-20T10:21:59Z</time></trkpt><trkpt lat="60.1172449999" lon="30.5235670879"><ele>2744.70</ele><time>2026-08-20T10:22:01Z</time></trkpt><trkpt lat="60.1172560640" lon="30.5235970113"><ele>2741.34</ele><time>2026-08-20T10:22:03Z</time></trkpt><trkpt lat="60.1172648650" lon="30.5236231629"><ele>2737.01</ele><time>2026-08-20T10:22:06Z</time></trkpt><trkpt lat="60.1172745880" lon="30.5236903857"><ele>2732.68</ele><time>2026-08-20T10:22:09Z</time></trkpt><trkpt lat="60.1172977220" lon="30.5237683374"><ele>2727.88</ele><time>2026-08-20T10:22:12Z</time></trkpt><trkpt lat="60.1173068583" lon="30.5238358956"><ele>2723.55</ele><time>2026-08-20T10:22:15Z</time></trkpt><trkpt lat="60.1173063554" lon="30.5238804873"><ele>2719.23</ele><time>2026-08-20T10:22:18Z</time></trkpt><trkpt lat="60.1173090376" lon="30.5238942336"><ele>2714.42</ele><time>2026-08-20T10:22:21Z</time></trkpt><trkpt lat="60.1173040923" lon="30.5239328742"><ele>2710.09</ele><time>2026-08-20T10:22:24Z</time></trkpt><trkpt lat="60.1173018292" lon="30.5239326227"><ele>2705.77</ele><time>2026-08-20T10:22:27Z</time></trkpt><trkpt lat="60.1172953751" lon="30.5239420943"><ele>2701.44</ele><time>2026-08-20T10:22:30Z</time></trkpt><trkpt lat="60.1172905974" lon="30.5239441060"><ele>2696.64</ele><time>2026-08-20T10:22:33Z</time></trkpt><trkpt lat="60.1172895078" lon="30.5239449441"><ele>2692.31</ele><time>2026-08-20T10:22:36Z</time></trkpt><trkpt lat="60.1172871608" lon="30.5239456985"><ele>2687.98</ele><time>2026-08-20T10:22:39Z</time></trkpt><trkpt lat="60.1172858197" lon="30.5239529908"><ele>2683.66</ele><time>2026-08-20T10:22:42Z</time></trkpt><trkpt lat="60.1172864065" lon="30.5239579361"><ele>2679.33</ele><time>2026-08-20T10:22:45Z</time></trkpt><trkpt lat="60.1172849815" lon="30.5239779688"><ele>2675.01</ele><time>2026-08-20T10:22:48Z</time></trkpt><trkpt lat="60.1172932796" lon="30.5239884462"><ele>2670.20</ele><time>2026-08-20T10:22:51Z</time></trkpt><trkpt lat="60.1172851492" lon="30.5240057968"><ele>2665.87</ele><time>2026-08-20T10:22:54Z</time></trkpt><trkpt lat="60.1172822993" lon="30.5240121670"><ele>2661.55</ele><time>2026-08-20T10:22:57Z</time></trkpt><trkpt lat="60.1172738336" lon="30.5240111612"><ele>2657.22</ele><time>2026-08-20T10:23:00Z</time></trkpt><trkpt lat="60.1172710676" lon="30.5240161065"><ele>2652.90</ele><time>2026-08-20T10:23:03Z</time></trkpt><trkpt lat="60.1172725763" lon="30.5240266677"><ele>2648.57</ele><time>2026-08-20T10:23:06Z</time></trkpt><trkpt lat="60.1172720734" lon="30.5240345467"><ele>2644.24</ele><time>2026-08-20T10:23:09Z</time></trkpt><trkpt lat="60.1172750071" lon="30.5240451079"><ele>2639.92</ele><time>2026-08-20T10:23:12Z</time></trkpt><trkpt lat="60.1172847301" lon="30.5240892805"><ele>2635.59</ele><time>2026-08-20T10:23:15Z</time></trkpt><trkpt lat="60.1172852330" lon="30.5241113249"><ele>2631.27</ele><time>2026-08-20T10:23:18Z</time></trkpt><trkpt lat="60.1172970515" lon="30.5241252389"><ele>2626.94</ele><time>2026-08-20T10:23:21Z</time></trkpt><trkpt lat="60.1172970515" lon="30.5241294298"><ele>2622.61</ele><time>2026-08-20T10:23:24Z</time></trkpt><trkpt lat="60.1172914356" lon="30.5241438467"><ele>2618.29</ele><time>2026-08-20T10:23:27Z</time></trkpt><trkpt lat="60.1172826346" lon="30.5241657235"><ele>2613.96</ele><time>2026-08-20T10:23:30Z</time></trkpt><trkpt lat="60.1172879152" lon="30.5241736863"><ele>2609.64</ele><time>2026-08-20T10:23:33Z</time></trkpt><trkpt lat="60.1172958780" lon="30.5241805594"><ele>2605.31</ele><time>2026-08-20T10:23:36Z</time></trkpt><trkpt lat="60.1172975544" lon="30.5241780449"><ele>2600.98</ele><time>2026-08-20T10:23:39Z</time></trkpt><trkpt lat="60.1172957942" lon="30.5241819844"><ele>2596.66</ele><time>2026-08-20T10:23:42Z</time></trkpt><trkpt lat="60.1172977220" lon="30.5241963174"><ele>2592.81</ele><time>2026-08-20T10:23:45Z</time></trkpt><trkpt lat="60.1173049305" lon="30.5242161825"><ele>2588.49</ele><time>2026-08-20T10:23:48Z</time></trkpt><trkpt lat="60.1173080318" lon="30.5242215469"><ele>2584.16</ele><time>2026-08-20T10:23:51Z</time></trkpt><trkpt lat="60.1173071936" lon="30.5242237262"><ele>2579.84</ele><time>2026-08-20T10:23:54Z</time></trkpt><trkpt lat="60.1173025835" lon="30.5242223851"><ele>2575.51</ele><time>2026-08-20T10:23:57Z</time></trkpt><trkpt lat="60.1173008233" lon="30.5242209602"><ele>2571.18</ele><time>2026-08-20T10:24:00Z</time></trkpt><trkpt lat="60.1173002366" lon="30.5242291745"><ele>2567.34</ele><time>2026-08-20T10:24:03Z</time></trkpt><trkpt lat="60.1173042599" lon="30.5242383108"><ele>2563.01</ele><time>2026-08-20T10:24:06Z</time></trkpt><trkpt lat="60.1173024159" lon="30.5242427532"><ele>2558.69</ele><time>2026-08-20T10:24:09Z</time></trkpt><trkpt lat="60.1173024159" lon="30.5242485367"><ele>2554.36</ele><time>2026-08-20T10:24:12Z</time></trkpt><trkpt lat="60.1173061039" lon="30.5242560804"><ele>2550.51</ele><time>2026-08-20T10:24:15Z</time></trkpt><trkpt lat="60.1173118036" lon="30.5242558289"><ele>2546.19</ele><time>2026-08-20T10:24:18Z</time></trkpt><trkpt lat="60.1173195150" lon="30.5242678989"><ele>2541.86</ele><time>2026-08-20T10:24:21Z</time></trkpt><trkpt lat="60.1173397154" lon="30.5243069585"><ele>2538.02</ele><time>2026-08-20T10:24:24Z</time></trkpt><trkpt lat="60.1173502766" lon="30.5243238900"><ele>2533.69</ele><time>2026-08-20T10:24:27Z</time></trkpt><trkpt lat="60.1173616759" lon="30.5243602674"><ele>2529.37</ele><time>2026-08-20T10:24:30Z</time></trkpt><trkpt lat="60.1173723210" lon="30.5244259816"><ele>2525.52</ele><time>2026-08-20T10:24:33Z</time></trkpt><trkpt lat="60.1173833851" lon="30.5244644545"><ele>2521.19</ele><time>2026-08-20T10:24:36Z</time></trkpt><trkpt lat="60.1173897553" lon="30.5244957190"><ele>2517.35</ele><time>2026-08-20T10:24:39Z</time></trkpt><trkpt lat="60.1173938625" lon="30.5245061126"><ele>2513.02</ele><time>2026-08-20T10:24:42Z</time></trkpt><trkpt lat="60.1173974667" lon="30.5245124828"><ele>2508.70</ele><time>2026-08-20T10:24:45Z</time></trkpt><trkpt lat="60.1173998974" lon="30.5245167576"><ele>2504.85</ele><time>2026-08-20T10:24:48Z</time></trkpt><trkpt lat="60.1174025796" lon="30.5245166738"><ele>2500.53</ele><time>2026-08-20T10:24:51Z</time></trkpt><trkpt lat="60.1174065191" lon="30.5245165061"><ele>2496.68</ele><time>2026-08-20T10:24:54Z</time></trkpt><trkpt lat="60.1174152363" lon="30.5245153327"><ele>2492.36</ele><time>2026-08-20T10:24:57Z</time></trkpt><trkpt lat="60.1174234506" lon="30.5245092139"><ele>2488.51</ele><time>2026-08-20T10:25:00Z</time></trkpt><trkpt lat="60.1174258813" lon="30.5245024245"><ele>2484.18</ele><time>2026-08-20T10:25:03Z</time></trkpt><trkpt lat="60.1174262166" lon="30.5244973116"><ele>2480.34</ele><time>2026-08-20T10:25:06Z</time></trkpt><trkpt lat="60.1174279768" lon="30.5244952999"><ele>2476.49</ele><time>2026-08-20T10:25:09Z</time></trkpt><trkpt lat="60.1174292341" lon="30.5244958028"><ele>2472.17</ele><time>2026-08-20T10:25:12Z</time></trkpt><trkpt lat="60.1174301561" lon="30.5244994070"><ele>2468.32</ele><time>2026-08-20T10:25:15Z</time></trkpt><trkpt lat="60.1174290664" lon="30.5244996585"><ele>2464.00</ele><time>2026-08-20T10:25:18Z</time></trkpt><trkpt lat="60.1174279768" lon="30.5244992394"><ele>2460.15</ele><time>2026-08-20T10:25:21Z</time></trkpt><trkpt lat="60.1174283121" lon="30.5245004129"><ele>2456.31</ele><time>2026-08-20T10:25:24Z</time></trkpt><trkpt lat="60.1174293179" lon="30.5245004129"><ele>2451.98</ele><time>2026-08-20T10:25:27Z</time></trkpt><trkpt lat="60.1174302399" lon="30.5245040171"><ele>2448.13</ele><time>2026-08-20T10:25:30Z</time></trkpt><trkpt lat="60.1174301561" lon="30.5245070346"><ele>2444.29</ele><time>2026-08-20T10:25:33Z</time></trkpt><trkpt lat="60.1174283959" lon="30.5245098844"><ele>2439.96</ele><time>2026-08-20T10:25:36Z</time></trkpt><trkpt lat="60.1174229477" lon="30.5245414842"><ele>2436.12</ele><time>2026-08-20T10:25:39Z</time></trkpt><trkpt lat="60.1174203493" lon="30.5245476868"><ele>2432.27</ele><time>2026-08-20T10:25:42Z</time></trkpt><trkpt lat="60.1174203493" lon="30.5245537218"><ele>2427.95</ele><time>2026-08-20T10:25:45Z</time></trkpt><trkpt lat="60.1174190082" lon="30.5245568231"><ele>2424.10</ele><time>2026-08-20T10:25:48Z</time></trkpt><trkpt lat="60.1174178347" lon="30.5245584995"><ele>2420.26</ele><time>2026-08-20T10:25:51Z</time></trkpt><trkpt lat="60.1174229477" lon="30.5245647021"><ele>2416.41</ele><time>2026-08-20T10:25:54Z</time></trkpt><trkpt lat="60.1174242888" lon="30.5245646182"><ele>2412.09</ele><time>2026-08-20T10:25:57Z</time></trkpt><trkpt lat="60.1174249593" lon="30.5245704018"><ele>2408.24</ele><time>2026-08-20T10:26:00Z</time></trkpt><trkpt lat="60.1174277253" lon="30.5245733354"><ele>2404.39</ele><time>2026-08-20T10:26:03Z</time></trkpt><trkpt lat="60.1174265519" lon="30.5245703179"><ele>2400.55</ele><time>2026-08-20T10:26:06Z</time></trkpt><trkpt lat="60.1174263004" lon="30.5245680548"><ele>2396.70</ele><time>2026-08-20T10:26:09Z</time></trkpt><trkpt lat="60.1174247917" lon="30.5245681386"><ele>2392.86</ele><time>2026-08-20T10:26:12Z</time></trkpt><trkpt lat="60.1174240373" lon="30.5245589186"><ele>2389.01</ele><time>2026-08-20T10:26:15Z</time></trkpt><trkpt lat="60.1174248755" lon="30.5245582480"><ele>2384.69</ele><time>2026-08-20T10:26:18Z</time></trkpt><trkpt lat="60.1174215227" lon="30.5245605111"><ele>2380.84</ele><time>2026-08-20T10:26:21Z</time></trkpt><trkpt lat="60.1174189243" lon="30.5245637801"><ele>2377.00</ele><time>2026-08-20T10:26:24Z</time></trkpt><trkpt lat="60.1174205169" lon="30.5245655403"><ele>2373.15</ele><time>2026-08-20T10:26:27Z</time></trkpt><trkpt lat="60.1174195111" lon="30.5245654564"><ele>2369.31</ele><time>2026-08-20T10:26:30Z</time></trkpt><trkpt lat="60.1174190920" lon="30.5245641991"><ele>2365.46</ele><time>2026-08-20T10:26:33Z</time></trkpt><trkpt lat="60.1174181700" lon="30.5245621037"><ele>2361.62</ele><time>2026-08-20T10:26:36Z</time></trkpt><trkpt lat="60.1174178347" lon="30.5245626904"><ele>2357.77</ele><time>2026-08-20T10:26:39Z</time></trkpt><trkpt lat="60.1174172480" lon="30.5245648697"><ele>2353.93</ele><time>2026-08-20T10:26:42Z</time></trkpt><trkpt lat="60.1174173318" lon="30.5245668814"><ele>2350.08</ele><time>2026-08-20T10:26:45Z</time></trkpt><trkpt lat="60.1174169127" lon="30.5245677195"><ele>2346.23</ele><time>2026-08-20T10:26:48Z</time></trkpt><trkpt lat="60.1174180023" lon="30.5245657079"><ele>2342.39</ele><time>2026-08-20T10:26:51Z</time></trkpt><trkpt lat="60.1174180862" lon="30.5245644506"><ele>2338.54</ele><time>2026-08-20T10:26:54Z</time></trkpt><trkpt lat="60.1174177509" lon="30.5245638639"><ele>2334.70</ele><time>2026-08-20T10:26:57Z</time></trkpt><trkpt lat="60.1174182538" lon="30.5245627742"><ele>2330.85</ele><time>2026-08-20T10:27:00Z</time></trkpt><trkpt lat="60.1174185891" lon="30.5245626066"><ele>2327.01</ele><time>2026-08-20T10:27:03Z</time></trkpt><trkpt lat="60.1174190920" lon="30.5245613493"><ele>2323.16</ele><time>2026-08-20T10:27:06Z</time></trkpt><trkpt lat="60.1174185053" lon="30.5245605949"><ele>2319.80</ele><time>2026-08-20T10:27:09Z</time></trkpt><trkpt lat="60.1174173318" lon="30.5245610978"><ele>2315.95</ele><time>2026-08-20T10:27:12Z</time></trkpt><trkpt lat="60.1174169127" lon="30.5245627742"><ele>2312.11</ele><time>2026-08-20T10:27:15Z</time></trkpt><trkpt lat="60.1174173318" lon="30.5245636962"><ele>2308.26</ele><time>2026-08-20T10:27:18Z</time></trkpt><trkpt lat="60.1174204331" lon="30.5245687254"><ele>2304.42</ele><time>2026-08-20T10:27:21Z</time></trkpt><trkpt lat="60.1174190920" lon="30.5245651212"><ele>2300.57</ele><time>2026-08-20T10:27:24Z</time></trkpt><trkpt lat="60.1174216904" lon="30.5245687254"><ele>2297.21</ele><time>2026-08-20T10:27:27Z</time></trkpt><trkpt lat="60.1174232829" lon="30.5245645344"><ele>2293.36</ele><time>2026-08-20T10:27:30Z</time></trkpt><trkpt lat="60.1174231153" lon="30.5245657079"><ele>2289.52</ele><time>2026-08-20T10:27:33Z</time></trkpt><trkpt lat="60.1174230315" lon="30.5245661270"><ele>2285.67</ele><time>2026-08-20T10:27:36Z</time></trkpt><trkpt lat="60.1174233668" lon="30.5245658755"><ele>2281.83</ele><time>2026-08-20T10:27:39Z</time></trkpt><trkpt lat="60.1174276415" lon="30.5245722458"><ele>2278.46</ele><time>2026-08-20T10:27:42Z</time></trkpt><trkpt lat="60.1174275577" lon="30.5245683901"><ele>2274.62</ele><time>2026-08-20T10:27:45Z</time></trkpt><trkpt lat="60.1174271386" lon="30.5245662946"><ele>2270.77</ele><time>2026-08-20T10:27:48Z</time></trkpt><trkpt lat="60.1174268872" lon="30.5245653726"><ele>2266.93</ele><time>2026-08-20T10:27:51Z</time></trkpt><trkpt lat="60.1174248755" lon="30.5245636962"><ele>2263.56</ele><time>2026-08-20T10:27:54Z</time></trkpt><trkpt lat="60.1174242888" lon="30.5245636962"><ele>2259.72</ele><time>2026-08-20T10:27:57Z</time></trkpt><trkpt lat="60.1174191758" lon="30.5245659593"><ele>2255.87</ele><time>2026-08-20T10:28:00Z</time></trkpt><trkpt lat="60.1174172480" lon="30.5245676357"><ele>2252.51</ele><time>2026-08-20T10:28:03Z</time></trkpt><trkpt lat="60.1174147334" lon="30.5245589186"><ele>2248.66</ele><time>2026-08-20T10:28:06Z</time></trkpt><trkpt lat="60.1174139790" lon="30.5245587509"><ele>2244.82</ele><time>2026-08-20T10:28:09Z</time></trkpt><trkpt lat="60.1174116321" lon="30.5245570745"><ele>2241.45</ele><time>2026-08-20T10:28:12Z</time></trkpt><trkpt lat="60.1174086146" lon="30.5245548952"><ele>2237.61</ele><time>2026-08-20T10:28:15Z</time></trkpt><trkpt lat="60.1174091175" lon="30.5245569907"><ele>2234.24</ele><time>2026-08-20T10:28:18Z</time></trkpt><trkpt lat="60.1174107101" lon="30.5245581642"><ele>2230.40</ele><time>2026-08-20T10:28:21Z</time></trkpt><trkpt lat="60.1174112968" lon="30.5245577451"><ele>2227.03</ele><time>2026-08-20T10:28:24Z</time></trkpt><trkpt lat="60.1174106263" lon="30.5245562363"><ele>2223.19</ele><time>2026-08-20T10:28:27Z</time></trkpt><trkpt lat="60.1174099557" lon="30.5245551467"><ele>2219.34</ele><time>2026-08-20T10:28:30Z</time></trkpt><trkpt lat="60.1174078602" lon="30.5245546438"><ele>2215.98</ele><time>2026-08-20T10:28:33Z</time></trkpt><trkpt lat="60.1174067706" lon="30.5245562363"><ele>2212.13</ele><time>2026-08-20T10:28:36Z</time></trkpt><trkpt lat="60.1174058486" lon="30.5245564878"><ele>2208.77</ele><time>2026-08-20T10:28:39Z</time></trkpt><trkpt lat="60.1174072735" lon="30.5245569907"><ele>2204.92</ele><time>2026-08-20T10:28:42Z</time></trkpt><trkpt lat="60.1174082793" lon="30.5245582480"><ele>2201.56</ele><time>2026-08-20T10:28:45Z</time></trkpt><trkpt lat="60.1174107101" lon="30.5245613493"><ele>2198.19</ele><time>2026-08-20T10:28:48Z</time></trkpt><trkpt lat="60.1174120512" lon="30.5245595891"><ele>2194.35</ele><time>2026-08-20T10:28:51Z</time></trkpt><trkpt lat="60.1174126379" lon="30.5245584995"><ele>2190.98</ele><time>2026-08-20T10:28:54Z</time></trkpt><trkpt lat="60.1174131408" lon="30.5245573260"><ele>2187.14</ele><time>2026-08-20T10:28:57Z</time></trkpt><trkpt lat="60.1174133923" lon="30.5245569069"><ele>2183.77</ele><time>2026-08-20T10:29:00Z</time></trkpt><trkpt lat="60.1174140628" lon="30.5245573260"><ele>2179.93</ele><time>2026-08-20T10:29:03Z</time></trkpt><trkpt lat="60.1174148172" lon="30.5245569907"><ele>2176.56</ele><time>2026-08-20T10:29:06Z</time></trkpt><trkpt lat="60.1174153201" lon="30.5245569069"><ele>2173.20</ele><time>2026-08-20T10:29:09Z</time></trkpt><trkpt lat="60.1174152363" lon="30.5245596729"><ele>2169.35</ele><time>2026-08-20T10:29:12Z</time></trkpt><trkpt lat="60.1174158230" lon="30.5245609302"><ele>2165.99</ele><time>2026-08-20T10:29:15Z</time></trkpt><trkpt lat="60.1174208522" lon="30.5245480221"><ele>2162.62</ele><time>2026-08-20T10:29:18Z</time></trkpt><trkpt lat="60.1174470875" lon="30.5245088786"><ele>2158.78</ele><time>2026-08-20T10:29:21Z</time></trkpt><trkpt lat="60.1174541283" lon="30.5244995747"><ele>2157.82</ele><time>2026-08-20T10:29:22Z</time></trkpt><trkpt lat="60.1174995583" lon="30.5244129058"><ele>2153.01</ele><time>2026-08-20T10:29:26Z</time></trkpt><trkpt lat="60.1175216865" lon="30.5243706610"><ele>2149.65</ele><time>2026-08-20T10:29:29Z</time></trkpt><trkpt lat="60.1175405458" lon="30.5243367143"><ele>2146.28</ele><time>2026-08-20T10:29:32Z</time></trkpt><trkpt lat="60.1175612491" lon="30.5242908653"><ele>2142.44</ele><time>2026-08-20T10:29:35Z</time></trkpt><trkpt lat="60.1175790187" lon="30.5242490396"><ele>2139.07</ele><time>2026-08-20T10:29:38Z</time></trkpt><trkpt lat="60.1175911725" lon="30.5241990834"><ele>2135.71</ele><time>2026-08-20T10:29:41Z</time></trkpt><trkpt lat="60.1176009793" lon="30.5241432600"><ele>2132.34</ele><time>2026-08-20T10:29:44Z</time></trkpt><trkpt lat="60.1176174916" lon="30.5240979977"><ele>2128.50</ele><time>2026-08-20T10:29:47Z</time></trkpt><trkpt lat="60.1176287234" lon="30.5240443535"><ele>2125.13</ele><time>2026-08-20T10:29:50Z</time></trkpt><trkpt lat="60.1176400390" lon="30.5240279250"><ele>2121.77</ele><time>2026-08-20T10:29:53Z</time></trkpt><trkpt lat="60.1176557131" lon="30.5240010191"><ele>2118.40</ele><time>2026-08-20T10:29:56Z</time></trkpt><trkpt lat="60.1176697109" lon="30.5239530746"><ele>2115.04</ele><time>2026-08-20T10:29:59Z</time></trkpt><trkpt lat="60.1176788472" lon="30.5239084829"><ele>2111.67</ele><time>2026-08-20T10:30:02Z</time></trkpt><trkpt lat="60.1176991314" lon="30.5238761287"><ele>2107.83</ele><time>2026-08-20T10:30:05Z</time></trkpt><trkpt lat="60.1177130453" lon="30.5238672439"><ele>2104.46</ele><time>2026-08-20T10:30:08Z</time></trkpt><trkpt lat="60.1177167334" lon="30.5238733627"><ele>2101.10</ele><time>2026-08-20T10:30:11Z</time></trkpt><trkpt lat="60.1177374367" lon="30.5238526594"><ele>2097.73</ele><time>2026-08-20T10:30:14Z</time></trkpt><trkpt lat="60.1177604869" lon="30.5238398351"><ele>2094.37</ele><time>2026-08-20T10:30:17Z</time></trkpt><trkpt lat="60.1177860517" lon="30.5238209758"><ele>2091.00</ele><time>2026-08-20T10:30:20Z</time></trkpt><trkpt lat="60.1178042404" lon="30.5237801559"><ele>2087.64</ele><time>2026-08-20T10:30:23Z</time></trkpt><trkpt lat="60.1178132929" lon="30.5237510707"><ele>2084.28</ele><time>2026-08-20T10:30:26Z</time></trkpt><trkpt lat="60.1178217586" lon="30.5237146933"><ele>2080.91</ele><time>2026-08-20T10:30:29Z</time></trkpt><trkpt lat="60.1178099401" lon="30.5237416830"><ele>2077.55</ele><time>2026-08-20T10:30:32Z</time></trkpt><trkpt lat="60.1177925058" lon="30.5237686727"><ele>2074.18</ele><time>2026-08-20T10:30:35Z</time></trkpt><trkpt lat="60.1177681983" lon="30.5237966683"><ele>2070.82</ele><time>2026-08-20T10:30:38Z</time></trkpt><trkpt lat="60.1177493390" lon="30.5238575209"><ele>2066.01</ele><time>2026-08-20T10:30:42Z</time></trkpt><trkpt lat="60.1177346706" lon="30.5238820799"><ele>2062.65</ele><time>2026-08-20T10:30:45Z</time></trkpt><trkpt lat="60.1177271269" lon="30.5238899589"><ele>2061.68</ele><time>2026-08-20T10:30:46Z</time></trkpt><trkpt lat="60.1176913362" lon="30.5238871928"><ele>2057.36</ele><time>2026-08-20T10:30:50Z</time></trkpt><trkpt lat="60.1176737342" lon="30.5239062198"><ele>2053.99</ele><time>2026-08-20T10:30:53Z</time></trkpt><trkpt lat="60.1176494267" lon="30.5239621270"><ele>2049.19</ele><time>2026-08-20T10:30:57Z</time></trkpt><trkpt lat="60.1176397875" lon="30.5240130052"><ele>2046.30</ele><time>2026-08-20T10:31:00Z</time></trkpt><trkpt lat="60.1176309865" lon="30.5240637157"><ele>2042.94</ele><time>2026-08-20T10:31:03Z</time></trkpt><trkpt lat="60.1176179107" lon="30.5241089780"><ele>2039.57</ele><time>2026-08-20T10:31:06Z</time></trkpt><trkpt lat="60.1175993029" lon="30.5241430923"><ele>2036.21</ele><time>2026-08-20T10:31:09Z</time></trkpt><trkpt lat="60.1175938547" lon="30.5241670646"><ele>2032.84</ele><time>2026-08-20T10:31:12Z</time></trkpt><trkpt lat="60.1175856404" lon="30.5241918750"><ele>2029.48</ele><time>2026-08-20T10:31:15Z</time></trkpt><trkpt lat="60.1175801083" lon="30.5242219660"><ele>2026.12</ele><time>2026-08-20T10:31:18Z</time></trkpt><trkpt lat="60.1175776776" lon="30.5242277496"><ele>2022.75</ele><time>2026-08-20T10:31:21Z</time></trkpt><trkpt lat="60.1175706368" lon="30.5242683180"><ele>2019.39</ele><time>2026-08-20T10:31:24Z</time></trkpt><trkpt lat="60.1175586507" lon="30.5243164301"><ele>2016.02</ele><time>2026-08-20T10:31:27Z</time></trkpt><trkpt lat="60.1175506879" lon="30.5243124068"><ele>2013.14</ele><time>2026-08-20T10:31:30Z</time></trkpt><trkpt lat="60.1175504364" lon="30.5243129935"><ele>2009.77</ele><time>2026-08-20T10:31:33Z</time></trkpt><trkpt lat="60.1175475027" lon="30.5243195314"><ele>2006.41</ele><time>2026-08-20T10:31:36Z</time></trkpt><trkpt lat="60.1175333373" lon="30.5243367143"><ele>2003.04</ele><time>2026-08-20T10:31:39Z</time></trkpt><trkpt lat="60.1175137237" lon="30.5243797973"><ele>1999.68</ele><time>2026-08-20T10:31:42Z</time></trkpt><trkpt lat="60.1175042521" lon="30.5244186893"><ele>1996.80</ele><time>2026-08-20T10:31:45Z</time></trkpt><trkpt lat="60.1174889971" lon="30.5244466849"><ele>1993.43</ele><time>2026-08-20T10:31:48Z</time></trkpt><trkpt lat="60.1174708921" lon="30.5244690645"><ele>1990.07</ele><time>2026-08-20T10:31:51Z</time></trkpt><trkpt lat="60.1174460817" lon="30.5244941264"><ele>1986.70</ele><time>2026-08-20T10:31:54Z</time></trkpt><trkpt lat="60.1174350176" lon="30.5245061126"><ele>1983.82</ele><time>2026-08-20T10:31:57Z</time></trkpt><trkpt lat="60.1174076926" lon="30.5245475192"><ele>1980.45</ele><time>2026-08-20T10:32:00Z</time></trkpt><trkpt lat="60.1174061839" lon="30.5245507043"><ele>1979.49</ele><time>2026-08-20T10:32:01Z</time></trkpt><trkpt lat="60.1173827145" lon="30.5246340204"><ele>1975.17</ele><time>2026-08-20T10:32:05Z</time></trkpt><trkpt lat="60.1173458342" lon="30.5246794503"><ele>1971.80</ele><time>2026-08-20T10:32:08Z</time></trkpt><trkpt lat="60.1173201017" lon="30.5247212760"><ele>1968.44</ele><time>2026-08-20T10:32:11Z</time></trkpt><trkpt lat="60.1173114683" lon="30.5247636046"><ele>1965.55</ele><time>2026-08-20T10:32:14Z</time></trkpt><trkpt lat="60.1173031703" lon="30.5248068552"><ele>1962.19</ele><time>2026-08-20T10:32:17Z</time></trkpt><trkpt lat="60.1172969677" lon="30.5248320848"><ele>1959.30</ele><time>2026-08-20T10:32:20Z</time></trkpt><trkpt lat="60.1172918547" lon="30.5248617567"><ele>1955.94</ele><time>2026-08-20T10:32:23Z</time></trkpt><trkpt lat="60.1172895078" lon="30.5248975474"><ele>1952.57</ele><time>2026-08-20T10:32:26Z</time></trkpt><trkpt lat="60.1172797848" lon="30.5249069352"><ele>1949.69</ele><time>2026-08-20T10:32:29Z</time></trkpt><trkpt lat="60.1172813773" lon="30.5249456596"><ele>1946.33</ele><time>2026-08-20T10:32:32Z</time></trkpt><trkpt lat="60.1172741689" lon="30.5249843001"><ele>1942.96</ele><time>2026-08-20T10:32:35Z</time></trkpt><trkpt lat="60.1172682177" lon="30.5250246171"><ele>1940.08</ele><time>2026-08-20T10:32:38Z</time></trkpt><trkpt lat="60.1172643621" lon="30.5250688735"><ele>1936.71</ele><time>2026-08-20T10:32:41Z</time></trkpt><trkpt lat="60.1172591653" lon="30.5250991322"><ele>1933.83</ele><time>2026-08-20T10:32:44Z</time></trkpt><trkpt lat="60.1172599196" lon="30.5251064245"><ele>1930.46</ele><time>2026-08-20T10:32:47Z</time></trkpt><trkpt lat="60.1172579918" lon="30.5251156446"><ele>1927.58</ele><time>2026-08-20T10:32:50Z</time></trkpt><trkpt lat="60.1172605064" lon="30.5251142196"><ele>1924.22</ele><time>2026-08-20T10:32:53Z</time></trkpt><trkpt lat="60.1172582433" lon="30.5251188297"><ele>1921.33</ele><time>2026-08-20T10:32:56Z</time></trkpt><trkpt lat="60.1172618475" lon="30.5251313187"><ele>1917.97</ele><time>2026-08-20T10:32:59Z</time></trkpt><trkpt lat="60.1172634400" lon="30.5251340009"><ele>1915.08</ele><time>2026-08-20T10:33:02Z</time></trkpt><trkpt lat="60.1172601711" lon="30.5251400359"><ele>1911.72</ele><time>2026-08-20T10:33:05Z</time></trkpt><trkpt lat="60.1172632724" lon="30.5251394492"><ele>1908.83</ele><time>2026-08-20T10:33:08Z</time></trkpt><trkpt lat="60.1172667928" lon="30.5251427181"><ele>1905.47</ele><time>2026-08-20T10:33:11Z</time></trkpt><trkpt lat="60.1172668766" lon="30.5251438078"><ele>1905.47</ele><time>2026-08-20T10:33:12Z</time></trkpt><trkpt lat="60.1172677148" lon="30.5251443945"><ele>1902.59</ele><time>2026-08-20T10:33:14Z</time></trkpt><trkpt lat="60.1172685530" lon="30.5251391977"><ele>1899.22</ele><time>2026-08-20T10:33:17Z</time></trkpt><trkpt lat="60.1172662061" lon="30.5251335818"><ele>1896.34</ele><time>2026-08-20T10:33:20Z</time></trkpt><trkpt lat="60.1172663737" lon="30.5251340009"><ele>1893.45</ele><time>2026-08-20T10:33:23Z</time></trkpt><trkpt lat="60.1172658708" lon="30.5251357611"><ele>1890.09</ele><time>2026-08-20T10:33:26Z</time></trkpt><trkpt lat="60.1172645297" lon="30.5251378566"><ele>1887.21</ele><time>2026-08-20T10:33:29Z</time></trkpt><trkpt lat="60.1172631048" lon="30.5251371022"><ele>1883.84</ele><time>2026-08-20T10:33:32Z</time></trkpt><trkpt lat="60.1172616798" lon="30.5251378566"><ele>1880.96</ele><time>2026-08-20T10:33:35Z</time></trkpt><trkpt lat="60.1172614284" lon="30.5251372699"><ele>1878.07</ele><time>2026-08-20T10:33:38Z</time></trkpt><trkpt lat="60.1172607578" lon="30.5251377728"><ele>1874.71</ele><time>2026-08-20T10:33:41Z</time></trkpt><trkpt lat="60.1172480173" lon="30.5251705460"><ele>1871.82</ele><time>2026-08-20T10:33:44Z</time></trkpt><trkpt lat="60.1172460057" lon="30.5252074264"><ele>1868.94</ele><time>2026-08-20T10:33:47Z</time></trkpt><trkpt lat="60.1172429044" lon="30.5252169818"><ele>1865.58</ele><time>2026-08-20T10:33:50Z</time></trkpt><trkpt lat="60.1172446646" lon="30.5252287164"><ele>1862.69</ele><time>2026-08-20T10:33:53Z</time></trkpt><trkpt lat="60.1172424015" lon="30.5252407026"><ele>1859.81</ele><time>2026-08-20T10:33:56Z</time></trkpt><trkpt lat="60.1172322594" lon="30.5252448935"><ele>1856.92</ele><time>2026-08-20T10:33:59Z</time></trkpt><trkpt lat="60.1172301639" lon="30.5252535269"><ele>1854.52</ele><time>2026-08-20T10:34:01Z</time></trkpt><trkpt lat="60.1171904337" lon="30.5252906587"><ele>1850.68</ele><time>2026-08-20T10:34:05Z</time></trkpt><trkpt lat="60.1171666291" lon="30.5253135413"><ele>1847.79</ele><time>2026-08-20T10:34:08Z</time></trkpt><trkpt lat="60.1171533857" lon="30.5253432132"><ele>1843.47</ele><time>2026-08-20T10:34:12Z</time></trkpt><trkpt lat="60.1171498653" lon="30.5253549479"><ele>1839.62</ele><time>2026-08-20T10:34:16Z</time></trkpt><trkpt lat="60.1171459258" lon="30.5253792554"><ele>1835.77</ele><time>2026-08-20T10:34:20Z</time></trkpt><trkpt lat="60.1171397232" lon="30.5254058260"><ele>1831.93</ele><time>2026-08-20T10:34:24Z</time></trkpt><trkpt lat="60.1171210315" lon="30.5254489928"><ele>1827.60</ele><time>2026-08-20T10:34:28Z</time></trkpt><trkpt lat="60.1170921978" lon="30.5255080853"><ele>1823.76</ele><time>2026-08-20T10:34:32Z</time></trkpt><trkpt lat="60.1170677226" lon="30.5255712848"><ele>1819.91</ele><time>2026-08-20T10:34:36Z</time></trkpt><trkpt lat="60.1170392241" lon="30.5256458838"><ele>1816.07</ele><time>2026-08-20T10:34:40Z</time></trkpt><trkpt lat="60.1169937942" lon="30.5256864522"><ele>1811.74</ele><time>2026-08-20T10:34:44Z</time></trkpt><trkpt lat="60.1169802994" lon="30.5257186387"><ele>1807.90</ele><time>2026-08-20T10:34:48Z</time></trkpt><trkpt lat="60.1169569977" lon="30.5257500708"><ele>1804.05</ele><time>2026-08-20T10:34:52Z</time></trkpt><trkpt lat="60.1169409882" lon="30.5257721152"><ele>1800.21</ele><time>2026-08-20T10:34:56Z</time></trkpt><trkpt lat="60.1169303432" lon="30.5258000270"><ele>1796.36</ele><time>2026-08-20T10:35:00Z</time></trkpt><trkpt lat="60.1169072930" lon="30.5258431938"><ele>1792.52</ele><time>2026-08-20T10:35:04Z</time></trkpt><trkpt lat="60.1168831531" lon="30.5258748773"><ele>1788.67</ele><time>2026-08-20T10:35:08Z</time></trkpt><trkpt lat="60.1168749388" lon="30.5258781463"><ele>1784.82</ele><time>2026-08-20T10:35:12Z</time></trkpt><trkpt lat="60.1168700773" lon="30.5258811638"><ele>1780.98</ele><time>2026-08-20T10:35:16Z</time></trkpt><trkpt lat="60.1168671437" lon="30.5258907191"><ele>1777.13</ele><time>2026-08-20T10:35:20Z</time></trkpt><trkpt lat="60.1168621145" lon="30.5258952454"><ele>1773.29</ele><time>2026-08-20T10:35:24Z</time></trkpt><trkpt lat="60.1168696582" lon="30.5259139370"><ele>1769.44</ele><time>2026-08-20T10:35:28Z</time></trkpt><trkpt lat="60.1168718375" lon="30.5259150267"><ele>1765.60</ele><time>2026-08-20T10:35:32Z</time></trkpt><trkpt lat="60.1168688200" lon="30.5259142723"><ele>1761.75</ele><time>2026-08-20T10:35:36Z</time></trkpt><trkpt lat="60.1168694906" lon="30.5259176251"><ele>1757.91</ele><time>2026-08-20T10:35:40Z</time></trkpt><trkpt lat="60.1168673113" lon="30.5259227380"><ele>1754.06</ele><time>2026-08-20T10:35:44Z</time></trkpt><trkpt lat="60.1168650482" lon="30.5259183794"><ele>1750.22</ele><time>2026-08-20T10:35:48Z</time></trkpt><trkpt lat="60.1168632042" lon="30.5259292759"><ele>1746.37</ele><time>2026-08-20T10:35:52Z</time></trkpt><trkpt lat="60.1168633718" lon="30.5259269290"><ele>1742.53</ele><time>2026-08-20T10:35:56Z</time></trkpt><trkpt lat="60.1168600190" lon="30.5259270966"><ele>1738.68</ele><time>2026-08-20T10:36:00Z</time></trkpt><trkpt lat="60.1168564986" lon="30.5259358138"><ele>1734.84</ele><time>2026-08-20T10:36:04Z</time></trkpt><trkpt lat="60.1168508828" lon="30.5259456206"><ele>1731.47</ele><time>2026-08-20T10:36:08Z</time></trkpt><trkpt lat="60.1168487873" lon="30.5259471294"><ele>1727.63</ele><time>2026-08-20T10:36:12Z</time></trkpt><trkpt lat="60.1168447640" lon="30.5259477161"><ele>1723.78</ele><time>2026-08-20T10:36:16Z</time></trkpt><trkpt lat="60.1168418303" lon="30.5259533320"><ele>1719.94</ele><time>2026-08-20T10:36:20Z</time></trkpt><trkpt lat="60.1168404892" lon="30.5259607919"><ele>1716.09</ele><time>2026-08-20T10:36:24Z</time></trkpt><trkpt lat="60.1168402378" lon="30.5259596184"><ele>1712.73</ele><time>2026-08-20T10:36:28Z</time></trkpt><trkpt lat="60.1168342866" lon="30.5259498116"><ele>1708.88</ele><time>2026-08-20T10:36:32Z</time></trkpt><trkpt lat="60.1168373879" lon="30.5259558465"><ele>1705.04</ele><time>2026-08-20T10:36:36Z</time></trkpt><trkpt lat="60.1168431714" lon="30.5259587802"><ele>1701.67</ele><time>2026-08-20T10:36:40Z</time></trkpt><trkpt lat="60.1168449316" lon="30.5259617139"><ele>1698.79</ele><time>2026-08-20T10:36:43Z</time></trkpt><trkpt lat="60.1168450993" lon="30.5259633902"><ele>1694.94</ele><time>2026-08-20T10:36:49Z</time></trkpt><trkpt lat="60.1168468595" lon="30.5259654019"><ele>1691.58</ele><time>2026-08-20T10:36:53Z</time></trkpt><trkpt lat="60.1168487035" lon="30.5259652343"><ele>1687.73</ele><time>2026-08-20T10:36:57Z</time></trkpt><trkpt lat="60.1168501284" lon="30.5259638093"><ele>1683.89</ele><time>2026-08-20T10:37:01Z</time></trkpt><trkpt lat="60.1168404892" lon="30.5259565171"><ele>1680.52</ele><time>2026-08-20T10:37:05Z</time></trkpt><trkpt lat="60.1168424170" lon="30.5259602889"><ele>1676.68</ele><time>2026-08-20T10:37:09Z</time></trkpt><trkpt lat="60.1168436743" lon="30.5259640608"><ele>1673.31</ele><time>2026-08-20T10:37:13Z</time></trkpt><trkpt lat="60.1168446802" lon="30.5259667430"><ele>1669.47</ele><time>2026-08-20T10:37:17Z</time></trkpt><trkpt lat="60.1168445125" lon="30.5259643123"><ele>1666.10</ele><time>2026-08-20T10:37:21Z</time></trkpt><trkpt lat="60.1168436743" lon="30.5259638932"><ele>1662.26</ele><time>2026-08-20T10:37:25Z</time></trkpt><trkpt lat="60.1168446802" lon="30.5259717721"><ele>1658.89</ele><time>2026-08-20T10:37:29Z</time></trkpt><trkpt lat="60.1168436743" lon="30.5259650666"><ele>1658.89</ele><time>2026-08-20T10:37:30Z</time></trkpt><trkpt lat="60.1168386452" lon="30.5259473808"><ele>1655.05</ele><time>2026-08-20T10:37:35Z</time></trkpt><trkpt lat="60.1168406568" lon="30.5259438604"><ele>1651.68</ele><time>2026-08-20T10:37:39Z</time></trkpt><trkpt lat="60.1168450154" lon="30.5259433575"><ele>1647.84</ele><time>2026-08-20T10:37:43Z</time></trkpt><trkpt lat="60.1168508828" lon="30.5259495601"><ele>1644.47</ele><time>2026-08-20T10:37:47Z</time></trkpt><trkpt lat="60.1168561634" lon="30.5259470455"><ele>1641.11</ele><time>2026-08-20T10:37:51Z</time></trkpt><trkpt lat="60.1168492064" lon="30.5259472970"><ele>1637.26</ele><time>2026-08-20T10:37:55Z</time></trkpt><trkpt lat="60.1168262400" lon="30.5259742867"><ele>1633.90</ele><time>2026-08-20T10:37:59Z</time></trkpt><trkpt lat="60.1168231387" lon="30.5260066409"><ele>1630.53</ele><time>2026-08-20T10:38:03Z</time></trkpt><trkpt lat="60.1168204565" lon="30.5260182917"><ele>1626.69</ele><time>2026-08-20T10:38:07Z</time></trkpt><trkpt lat="60.1168248150" lon="30.5260370672"><ele>1623.32</ele><time>2026-08-20T10:38:11Z</time></trkpt><trkpt lat="60.1168289222" lon="30.5260665715"><ele>1619.96</ele><time>2026-08-20T10:38:15Z</time></trkpt><trkpt lat="60.1168225519" lon="30.5260953214"><ele>1616.11</ele><time>2026-08-20T10:38:19Z</time></trkpt><trkpt lat="60.1168406568" lon="30.5261250772"><ele>1612.75</ele><time>2026-08-20T10:38:23Z</time></trkpt><trkpt lat="60.1168448478" lon="30.5261566769"><ele>1609.38</ele><time>2026-08-20T10:38:27Z</time></trkpt><trkpt lat="60.1168439258" lon="30.5261523183"><ele>1606.02</ele><time>2026-08-20T10:38:31Z</time></trkpt><trkpt lat="60.1168485358" lon="30.5261268374"><ele>1602.17</ele><time>2026-08-20T10:38:35Z</time></trkpt><trkpt lat="60.1168355439" lon="30.5261135101"><ele>1598.81</ele><time>2026-08-20T10:38:39Z</time></trkpt><trkpt lat="60.1168180257" lon="30.5261063855"><ele>1597.37</ele><time>2026-08-20T10:38:41Z</time></trkpt><trkpt lat="60.1167811453" lon="30.5261399969"><ele>1593.04</ele><time>2026-08-20T10:38:46Z</time></trkpt><trkpt lat="60.1167604420" lon="30.5261853430"><ele>1589.20</ele><time>2026-08-20T10:38:50Z</time></trkpt><trkpt lat="60.1167478692" lon="30.5262359697"><ele>1585.83</ele><time>2026-08-20T10:38:54Z</time></trkpt><trkpt lat="60.1167468634" lon="30.5262422562"><ele>1582.47</ele><time>2026-08-20T10:38:58Z</time></trkpt><trkpt lat="60.1167352963" lon="30.5262617860"><ele>1579.10</ele><time>2026-08-20T10:39:02Z</time></trkpt><trkpt lat="60.1167218015" lon="30.5262885243"><ele>1575.74</ele><time>2026-08-20T10:39:06Z</time></trkpt><trkpt lat="60.1167205442" lon="30.5263067130"><ele>1572.37</ele><time>2026-08-20T10:39:10Z</time></trkpt><trkpt lat="60.1167192031" lon="30.5263123289"><ele>1569.01</ele><time>2026-08-20T10:39:14Z</time></trkpt><trkpt lat="60.1167196222" lon="30.5263218004"><ele>1565.64</ele><time>2026-08-20T10:39:18Z</time></trkpt><trkpt lat="60.1167208795" lon="30.5263304338"><ele>1562.28</ele><time>2026-08-20T10:39:22Z</time></trkpt><trkpt lat="60.1167113241" lon="30.5263382290"><ele>1558.92</ele><time>2026-08-20T10:39:26Z</time></trkpt><trkpt lat="60.1167009305" lon="30.5263754446"><ele>1555.55</ele><time>2026-08-20T10:39:30Z</time></trkpt><trkpt lat="60.1167016849" lon="30.5263808928"><ele>1552.19</ele><time>2026-08-20T10:39:34Z</time></trkpt><trkpt lat="60.1167033613" lon="30.5263911188"><ele>1548.82</ele><time>2026-08-20T10:39:38Z</time></trkpt><trkpt lat="60.1167020202" lon="30.5263979919"><ele>1545.46</ele><time>2026-08-20T10:39:42Z</time></trkpt><trkpt lat="60.1166910399" lon="30.5264041107"><ele>1542.09</ele><time>2026-08-20T10:39:46Z</time></trkpt><trkpt lat="60.1166845858" lon="30.5264100619"><ele>1538.73</ele><time>2026-08-20T10:39:50Z</time></trkpt><trkpt lat="60.1166749466" lon="30.5264179409"><ele>1535.36</ele><time>2026-08-20T10:39:54Z</time></trkpt><trkpt lat="60.1166652236" lon="30.5264412425"><ele>1532.00</ele><time>2026-08-20T10:39:58Z</time></trkpt><trkpt lat="60.1166578475" lon="30.5264705792"><ele>1529.11</ele><time>2026-08-20T10:40:02Z</time></trkpt><trkpt lat="60.1166451070" lon="30.5264903605"><ele>1525.75</ele><time>2026-08-20T10:40:06Z</time></trkpt><trkpt lat="60.1166247390" lon="30.5265300907"><ele>1522.39</ele><time>2026-08-20T10:40:10Z</time></trkpt><trkpt lat="60.1166020241" lon="30.5265461002"><ele>1519.02</ele><time>2026-08-20T10:40:14Z</time></trkpt><trkpt lat="60.1165839192" lon="30.5265725031"><ele>1515.66</ele><time>2026-08-20T10:40:18Z</time></trkpt><trkpt lat="60.1165560912" lon="30.5266125686"><ele>1512.77</ele><time>2026-08-20T10:40:22Z</time></trkpt><trkpt lat="60.1165362261" lon="30.5266346131"><ele>1509.41</ele><time>2026-08-20T10:40:26Z</time></trkpt><trkpt lat="60.1165312808" lon="30.5266231298"><ele>1506.04</ele><time>2026-08-20T10:40:30Z</time></trkpt><trkpt lat="60.1165387407" lon="30.5266086292"><ele>1502.68</ele><time>2026-08-20T10:40:34Z</time></trkpt><trkpt lat="60.1165420096" lon="30.5265931226"><ele>1499.79</ele><time>2026-08-20T10:40:38Z</time></trkpt><trkpt lat="60.1165420096" lon="30.5265937094"><ele>1496.43</ele><time>2026-08-20T10:40:42Z</time></trkpt><trkpt lat="60.1165443566" lon="30.5266029295"><ele>1493.06</ele><time>2026-08-20T10:40:46Z</time></trkpt><trkpt lat="60.1165442728" lon="30.5266065337"><ele>1490.18</ele><time>2026-08-20T10:40:50Z</time></trkpt><trkpt lat="60.1165455300" lon="30.5266067851"><ele>1486.82</ele><time>2026-08-20T10:40:54Z</time></trkpt><trkpt lat="60.1165468711" lon="30.5266072042"><ele>1483.45</ele><time>2026-08-20T10:40:58Z</time></trkpt><trkpt lat="60.1165501401" lon="30.5266098864"><ele>1480.57</ele><time>2026-08-20T10:41:02Z</time></trkpt><trkpt lat="60.1165501401" lon="30.5266122334"><ele>1477.20</ele><time>2026-08-20T10:41:06Z</time></trkpt><trkpt lat="60.1165482961" lon="30.5266148318"><ele>1473.84</ele><time>2026-08-20T10:41:10Z</time></trkpt><trkpt lat="60.1165445242" lon="30.5266151670"><ele>1470.95</ele><time>2026-08-20T10:41:14Z</time></trkpt><trkpt lat="60.1165410876" lon="30.5266171787"><ele>1467.59</ele><time>2026-08-20T10:41:18Z</time></trkpt><trkpt lat="60.1165400818" lon="30.5266212020"><ele>1464.71</ele><time>2026-08-20T10:41:22Z</time></trkpt><trkpt lat="60.1165366452" lon="30.5266393907"><ele>1461.34</ele><time>2026-08-20T10:41:26Z</time></trkpt><trkpt lat="60.1165368967" lon="30.5266572442"><ele>1458.46</ele><time>2026-08-20T10:41:30Z</time></trkpt><trkpt lat="60.1165446080" lon="30.5266898498"><ele>1455.09</ele><time>2026-08-20T10:41:34Z</time></trkpt><trkpt lat="60.1165371481" lon="30.5267060269"><ele>1452.21</ele><time>2026-08-20T10:41:38Z</time></trkpt><trkpt lat="60.1165344659" lon="30.5267144088"><ele>1448.84</ele><time>2026-08-20T10:41:42Z</time></trkpt><trkpt lat="60.1165290177" lon="30.5267533008"><ele>1445.96</ele><time>2026-08-20T10:41:46Z</time></trkpt><trkpt lat="60.1165230665" lon="30.5268067773"><ele>1442.60</ele><time>2026-08-20T10:41:50Z</time></trkpt><trkpt lat="60.1165188756" lon="30.5268506985"><ele>1439.71</ele><time>2026-08-20T10:41:54Z</time></trkpt><trkpt lat="60.1165235694" lon="30.5268826336"><ele>1436.35</ele><time>2026-08-20T10:41:58Z</time></trkpt><trkpt lat="60.1165164448" lon="30.5268967990"><ele>1433.46</ele><time>2026-08-20T10:42:02Z</time></trkpt><trkpt lat="60.1165131759" lon="30.5269484315"><ele>1430.58</ele><time>2026-08-20T10:42:06Z</time></trkpt><trkpt lat="60.1165163610" lon="30.5270464998"><ele>1427.21</ele><time>2026-08-20T10:42:10Z</time></trkpt><trkpt lat="60.1165185403" lon="30.5271159019"><ele>1424.33</ele><time>2026-08-20T10:42:14Z</time></trkpt><trkpt lat="60.1165187918" lon="30.5271201767"><ele>1420.97</ele><time>2026-08-20T10:42:18Z</time></trkpt><trkpt lat="60.1165178698" lon="30.5271346774"><ele>1419.52</ele><time>2026-08-20T10:42:20Z</time></trkpt><trkpt lat="60.1165211387" lon="30.5271919258"><ele>1415.68</ele><time>2026-08-20T10:42:25Z</time></trkpt><trkpt lat="60.1165228151" lon="30.5271966197"><ele>1412.79</ele><time>2026-08-20T10:42:29Z</time></trkpt><trkpt lat="60.1165226474" lon="30.5272039119"><ele>1409.91</ele><time>2026-08-20T10:42:33Z</time></trkpt><trkpt lat="60.1165204681" lon="30.5272070970"><ele>1407.03</ele><time>2026-08-20T10:42:37Z</time></trkpt><trkpt lat="60.1165192109" lon="30.5272137187"><ele>1403.66</ele><time>2026-08-20T10:42:41Z</time></trkpt><trkpt lat="60.1165173668" lon="30.5272179935"><ele>1400.78</ele><time>2026-08-20T10:42:45Z</time></trkpt><trkpt lat="60.1165237371" lon="30.5272405408"><ele>1396.93</ele><time>2026-08-20T10:42:50Z</time></trkpt><trkpt lat="60.1165358908" lon="30.5273041595"><ele>1393.09</ele><time>2026-08-20T10:42:55Z</time></trkpt><trkpt lat="60.1165769622" lon="30.5273745675"><ele>1389.72</ele><time>2026-08-20T10:43:00Z</time></trkpt><trkpt lat="60.1165802311" lon="30.5273788422"><ele>1385.88</ele><time>2026-08-20T10:43:05Z</time></trkpt><trkpt lat="60.1165796444" lon="30.5273780879"><ele>1382.03</ele><time>2026-08-20T10:43:10Z</time></trkpt><trkpt lat="60.1165709272" lon="30.5273678619"><ele>1378.67</ele><time>2026-08-20T10:43:15Z</time></trkpt><trkpt lat="60.1165730227" lon="30.5273728911"><ele>1374.82</ele><time>2026-08-20T10:43:20Z</time></trkpt><trkpt lat="60.1165728550" lon="30.5273700412"><ele>1370.98</ele><time>2026-08-20T10:43:25Z</time></trkpt><trkpt lat="60.1165596116" lon="30.5273450632"><ele>1367.61</ele><time>2026-08-20T10:43:30Z</time></trkpt><trkpt lat="60.1165288500" lon="30.5272991303"><ele>1363.77</ele><time>2026-08-20T10:43:35Z</time></trkpt><trkpt lat="60.1165071409" lon="30.5272444803"><ele>1359.92</ele><time>2026-08-20T10:43:40Z</time></trkpt><trkpt lat="60.1165073086" lon="30.5272457376"><ele>1359.44</ele><time>2026-08-20T10:43:41Z</time></trkpt><trkpt lat="60.1164726075" lon="30.5273236893"><ele>1355.12</ele><time>2026-08-20T10:43:47Z</time></trkpt><trkpt lat="60.1164533291" lon="30.5273695383"><ele>1351.27</ele><time>2026-08-20T10:43:52Z</time></trkpt><trkpt lat="60.1164239924" lon="30.5274283793"><ele>1347.91</ele><time>2026-08-20T10:43:57Z</time></trkpt><trkpt lat="60.1164182089" lon="30.5274142977"><ele>1344.06</ele><time>2026-08-20T10:44:02Z</time></trkpt><trkpt lat="60.1164211426" lon="30.5274103582"><ele>1340.70</ele><time>2026-08-20T10:44:07Z</time></trkpt><trkpt lat="60.1164196339" lon="30.5274049100"><ele>1337.33</ele><time>2026-08-20T10:44:12Z</time></trkpt><trkpt lat="60.1164186280" lon="30.5274048261"><ele>1333.49</ele><time>2026-08-20T10:44:17Z</time></trkpt><trkpt lat="60.1164167840" lon="30.5274016410"><ele>1330.12</ele><time>2026-08-20T10:44:22Z</time></trkpt><trkpt lat="60.1164104138" lon="30.5273990426"><ele>1326.28</ele><time>2026-08-20T10:44:27Z</time></trkpt><trkpt lat="60.1164083183" lon="30.5273982044"><ele>1322.91</ele><time>2026-08-20T10:44:32Z</time></trkpt><trkpt lat="60.1164068934" lon="30.5273982882"><ele>1319.55</ele><time>2026-08-20T10:44:37Z</time></trkpt><trkpt lat="60.1164071448" lon="30.5273979530"><ele>1315.70</ele><time>2026-08-20T10:44:42Z</time></trkpt><trkpt lat="60.1164072286" lon="30.5273977853"><ele>1312.34</ele><time>2026-08-20T10:44:47Z</time></trkpt><trkpt lat="60.1164072286" lon="30.5273977853"><ele>1308.97</ele><time>2026-08-20T10:44:52Z</time></trkpt><trkpt lat="60.1164090727" lon="30.5274008028"><ele>1305.61</ele><time>2026-08-20T10:44:57Z</time></trkpt><trkpt lat="60.1164072286" lon="30.5273964442"><ele>1301.76</ele><time>2026-08-20T10:45:02Z</time></trkpt><trkpt lat="60.1164073125" lon="30.5273962766"><ele>1298.40</ele><time>2026-08-20T10:45:07Z</time></trkpt><trkpt lat="60.1164078992" lon="30.5273972824"><ele>1295.03</ele><time>2026-08-20T10:45:12Z</time></trkpt><trkpt lat="60.1164087374" lon="30.5273959413"><ele>1291.67</ele><time>2026-08-20T10:45:17Z</time></trkpt><trkpt lat="60.1164087374" lon="30.5273939297"><ele>1288.30</ele><time>2026-08-20T10:45:22Z</time></trkpt><trkpt lat="60.1164089050" lon="30.5273925047"><ele>1284.46</ele><time>2026-08-20T10:45:27Z</time></trkpt><trkpt lat="60.1164090727" lon="30.5273917504"><ele>1281.09</ele><time>2026-08-20T10:45:32Z</time></trkpt><trkpt lat="60.1164094917" lon="30.5273901578"><ele>1277.73</ele><time>2026-08-20T10:45:37Z</time></trkpt><trkpt lat="60.1164090727" lon="30.5273914151"><ele>1274.36</ele><time>2026-08-20T10:45:42Z</time></trkpt><trkpt lat="60.1164099108" lon="30.5273934267"><ele>1271.00</ele><time>2026-08-20T10:45:47Z</time></trkpt><trkpt lat="60.1164126769" lon="30.5274035688"><ele>1267.64</ele><time>2026-08-20T10:45:52Z</time></trkpt><trkpt lat="60.1163729466" lon="30.5274136271"><ele>1263.79</ele><time>2026-08-20T10:45:58Z</time></trkpt><trkpt lat="60.1163333841" lon="30.5274112802"><ele>1260.43</ele><time>2026-08-20T10:46:03Z</time></trkpt><trkpt lat="60.1162963361" lon="30.5274369288"><ele>1257.06</ele><time>2026-08-20T10:46:08Z</time></trkpt><trkpt lat="60.1162901334" lon="30.5274492502"><ele>1256.10</ele><time>2026-08-20T10:46:09Z</time></trkpt><trkpt lat="60.1162506547" lon="30.5275059119"><ele>1252.25</ele><time>2026-08-20T10:46:15Z</time></trkpt><trkpt lat="60.1162147801" lon="30.5275617354"><ele>1248.89</ele><time>2026-08-20T10:46:20Z</time></trkpt><trkpt lat="60.1161906403" lon="30.5276049022"><ele>1246.01</ele><time>2026-08-20T10:46:24Z</time></trkpt><trkpt lat="60.1161272731" lon="30.5276212469"><ele>1242.16</ele><time>2026-08-20T10:46:30Z</time></trkpt><trkpt lat="60.1161016244" lon="30.5276282877"><ele>1238.80</ele><time>2026-08-20T10:46:35Z</time></trkpt><trkpt lat="60.1160591282" lon="30.5276477337"><ele>1235.43</ele><time>2026-08-20T10:46:40Z</time></trkpt><trkpt lat="60.1160187274" lon="30.5276154634"><ele>1232.07</ele><time>2026-08-20T10:46:45Z</time></trkpt><trkpt lat="60.1159827691" lon="30.5276024714"><ele>1230.14</ele><time>2026-08-20T10:46:48Z</time></trkpt><trkpt lat="60.1159458049" lon="30.5275546107"><ele>1227.74</ele><time>2026-08-20T10:46:52Z</time></trkpt><trkpt lat="60.1159039792" lon="30.5275301356"><ele>1224.38</ele><time>2026-08-20T10:46:57Z</time></trkpt><trkpt lat="60.1158706192" lon="30.5275490787"><ele>1222.45</ele><time>2026-08-20T10:47:00Z</time></trkpt><trkpt lat="60.1158416178" lon="30.5274859630"><ele>1218.61</ele><time>2026-08-20T10:47:06Z</time></trkpt><trkpt lat="60.1158540230" lon="30.5274342466"><ele>1215.72</ele><time>2026-08-20T10:47:10Z</time></trkpt><trkpt lat="60.1158525981" lon="30.5273920856"><ele>1211.88</ele><time>2026-08-20T10:47:16Z</time></trkpt><trkpt lat="60.1158584654" lon="30.5273661017"><ele>1208.51</ele><time>2026-08-20T10:47:21Z</time></trkpt><trkpt lat="60.1158567891" lon="30.5273794290"><ele>1205.63</ele><time>2026-08-20T10:47:26Z</time></trkpt><trkpt lat="60.1158600580" lon="30.5274190754"><ele>1202.27</ele><time>2026-08-20T10:47:31Z</time></trkpt><trkpt lat="60.1158411987" lon="30.5275049061"><ele>1198.90</ele><time>2026-08-20T10:47:36Z</time></trkpt><trkpt lat="60.1158350799" lon="30.5275151320"><ele>1198.42</ele><time>2026-08-20T10:47:37Z</time></trkpt><trkpt lat="60.1158228423" lon="30.5275517609"><ele>1196.98</ele><time>2026-08-20T10:47:39Z</time></trkpt><trkpt lat="60.1157854591" lon="30.5276266113"><ele>1193.13</ele><time>2026-08-20T10:47:45Z</time></trkpt><trkpt lat="60.1157612354" lon="30.5276689399"><ele>1190.25</ele><time>2026-08-20T10:47:50Z</time></trkpt><trkpt lat="60.1157326531" lon="30.5276740529"><ele>1186.88</ele><time>2026-08-20T10:47:55Z</time></trkpt><trkpt lat="60.1157171465" lon="30.5276859552"><ele>1184.00</ele><time>2026-08-20T10:48:00Z</time></trkpt><trkpt lat="60.1156973653" lon="30.5277032219"><ele>1180.64</ele><time>2026-08-20T10:48:05Z</time></trkpt><trkpt lat="60.1156961918" lon="30.5276997015"><ele>1178.71</ele><time>2026-08-20T10:48:08Z</time></trkpt><trkpt lat="60.1156919170" lon="30.5276867934"><ele>1177.27</ele><time>2026-08-20T10:48:10Z</time></trkpt><trkpt lat="60.1156647597" lon="30.5276447162"><ele>1173.91</ele><time>2026-08-20T10:48:16Z</time></trkpt><trkpt lat="60.1156382728" lon="30.5275847856"><ele>1171.02</ele><time>2026-08-20T10:48:20Z</time></trkpt><trkpt lat="60.1156082656" lon="30.5274608172"><ele>1167.18</ele><time>2026-08-20T10:48:26Z</time></trkpt><trkpt lat="60.1156110317" lon="30.5274148006"><ele>1166.22</ele><time>2026-08-20T10:48:28Z</time></trkpt><trkpt lat="60.1155956089" lon="30.5273709632"><ele>1164.29</ele><time>2026-08-20T10:48:31Z</time></trkpt><trkpt lat="60.1155941002" lon="30.5272790976"><ele>1160.45</ele><time>2026-08-20T10:48:37Z</time></trkpt><trkpt lat="60.1155941002" lon="30.5272692069"><ele>1159.97</ele><time>2026-08-20T10:48:38Z</time></trkpt><trkpt lat="60.1155938487" lon="30.5271710549"><ele>1156.12</ele><time>2026-08-20T10:48:44Z</time></trkpt><trkpt lat="60.1155979559" lon="30.5271625053"><ele>1155.64</ele><time>2026-08-20T10:48:45Z</time></trkpt><trkpt lat="60.1156018116" lon="30.5270563904"><ele>1151.80</ele><time>2026-08-20T10:48:51Z</time></trkpt><trkpt lat="60.1155972015" lon="30.5270243715"><ele>1150.84</ele><time>2026-08-20T10:48:53Z</time></trkpt><trkpt lat="60.1156162284" lon="30.5269327573"><ele>1146.99</ele><time>2026-08-20T10:48:59Z</time></trkpt><trkpt lat="60.1156322379" lon="30.5268486869"><ele>1144.11</ele><time>2026-08-20T10:49:04Z</time></trkpt><trkpt lat="60.1156438049" lon="30.5267596710"><ele>1140.74</ele><time>2026-08-20T10:49:09Z</time></trkpt><trkpt lat="60.1156445593" lon="30.5267414823"><ele>1140.26</ele><time>2026-08-20T10:49:10Z</time></trkpt><trkpt lat="60.1156491693" lon="30.5266433302"><ele>1136.90</ele><time>2026-08-20T10:49:16Z</time></trkpt><trkpt lat="60.1156467386" lon="30.5265878420"><ele>1133.53</ele><time>2026-08-20T10:49:21Z</time></trkpt><trkpt lat="60.1156243589" lon="30.5264826491"><ele>1130.65</ele><time>2026-08-20T10:49:26Z</time></trkpt><trkpt lat="60.1156088524" lon="30.5264221318"><ele>1127.76</ele><time>2026-08-20T10:49:31Z</time></trkpt><trkpt lat="60.1155853830" lon="30.5263669789"><ele>1124.40</ele><time>2026-08-20T10:49:36Z</time></trkpt><trkpt lat="60.1155684516" lon="30.5263189506"><ele>1122.96</ele><time>2026-08-20T10:49:39Z</time></trkpt><trkpt lat="60.1155213453" lon="30.5262017716"><ele>1118.63</ele><time>2026-08-20T10:49:46Z</time></trkpt><trkpt lat="60.1154850516" lon="30.5261135101"><ele>1114.79</ele><time>2026-08-20T10:49:52Z</time></trkpt><trkpt lat="60.1154705510" lon="30.5260632187"><ele>1113.34</ele><time>2026-08-20T10:49:55Z</time></trkpt><trkpt lat="60.1154464111" lon="30.5259249173"><ele>1109.02</ele><time>2026-08-20T10:50:02Z</time></trkpt><trkpt lat="60.1154143922" lon="30.5258393381"><ele>1105.17</ele><time>2026-08-20T10:50:09Z</time></trkpt><trkpt lat="60.1153885759" lon="30.5258055590"><ele>1103.25</ele><time>2026-08-20T10:50:12Z</time></trkpt><trkpt lat="60.1153534558" lon="30.5257730372"><ele>1100.85</ele><time>2026-08-20T10:50:16Z</time></trkpt><trkpt lat="60.1153413858" lon="30.5257410184"><ele>1099.89</ele><time>2026-08-20T10:50:18Z</time></trkpt><trkpt lat="60.1152956206" lon="30.5256887991"><ele>1095.56</ele><time>2026-08-20T10:50:25Z</time></trkpt><trkpt lat="60.1152727380" lon="30.5256333947"><ele>1092.20</ele><time>2026-08-20T10:50:31Z</time></trkpt><trkpt lat="60.1152734086" lon="30.5256303772"><ele>1088.35</ele><time>2026-08-20T10:50:37Z</time></trkpt><trkpt lat="60.1152741630" lon="30.5256318022"><ele>1084.99</ele><time>2026-08-20T10:50:43Z</time></trkpt><trkpt lat="60.1152475085" lon="30.5256172176"><ele>1081.62</ele><time>2026-08-20T10:50:49Z</time></trkpt><trkpt lat="60.1152142324" lon="30.5255716201"><ele>1078.26</ele><time>2026-08-20T10:50:55Z</time></trkpt><trkpt lat="60.1152099576" lon="30.5255661719"><ele>1077.78</ele><time>2026-08-20T10:50:56Z</time></trkpt><trkpt lat="60.1151932776" lon="30.5255314708"><ele>1073.45</ele><time>2026-08-20T10:51:03Z</time></trkpt><trkpt lat="60.1151755080" lon="30.5254992843"><ele>1070.08</ele><time>2026-08-20T10:51:09Z</time></trkpt><trkpt lat="60.1151398849" lon="30.5254121963"><ele>1066.72</ele><time>2026-08-20T10:51:15Z</time></trkpt><trkpt lat="60.1151054353" lon="30.5253363401"><ele>1063.36</ele><time>2026-08-20T10:51:21Z</time></trkpt><trkpt lat="60.1150852349" lon="30.5252692010"><ele>1059.99</ele><time>2026-08-20T10:51:27Z</time></trkpt><trkpt lat="60.1150510367" lon="30.5252081808"><ele>1056.63</ele><time>2026-08-20T10:51:33Z</time></trkpt><trkpt lat="60.1150382962" lon="30.5251861364"><ele>1053.26</ele><time>2026-08-20T10:51:39Z</time></trkpt><trkpt lat="60.1150381286" lon="30.5251891539"><ele>1049.90</ele><time>2026-08-20T10:51:45Z</time></trkpt><trkpt lat="60.1150355302" lon="30.5251860525"><ele>1046.53</ele><time>2026-08-20T10:51:51Z</time></trkpt><trkpt lat="60.1150010806" lon="30.5251241103"><ele>1043.17</ele><time>2026-08-20T10:51:57Z</time></trkpt><trkpt lat="60.1149667986" lon="30.5250564683"><ele>1039.80</ele><time>2026-08-20T10:52:03Z</time></trkpt><trkpt lat="60.1149608474" lon="30.5250133015"><ele>1036.44</ele><time>2026-08-20T10:52:09Z</time></trkpt><trkpt lat="60.1149607636" lon="30.5250174925"><ele>1033.07</ele><time>2026-08-20T10:52:15Z</time></trkpt><trkpt lat="60.1149639487" lon="30.5250166543"><ele>1029.71</ele><time>2026-08-20T10:52:21Z</time></trkpt><trkpt lat="60.1149606798" lon="30.5250181630"><ele>1026.34</ele><time>2026-08-20T10:52:27Z</time></trkpt><trkpt lat="60.1149592549" lon="30.5250187498"><ele>1023.46</ele><time>2026-08-20T10:52:33Z</time></trkpt><trkpt lat="60.1149584167" lon="30.5250192527"><ele>1020.10</ele><time>2026-08-20T10:52:39Z</time></trkpt><trkpt lat="60.1149586681" lon="30.5250211805"><ele>1016.73</ele><time>2026-08-20T10:52:45Z</time></trkpt><trkpt lat="60.1149576623" lon="30.5250200909"><ele>1013.37</ele><time>2026-08-20T10:52:51Z</time></trkpt><trkpt lat="60.1149579976" lon="30.5250131339"><ele>1010.00</ele><time>2026-08-20T10:52:57Z</time></trkpt><trkpt lat="60.1149563212" lon="30.5250005610"><ele>1007.12</ele><time>2026-08-20T10:53:03Z</time></trkpt><trkpt lat="60.1149554830" lon="30.5249949452"><ele>1003.75</ele><time>2026-08-20T10:53:09Z</time></trkpt><trkpt lat="60.1149540581" lon="30.5249884073"><ele>1000.39</ele><time>2026-08-20T10:53:15Z</time></trkpt><trkpt lat="60.1149532199" lon="30.5249855574"><ele>997.51</ele><time>2026-08-20T10:53:21Z</time></trkpt><trkpt lat="60.1149538066" lon="30.5249876529"><ele>994.14</ele><time>2026-08-20T10:53:27Z</time></trkpt><trkpt lat="60.1149544772" lon="30.5249884073"><ele>991.26</ele><time>2026-08-20T10:53:33Z</time></trkpt><trkpt lat="60.1149551477" lon="30.5249899160"><ele>987.89</ele><time>2026-08-20T10:53:39Z</time></trkpt><trkpt lat="60.1149569079" lon="30.5249913409"><ele>984.53</ele><time>2026-08-20T10:53:45Z</time></trkpt><trkpt lat="60.1149576623" lon="30.5249920115"><ele>981.64</ele><time>2026-08-20T10:53:51Z</time></trkpt><trkpt lat="60.1149600931" lon="30.5250158999"><ele>978.28</ele><time>2026-08-20T10:53:57Z</time></trkpt><trkpt lat="60.1149827242" lon="30.5250523612"><ele>975.39</ele><time>2026-08-20T10:54:03Z</time></trkpt><trkpt lat="60.1149802096" lon="30.5250466615"><ele>972.03</ele><time>2026-08-20T10:54:09Z</time></trkpt><trkpt lat="60.1149793714" lon="30.5250458233"><ele>969.15</ele><time>2026-08-20T10:54:15Z</time></trkpt><trkpt lat="60.1149797905" lon="30.5250447337"><ele>966.26</ele><time>2026-08-20T10:54:21Z</time></trkpt><trkpt lat="60.1149833947" lon="30.5250476673"><ele>962.90</ele><time>2026-08-20T10:54:27Z</time></trkpt><trkpt lat="60.1149841491" lon="30.5250480026"><ele>960.01</ele><time>2026-08-20T10:54:33Z</time></trkpt><trkpt lat="60.1149819698" lon="30.5250450689"><ele>956.65</ele><time>2026-08-20T10:54:39Z</time></trkpt><trkpt lat="60.1149833109" lon="30.5250459071"><ele>953.77</ele><time>2026-08-20T10:54:45Z</time></trkpt><trkpt lat="60.1149769407" lon="30.5250403751"><ele>950.88</ele><time>2026-08-20T10:54:51Z</time></trkpt><trkpt lat="60.1149807125" lon="30.5250380281"><ele>947.52</ele><time>2026-08-20T10:54:57Z</time></trkpt><trkpt lat="60.1149803773" lon="30.5250350107"><ele>944.63</ele><time>2026-08-20T10:55:03Z</time></trkpt><trkpt lat="60.1149803773" lon="30.5250335019"><ele>941.75</ele><time>2026-08-20T10:55:09Z</time></trkpt><trkpt lat="60.1149804611" lon="30.5250345916"><ele>938.38</ele><time>2026-08-20T10:55:16Z</time></trkpt><trkpt lat="60.1149807964" lon="30.5250347592"><ele>934.54</ele><time>2026-08-20T10:55:23Z</time></trkpt><trkpt lat="60.1149807125" lon="30.5250379443"><ele>931.17</ele><time>2026-08-20T10:55:30Z</time></trkpt><trkpt lat="60.1149806287" lon="30.5250428058"><ele>927.81</ele><time>2026-08-20T10:55:37Z</time></trkpt><trkpt lat="60.1149782818" lon="30.5250462424"><ele>924.45</ele><time>2026-08-20T10:55:44Z</time></trkpt><trkpt lat="60.1149761863" lon="30.5250483379"><ele>921.08</ele><time>2026-08-20T10:55:51Z</time></trkpt><trkpt lat="60.1149731688" lon="30.5250490922"><ele>917.72</ele><time>2026-08-20T10:55:58Z</time></trkpt><trkpt lat="60.1149745937" lon="30.5250485893"><ele>914.35</ele><time>2026-08-20T10:56:05Z</time></trkpt><trkpt lat="60.1149772760" lon="30.5250477511"><ele>910.51</ele><time>2026-08-20T10:56:12Z</time></trkpt><trkpt lat="60.1149783656" lon="30.5250464939"><ele>907.14</ele><time>2026-08-20T10:56:19Z</time></trkpt><trkpt lat="60.1149781980" lon="30.5250459071"><ele>903.78</ele><time>2026-08-20T10:56:26Z</time></trkpt><trkpt lat="60.1149774436" lon="30.5250445660"><ele>900.89</ele><time>2026-08-20T10:56:33Z</time></trkpt><trkpt lat="60.1149757672" lon="30.5250426382"><ele>897.53</ele><time>2026-08-20T10:56:40Z</time></trkpt><trkpt lat="60.1149714924" lon="30.5250420514"><ele>894.16</ele><time>2026-08-20T10:56:47Z</time></trkpt><trkpt lat="60.1149698999" lon="30.5250402912"><ele>890.80</ele><time>2026-08-20T10:56:54Z</time></trkpt><trkpt lat="60.1149688102" lon="30.5250384472"><ele>887.43</ele><time>2026-08-20T10:57:01Z</time></trkpt><trkpt lat="60.1149678882" lon="30.5250361841"><ele>884.07</ele><time>2026-08-20T10:57:08Z</time></trkpt><trkpt lat="60.1149674691" lon="30.5250357650"><ele>880.71</ele><time>2026-08-20T10:57:15Z</time></trkpt><trkpt lat="60.1149672177" lon="30.5250381958"><ele>877.82</ele><time>2026-08-20T10:57:22Z</time></trkpt><trkpt lat="60.1149678882" lon="30.5250377767"><ele>874.46</ele><time>2026-08-20T10:57:29Z</time></trkpt><trkpt lat="60.1149657927" lon="30.5250396207"><ele>871.09</ele><time>2026-08-20T10:57:36Z</time></trkpt><trkpt lat="60.1149481069" lon="30.5250379443"><ele>867.73</ele><time>2026-08-20T10:57:43Z</time></trkpt><trkpt lat="60.1149464305" lon="30.5250357650"><ele>864.84</ele><time>2026-08-20T10:57:50Z</time></trkpt><trkpt lat="60.1149447542" lon="30.5250369385"><ele>861.48</ele><time>2026-08-20T10:57:57Z</time></trkpt><trkpt lat="60.1149429101" lon="30.5250364356"><ele>858.11</ele><time>2026-08-20T10:58:04Z</time></trkpt><trkpt lat="60.1149397250" lon="30.5250324961"><ele>855.23</ele><time>2026-08-20T10:58:11Z</time></trkpt><trkpt lat="60.1149305888" lon="30.5250246171"><ele>851.87</ele><time>2026-08-20T10:58:18Z</time></trkpt><trkpt lat="60.1149304211" lon="30.5250232760"><ele>848.98</ele><time>2026-08-20T10:58:25Z</time></trkpt><trkpt lat="60.1148862485" lon="30.5249854736"><ele>845.62</ele><time>2026-08-20T10:58:32Z</time></trkpt><trkpt lat="60.1148576662" lon="30.5249635968"><ele>842.73</ele><time>2026-08-20T10:58:39Z</time></trkpt><trkpt lat="60.1148474403" lon="30.5249479227"><ele>839.37</ele><time>2026-08-20T10:58:46Z</time></trkpt><trkpt lat="60.1148445904" lon="30.5249449890"><ele>836.48</ele><time>2026-08-20T10:58:53Z</time></trkpt><trkpt lat="60.1148455963" lon="30.5249419715"><ele>833.12</ele><time>2026-08-20T10:59:00Z</time></trkpt><trkpt lat="60.1148453448" lon="30.5249411333"><ele>830.24</ele><time>2026-08-20T10:59:07Z</time></trkpt><trkpt lat="60.1148257311" lon="30.5249151494"><ele>827.35</ele><time>2026-08-20T10:59:14Z</time></trkpt><trkpt lat="60.1147994958" lon="30.5248822086"><ele>823.99</ele><time>2026-08-20T10:59:21Z</time></trkpt><trkpt lat="60.1147626154" lon="30.5248479266"><ele>822.06</ele><time>2026-08-20T10:59:26Z</time></trkpt><trkpt lat="60.1146948896" lon="30.5247682985"><ele>818.22</ele><time>2026-08-20T10:59:34Z</time></trkpt><trkpt lat="60.1146375574" lon="30.5247009080"><ele>815.34</ele><time>2026-08-20T10:59:41Z</time></trkpt><trkpt lat="60.1146068797" lon="30.5246538855"><ele>811.97</ele><time>2026-08-20T10:59:49Z</time></trkpt><trkpt lat="60.1146171894" lon="30.5246307515"><ele>808.61</ele><time>2026-08-20T10:59:57Z</time></trkpt><trkpt lat="60.1146122441" lon="30.5246301647"><ele>805.24</ele><time>2026-08-20T11:00:05Z</time></trkpt><trkpt lat="60.1146113221" lon="30.5246320087"><ele>801.88</ele><time>2026-08-20T11:00:13Z</time></trkpt><trkpt lat="60.1146082208" lon="30.5246347748"><ele>798.51</ele><time>2026-08-20T11:00:21Z</time></trkpt><trkpt lat="60.1146103162" lon="30.5246377923"><ele>795.15</ele><time>2026-08-20T11:00:29Z</time></trkpt><trkpt lat="60.1146097295" lon="30.5246334337"><ele>791.78</ele><time>2026-08-20T11:00:37Z</time></trkpt><trkpt lat="60.1145910379" lon="30.5246105511"><ele>790.34</ele><time>2026-08-20T11:00:41Z</time></trkpt><trkpt lat="60.1145705022" lon="30.5245816335"><ele>789.38</ele><time>2026-08-20T11:00:43Z</time></trkpt><trkpt lat="60.1145369746" lon="30.5244999100"><ele>787.46</ele><time>2026-08-20T11:00:48Z</time></trkpt><trkpt lat="60.1145128347" lon="30.5244464334"><ele>785.05</ele><time>2026-08-20T11:00:53Z</time></trkpt><trkpt lat="60.1144969091" lon="30.5244206171"><ele>784.57</ele><time>2026-08-20T11:00:55Z</time></trkpt><trkpt lat="60.1144670695" lon="30.5243060365"><ele>780.73</ele><time>2026-08-20T11:01:04Z</time></trkpt><trkpt lat="60.1144555025" lon="30.5242484529"><ele>779.29</ele><time>2026-08-20T11:01:08Z</time></trkpt><trkpt lat="60.1144394930" lon="30.5241676513"><ele>775.44</ele><time>2026-08-20T11:01:17Z</time></trkpt><trkpt lat="60.1144293509" lon="30.5241381470"><ele>773.52</ele><time>2026-08-20T11:01:21Z</time></trkpt><trkpt lat="60.1144142635" lon="30.5240187049"><ele>770.15</ele><time>2026-08-20T11:01:30Z</time></trkpt><trkpt lat="60.1144033670" lon="30.5239279289"><ele>766.79</ele><time>2026-08-20T11:01:38Z</time></trkpt><trkpt lat="60.1143958233" lon="30.5238474626"><ele>764.87</ele><time>2026-08-20T11:01:43Z</time></trkpt><trkpt lat="60.1143977512" lon="30.5238255858"><ele>763.90</ele><time>2026-08-20T11:01:45Z</time></trkpt><trkpt lat="60.1143856812" lon="30.5236970913"><ele>760.54</ele><time>2026-08-20T11:01:54Z</time></trkpt><trkpt lat="60.1143695880" lon="30.5236058962"><ele>757.18</ele><time>2026-08-20T11:02:02Z</time></trkpt><trkpt lat="60.1143750362" lon="30.5235065706"><ele>754.29</ele><time>2026-08-20T11:02:09Z</time></trkpt><trkpt lat="60.1143784728" lon="30.5233864579"><ele>750.93</ele><time>2026-08-20T11:02:18Z</time></trkpt><trkpt lat="60.1143793110" lon="30.5233716220"><ele>750.45</ele><time>2026-08-20T11:02:19Z</time></trkpt><trkpt lat="60.1143710129" lon="30.5233283713"><ele>749.49</ele><time>2026-08-20T11:02:21Z</time></trkpt><trkpt lat="60.1143394969" lon="30.5232158862"><ele>746.12</ele><time>2026-08-20T11:02:30Z</time></trkpt><trkpt lat="60.1143267564" lon="30.5231334083"><ele>743.24</ele><time>2026-08-20T11:02:38Z</time></trkpt><trkpt lat="60.1143188775" lon="30.5231034011"><ele>741.31</ele><time>2026-08-20T11:02:42Z</time></trkpt><trkpt lat="60.1142881159" lon="30.5229707155"><ele>737.95</ele><time>2026-08-20T11:02:51Z</time></trkpt><trkpt lat="60.1142950729" lon="30.5229390319"><ele>736.99</ele><time>2026-08-20T11:02:53Z</time></trkpt><trkpt lat="60.1142919715" lon="30.5229114555"><ele>736.51</ele><time>2026-08-20T11:02:55Z</time></trkpt><trkpt lat="60.1143023651" lon="30.5227822065"><ele>733.14</ele><time>2026-08-20T11:03:04Z</time></trkpt><trkpt lat="60.1142994314" lon="30.5227678735"><ele>732.66</ele><time>2026-08-20T11:03:05Z</time></trkpt><trkpt lat="60.1143109147" lon="30.5227088649"><ele>731.22</ele><time>2026-08-20T11:03:09Z</time></trkpt><trkpt lat="60.1143260859" lon="30.5225895066"><ele>728.82</ele><time>2026-08-20T11:03:15Z</time></trkpt><trkpt lat="60.1143380720" lon="30.5225087050"><ele>726.41</ele><time>2026-08-20T11:03:21Z</time></trkpt><trkpt lat="60.1143404189" lon="30.5224321783"><ele>724.01</ele><time>2026-08-20T11:03:27Z</time></trkpt><trkpt lat="60.1143403351" lon="30.5223196931"><ele>720.65</ele><time>2026-08-20T11:03:36Z</time></trkpt><trkpt lat="60.1143474597" lon="30.5222085491"><ele>717.76</ele><time>2026-08-20T11:03:44Z</time></trkpt><trkpt lat="60.1143581886" lon="30.5221570842"><ele>716.32</ele><time>2026-08-20T11:03:48Z</time></trkpt><trkpt lat="60.1143389102" lon="30.5220418330"><ele>712.47</ele><time>2026-08-20T11:03:57Z</time></trkpt><trkpt lat="60.1143398322" lon="30.5220212974"><ele>711.51</ele><time>2026-08-20T11:04:00Z</time></trkpt><trkpt lat="60.1143410057" lon="30.5219148472"><ele>707.67</ele><time>2026-08-20T11:04:10Z</time></trkpt><trkpt lat="60.1143310312" lon="30.5218581855"><ele>704.30</ele><time>2026-08-20T11:04:19Z</time></trkpt><trkpt lat="60.1143595297" lon="30.5217472091"><ele>701.42</ele><time>2026-08-20T11:04:28Z</time></trkpt><trkpt lat="60.1143341325" lon="30.5216860212"><ele>698.05</ele><time>2026-08-20T11:04:37Z</time></trkpt><trkpt lat="60.1143069752" lon="30.5216182955"><ele>695.17</ele><time>2026-08-20T11:04:44Z</time></trkpt><trkpt lat="60.1142628863" lon="30.5214559380"><ele>691.81</ele><time>2026-08-20T11:04:54Z</time></trkpt><trkpt lat="60.1142596174" lon="30.5214266013"><ele>690.84</ele><time>2026-08-20T11:04:56Z</time></trkpt><trkpt lat="60.1142402552" lon="30.5212875456"><ele>687.96</ele><time>2026-08-20T11:05:05Z</time></trkpt><trkpt lat="60.1142319571" lon="30.5211756472"><ele>684.60</ele><time>2026-08-20T11:05:14Z</time></trkpt><trkpt lat="60.1142261736" lon="30.5211163871"><ele>681.23</ele><time>2026-08-20T11:05:23Z</time></trkpt><trkpt lat="60.1142296102" lon="30.5211144593"><ele>678.35</ele><time>2026-08-20T11:05:32Z</time></trkpt><trkpt lat="60.1142350584" lon="30.5211090948"><ele>674.98</ele><time>2026-08-20T11:05:41Z</time></trkpt><trkpt lat="60.1142433565" lon="30.5211032275"><ele>671.62</ele><time>2026-08-20T11:05:50Z</time></trkpt><trkpt lat="60.1142385788" lon="30.5210873857"><ele>668.73</ele><time>2026-08-20T11:05:59Z</time></trkpt><trkpt lat="60.1142400037" lon="30.5210851226"><ele>665.37</ele><time>2026-08-20T11:06:08Z</time></trkpt><trkpt lat="60.1142399199" lon="30.5211090110"><ele>662.49</ele><time>2026-08-20T11:06:17Z</time></trkpt><trkpt lat="60.1142130140" lon="30.5210932530"><ele>659.12</ele><time>2026-08-20T11:06:26Z</time></trkpt><trkpt lat="60.1141811628" lon="30.5209749006"><ele>656.72</ele><time>2026-08-20T11:06:33Z</time></trkpt><trkpt lat="60.1141765527" lon="30.5208810233"><ele>654.80</ele><time>2026-08-20T11:06:39Z</time></trkpt><trkpt lat="60.1141633932" lon="30.5207345914"><ele>651.43</ele><time>2026-08-20T11:06:49Z</time></trkpt><trkpt lat="60.1141405944" lon="30.5206573103"><ele>648.55</ele><time>2026-08-20T11:06:58Z</time></trkpt><trkpt lat="60.1141302008" lon="30.5206417199"><ele>645.18</ele><time>2026-08-20T11:07:07Z</time></trkpt><trkpt lat="60.1141171250" lon="30.5206451565"><ele>642.30</ele><time>2026-08-20T11:07:16Z</time></trkpt><trkpt lat="60.1141154487" lon="30.5206459109"><ele>639.41</ele><time>2026-08-20T11:07:25Z</time></trkpt><trkpt lat="60.1141150296" lon="30.5206455756"><ele>636.05</ele><time>2026-08-20T11:07:35Z</time></trkpt><trkpt lat="60.1141150296" lon="30.5206431448"><ele>632.68</ele><time>2026-08-20T11:07:45Z</time></trkpt><trkpt lat="60.1141219027" lon="30.5206473358"><ele>629.32</ele><time>2026-08-20T11:07:55Z</time></trkpt><trkpt lat="60.1141163707" lon="30.5206458271"><ele>625.96</ele><time>2026-08-20T11:08:05Z</time></trkpt><trkpt lat="60.1141173765" lon="30.5206449050"><ele>623.07</ele><time>2026-08-20T11:08:15Z</time></trkpt><trkpt lat="60.1141177956" lon="30.5206448212"><ele>619.71</ele><time>2026-08-20T11:08:25Z</time></trkpt><trkpt lat="60.1141178794" lon="30.5206456594"><ele>616.34</ele><time>2026-08-20T11:08:35Z</time></trkpt><trkpt lat="60.1141194720" lon="30.5206454918"><ele>613.46</ele><time>2026-08-20T11:08:45Z</time></trkpt><trkpt lat="60.1141231600" lon="30.5206224415"><ele>610.09</ele><time>2026-08-20T11:08:55Z</time></trkpt><trkpt lat="60.1140993554" lon="30.5205288995"><ele>607.69</ele><time>2026-08-20T11:09:03Z</time></trkpt><trkpt lat="60.1140752155" lon="30.5204040091"><ele>604.81</ele><time>2026-08-20T11:09:12Z</time></trkpt><trkpt lat="60.1140566915" lon="30.5202598404"><ele>602.40</ele><time>2026-08-20T11:09:20Z</time></trkpt><trkpt lat="60.1140332222" lon="30.5202097166"><ele>601.44</ele><time>2026-08-20T11:09:23Z</time></trkpt><trkpt lat="60.1139924861" lon="30.5200316850"><ele>598.08</ele><time>2026-08-20T11:09:34Z</time></trkpt><trkpt lat="60.1139803324" lon="30.5199719220"><ele>596.64</ele><time>2026-08-20T11:09:38Z</time></trkpt><trkpt lat="60.1139592100" lon="30.5198822357"><ele>595.19</ele><time>2026-08-20T11:09:43Z</time></trkpt><trkpt lat="60.1139825117" lon="30.5197338760"><ele>592.31</ele><time>2026-08-20T11:09:52Z</time></trkpt><trkpt lat="60.1140173804" lon="30.5195710994"><ele>589.43</ele><time>2026-08-20T11:10:02Z</time></trkpt><trkpt lat="60.1140214875" lon="30.5195564311"><ele>588.95</ele><time>2026-08-20T11:10:03Z</time></trkpt><trkpt lat="60.1140354015" lon="30.5194218177"><ele>586.54</ele><time>2026-08-20T11:10:11Z</time></trkpt><trkpt lat="60.1140075736" lon="30.5192408524"><ele>583.18</ele><time>2026-08-20T11:10:22Z</time></trkpt><trkpt lat="60.1140002813" lon="30.5192374997"><ele>580.29</ele><time>2026-08-20T11:10:32Z</time></trkpt><trkpt lat="60.1139834337" lon="30.5190587975"><ele>576.93</ele><time>2026-08-20T11:10:43Z</time></trkpt><trkpt lat="60.1139941625" lon="30.5189825222"><ele>575.49</ele><time>2026-08-20T11:10:48Z</time></trkpt><trkpt lat="60.1140244212" lon="30.5188857112"><ele>573.56</ele><time>2026-08-20T11:10:55Z</time></trkpt><trkpt lat="60.1140531711" lon="30.5188533571"><ele>572.60</ele><time>2026-08-20T11:10:58Z</time></trkpt><trkpt lat="60.1140842680" lon="30.5187673587"><ele>569.72</ele><time>2026-08-20T11:11:07Z</time></trkpt><trkpt lat="60.1141150296" lon="30.5186291412"><ele>567.32</ele><time>2026-08-20T11:11:16Z</time></trkpt><trkpt lat="60.1141358167" lon="30.5184661970"><ele>563.47</ele><time>2026-08-20T11:11:28Z</time></trkpt><trkpt lat="60.1141321287" lon="30.5184742436"><ele>560.59</ele><time>2026-08-20T11:11:39Z</time></trkpt><trkpt lat="60.1141321287" lon="30.5184872355"><ele>557.22</ele><time>2026-08-20T11:11:50Z</time></trkpt><trkpt lat="60.1141320448" lon="30.5185056757"><ele>554.34</ele><time>2026-08-20T11:12:01Z</time></trkpt><trkpt lat="60.1141173765" lon="30.5185162369"><ele>550.97</ele><time>2026-08-20T11:12:12Z</time></trkpt><trkpt lat="60.1141122635" lon="30.5185061786"><ele>548.09</ele><time>2026-08-20T11:12:23Z</time></trkpt><trkpt lat="60.1141154487" lon="30.5184701364"><ele>544.72</ele><time>2026-08-20T11:12:34Z</time></trkpt><trkpt lat="60.1141265128" lon="30.5183651950"><ele>541.84</ele><time>2026-08-20T11:12:45Z</time></trkpt><trkpt lat="60.1141445339" lon="30.5182776041"><ele>538.48</ele><time>2026-08-20T11:12:56Z</time></trkpt><trkpt lat="60.1141516585" lon="30.5181419011"><ele>536.07</ele><time>2026-08-20T11:13:06Z</time></trkpt><trkpt lat="60.1141481381" lon="30.5181056075"><ele>532.71</ele><time>2026-08-20T11:13:17Z</time></trkpt><trkpt lat="60.1141615491" lon="30.5182316713"><ele>529.82</ele><time>2026-08-20T11:13:29Z</time></trkpt><trkpt lat="60.1141683385" lon="30.5182509497"><ele>526.46</ele><time>2026-08-20T11:13:41Z</time></trkpt><trkpt lat="60.1141586155" lon="30.5181633588"><ele>523.09</ele><time>2026-08-20T11:13:53Z</time></trkpt><trkpt lat="60.1141278539" lon="30.5179988220"><ele>520.21</ele><time>2026-08-20T11:14:05Z</time></trkpt><trkpt lat="60.1140835136" lon="30.5177870113"><ele>516.85</ele><time>2026-08-20T11:14:17Z</time></trkpt><trkpt lat="60.1140788198" lon="30.5177640449"><ele>516.37</ele><time>2026-08-20T11:14:19Z</time></trkpt><trkpt lat="60.1140390057" lon="30.5175947305"><ele>513.48</ele><time>2026-08-20T11:14:29Z</time></trkpt><trkpt lat="60.1140167098" lon="30.5174331274"><ele>510.60</ele><time>2026-08-20T11:14:40Z</time></trkpt><trkpt lat="60.1140273549" lon="30.5172634777"><ele>507.71</ele><time>2026-08-20T11:14:51Z</time></trkpt><trkpt lat="60.1140187215" lon="30.5171107594"><ele>505.31</ele><time>2026-08-20T11:15:01Z</time></trkpt><trkpt lat="60.1140193921" lon="30.5171055626"><ele>504.83</ele><time>2026-08-20T11:15:02Z</time></trkpt><trkpt lat="60.1140166260" lon="30.5170420278"><ele>501.46</ele><time>2026-08-20T11:15:15Z</time></trkpt><trkpt lat="60.1140119322" lon="30.5169968493"><ele>500.02</ele><time>2026-08-20T11:15:21Z</time></trkpt><trkpt lat="60.1140397601" lon="30.5168826040"><ele>496.66</ele><time>2026-08-20T11:15:34Z</time></trkpt><trkpt lat="60.1140870340" lon="30.5168567039"><ele>493.77</ele><time>2026-08-20T11:15:46Z</time></trkpt><trkpt lat="60.1141318772" lon="30.5168660916"><ele>490.89</ele><time>2026-08-20T11:15:58Z</time></trkpt><trkpt lat="60.1141628902" lon="30.5168827716"><ele>487.53</ele><time>2026-08-20T11:16:10Z</time></trkpt><trkpt lat="60.1141882874" lon="30.5168976914"><ele>484.64</ele><time>2026-08-20T11:16:22Z</time></trkpt><trkpt lat="60.1142109185" lon="30.5169196520"><ele>481.28</ele><time>2026-08-20T11:16:34Z</time></trkpt><trkpt lat="60.1142461225" lon="30.5169082526"><ele>478.39</ele><time>2026-08-20T11:16:46Z</time></trkpt><trkpt lat="60.1143109147" lon="30.5168945901"><ele>475.51</ele><time>2026-08-20T11:16:58Z</time></trkpt><trkpt lat="60.1144322846" lon="30.5168660916"><ele>472.14</ele><time>2026-08-20T11:17:10Z</time></trkpt><trkpt lat="60.1144766249" lon="30.5168681033"><ele>469.26</ele><time>2026-08-20T11:17:22Z</time></trkpt><trkpt lat="60.1145575941" lon="30.5168251880"><ele>466.38</ele><time>2026-08-20T11:17:35Z</time></trkpt><trkpt lat="60.1146212965" lon="30.5168258585"><ele>463.01</ele><time>2026-08-20T11:17:48Z</time></trkpt><trkpt lat="60.1147213764" lon="30.5168214999"><ele>460.13</ele><time>2026-08-20T11:18:00Z</time></trkpt><trkpt lat="60.1149893459" lon="30.5167542771"><ele>456.76</ele><time>2026-08-20T11:18:13Z</time></trkpt><trkpt lat="60.1150962152" lon="30.5167655088"><ele>454.36</ele><time>2026-08-20T11:18:24Z</time></trkpt><trkpt lat="60.1151276473" lon="30.5167576298"><ele>451.00</ele><time>2026-08-20T11:18:37Z</time></trkpt><trkpt lat="60.1151427347" lon="30.5167458113"><ele>448.11</ele><time>2026-08-20T11:18:51Z</time></trkpt><trkpt lat="60.1151611749" lon="30.5167369265"><ele>444.75</ele><time>2026-08-20T11:19:05Z</time></trkpt><trkpt lat="60.1151658688" lon="30.5167205818"><ele>441.86</ele><time>2026-08-20T11:19:19Z</time></trkpt><trkpt lat="60.1151520386" lon="30.5166427139"><ele>440.42</ele><time>2026-08-20T11:19:24Z</time></trkpt><trkpt lat="60.1151486859" lon="30.5165956076"><ele>439.94</ele><time>2026-08-20T11:19:26Z</time></trkpt><trkpt lat="60.1150863245" lon="30.5163894128"><ele>437.54</ele><time>2026-08-20T11:19:38Z</time></trkpt><trkpt lat="60.1150504500" lon="30.5162500218"><ele>435.61</ele><time>2026-08-20T11:19:46Z</time></trkpt><trkpt lat="60.1150195207" lon="30.5160575733"><ele>433.69</ele><time>2026-08-20T11:19:56Z</time></trkpt><trkpt lat="60.1150193531" lon="30.5160377920"><ele>432.73</ele><time>2026-08-20T11:19:59Z</time></trkpt><trkpt lat="60.1149842329" lon="30.5158676393"><ele>430.81</ele><time>2026-08-20T11:20:08Z</time></trkpt><trkpt lat="60.1149674691" lon="30.5158202816"><ele>430.33</ele><time>2026-08-20T11:20:10Z</time></trkpt><trkpt lat="60.1149615180" lon="30.5156819802"><ele>429.37</ele><time>2026-08-20T11:20:14Z</time></trkpt><trkpt lat="60.1149068680" lon="30.5155196227"><ele>427.44</ele><time>2026-08-20T11:20:24Z</time></trkpt><trkpt lat="60.1148868352" lon="30.5154871009"><ele>426.48</ele><time>2026-08-20T11:20:29Z</time></trkpt><trkpt lat="60.1148555707" lon="30.5153455306"><ele>424.08</ele><time>2026-08-20T11:20:40Z</time></trkpt><trkpt lat="60.1148194447" lon="30.5152152758"><ele>422.16</ele><time>2026-08-20T11:20:49Z</time></trkpt><trkpt lat="60.1147664711" lon="30.5150761362"><ele>420.23</ele><time>2026-08-20T11:20:59Z</time></trkpt><trkpt lat="60.1147147547" lon="30.5149607174"><ele>417.83</ele><time>2026-08-20T11:21:10Z</time></trkpt><trkpt lat="60.1146785449" lon="30.5147944205"><ele>415.43</ele><time>2026-08-20T11:21:21Z</time></trkpt><trkpt lat="60.1146622840" lon="30.5146785825"><ele>413.50</ele><time>2026-08-20T11:21:31Z</time></trkpt><trkpt lat="60.1146371383" lon="30.5145773292"><ele>411.10</ele><time>2026-08-20T11:21:42Z</time></trkpt><trkpt lat="60.1146236435" lon="30.5145359226"><ele>409.66</ele><time>2026-08-20T11:21:48Z</time></trkpt><trkpt lat="60.1145916246" lon="30.5144505110"><ele>407.74</ele><time>2026-08-20T11:21:58Z</time></trkpt><trkpt lat="60.1145478711" lon="30.5143503472"><ele>405.33</ele><time>2026-08-20T11:22:09Z</time></trkpt><trkpt lat="60.1145323645" lon="30.5142789334"><ele>404.37</ele><time>2026-08-20T11:22:15Z</time></trkpt><trkpt lat="60.1144535746" lon="30.5140890833"><ele>401.97</ele><time>2026-08-20T11:22:27Z</time></trkpt><trkpt lat="60.1144045405" lon="30.5139796156"><ele>399.57</ele><time>2026-08-20T11:22:39Z</time></trkpt><trkpt lat="60.1143871900" lon="30.5139030050"><ele>396.68</ele><time>2026-08-20T11:22:51Z</time></trkpt><trkpt lat="60.1143379882" lon="30.5138100497"><ele>395.24</ele><time>2026-08-20T11:22:59Z</time></trkpt><trkpt lat="60.1142747048" lon="30.5136559065"><ele>393.32</ele><time>2026-08-20T11:23:10Z</time></trkpt><trkpt lat="60.1142690051" lon="30.5136244744"><ele>389.95</ele><time>2026-08-20T11:23:26Z</time></trkpt><trkpt lat="60.1142180432" lon="30.5135430861"><ele>388.03</ele><time>2026-08-20T11:23:36Z</time></trkpt><trkpt lat="60.1141819172" lon="30.5135304295"><ele>385.15</ele><time>2026-08-20T11:23:51Z</time></trkpt><trkpt lat="60.1141514909" lon="30.5135335308"><ele>382.26</ele><time>2026-08-20T11:24:07Z</time></trkpt><trkpt lat="60.1140381675" lon="30.5135197006"><ele>379.86</ele><time>2026-08-20T11:24:19Z</time></trkpt><trkpt lat="60.1139779855" lon="30.5134191178"><ele>377.94</ele><time>2026-08-20T11:24:31Z</time></trkpt><trkpt lat="60.1139192283" lon="30.5134353787"><ele>375.53</ele><time>2026-08-20T11:24:44Z</time></trkpt><trkpt lat="60.1138762292" lon="30.5134003423"><ele>373.13</ele><time>2026-08-20T11:24:57Z</time></trkpt><trkpt lat="60.1138338167" lon="30.5133602768"><ele>372.17</ele><time>2026-08-20T11:25:02Z</time></trkpt><trkpt lat="60.1137409452" lon="30.5132699199"><ele>370.24</ele><time>2026-08-20T11:25:13Z</time></trkpt><trkpt lat="60.1136761531" lon="30.5131059699"><ele>367.84</ele><time>2026-08-20T11:25:26Z</time></trkpt><trkpt lat="60.1136676036" lon="30.5130301137"><ele>366.88</ele><time>2026-08-20T11:25:31Z</time></trkpt><trkpt lat="60.1136270352" lon="30.5127612222"><ele>364.48</ele><time>2026-08-20T11:25:44Z</time></trkpt><trkpt lat="60.1136212517" lon="30.5126569513"><ele>363.52</ele><time>2026-08-20T11:25:50Z</time></trkpt><trkpt lat="60.1136039011" lon="30.5124658439"><ele>361.11</ele><time>2026-08-20T11:26:01Z</time></trkpt><trkpt lat="60.1135603152" lon="30.5123065040"><ele>359.67</ele><time>2026-08-20T11:26:11Z</time></trkpt><trkpt lat="60.1135069225" lon="30.5121089425"><ele>356.79</ele><time>2026-08-20T11:26:26Z</time></trkpt><trkpt lat="60.1134498417" lon="30.5119643547"><ele>354.38</ele><time>2026-08-20T11:26:40Z</time></trkpt><trkpt lat="60.1134012267" lon="30.5118817929"><ele>352.94</ele><time>2026-08-20T11:26:47Z</time></trkpt><trkpt lat="60.1133639272" lon="30.5117096286"><ele>350.54</ele><time>2026-08-20T11:27:00Z</time></trkpt><trkpt lat="60.1133376081" lon="30.5117016658"><ele>350.06</ele><time>2026-08-20T11:27:03Z</time></trkpt><trkpt lat="60.1132589020" lon="30.5115538090"><ele>348.13</ele><time>2026-08-20T11:27:14Z</time></trkpt><trkpt lat="60.1131982170" lon="30.5114593450"><ele>346.21</ele><time>2026-08-20T11:27:26Z</time></trkpt><trkpt lat="60.1131375320" lon="30.5114381388"><ele>344.29</ele><time>2026-08-20T11:27:37Z</time></trkpt><trkpt lat="60.1130739134" lon="30.5113295093"><ele>342.37</ele><time>2026-08-20T11:27:47Z</time></trkpt><trkpt lat="60.1130381227" lon="30.5111143459"><ele>340.44</ele><time>2026-08-20T11:27:59Z</time></trkpt><trkpt lat="60.1130224485" lon="30.5110613722"><ele>339.96</ele><time>2026-08-20T11:28:02Z</time></trkpt><trkpt lat="60.1129855681" lon="30.5108205602"><ele>338.52</ele><time>2026-08-20T11:28:10Z</time></trkpt><trkpt lat="60.1129785273" lon="30.5107293651"><ele>338.04</ele><time>2026-08-20T11:28:14Z</time></trkpt><trkpt lat="60.1129523758" lon="30.5106446240"><ele>337.08</ele><time>2026-08-20T11:28:18Z</time></trkpt><trkpt lat="60.1129137352" lon="30.5105411075"><ele>336.12</ele><time>2026-08-20T11:28:23Z</time></trkpt><trkpt lat="60.1128916908" lon="30.5103828572"><ele>334.68</ele><time>2026-08-20T11:28:33Z</time></trkpt><trkpt lat="60.1128851529" lon="30.5102768261"><ele>333.71</ele><time>2026-08-20T11:28:38Z</time></trkpt><trkpt lat="60.1128821354" lon="30.5101319868"><ele>333.23</ele><time>2026-08-20T11:28:43Z</time></trkpt><trkpt lat="60.1128422376" lon="30.5100100301"><ele>331.79</ele><time>2026-08-20T11:28:50Z</time></trkpt><trkpt lat="60.1128574088" lon="30.5097383726"><ele>329.87</ele><time>2026-08-20T11:29:01Z</time></trkpt><trkpt lat="60.1128890086" lon="30.5095771886"><ele>328.43</ele><time>2026-08-20T11:29:10Z</time></trkpt><trkpt lat="60.1129120588" lon="30.5093344487"><ele>326.50</ele><time>2026-08-20T11:29:23Z</time></trkpt><trkpt lat="60.1129901782" lon="30.5091917049"><ele>324.58</ele><time>2026-08-20T11:29:35Z</time></trkpt><trkpt lat="60.1130329259" lon="30.5091028567"><ele>323.14</ele><time>2026-08-20T11:29:42Z</time></trkpt><trkpt lat="60.1130993105" lon="30.5090506375"><ele>321.22</ele><time>2026-08-20T11:29:55Z</time></trkpt><trkpt lat="60.1132737380" lon="30.5091291759"><ele>318.81</ele><time>2026-08-20T11:30:12Z</time></trkpt><trkpt lat="60.1132956985" lon="30.5091394018"><ele>318.33</ele><time>2026-08-20T11:30:14Z</time></trkpt><trkpt lat="60.1133744046" lon="30.5092964787"><ele>316.41</ele><time>2026-08-20T11:30:26Z</time></trkpt><trkpt lat="60.1134528592" lon="30.5093796272"><ele>314.49</ele><time>2026-08-20T11:30:37Z</time></trkpt><trkpt lat="60.1134853810" lon="30.5094570760"><ele>313.05</ele><time>2026-08-20T11:30:49Z</time></trkpt><trkpt lat="60.1135078445" lon="30.5095132347"><ele>312.09</ele><time>2026-08-20T11:30:54Z</time></trkpt><trkpt lat="60.1136266161" lon="30.5096154101"><ele>310.64</ele><time>2026-08-20T11:31:04Z</time></trkpt><trkpt lat="60.1137017179" lon="30.5096725747"><ele>309.68</ele><time>2026-08-20T11:31:09Z</time></trkpt><trkpt lat="60.1138714515" lon="30.5098237004"><ele>307.76</ele><time>2026-08-20T11:31:23Z</time></trkpt><trkpt lat="60.1139839366" lon="30.5099901650"><ele>305.84</ele><time>2026-08-20T11:31:36Z</time></trkpt><trkpt lat="60.1140898839" lon="30.5101151392"><ele>303.91</ele><time>2026-08-20T11:31:47Z</time></trkpt><trkpt lat="60.1141750440" lon="30.5102374312"><ele>302.47</ele><time>2026-08-20T11:31:59Z</time></trkpt><trkpt lat="60.1142840087" lon="30.5103745591"><ele>300.55</ele><time>2026-08-20T11:32:12Z</time></trkpt><trkpt lat="60.1142974198" lon="30.5103817675"><ele>300.07</ele><time>2026-08-20T11:32:14Z</time></trkpt><trkpt lat="60.1143628825" lon="30.5105976854"><ele>298.15</ele><time>2026-08-20T11:32:27Z</time></trkpt><trkpt lat="60.1144026965" lon="30.5108177103"><ele>295.74</ele><time>2026-08-20T11:32:42Z</time></trkpt><trkpt lat="60.1143971644" lon="30.5108632240"><ele>293.34</ele><time>2026-08-20T11:33:02Z</time></trkpt><trkpt lat="60.1143880282" lon="30.5108969193"><ele>291.42</ele><time>2026-08-20T11:33:13Z</time></trkpt><trkpt lat="60.1143946499" lon="30.5109172035"><ele>289.01</ele><time>2026-08-20T11:33:32Z</time></trkpt><trkpt lat="60.1143947337" lon="30.5109319557"><ele>286.61</ele><time>2026-08-20T11:33:49Z</time></trkpt><trkpt lat="60.1144090667" lon="30.5109113362"><ele>283.73</ele><time>2026-08-20T11:34:10Z</time></trkpt><trkpt lat="60.1144388225" lon="30.5109756254"><ele>281.80</ele><time>2026-08-20T11:34:24Z</time></trkpt><trkpt lat="60.1144695841" lon="30.5110507272"><ele>279.88</ele><time>2026-08-20T11:34:38Z</time></trkpt><trkpt lat="60.1145088114" lon="30.5111555010"><ele>277.96</ele><time>2026-08-20T11:34:52Z</time></trkpt><trkpt lat="60.1145387348" lon="30.5112742726"><ele>276.52</ele><time>2026-08-20T11:35:03Z</time></trkpt><trkpt lat="60.1146035269" lon="30.5114075448"><ele>275.07</ele><time>2026-08-20T11:35:14Z</time></trkpt><trkpt lat="60.1146800537" lon="30.5115225445"><ele>273.63</ele><time>2026-08-20T11:35:24Z</time></trkpt><trkpt lat="60.1147400681" lon="30.5116082914"><ele>272.67</ele><time>2026-08-20T11:35:34Z</time></trkpt><trkpt lat="60.1148237195" lon="30.5117435753"><ele>270.75</ele><time>2026-08-20T11:35:47Z</time></trkpt><trkpt lat="60.1148888469" lon="30.5118296575"><ele>269.31</ele><time>2026-08-20T11:35:59Z</time></trkpt><trkpt lat="60.1149012521" lon="30.5118480138"><ele>267.38</ele><time>2026-08-20T11:36:12Z</time></trkpt><trkpt lat="60.1149328519" lon="30.5118594132"><ele>265.94</ele><time>2026-08-20T11:36:24Z</time></trkpt><trkpt lat="60.1149853226" lon="30.5119221099"><ele>264.98</ele><time>2026-08-20T11:36:32Z</time></trkpt><trkpt lat="60.1150330994" lon="30.5119263008"><ele>263.54</ele><time>2026-08-20T11:36:42Z</time></trkpt><trkpt lat="60.1151270606" lon="30.5119743291"><ele>262.10</ele><time>2026-08-20T11:36:54Z</time></trkpt><trkpt lat="60.1152012404" lon="30.5120689608"><ele>261.14</ele><time>2026-08-20T11:37:01Z</time></trkpt><trkpt lat="60.1153295673" lon="30.5123103596"><ele>259.69</ele><time>2026-08-20T11:37:13Z</time></trkpt><trkpt lat="60.1154339220" lon="30.5123715475"><ele>258.25</ele><time>2026-08-20T11:37:26Z</time></trkpt><trkpt lat="60.1155332476" lon="30.5123598129"><ele>256.81</ele><time>2026-08-20T11:37:39Z</time></trkpt><trkpt lat="60.1155356783" lon="30.5123447254"><ele>256.33</ele><time>2026-08-20T11:37:41Z</time></trkpt><trkpt lat="60.1155984588" lon="30.5122357607"><ele>254.89</ele><time>2026-08-20T11:37:53Z</time></trkpt><trkpt lat="60.1156279631" lon="30.5122480821"><ele>253.44</ele><time>2026-08-20T11:38:07Z</time></trkpt><trkpt lat="60.1156444754" lon="30.5122463219"><ele>251.04</ele><time>2026-08-20T11:38:25Z</time></trkpt><trkpt lat="60.1156445593" lon="30.5122374371"><ele>248.64</ele><time>2026-08-20T11:38:47Z</time></trkpt><trkpt lat="60.1156546175" lon="30.5121910851"><ele>247.20</ele><time>2026-08-20T11:38:57Z</time></trkpt><trkpt lat="60.1157002989" lon="30.5120424740"><ele>245.75</ele><time>2026-08-20T11:39:11Z</time></trkpt><trkpt lat="60.1157186553" lon="30.5120034143"><ele>243.83</ele><time>2026-08-20T11:39:28Z</time></trkpt><trkpt lat="60.1157806814" lon="30.5118287355"><ele>242.39</ele><time>2026-08-20T11:39:40Z</time></trkpt><trkpt lat="60.1158568729" lon="30.5116144940"><ele>240.47</ele><time>2026-08-20T11:39:55Z</time></trkpt><trkpt lat="60.1159123611" lon="30.5114989914"><ele>239.51</ele><time>2026-08-20T11:40:06Z</time></trkpt><trkpt lat="60.1159698609" lon="30.5113218818"><ele>238.06</ele><time>2026-08-20T11:40:18Z</time></trkpt><trkpt lat="60.1160047296" lon="30.5111379828"><ele>236.62</ele><time>2026-08-20T11:40:31Z</time></trkpt><trkpt lat="60.1160422806" lon="30.5110075604"><ele>235.18</ele><time>2026-08-20T11:40:44Z</time></trkpt><trkpt lat="60.1160706114" lon="30.5109411757"><ele>233.26</ele><time>2026-08-20T11:40:58Z</time></trkpt><trkpt lat="60.1161676738" lon="30.5107782315"><ele>231.81</ele><time>2026-08-20T11:41:12Z</time></trkpt><trkpt lat="60.1162645686" lon="30.5105763953"><ele>230.37</ele><time>2026-08-20T11:41:26Z</time></trkpt><trkpt lat="60.1163757127" lon="30.5103505030"><ele>228.93</ele><time>2026-08-20T11:41:40Z</time></trkpt><trkpt lat="60.1164432708" lon="30.5102366768"><ele>227.49</ele><time>2026-08-20T11:41:52Z</time></trkpt><trkpt lat="60.1165165287" lon="30.5101183243"><ele>226.53</ele><time>2026-08-20T11:42:03Z</time></trkpt><trkpt lat="60.1165793091" lon="30.5100445636"><ele>225.57</ele><time>2026-08-20T11:42:12Z</time></trkpt><trkpt lat="60.1166277565" lon="30.5100070126"><ele>224.61</ele><time>2026-08-20T11:42:22Z</time></trkpt><trkpt lat="60.1166607812" lon="30.5099613313"><ele>224.12</ele><time>2026-08-20T11:42:26Z</time></trkpt><trkpt lat="60.1167389005" lon="30.5098755844"><ele>222.68</ele><time>2026-08-20T11:42:39Z</time></trkpt><trkpt lat="60.1167643815" lon="30.5098581500"><ele>221.24</ele><time>2026-08-20T11:42:51Z</time></trkpt><trkpt lat="60.1167832408" lon="30.5098085292"><ele>221.24</ele><time>2026-08-20T11:42:55Z</time></trkpt><trkpt lat="60.1168000046" lon="30.5097530410"><ele>220.76</ele><time>2026-08-20T11:42:58Z</time></trkpt><trkpt lat="60.1168288384" lon="30.5096812081"><ele>220.28</ele><time>2026-08-20T11:43:03Z</time></trkpt><trkpt lat="60.1169182733" lon="30.5095616821"><ele>218.84</ele><time>2026-08-20T11:43:15Z</time></trkpt><trkpt lat="60.1170466002" lon="30.5094451737"><ele>217.88</ele><time>2026-08-20T11:43:26Z</time></trkpt><trkpt lat="60.1171199419" lon="30.5093032680"><ele>216.91</ele><time>2026-08-20T11:43:37Z</time></trkpt><trkpt lat="60.1172176749" lon="30.5091652181"><ele>215.47</ele><time>2026-08-20T11:43:49Z</time></trkpt><trkpt lat="60.1172522083" lon="30.5091062933"><ele>214.51</ele><time>2026-08-20T11:43:59Z</time></trkpt><trkpt lat="60.1173360273" lon="30.5089575984"><ele>213.55</ele><time>2026-08-20T11:44:10Z</time></trkpt><trkpt lat="60.1173451636" lon="30.5089382362"><ele>211.63</ele><time>2026-08-20T11:44:25Z</time></trkpt><trkpt lat="60.1173979696" lon="30.5088348873"><ele>210.19</ele><time>2026-08-20T11:44:41Z</time></trkpt><trkpt lat="60.1175174117" lon="30.5086750444"><ele>209.22</ele><time>2026-08-20T11:44:52Z</time></trkpt><trkpt lat="60.1175959501" lon="30.5085783172"><ele>208.26</ele><time>2026-08-20T11:45:01Z</time></trkpt><trkpt lat="60.1176229399" lon="30.5085297022"><ele>207.78</ele><time>2026-08-20T11:45:04Z</time></trkpt><trkpt lat="60.1177264564" lon="30.5083928257"><ele>206.82</ele><time>2026-08-20T11:45:19Z</time></trkpt><trkpt lat="60.1177945174" lon="30.5082618166"><ele>205.86</ele><time>2026-08-20T11:45:29Z</time></trkpt><trkpt lat="60.1178520173" lon="30.5081034824"><ele>204.90</ele><time>2026-08-20T11:45:39Z</time></trkpt><trkpt lat="60.1178883109" lon="30.5080396123"><ele>203.94</ele><time>2026-08-20T11:45:49Z</time></trkpt><trkpt lat="60.1178868022" lon="30.5080287997"><ele>202.49</ele><time>2026-08-20T11:46:03Z</time></trkpt><trkpt lat="60.1179205813" lon="30.5081181508"><ele>201.53</ele><time>2026-08-20T11:46:14Z</time></trkpt><trkpt lat="60.1179816853" lon="30.5083152931"><ele>200.57</ele><time>2026-08-20T11:46:27Z</time></trkpt><trkpt lat="60.1179979462" lon="30.5083559453"><ele>200.09</ele><time>2026-08-20T11:46:31Z</time></trkpt><trkpt lat="60.1180546917" lon="30.5085153691"><ele>199.13</ele><time>2026-08-20T11:46:43Z</time></trkpt><trkpt lat="60.1180676837" lon="30.5085369945"><ele>199.13</ele><time>2026-08-20T11:46:45Z</time></trkpt><trkpt lat="60.1181076653" lon="30.5085680913"><ele>198.65</ele><time>2026-08-20T11:46:49Z</time></trkpt><trkpt lat="60.1181509160" lon="30.5086104199"><ele>198.17</ele><time>2026-08-20T11:46:55Z</time></trkpt><trkpt lat="60.1182525884" lon="30.5086710211"><ele>197.21</ele><time>2026-08-20T11:47:05Z</time></trkpt><trkpt lat="60.1182628982" lon="30.5086884554"><ele>197.21</ele><time>2026-08-20T11:47:07Z</time></trkpt><trkpt lat="60.1183151174" lon="30.5088341329"><ele>195.77</ele><time>2026-08-20T11:47:20Z</time></trkpt><trkpt lat="60.1183448732" lon="30.5088824127"><ele>195.28</ele><time>2026-08-20T11:47:24Z</time></trkpt><trkpt lat="60.1183702704" lon="30.5089180358"><ele>195.28</ele><time>2026-08-20T11:47:27Z</time></trkpt><trkpt lat="60.1184181310" lon="30.5089647230"><ele>194.32</ele><time>2026-08-20T11:47:36Z</time></trkpt><trkpt lat="60.1184395887" lon="30.5089985859"><ele>194.32</ele><time>2026-08-20T11:47:40Z</time></trkpt><trkpt lat="60.1184638124" lon="30.5090407468"><ele>193.84</ele><time>2026-08-20T11:47:43Z</time></trkpt><trkpt lat="60.1185190491" lon="30.5091506336"><ele>193.36</ele><time>2026-08-20T11:47:52Z</time></trkpt><trkpt lat="60.1185421832" lon="30.5091675650"><ele>192.88</ele><time>2026-08-20T11:47:55Z</time></trkpt><trkpt lat="60.1185726933" lon="30.5091724265"><ele>192.88</ele><time>2026-08-20T11:47:58Z</time></trkpt><trkpt lat="60.1186080649" lon="30.5091605242"><ele>191.92</ele><time>2026-08-20T11:48:09Z</time></trkpt><trkpt lat="60.1185946539" lon="30.5091440119"><ele>190.96</ele><time>2026-08-20T11:48:17Z</time></trkpt><trkpt lat="60.1185335498" lon="30.5091363005"><ele>190.48</ele><time>2026-08-20T11:48:24Z</time></trkpt><trkpt lat="60.1185165346" lon="30.5091070477"><ele>190.48</ele><time>2026-08-20T11:48:26Z</time></trkpt><trkpt lat="60.1184486412" lon="30.5090097338"><ele>189.52</ele><time>2026-08-20T11:48:35Z</time></trkpt><trkpt lat="60.1184164546" lon="30.5089382362"><ele>189.04</ele><time>2026-08-20T11:48:39Z</time></trkpt><trkpt lat="60.1183695160" lon="30.5088762939"><ele>188.56</ele><time>2026-08-20T11:48:50Z</time></trkpt><trkpt lat="60.1183551829" lon="30.5088387430"><ele>188.08</ele><time>2026-08-20T11:48:53Z</time></trkpt><trkpt lat="60.1183155365" lon="30.5088063888"><ele>187.59</ele><time>2026-08-20T11:48:58Z</time></trkpt><trkpt lat="60.1182964258" lon="30.5087403394"><ele>187.59</ele><time>2026-08-20T11:49:02Z</time></trkpt><trkpt lat="60.1181679312" lon="30.5085378326"><ele>186.63</ele><time>2026-08-20T11:49:14Z</time></trkpt><trkpt lat="60.1181330625" lon="30.5085471366"><ele>186.15</ele><time>2026-08-20T11:49:19Z</time></trkpt><trkpt lat="60.1181067433" lon="30.5086912215"><ele>185.19</ele><time>2026-08-20T11:49:29Z</time></trkpt><trkpt lat="60.1180918235" lon="30.5087614618"><ele>184.71</ele><time>2026-08-20T11:49:34Z</time></trkpt><trkpt lat="60.1180308033" lon="30.5088795628"><ele>184.23</ele><time>2026-08-20T11:49:41Z</time></trkpt><trkpt lat="60.1179910731" lon="30.5089477077"><ele>183.27</ele><time>2026-08-20T11:49:51Z</time></trkpt><trkpt lat="60.1179703698" lon="30.5090167746"><ele>182.79</ele><time>2026-08-20T11:49:54Z</time></trkpt><trkpt lat="60.1179225929" lon="30.5090788007"><ele>182.79</ele><time>2026-08-20T11:49:58Z</time></trkpt><trkpt lat="60.1178711280" lon="30.5092110671"><ele>182.31</ele><time>2026-08-20T11:50:05Z</time></trkpt><trkpt lat="60.1177751552" lon="30.5094911065"><ele>180.87</ele><time>2026-08-20T11:50:18Z</time></trkpt><trkpt lat="60.1177178230" lon="30.5097470898"><ele>179.90</ele><time>2026-08-20T11:50:32Z</time></trkpt><trkpt lat="60.1176869776" lon="30.5100730620"><ele>178.94</ele><time>2026-08-20T11:50:47Z</time></trkpt><trkpt lat="60.1177091897" lon="30.5101948511"><ele>178.46</ele><time>2026-08-20T11:50:53Z</time></trkpt><trkpt lat="60.1177448966" lon="30.5103414506"><ele>177.50</ele><time>2026-08-20T11:51:03Z</time></trkpt><trkpt lat="60.1177510992" lon="30.5104067456"><ele>177.02</ele><time>2026-08-20T11:51:06Z</time></trkpt><trkpt lat="60.1177967805" lon="30.5105176382"><ele>176.06</ele><time>2026-08-20T11:51:17Z</time></trkpt><trkpt lat="60.1178274583" lon="30.5105611403"><ele>176.06</ele><time>2026-08-20T11:51:20Z</time></trkpt><trkpt lat="60.1178515982" lon="30.5106294528"><ele>175.58</ele><time>2026-08-20T11:51:23Z</time></trkpt><trkpt lat="60.1178997103" lon="30.5108957458"><ele>174.62</ele><time>2026-08-20T11:51:37Z</time></trkpt><trkpt lat="60.1179451402" lon="30.5109812412"><ele>173.66</ele><time>2026-08-20T11:51:49Z</time></trkpt><trkpt lat="60.1179712918" lon="30.5110630486"><ele>173.17</ele><time>2026-08-20T11:51:59Z</time></trkpt><trkpt lat="60.1179987006" lon="30.5112330336"><ele>172.21</ele><time>2026-08-20T11:52:10Z</time></trkpt><trkpt lat="60.1180287916" lon="30.5114344507"><ele>171.25</ele><time>2026-08-20T11:52:21Z</time></trkpt><trkpt lat="60.1180498302" lon="30.5115458462"><ele>170.77</ele><time>2026-08-20T11:52:31Z</time></trkpt><trkpt lat="60.1180621516" lon="30.5116339400"><ele>169.81</ele><time>2026-08-20T11:52:40Z</time></trkpt><trkpt lat="60.1180522610" lon="30.5118827987"><ele>168.85</ele><time>2026-08-20T11:52:53Z</time></trkpt><trkpt lat="60.1180500817" lon="30.5119874887"><ele>168.37</ele><time>2026-08-20T11:53:03Z</time></trkpt><trkpt lat="60.1180426218" lon="30.5120296497"><ele>166.93</ele><time>2026-08-20T11:53:25Z</time></trkpt><trkpt lat="60.1180286240" lon="30.5122476630"><ele>165.96</ele><time>2026-08-20T11:53:38Z</time></trkpt><trkpt lat="60.1180225890" lon="30.5123575497"><ele>165.00</ele><time>2026-08-20T11:53:51Z</time></trkpt><trkpt lat="60.1180409454" lon="30.5125380121"><ele>164.04</ele><time>2026-08-20T11:54:03Z</time></trkpt><trkpt lat="60.1180386823" lon="30.5125529319"><ele>164.04</ele><time>2026-08-20T11:54:04Z</time></trkpt><trkpt lat="60.1180078369" lon="30.5126732960"><ele>163.56</ele><time>2026-08-20T11:54:12Z</time></trkpt><trkpt lat="60.1180323120" lon="30.5128228292"><ele>162.60</ele><time>2026-08-20T11:54:24Z</time></trkpt><trkpt lat="60.1180479024" lon="30.5129592866"><ele>162.12</ele><time>2026-08-20T11:54:35Z</time></trkpt><trkpt lat="60.1180715393" lon="30.5131437723"><ele>161.16</ele><time>2026-08-20T11:54:45Z</time></trkpt><trkpt lat="60.1180753112" lon="30.5132560059"><ele>160.68</ele><time>2026-08-20T11:54:58Z</time></trkpt><trkpt lat="60.1180832740" lon="30.5133087281"><ele>159.24</ele><time>2026-08-20T11:55:12Z</time></trkpt><trkpt lat="60.1181135327" lon="30.5133237317"><ele>158.75</ele><time>2026-08-20T11:55:25Z</time></trkpt><trkpt lat="60.1181307994" lon="30.5133435968"><ele>157.79</ele><time>2026-08-20T11:55:39Z</time></trkpt><trkpt lat="60.1181581244" lon="30.5133569241"><ele>157.31</ele><time>2026-08-20T11:55:44Z</time></trkpt><trkpt lat="60.1181766484" lon="30.5134228896"><ele>156.35</ele><time>2026-08-20T11:55:55Z</time></trkpt><trkpt lat="60.1182143670" lon="30.5135782901"><ele>155.87</ele><time>2026-08-20T11:56:07Z</time></trkpt><trkpt lat="60.1182175521" lon="30.5136489496"><ele>155.39</ele><time>2026-08-20T11:56:13Z</time></trkpt><trkpt lat="60.1182464696" lon="30.5138061102"><ele>154.43</ele><time>2026-08-20T11:56:25Z</time></trkpt><trkpt lat="60.1182345673" lon="30.5140181724"><ele>153.47</ele><time>2026-08-20T11:56:38Z</time></trkpt><trkpt lat="60.1182155404" lon="30.5141887441"><ele>152.51</ele><time>2026-08-20T11:56:50Z</time></trkpt><trkpt lat="60.1183450408" lon="30.5143808573"><ele>151.54</ele><time>2026-08-20T11:57:02Z</time></trkpt><trkpt lat="60.1184589509" lon="30.5145455617"><ele>150.58</ele><time>2026-08-20T11:57:14Z</time></trkpt><trkpt lat="60.1185245812" lon="30.5146392714"><ele>149.62</ele><time>2026-08-20T11:57:28Z</time></trkpt><trkpt lat="60.1186752040" lon="30.5147271138"><ele>148.66</ele><time>2026-08-20T11:57:39Z</time></trkpt><trkpt lat="60.1187513955" lon="30.5147378426"><ele>147.70</ele><time>2026-08-20T11:57:51Z</time></trkpt><trkpt lat="60.1187962387" lon="30.5147526786"><ele>146.74</ele><time>2026-08-20T11:58:04Z</time></trkpt><trkpt lat="60.1188383996" lon="30.5147527624"><ele>145.78</ele><time>2026-08-20T11:58:17Z</time></trkpt><trkpt lat="60.1189408265" lon="30.5147510860"><ele>144.82</ele><time>2026-08-20T11:58:32Z</time></trkpt><trkpt lat="60.1190502103" lon="30.5147468951"><ele>143.85</ele><time>2026-08-20T11:58:48Z</time></trkpt><trkpt lat="60.1191169303" lon="30.5147556122"><ele>142.89</ele><time>2026-08-20T11:59:05Z</time></trkpt><trkpt lat="60.1192424912" lon="30.5147615634"><ele>141.45</ele><time>2026-08-20T11:59:21Z</time></trkpt><trkpt lat="60.1192805450" lon="30.5147415306"><ele>140.97</ele><time>2026-08-20T11:59:28Z</time></trkpt><trkpt lat="60.1193772722" lon="30.5147182290"><ele>140.97</ele><time>2026-08-20T11:59:34Z</time></trkpt><trkpt lat="60.1196187548" lon="30.5146239325"><ele>140.01</ele><time>2026-08-20T11:59:46Z</time></trkpt><trkpt lat="60.1197139733" lon="30.5144753214"><ele>139.53</ele><time>2026-08-20T11:59:58Z</time></trkpt><trkpt lat="60.1197496802" lon="30.5143173225"><ele>139.05</ele><time>2026-08-20T12:00:09Z</time></trkpt><trkpt lat="60.1197831240" lon="30.5142513569"><ele>138.09</ele><time>2026-08-20T12:00:22Z</time></trkpt><trkpt lat="60.1197918411" lon="30.5142321624"><ele>138.09</ele><time>2026-08-20T12:00:25Z</time></trkpt><trkpt lat="60.1198692899" lon="30.5140682124"><ele>137.61</ele><time>2026-08-20T12:00:37Z</time></trkpt><trkpt lat="60.1199335791" lon="30.5139470100"><ele>136.64</ele><time>2026-08-20T12:00:48Z</time></trkpt><trkpt lat="60.1199815236" lon="30.5138786975"><ele>136.16</ele><time>2026-08-20T12:00:59Z</time></trkpt><trkpt lat="60.1199994609" lon="30.5138367880"><ele>135.68</ele><time>2026-08-20T12:01:16Z</time></trkpt><trkpt lat="60.1201147120" lon="30.5137581658"><ele>134.72</ele><time>2026-08-20T12:01:32Z</time></trkpt><trkpt lat="60.1201871317" lon="30.5137373786"><ele>133.76</ele><time>2026-08-20T12:01:48Z</time></trkpt><trkpt lat="60.1202454697" lon="30.5137374625"><ele>133.28</ele><time>2026-08-20T12:02:02Z</time></trkpt><trkpt lat="60.1203691866" lon="30.5138197728"><ele>132.32</ele><time>2026-08-20T12:02:17Z</time></trkpt><trkpt lat="60.1204530895" lon="30.5139193498"><ele>131.84</ele><time>2026-08-20T12:02:30Z</time></trkpt><trkpt lat="60.1204966754" lon="30.5139828008"><ele>131.36</ele><time>2026-08-20T12:02:42Z</time></trkpt><trkpt lat="60.1205154508" lon="30.5139783584"><ele>130.40</ele><time>2026-08-20T12:02:57Z</time></trkpt><trkpt lat="60.1206534170" lon="30.5140154064"><ele>129.92</ele><time>2026-08-20T12:03:10Z</time></trkpt><trkpt lat="60.1208272576" lon="30.5140805338"><ele>129.43</ele><time>2026-08-20T12:03:24Z</time></trkpt><trkpt lat="60.1209247392" lon="30.5141824577"><ele>128.95</ele><time>2026-08-20T12:03:36Z</time></trkpt><trkpt lat="60.1210334525" lon="30.5142982956"><ele>128.47</ele><time>2026-08-20T12:03:48Z</time></trkpt><trkpt lat="60.1211445127" lon="30.5143055879"><ele>127.99</ele><time>2026-08-20T12:04:03Z</time></trkpt><trkpt lat="60.1212859154" lon="30.5143313203"><ele>127.51</ele><time>2026-08-20T12:04:16Z</time></trkpt><trkpt lat="60.1213134080" lon="30.5143534485"><ele>127.03</ele><time>2026-08-20T12:04:19Z</time></trkpt><trkpt lat="60.1213678904" lon="30.5145448912"><ele>126.55</ele><time>2026-08-20T12:04:32Z</time></trkpt><trkpt lat="60.1213947963" lon="30.5147286225"><ele>126.07</ele><time>2026-08-20T12:04:46Z</time></trkpt><trkpt lat="60.1214020047" lon="30.5148458015"><ele>125.59</ele><time>2026-08-20T12:05:00Z</time></trkpt><trkpt lat="60.1214046031" lon="30.5149556883"><ele>125.59</ele><time>2026-08-20T12:05:06Z</time></trkpt><trkpt lat="60.1214092132" lon="30.5149949156"><ele>125.11</ele><time>2026-08-20T12:05:08Z</time></trkpt><trkpt lat="60.1214218698" lon="30.5151157826"><ele>125.11</ele><time>2026-08-20T12:05:16Z</time></trkpt><trkpt lat="60.1213994063" lon="30.5153726880"><ele>124.63</ele><time>2026-08-20T12:05:29Z</time></trkpt><trkpt lat="60.1214292459" lon="30.5155819003"><ele>124.15</ele><time>2026-08-20T12:05:42Z</time></trkpt><trkpt lat="60.1214290783" lon="30.5157954711"><ele>123.67</ele><time>2026-08-20T12:05:53Z</time></trkpt><trkpt lat="60.1214342751" lon="30.5159149133"><ele>123.19</ele><time>2026-08-20T12:06:00Z</time></trkpt><trkpt lat="60.1214274857" lon="30.5160523765"><ele>123.19</ele><time>2026-08-20T12:06:06Z</time></trkpt><trkpt lat="60.1214216184" lon="30.5161253829"><ele>122.71</ele><time>2026-08-20T12:06:10Z</time></trkpt><trkpt lat="60.1214231271" lon="30.5162278935"><ele>122.71</ele><time>2026-08-20T12:06:15Z</time></trkpt><trkpt lat="60.1213875879" lon="30.5164640956"><ele>122.22</ele><time>2026-08-20T12:06:28Z</time></trkpt><trkpt lat="60.1213815529" lon="30.5164845474"><ele>121.74</ele><time>2026-08-20T12:06:29Z</time></trkpt><trkpt lat="60.1213834807" lon="30.5165724736"><ele>121.74</ele><time>2026-08-20T12:06:34Z</time></trkpt><trkpt lat="60.1213778649" lon="30.5166390259"><ele>121.74</ele><time>2026-08-20T12:06:38Z</time></trkpt><trkpt lat="60.1213782001" lon="30.5167764053"><ele>121.26</ele><time>2026-08-20T12:06:48Z</time></trkpt><trkpt lat="60.1213852409" lon="30.5168308038"><ele>120.78</ele><time>2026-08-20T12:06:52Z</time></trkpt><trkpt lat="60.1213925332" lon="30.5169271119"><ele>120.78</ele><time>2026-08-20T12:07:00Z</time></trkpt><trkpt lat="60.1213849057" lon="30.5169673450"><ele>120.78</ele><time>2026-08-20T12:07:02Z</time></trkpt><trkpt lat="60.1213870849" lon="30.5170795787"><ele>120.30</ele><time>2026-08-20T12:07:10Z</time></trkpt><trkpt lat="60.1213895157" lon="30.5171238352"><ele>120.30</ele><time>2026-08-20T12:07:12Z</time></trkpt><trkpt lat="60.1213696506" lon="30.5172820855"><ele>119.82</ele><time>2026-08-20T12:07:20Z</time></trkpt><trkpt lat="60.1213660464" lon="30.5173700955"><ele>119.82</ele><time>2026-08-20T12:07:26Z</time></trkpt><trkpt lat="60.1212949678" lon="30.5175700039"><ele>118.86</ele><time>2026-08-20T12:07:39Z</time></trkpt><trkpt lat="60.1212645415" lon="30.5176993366"><ele>118.38</ele><time>2026-08-20T12:07:51Z</time></trkpt><trkpt lat="60.1212378033" lon="30.5178730097"><ele>117.90</ele><time>2026-08-20T12:08:01Z</time></trkpt><trkpt lat="60.1212257333" lon="30.5180201121"><ele>117.90</ele><time>2026-08-20T12:08:09Z</time></trkpt><trkpt lat="60.1212270744" lon="30.5182003230"><ele>117.42</ele><time>2026-08-20T12:08:21Z</time></trkpt><trkpt lat="60.1211591810" lon="30.5184470024"><ele>116.94</ele><time>2026-08-20T12:08:34Z</time></trkpt><trkpt lat="60.1211409084" lon="30.5185459089"><ele>116.46</ele><time>2026-08-20T12:08:40Z</time></trkpt><trkpt lat="60.1211356279" lon="30.5187142175"><ele>115.98</ele><time>2026-08-20T12:08:52Z</time></trkpt><trkpt lat="60.1210824028" lon="30.5188415386"><ele>115.98</ele><time>2026-08-20T12:08:57Z</time></trkpt><trkpt lat="60.1210316923" lon="30.5190863740"><ele>115.01</ele><time>2026-08-20T12:09:10Z</time></trkpt><trkpt lat="60.1209354680" lon="30.5192893837"><ele>114.53</ele><time>2026-08-20T12:09:25Z</time></trkpt><trkpt lat="60.1209328696" lon="30.5193089973"><ele>114.53</ele><time>2026-08-20T12:09:26Z</time></trkpt><trkpt lat="60.1208405010" lon="30.5194517411"><ele>114.05</ele><time>2026-08-20T12:09:37Z</time></trkpt><trkpt lat="60.1207967475" lon="30.5195591133"><ele>113.57</ele><time>2026-08-20T12:09:44Z</time></trkpt><trkpt lat="60.1207771339" lon="30.5196109135"><ele>113.57</ele><time>2026-08-20T12:09:48Z</time></trkpt><trkpt lat="60.1207154430" lon="30.5197379831"><ele>113.09</ele><time>2026-08-20T12:09:57Z</time></trkpt><trkpt lat="60.1207104139" lon="30.5197716784"><ele>113.09</ele><time>2026-08-20T12:10:01Z</time></trkpt><trkpt lat="60.1206115074" lon="30.5200185254"><ele>112.61</ele><time>2026-08-20T12:10:12Z</time></trkpt><trkpt lat="60.1205857750" lon="30.5200709961"><ele>112.61</ele><time>2026-08-20T12:10:16Z</time></trkpt><trkpt lat="60.1205509901" lon="30.5201125704"><ele>112.61</ele><time>2026-08-20T12:10:21Z</time></trkpt><trkpt lat="60.1204527542" lon="30.5201716628"><ele>112.13</ele><time>2026-08-20T12:10:32Z</time></trkpt><trkpt lat="60.1204194780" lon="30.5201737583"><ele>111.65</ele><time>2026-08-20T12:10:42Z</time></trkpt><trkpt lat="60.1203426160" lon="30.5202199426"><ele>111.65</ele><time>2026-08-20T12:10:50Z</time></trkpt><trkpt lat="60.1203067414" lon="30.5201861635"><ele>110.69</ele><time>2026-08-20T12:11:05Z</time></trkpt><trkpt lat="60.1203036401" lon="30.5201305076"><ele>110.21</ele><time>2026-08-20T12:11:20Z</time></trkpt><trkpt lat="60.1203066576" lon="30.5200922862"><ele>109.73</ele><time>2026-08-20T12:11:37Z</time></trkpt><trkpt lat="60.1203054842" lon="30.5200714152"><ele>109.25</ele><time>2026-08-20T12:11:50Z</time></trkpt><trkpt lat="60.1203000359" lon="30.5200799648"><ele>109.25</ele><time>2026-08-20T12:11:53Z</time></trkpt><trkpt lat="60.1202385966" lon="30.5202191882"><ele>108.77</ele><time>2026-08-20T12:12:04Z</time></trkpt><trkpt lat="60.1201312244" lon="30.5203275662"><ele>108.29</ele><time>2026-08-20T12:12:16Z</time></trkpt><trkpt lat="60.1201053243" lon="30.5203379598"><ele>108.29</ele><time>2026-08-20T12:12:18Z</time></trkpt><trkpt lat="60.1200239360" lon="30.5204360280"><ele>107.81</ele><time>2026-08-20T12:12:29Z</time></trkpt><trkpt lat="60.1199832838" lon="30.5204636883"><ele>107.81</ele><time>2026-08-20T12:12:34Z</time></trkpt><trkpt lat="60.1198965311" lon="30.5205252115"><ele>107.32</ele><time>2026-08-20T12:12:44Z</time></trkpt><trkpt lat="60.1198208425" lon="30.5205908418"><ele>106.84</ele><time>2026-08-20T12:12:53Z</time></trkpt><trkpt lat="60.1197716407" lon="30.5206443183"><ele>106.84</ele><time>2026-08-20T12:13:03Z</time></trkpt><trkpt lat="60.1196921803" lon="30.5208026525"><ele>106.36</ele><time>2026-08-20T12:13:13Z</time></trkpt><trkpt lat="60.1195724867" lon="30.5210676044"><ele>105.88</ele><time>2026-08-20T12:13:28Z</time></trkpt><trkpt lat="60.1195252128" lon="30.5211246014"><ele>105.40</ele><time>2026-08-20T12:13:39Z</time></trkpt><trkpt lat="60.1195021626" lon="30.5211613141"><ele>104.44</ele><time>2026-08-20T12:13:57Z</time></trkpt><trkpt lat="60.1194984745" lon="30.5211635772"><ele>104.44</ele><time>2026-08-20T12:13:58Z</time></trkpt><trkpt lat="60.1193981431" lon="30.5213318858"><ele>103.96</ele><time>2026-08-20T12:14:13Z</time></trkpt><trkpt lat="60.1193935331" lon="30.5213437043"><ele>103.96</ele><time>2026-08-20T12:14:14Z</time></trkpt><trkpt lat="60.1192982309" lon="30.5215311237"><ele>103.48</ele><time>2026-08-20T12:14:26Z</time></trkpt><trkpt lat="60.1192400604" lon="30.5216180440"><ele>103.00</ele><time>2026-08-20T12:14:38Z</time></trkpt><trkpt lat="60.1192381326" lon="30.5216153618"><ele>102.52</ele><time>2026-08-20T12:14:56Z</time></trkpt><trkpt lat="60.1192393899" lon="30.5216125958"><ele>101.56</ele><time>2026-08-20T12:15:22Z</time></trkpt><trkpt lat="60.1192270685" lon="30.5216388311"><ele>101.08</ele><time>2026-08-20T12:15:35Z</time></trkpt><trkpt lat="60.1192235481" lon="30.5216441117"><ele>100.60</ele><time>2026-08-20T12:15:37Z</time></trkpt><trkpt lat="60.1191809680" lon="30.5216701794"><ele>100.60</ele><time>2026-08-20T12:15:48Z</time></trkpt><trkpt lat="60.1191248093" lon="30.5217843410"><ele>100.11</ele><time>2026-08-20T12:16:00Z</time></trkpt><trkpt lat="60.1190809719" lon="30.5217673257"><ele>99.63</ele><time>2026-08-20T12:16:13Z</time></trkpt><trkpt lat="60.1189886872" lon="30.5216674134"><ele>99.15</ele><time>2026-08-20T12:16:25Z</time></trkpt><trkpt lat="60.1189338695" lon="30.5216772202"><ele>98.67</ele><time>2026-08-20T12:16:36Z</time></trkpt><trkpt lat="60.1188922953" lon="30.5216689222"><ele>98.19</ele><time>2026-08-20T12:16:48Z</time></trkpt><trkpt lat="60.1188765373" lon="30.5216607917"><ele>97.71</ele><time>2026-08-20T12:17:00Z</time></trkpt><trkpt lat="60.1188675687" lon="30.5216589477"><ele>97.23</ele><time>2026-08-20T12:17:25Z</time></trkpt><trkpt lat="60.1188667305" lon="30.5216648150"><ele>96.27</ele><time>2026-08-20T12:17:39Z</time></trkpt><trkpt lat="60.1188625395" lon="30.5216830038"><ele>95.79</ele><time>2026-08-20T12:18:01Z</time></trkpt><trkpt lat="60.1188461948" lon="30.5217099935"><ele>95.31</ele><time>2026-08-20T12:18:16Z</time></trkpt><trkpt lat="60.1188434288" lon="30.5217173696"><ele>94.83</ele><time>2026-08-20T12:18:34Z</time></trkpt><trkpt lat="60.1188295987" lon="30.5217575189"><ele>94.35</ele><time>2026-08-20T12:18:45Z</time></trkpt><trkpt lat="60.1187617891" lon="30.5217980873"><ele>93.87</ele><time>2026-08-20T12:18:57Z</time></trkpt><trkpt lat="60.1186765451" lon="30.5218435172"><ele>93.39</ele><time>2026-08-20T12:19:09Z</time></trkpt><trkpt lat="60.1186430175" lon="30.5218571797"><ele>92.90</ele><time>2026-08-20T12:19:22Z</time></trkpt><trkpt lat="60.1186341327" lon="30.5218695849"><ele>92.90</ele><time>2026-08-20T12:19:34Z</time></trkpt><trkpt lat="60.1186109986" lon="30.5219116621"><ele>91.94</ele><time>2026-08-20T12:20:04Z</time></trkpt><trkpt lat="60.1185924746" lon="30.5219195411"><ele>90.98</ele><time>2026-08-20T12:20:34Z</time></trkpt><trkpt lat="60.1185709331" lon="30.5219441000"><ele>90.02</ele><time>2026-08-20T12:20:56Z</time></trkpt><trkpt lat="60.1186108310" lon="30.5218930542"><ele>90.02</ele><time>2026-08-20T12:21:09Z</time></trkpt><trkpt lat="60.1186596137" lon="30.5218335427"><ele>89.54</ele><time>2026-08-20T12:21:26Z</time></trkpt><trkpt lat="60.1187575981" lon="30.5217672419"><ele>89.06</ele><time>2026-08-20T12:21:40Z</time></trkpt><trkpt lat="60.1188679039" lon="30.5216725264"><ele>88.58</ele><time>2026-08-20T12:21:53Z</time></trkpt><trkpt lat="60.1188908704" lon="30.5216688383"><ele>88.58</ele><time>2026-08-20T12:22:03Z</time></trkpt><trkpt lat="60.1189878490" lon="30.5217363127"><ele>88.10</ele><time>2026-08-20T12:22:14Z</time></trkpt><trkpt lat="60.1190648787" lon="30.5218022782"><ele>87.62</ele><time>2026-08-20T12:22:26Z</time></trkpt><trkpt lat="60.1191497874" lon="30.5217223987"><ele>87.14</ele><time>2026-08-20T12:22:38Z</time></trkpt><trkpt lat="60.1191895176" lon="30.5216726102"><ele>87.14</ele><time>2026-08-20T12:22:49Z</time></trkpt><trkpt lat="60.1192155853" lon="30.5216103327"><ele>86.66</ele><time>2026-08-20T12:23:08Z</time></trkpt><trkpt lat="60.1192303374" lon="30.5215887073"><ele>85.69</ele><time>2026-08-20T12:23:29Z</time></trkpt><trkpt lat="60.1192182675" lon="30.5216265097"><ele>85.21</ele><time>2026-08-20T12:23:56Z</time></trkpt><trkpt lat="60.1191528048" lon="30.5217235722"><ele>84.73</ele><time>2026-08-20T12:24:07Z</time></trkpt><trkpt lat="60.1191191096" lon="30.5218084808"><ele>84.73</ele><time>2026-08-20T12:24:17Z</time></trkpt><trkpt lat="60.1191039383" lon="30.5218673218"><ele>84.25</ele><time>2026-08-20T12:24:31Z</time></trkpt><trkpt lat="60.1190960594" lon="30.5218845047"><ele>84.25</ele><time>2026-08-20T12:24:34Z</time></trkpt><trkpt lat="60.1190543175" lon="30.5220243987"><ele>83.77</ele><time>2026-08-20T12:24:47Z</time></trkpt><trkpt lat="60.1190191135" lon="30.5221231375"><ele>83.77</ele><time>2026-08-20T12:24:58Z</time></trkpt><trkpt lat="60.1190258190" lon="30.5222005863"><ele>83.29</ele><time>2026-08-20T12:25:08Z</time></trkpt><trkpt lat="60.1190081332" lon="30.5222487822"><ele>83.29</ele><time>2026-08-20T12:25:14Z</time></trkpt><trkpt lat="60.1189982425" lon="30.5223079585"><ele>82.81</ele><time>2026-08-20T12:25:18Z</time></trkpt><trkpt lat="60.1189836580" lon="30.5223512929"><ele>82.81</ele><time>2026-08-20T12:25:21Z</time></trkpt><trkpt lat="60.1189554948" lon="30.5224794522"><ele>82.81</ele><time>2026-08-20T12:25:33Z</time></trkpt><trkpt lat="60.1189269125" lon="30.5225983076"><ele>82.33</ele><time>2026-08-20T12:25:47Z</time></trkpt><trkpt lat="60.1189206261" lon="30.5226923525"><ele>82.33</ele><time>2026-08-20T12:25:53Z</time></trkpt><trkpt lat="60.1189161837" lon="30.5227756687"><ele>81.85</ele><time>2026-08-20T12:26:03Z</time></trkpt><trkpt lat="60.1188888587" lon="30.5230161455"><ele>81.85</ele><time>2026-08-20T12:26:16Z</time></trkpt><trkpt lat="60.1188682392" lon="30.5231949314"><ele>81.37</ele><time>2026-08-20T12:26:27Z</time></trkpt><trkpt lat="60.1188585162" lon="30.5232705362"><ele>81.37</ele><time>2026-08-20T12:26:38Z</time></trkpt><trkpt lat="60.1188455243" lon="30.5233634915"><ele>80.89</ele><time>2026-08-20T12:26:53Z</time></trkpt><trkpt lat="60.1188361365" lon="30.5234912317"><ele>80.41</ele><time>2026-08-20T12:27:03Z</time></trkpt><trkpt lat="60.1188382320" lon="30.5235774815"><ele>80.41</ele><time>2026-08-20T12:27:09Z</time></trkpt><trkpt lat="60.1188585162" lon="30.5238020327"><ele>80.41</ele><time>2026-08-20T12:27:20Z</time></trkpt><trkpt lat="60.1188724302" lon="30.5238736980"><ele>79.93</ele><time>2026-08-20T12:27:26Z</time></trkpt><trkpt lat="60.1188900322" lon="30.5238924734"><ele>79.93</ele><time>2026-08-20T12:27:28Z</time></trkpt><trkpt lat="60.1189000066" lon="30.5240036175"><ele>79.93</ele><time>2026-08-20T12:27:34Z</time></trkpt><trkpt lat="60.1189057063" lon="30.5240700021"><ele>79.93</ele><time>2026-08-20T12:27:37Z</time></trkpt><trkpt lat="60.1189298462" lon="30.5242276657"><ele>79.45</ele><time>2026-08-20T12:27:48Z</time></trkpt><trkpt lat="60.1189335342" lon="30.5243063718"><ele>79.45</ele><time>2026-08-20T12:27:54Z</time></trkpt><trkpt lat="60.1189380605" lon="30.5244149175"><ele>79.45</ele><time>2026-08-20T12:27:59Z</time></trkpt><trkpt lat="60.1189533155" lon="30.5246045999"><ele>78.97</ele><time>2026-08-20T12:28:09Z</time></trkpt><trkpt lat="60.1189626195" lon="30.5246665422"><ele>78.97</ele><time>2026-08-20T12:28:13Z</time></trkpt><trkpt lat="60.1189761981" lon="30.5248995591"><ele>78.97</ele><time>2026-08-20T12:28:26Z</time></trkpt><trkpt lat="60.1189694088" lon="30.5249257106"><ele>78.48</ele><time>2026-08-20T12:28:42Z</time></trkpt><trkpt lat="60.1189790480" lon="30.5250539538"><ele>78.48</ele><time>2026-08-20T12:28:54Z</time></trkpt><trkpt lat="60.1189828198" lon="30.5252340809"><ele>78.00</ele><time>2026-08-20T12:29:04Z</time></trkpt><trkpt lat="60.1189808920" lon="30.5254160520"><ele>78.00</ele><time>2026-08-20T12:29:14Z</time></trkpt><trkpt lat="60.1189748570" lon="30.5254760664"><ele>78.00</ele><time>2026-08-20T12:29:17Z</time></trkpt><trkpt lat="60.1189689897" lon="30.5255872943"><ele>78.00</ele><time>2026-08-20T12:29:24Z</time></trkpt><trkpt lat="60.1189853344" lon="30.5257094186"><ele>77.52</ele><time>2026-08-20T12:29:30Z</time></trkpt><trkpt lat="60.1190191135" lon="30.5257338099"><ele>77.52</ele><time>2026-08-20T12:29:33Z</time></trkpt><trkpt lat="60.1190399844" lon="30.5259606242"><ele>77.52</ele><time>2026-08-20T12:29:45Z</time></trkpt><trkpt lat="60.1190452650" lon="30.5259839259"><ele>77.52</ele><time>2026-08-20T12:29:47Z</time></trkpt><trkpt lat="60.1190741826" lon="30.5260544177"><ele>77.52</ele><time>2026-08-20T12:29:51Z</time></trkpt><trkpt lat="60.1190842409" lon="30.5263425875"><ele>77.04</ele><time>2026-08-20T12:30:03Z</time></trkpt><trkpt lat="60.1190965623" lon="30.5265534762"><ele>77.04</ele><time>2026-08-20T12:30:13Z</time></trkpt><trkpt lat="60.1191109791" lon="30.5266183522"><ele>76.56</ele><time>2026-08-20T12:30:16Z</time></trkpt><trkpt lat="60.1191175170" lon="30.5266669672"><ele>76.56</ele><time>2026-08-20T12:30:18Z</time></trkpt><trkpt lat="60.1191046089" lon="30.5268556438"><ele>76.56</ele><time>2026-08-20T12:30:28Z</time></trkpt><trkpt lat="60.1191126555" lon="30.5269423127"><ele>76.56</ele><time>2026-08-20T12:30:33Z</time></trkpt><trkpt lat="60.1191254798" lon="30.5269801151"><ele>76.56</ele><time>2026-08-20T12:30:35Z</time></trkpt><trkpt lat="60.1191497874" lon="30.5272490066"><ele>76.08</ele><time>2026-08-20T12:30:49Z</time></trkpt><trkpt lat="60.1191196125" lon="30.5273041595"><ele>76.08</ele><time>2026-08-20T12:30:54Z</time></trkpt><trkpt lat="60.1191168465" lon="30.5274712946"><ele>76.08</ele><time>2026-08-20T12:31:07Z</time></trkpt><trkpt lat="60.1191518828" lon="30.5276719574"><ele>75.60</ele><time>2026-08-20T12:31:21Z</time></trkpt><trkpt lat="60.1192051917" lon="30.5278514978"><ele>75.60</ele><time>2026-08-20T12:31:33Z</time></trkpt><trkpt lat="60.1192223746" lon="30.5279636476"><ele>75.60</ele><time>2026-08-20T12:31:44Z</time></trkpt><trkpt lat="60.1192760188" lon="30.5281473789"><ele>75.12</ele><time>2026-08-20T12:31:56Z</time></trkpt><trkpt lat="60.1193055231" lon="30.5282174516"><ele>75.12</ele><time>2026-08-20T12:32:03Z</time></trkpt><trkpt lat="60.1193706505" lon="30.5283242371"><ele>75.12</ele><time>2026-08-20T12:32:12Z</time></trkpt><trkpt lat="60.1193838101" lon="30.5284290109"><ele>75.12</ele><time>2026-08-20T12:32:17Z</time></trkpt><trkpt lat="60.1194603369" lon="30.5286201183"><ele>74.64</ele><time>2026-08-20T12:32:30Z</time></trkpt><trkpt lat="60.1195431501" lon="30.5288309231"><ele>74.64</ele><time>2026-08-20T12:32:42Z</time></trkpt><trkpt lat="60.1195876580" lon="30.5290504452"><ele>74.64</ele><time>2026-08-20T12:32:53Z</time></trkpt><trkpt lat="60.1196698844" lon="30.5292852223"><ele>74.16</ele><time>2026-08-20T12:33:08Z</time></trkpt><trkpt lat="60.1196855586" lon="30.5293237790"><ele>74.16</ele><time>2026-08-20T12:33:10Z</time></trkpt><trkpt lat="60.1197047532" lon="30.5294858012"><ele>74.16</ele><time>2026-08-20T12:33:21Z</time></trkpt><trkpt lat="60.1197318267" lon="30.5296210852"><ele>74.16</ele><time>2026-08-20T12:33:31Z</time></trkpt><trkpt lat="60.1198132988" lon="30.5298194848"><ele>74.16</ele><time>2026-08-20T12:33:43Z</time></trkpt><trkpt lat="60.1199093554" lon="30.5300551001"><ele>74.16</ele><time>2026-08-20T12:33:57Z</time></trkpt><trkpt lat="60.1199518517" lon="30.5301259272"><ele>74.16</ele><time>2026-08-20T12:34:03Z</time></trkpt><trkpt lat="60.1199861336" lon="30.5303629674"><ele>74.16</ele><time>2026-08-20T12:34:17Z</time></trkpt><trkpt lat="60.1200884767" lon="30.5305014364"><ele>73.68</ele><time>2026-08-20T12:34:32Z</time></trkpt><trkpt lat="60.1201228425" lon="30.5305984151"><ele>73.68</ele><time>2026-08-20T12:34:43Z</time></trkpt><trkpt lat="60.1201686915" lon="30.5307411589"><ele>73.68</ele><time>2026-08-20T12:34:52Z</time></trkpt><trkpt lat="60.1202010456" lon="30.5307040270"><ele>73.68</ele><time>2026-08-20T12:35:09Z</time></trkpt><trkpt lat="60.1202283707" lon="30.5308021791"><ele>73.68</ele><time>2026-08-20T12:35:21Z</time></trkpt><trkpt lat="60.1202673465" lon="30.5308622774"><ele>73.68</ele><time>2026-08-20T12:35:33Z</time></trkpt><trkpt lat="60.1202725433" lon="30.5308751855"><ele>73.68</ele><time>2026-08-20T12:35:34Z</time></trkpt><trkpt lat="60.1203408558" lon="30.5310000759"><ele>73.68</ele><time>2026-08-20T12:35:45Z</time></trkpt><trkpt lat="60.1204022113" lon="30.5310755968"><ele>73.20</ele><time>2026-08-20T12:35:53Z</time></trkpt><trkpt lat="60.1204778999" lon="30.5312350206"><ele>73.20</ele><time>2026-08-20T12:36:04Z</time></trkpt><trkpt lat="60.1205570251" lon="30.5314235296"><ele>73.20</ele><time>2026-08-20T12:36:18Z</time></trkpt><trkpt lat="60.1205501519" lon="30.5315833725"><ele>73.20</ele><time>2026-08-20T12:36:29Z</time></trkpt><trkpt lat="60.1205317955" lon="30.5316530261"><ele>73.20</ele><time>2026-08-20T12:36:34Z</time></trkpt><trkpt lat="60.1204949152" lon="30.5317831133"><ele>73.20</ele><time>2026-08-20T12:36:46Z</time></trkpt><trkpt lat="60.1204380859" lon="30.5319435429"><ele>73.20</ele><time>2026-08-20T12:36:57Z</time></trkpt><trkpt lat="60.1204404328" lon="30.5320843589"><ele>72.72</ele><time>2026-08-20T12:37:06Z</time></trkpt><trkpt lat="60.1204159576" lon="30.5322109256"><ele>72.72</ele><time>2026-08-20T12:37:11Z</time></trkpt><trkpt lat="60.1203813404" lon="30.5323824193"><ele>72.72</ele><time>2026-08-20T12:37:19Z</time></trkpt><trkpt lat="60.1203698572" lon="30.5324344710"><ele>72.72</ele><time>2026-08-20T12:37:21Z</time></trkpt><trkpt lat="60.1203251816" lon="30.5326549988"><ele>72.72</ele><time>2026-08-20T12:37:33Z</time></trkpt><trkpt lat="60.1202925760" lon="30.5328233074"><ele>72.24</ele><time>2026-08-20T12:37:44Z</time></trkpt><trkpt lat="60.1202851161" lon="30.5328367185"><ele>72.24</ele><time>2026-08-20T12:37:45Z</time></trkpt><trkpt lat="60.1202215813" lon="30.5330648739"><ele>72.24</ele><time>2026-08-20T12:37:58Z</time></trkpt><trkpt lat="60.1201773249" lon="30.5332057737"><ele>72.24</ele><time>2026-08-20T12:38:08Z</time></trkpt><trkpt lat="60.1201560348" lon="30.5332954600"><ele>72.24</ele><time>2026-08-20T12:38:12Z</time></trkpt><trkpt lat="60.1201132871" lon="30.5335064325"><ele>72.24</ele><time>2026-08-20T12:38:23Z</time></trkpt><trkpt lat="60.1201171428" lon="30.5335314106"><ele>72.24</ele><time>2026-08-20T12:38:25Z</time></trkpt><trkpt lat="60.1201176457" lon="30.5336290598"><ele>72.24</ele><time>2026-08-20T12:38:30Z</time></trkpt><trkpt lat="60.1200963557" lon="30.5338025652"><ele>71.76</ele><time>2026-08-20T12:38:40Z</time></trkpt><trkpt lat="60.1200895663" lon="30.5339179002"><ele>71.76</ele><time>2026-08-20T12:38:48Z</time></trkpt><trkpt lat="60.1200761553" lon="30.5340216681"><ele>71.76</ele><time>2026-08-20T12:38:55Z</time></trkpt><trkpt lat="60.1200686116" lon="30.5341040622"><ele>71.76</ele><time>2026-08-20T12:38:58Z</time></trkpt><trkpt lat="60.1200927515" lon="30.5343606323"><ele>71.76</ele><time>2026-08-20T12:39:10Z</time></trkpt><trkpt lat="60.1201086771" lon="30.5344483070"><ele>71.76</ele><time>2026-08-20T12:39:14Z</time></trkpt><trkpt lat="60.1201569568" lon="30.5346244108"><ele>71.27</ele><time>2026-08-20T12:39:24Z</time></trkpt><trkpt lat="60.1201927476" lon="30.5346915498"><ele>71.27</ele><time>2026-08-20T12:39:30Z</time></trkpt><trkpt lat="60.1202819310" lon="30.5348920450"><ele>71.27</ele><time>2026-08-20T12:39:44Z</time></trkpt><trkpt lat="60.1203298755" lon="30.5349536519"><ele>71.27</ele><time>2026-08-20T12:39:56Z</time></trkpt><trkpt lat="60.1203646604" lon="30.5348587688"><ele>71.27</ele><time>2026-08-20T12:40:12Z</time></trkpt><trkpt lat="60.1203771494" lon="30.5348166078"><ele>70.79</ele><time>2026-08-20T12:40:29Z</time></trkpt><trkpt lat="60.1203768142" lon="30.5348147638"><ele>70.79</ele><time>2026-08-20T12:40:47Z</time></trkpt><trkpt lat="60.1203739643" lon="30.5348003469"><ele>70.79</ele><time>2026-08-20T12:41:01Z</time></trkpt><trkpt lat="60.1204276085" lon="30.5347341299"><ele>70.79</ele><time>2026-08-20T12:41:14Z</time></trkpt><trkpt lat="60.1205292810" lon="30.5346594471"><ele>70.31</ele><time>2026-08-20T12:41:25Z</time></trkpt><trkpt lat="60.1206180453" lon="30.5345417652"><ele>70.31</ele><time>2026-08-20T12:41:37Z</time></trkpt><trkpt lat="60.1207556762" lon="30.5343396775"><ele>70.31</ele><time>2026-08-20T12:41:53Z</time></trkpt><trkpt lat="60.1208134275" lon="30.5342361610"><ele>70.31</ele><time>2026-08-20T12:42:05Z</time></trkpt><trkpt lat="60.1208829135" lon="30.5341535993"><ele>70.31</ele><time>2026-08-20T12:42:22Z</time></trkpt><trkpt lat="60.1209956501" lon="30.5339780822"><ele>69.83</ele><time>2026-08-20T12:42:36Z</time></trkpt><trkpt lat="60.1210751105" lon="30.5338831991"><ele>69.83</ele><time>2026-08-20T12:42:49Z</time></trkpt><trkpt lat="60.1210987475" lon="30.5338502582"><ele>69.83</ele><time>2026-08-20T12:42:53Z</time></trkpt><trkpt lat="60.1212202851" lon="30.5337136332"><ele>69.83</ele><time>2026-08-20T12:43:06Z</time></trkpt><trkpt lat="60.1212993264" lon="30.5336346757"><ele>69.83</ele><time>2026-08-20T12:43:19Z</time></trkpt><trkpt lat="60.1213207841" lon="30.5336075183"><ele>69.83</ele><time>2026-08-20T12:43:38Z</time></trkpt><trkpt lat="60.1213247236" lon="30.5335993040"><ele>69.83</ele><time>2026-08-20T12:43:55Z</time></trkpt><trkpt lat="60.1213702373" lon="30.5335949454"><ele>69.83</ele><time>2026-08-20T12:44:11Z</time></trkpt><trkpt lat="60.1213916950" lon="30.5335621722"><ele>69.83</ele><time>2026-08-20T12:44:39Z</time></trkpt><trkpt lat="60.1215020008" lon="30.5333572347"><ele>69.83</ele><time>2026-08-20T12:44:54Z</time></trkpt><trkpt lat="60.1215908490" lon="30.5332811270"><ele>69.35</ele><time>2026-08-20T12:45:07Z</time></trkpt><trkpt lat="60.1216813736" lon="30.5332282372"><ele>69.35</ele><time>2026-08-20T12:45:19Z</time></trkpt><trkpt lat="60.1216864027" lon="30.5332233757"><ele>69.35</ele><time>2026-08-20T12:45:20Z</time></trkpt><trkpt lat="60.1217501890" lon="30.5331062805"><ele>69.35</ele><time>2026-08-20T12:45:30Z</time></trkpt><trkpt lat="60.1217653602" lon="30.5330998264"><ele>69.35</ele><time>2026-08-20T12:45:37Z</time></trkpt><trkpt lat="60.1218780968" lon="30.5330015905"><ele>69.35</ele><time>2026-08-20T12:45:49Z</time></trkpt><trkpt lat="60.1219946891" lon="30.5328562483"><ele>69.35</ele><time>2026-08-20T12:46:01Z</time></trkpt><trkpt lat="60.1220566314" lon="30.5327693280"><ele>69.35</ele><time>2026-08-20T12:46:14Z</time></trkpt><trkpt lat="60.1221113652" lon="30.5327261612"><ele>69.35</ele><time>2026-08-20T12:46:28Z</time></trkpt><trkpt lat="60.1221968606" lon="30.5326578487"><ele>69.35</ele><time>2026-08-20T12:46:46Z</time></trkpt><trkpt lat="60.1222448889" lon="30.5326189566"><ele>69.83</ele><time>2026-08-20T12:46:51Z</time></trkpt><trkpt lat="60.1223585475" lon="30.5324633047"><ele>69.83</ele><time>2026-08-20T12:47:04Z</time></trkpt><trkpt lat="60.1224582922" lon="30.5323819164"><ele>69.83</ele><time>2026-08-20T12:47:17Z</time></trkpt><trkpt lat="60.1225209050" lon="30.5323394202"><ele>69.83</ele><time>2026-08-20T12:47:29Z</time></trkpt><trkpt lat="60.1227171253" lon="30.5323448684"><ele>69.83</ele><time>2026-08-20T12:47:42Z</time></trkpt><trkpt lat="60.1228688378" lon="30.5322192237"><ele>70.31</ele><time>2026-08-20T12:47:54Z</time></trkpt><trkpt lat="60.1229587756" lon="30.5321634840"><ele>70.31</ele><time>2026-08-20T12:48:06Z</time></trkpt><trkpt lat="60.1230455283" lon="30.5320860352"><ele>70.31</ele><time>2026-08-20T12:48:22Z</time></trkpt><trkpt lat="60.1232397370" lon="30.5319508351"><ele>70.31</ele><time>2026-08-20T12:48:39Z</time></trkpt><trkpt lat="60.1232952252" lon="30.5318415351"><ele>70.31</ele><time>2026-08-20T12:48:49Z</time></trkpt><trkpt lat="60.1234382205" lon="30.5316822790"><ele>70.79</ele><time>2026-08-20T12:49:03Z</time></trkpt><trkpt lat="60.1235141605" lon="30.5315925088"><ele>70.79</ele><time>2026-08-20T12:49:17Z</time></trkpt><trkpt lat="60.1236292440" lon="30.5314516928"><ele>70.79</ele><time>2026-08-20T12:49:30Z</time></trkpt><trkpt lat="60.1237220317" lon="30.5313589051"><ele>70.79</ele><time>2026-08-20T12:49:40Z</time></trkpt><trkpt lat="60.1237777714" lon="30.5313002318"><ele>70.79</ele><time>2026-08-20T12:49:56Z</time></trkpt><trkpt lat="60.1237773523" lon="30.5311448313"><ele>71.27</ele><time>2026-08-20T12:50:12Z</time></trkpt><trkpt lat="60.1237624325" lon="30.5308513809"><ele>71.27</ele><time>2026-08-20T12:50:27Z</time></trkpt><trkpt lat="60.1236707345" lon="30.5305560026"><ele>71.27</ele><time>2026-08-20T12:50:39Z</time></trkpt><trkpt lat="60.1236082055" lon="30.5303619616"><ele>71.27</ele><time>2026-08-20T12:50:51Z</time></trkpt><trkpt lat="60.1235885080" lon="30.5301746260"><ele>71.27</ele><time>2026-08-20T12:51:05Z</time></trkpt><trkpt lat="60.1235675532" lon="30.5300218239"><ele>71.27</ele><time>2026-08-20T12:51:15Z</time></trkpt><trkpt lat="60.1234745141" lon="30.5298346560"><ele>71.27</ele><time>2026-08-20T12:51:26Z</time></trkpt><trkpt lat="60.1234137453" lon="30.5296809319"><ele>71.27</ele><time>2026-08-20T12:51:37Z</time></trkpt><trkpt lat="60.1233278308" lon="30.5294589791"><ele>71.27</ele><time>2026-08-20T12:51:51Z</time></trkpt><trkpt lat="60.1232995000" lon="30.5292960349"><ele>71.27</ele><time>2026-08-20T12:52:07Z</time></trkpt><trkpt lat="60.1232457720" lon="30.5291649420"><ele>71.27</ele><time>2026-08-20T12:52:24Z</time></trkpt><trkpt lat="60.1232377253" lon="30.5291502737"><ele>70.79</ele><time>2026-08-20T12:52:45Z</time></trkpt><trkpt lat="60.1231871825" lon="30.5290648621"><ele>70.79</ele><time>2026-08-20T12:53:04Z</time></trkpt><trkpt lat="60.1231545769" lon="30.5289278179"><ele>70.79</ele><time>2026-08-20T12:53:13Z</time></trkpt><trkpt lat="60.1231394056" lon="30.5288488604"><ele>70.79</ele><time>2026-08-20T12:53:19Z</time></trkpt><trkpt lat="60.1230953168" lon="30.5286771152"><ele>70.79</ele><time>2026-08-20T12:53:32Z</time></trkpt><trkpt lat="60.1230226457" lon="30.5284757819"><ele>70.79</ele><time>2026-08-20T12:53:44Z</time></trkpt><trkpt lat="60.1229587756" lon="30.5283243209"><ele>70.79</ele><time>2026-08-20T12:53:57Z</time></trkpt><trkpt lat="60.1228871942" lon="30.5282440223"><ele>70.79</ele><time>2026-08-20T12:54:08Z</time></trkpt><trkpt lat="60.1227794867" lon="30.5280360673"><ele>70.31</ele><time>2026-08-20T12:54:24Z</time></trkpt><trkpt lat="60.1227425225" lon="30.5279877037"><ele>70.31</ele><time>2026-08-20T12:54:32Z</time></trkpt><trkpt lat="60.1226296183" lon="30.5278732069"><ele>70.31</ele><time>2026-08-20T12:54:46Z</time></trkpt><trkpt lat="60.1225972641" lon="30.5277976021"><ele>70.31</ele><time>2026-08-20T12:55:00Z</time></trkpt><trkpt lat="60.1225930732" lon="30.5277798325"><ele>69.83</ele><time>2026-08-20T12:55:28Z</time></trkpt><trkpt lat="60.1225990243" lon="30.5276837759"><ele>69.83</ele><time>2026-08-20T12:55:41Z</time></trkpt><trkpt lat="60.1226512436" lon="30.5274928361"><ele>69.83</ele><time>2026-08-20T12:55:55Z</time></trkpt><trkpt lat="60.1226980984" lon="30.5274039041"><ele>69.83</ele><time>2026-08-20T12:56:08Z</time></trkpt><trkpt lat="60.1227119286" lon="30.5273579713"><ele>69.83</ele><time>2026-08-20T12:56:21Z</time></trkpt><trkpt lat="60.1227247529" lon="30.5273147207"><ele>69.83</ele><time>2026-08-20T12:56:25Z</time></trkpt><trkpt lat="60.1227915566" lon="30.5271796044"><ele>69.35</ele><time>2026-08-20T12:56:37Z</time></trkpt><trkpt lat="60.1228649821" lon="30.5270408001"><ele>69.35</ele><time>2026-08-20T12:56:47Z</time></trkpt><trkpt lat="60.1228691731" lon="30.5270169955"><ele>69.35</ele><time>2026-08-20T12:56:48Z</time></trkpt><trkpt lat="60.1229822449" lon="30.5268479325"><ele>69.35</ele><time>2026-08-20T12:57:02Z</time></trkpt><trkpt lat="60.1230518986" lon="30.5268087890"><ele>69.35</ele><time>2026-08-20T12:57:17Z</time></trkpt><trkpt lat="60.1231940556" lon="30.5267556477"><ele>69.35</ele><time>2026-08-20T12:57:32Z</time></trkpt><trkpt lat="60.1232595183" lon="30.5267338548"><ele>69.35</ele><time>2026-08-20T12:57:47Z</time></trkpt><trkpt lat="60.1233427506" lon="30.5266446713"><ele>68.87</ele><time>2026-08-20T12:58:01Z</time></trkpt><trkpt lat="60.1234197803" lon="30.5265743472"><ele>68.87</ele><time>2026-08-20T12:58:16Z</time></trkpt><trkpt lat="60.1236049365" lon="30.5265181884"><ele>68.87</ele><time>2026-08-20T12:58:30Z</time></trkpt><trkpt lat="60.1237040106" lon="30.5266041867"><ele>68.87</ele><time>2026-08-20T12:58:46Z</time></trkpt><trkpt lat="60.1238557231" lon="30.5266999081"><ele>68.87</ele><time>2026-08-20T12:59:01Z</time></trkpt><trkpt lat="60.1239140611" lon="30.5267248023"><ele>68.87</ele><time>2026-08-20T12:59:20Z</time></trkpt><trkpt lat="60.1239203475" lon="30.5267494451"><ele>68.87</ele><time>2026-08-20T12:59:38Z</time></trkpt><trkpt lat="60.1240002271" lon="30.5269486830"><ele>68.87</ele><time>2026-08-20T12:59:52Z</time></trkpt><trkpt lat="60.1241086889" lon="30.5271589011"><ele>68.87</ele><time>2026-08-20T13:00:06Z</time></trkpt><trkpt lat="60.1241983753" lon="30.5273429677"><ele>68.87</ele><time>2026-08-20T13:00:22Z</time></trkpt><trkpt lat="60.1242361777" lon="30.5274510942"><ele>68.87</ele><time>2026-08-20T13:00:36Z</time></trkpt><trkpt lat="60.1242744830" lon="30.5275550298"><ele>68.87</ele><time>2026-08-20T13:00:52Z</time></trkpt><trkpt lat="60.1243328210" lon="30.5276370887"><ele>68.87</ele><time>2026-08-20T13:01:11Z</time></trkpt><trkpt lat="60.1243450586" lon="30.5277033895"><ele>68.87</ele><time>2026-08-20T13:01:29Z</time></trkpt><trkpt lat="60.1243831124" lon="30.5277421139"><ele>68.87</ele><time>2026-08-20T13:01:50Z</time></trkpt><trkpt lat="60.1244122814" lon="30.5277514178"><ele>68.87</ele><time>2026-08-20T13:02:15Z</time></trkpt><trkpt lat="60.1244244352" lon="30.5279734544"><ele>68.87</ele><time>2026-08-20T13:02:29Z</time></trkpt><trkpt lat="60.1244218368" lon="30.5281560123"><ele>68.87</ele><time>2026-08-20T13:02:44Z</time></trkpt><trkpt lat="60.1244270336" lon="30.5283075571"><ele>68.87</ele><time>2026-08-20T13:02:55Z</time></trkpt><trkpt lat="60.1244304702" lon="30.5285166018"><ele>68.87</ele><time>2026-08-20T13:03:09Z</time></trkpt><trkpt lat="60.1244944241" lon="30.5287796259"><ele>68.87</ele><time>2026-08-20T13:03:21Z</time></trkpt><trkpt lat="60.1245494932" lon="30.5289776903"><ele>69.35</ele><time>2026-08-20T13:03:37Z</time></trkpt><trkpt lat="60.1245700289" lon="30.5290507805"><ele>69.35</ele><time>2026-08-20T13:03:53Z</time></trkpt><trkpt lat="60.1246410236" lon="30.5290705618"><ele>69.35</ele><time>2026-08-20T13:04:07Z</time></trkpt><trkpt lat="60.1247416064" lon="30.5291324202"><ele>69.35</ele><time>2026-08-20T13:04:26Z</time></trkpt><trkpt lat="60.1248431113" lon="30.5291556381"><ele>69.35</ele><time>2026-08-20T13:04:42Z</time></trkpt><trkpt lat="60.1248948276" lon="30.5290879123"><ele>68.87</ele><time>2026-08-20T13:04:56Z</time></trkpt><trkpt lat="60.1249643136" lon="30.5290392973"><ele>68.87</ele><time>2026-08-20T13:05:13Z</time></trkpt><trkpt lat="60.1250096597" lon="30.5290625151"><ele>68.87</ele><time>2026-08-20T13:05:18Z</time></trkpt><trkpt lat="60.1250871923" lon="30.5290337652"><ele>68.87</ele><time>2026-08-20T13:05:33Z</time></trkpt><trkpt lat="60.1252967399" lon="30.5289631896"><ele>69.35</ele><time>2026-08-20T13:05:46Z</time></trkpt><trkpt lat="60.1254701614" lon="30.5290076975"><ele>69.35</ele><time>2026-08-20T13:06:01Z</time></trkpt><trkpt lat="60.1255771145" lon="30.5290916003"><ele>69.35</ele><time>2026-08-20T13:06:16Z</time></trkpt><trkpt lat="60.1256454270" lon="30.5292936880"><ele>69.35</ele><time>2026-08-20T13:06:29Z</time></trkpt><trkpt lat="60.1257020887" lon="30.5294408742"><ele>69.35</ele><time>2026-08-20T13:06:39Z</time></trkpt><trkpt lat="60.1257906016" lon="30.5293232761"><ele>69.83</ele><time>2026-08-20T13:06:52Z</time></trkpt><trkpt lat="60.1257912721" lon="30.5291636847"><ele>69.83</ele><time>2026-08-20T13:07:03Z</time></trkpt><trkpt lat="60.1257786155" lon="30.5291151535"><ele>69.83</ele><time>2026-08-20T13:07:14Z</time></trkpt><trkpt lat="60.1257745083" lon="30.5288742576"><ele>69.83</ele><time>2026-08-20T13:07:26Z</time></trkpt><trkpt lat="60.1257555652" lon="30.5286110658"><ele>69.83</ele><time>2026-08-20T13:07:35Z</time></trkpt><trkpt lat="60.1257480215" lon="30.5285621155"><ele>69.83</ele><time>2026-08-20T13:07:37Z</time></trkpt><trkpt lat="60.1257414836" lon="30.5284772068"><ele>69.83</ele><time>2026-08-20T13:07:41Z</time></trkpt><trkpt lat="60.1257348619" lon="30.5283174478"><ele>70.31</ele><time>2026-08-20T13:07:53Z</time></trkpt><trkpt lat="60.1257393043" lon="30.5281073973"><ele>70.31</ele><time>2026-08-20T13:08:01Z</time></trkpt><trkpt lat="60.1257459261" lon="30.5280177109"><ele>70.31</ele><time>2026-08-20T13:08:04Z</time></trkpt><trkpt lat="60.1257543918" lon="30.5277028028"><ele>70.31</ele><time>2026-08-20T13:08:18Z</time></trkpt><trkpt lat="60.1257595886" lon="30.5275010504"><ele>70.31</ele><time>2026-08-20T13:08:31Z</time></trkpt><trkpt lat="60.1257416513" lon="30.5272946041"><ele>70.79</ele><time>2026-08-20T13:08:44Z</time></trkpt><trkpt lat="60.1257375441" lon="30.5270617548"><ele>70.79</ele><time>2026-08-20T13:08:57Z</time></trkpt><trkpt lat="60.1257088780" lon="30.5268419813"><ele>70.79</ele><time>2026-08-20T13:09:08Z</time></trkpt><trkpt lat="60.1257137395" lon="30.5266538914"><ele>71.27</ele><time>2026-08-20T13:09:19Z</time></trkpt><trkpt lat="60.1257257257" lon="30.5264818110"><ele>71.27</ele><time>2026-08-20T13:09:31Z</time></trkpt><trkpt lat="60.1257228758" lon="30.5263456050"><ele>71.27</ele><time>2026-08-20T13:09:36Z</time></trkpt><trkpt lat="60.1257232111" lon="30.5260607880"><ele>71.27</ele><time>2026-08-20T13:09:48Z</time></trkpt><trkpt lat="60.1257455908" lon="30.5258894619"><ele>71.76</ele><time>2026-08-20T13:10:05Z</time></trkpt><trkpt lat="60.1257543080" lon="30.5257297028"><ele>71.76</ele><time>2026-08-20T13:10:18Z</time></trkpt><trkpt lat="60.1257073693" lon="30.5254999548"><ele>71.76</ele><time>2026-08-20T13:10:32Z</time></trkpt><trkpt lat="60.1256880071" lon="30.5253569596"><ele>72.24</ele><time>2026-08-20T13:10:44Z</time></trkpt><trkpt lat="60.1256744284" lon="30.5252145510"><ele>72.24</ele><time>2026-08-20T13:10:51Z</time></trkpt><trkpt lat="60.1256730873" lon="30.5250933487"><ele>72.24</ele><time>2026-08-20T13:11:03Z</time></trkpt><trkpt lat="60.1257300843" lon="30.5249060132"><ele>72.24</ele><time>2026-08-20T13:11:19Z</time></trkpt><trkpt lat="60.1257554814" lon="30.5248791073"><ele>72.72</ele><time>2026-08-20T13:11:35Z</time></trkpt><trkpt lat="60.1257698145" lon="30.5248391256"><ele>72.72</ele><time>2026-08-20T13:11:59Z</time></trkpt><trkpt lat="60.1258218661" lon="30.5247594975"><ele>72.72</ele><time>2026-08-20T13:12:12Z</time></trkpt><trkpt lat="60.1259296574" lon="30.5246317573"><ele>73.20</ele><time>2026-08-20T13:12:26Z</time></trkpt><trkpt lat="60.1259998977" lon="30.5245643668"><ele>73.20</ele><time>2026-08-20T13:12:38Z</time></trkpt><trkpt lat="60.1260369457" lon="30.5245329347"><ele>73.20</ele><time>2026-08-20T13:12:52Z</time></trkpt><trkpt lat="60.1260305755" lon="30.5245048553"><ele>73.20</ele><time>2026-08-20T13:13:10Z</time></trkpt><trkpt lat="60.1261051744" lon="30.5244208686"><ele>73.20</ele><time>2026-08-20T13:13:20Z</time></trkpt><trkpt lat="60.1261869818" lon="30.5243127421"><ele>73.68</ele><time>2026-08-20T13:13:31Z</time></trkpt><trkpt lat="60.1262100320" lon="30.5241579283"><ele>73.68</ele><time>2026-08-20T13:13:41Z</time></trkpt><trkpt lat="60.1262314897" lon="30.5239797290"><ele>73.68</ele><time>2026-08-20T13:13:53Z</time></trkpt><trkpt lat="60.1262204256" lon="30.5237128492"><ele>73.68</ele><time>2026-08-20T13:14:06Z</time></trkpt><trkpt lat="60.1262292266" lon="30.5235446244"><ele>74.16</ele><time>2026-08-20T13:14:20Z</time></trkpt><trkpt lat="60.1262441464" lon="30.5234276969"><ele>74.16</ele><time>2026-08-20T13:14:32Z</time></trkpt><trkpt lat="60.1262750756" lon="30.5233177263"><ele>74.16</ele><time>2026-08-20T13:14:38Z</time></trkpt><trkpt lat="60.1262895763" lon="30.5232889764"><ele>74.16</ele><time>2026-08-20T13:14:47Z</time></trkpt><trkpt lat="60.1262759976" lon="30.5234199017"><ele>74.16</ele><time>2026-08-20T13:14:52Z</time></trkpt><trkpt lat="60.1262616646" lon="30.5235073250"><ele>74.16</ele><time>2026-08-20T13:14:56Z</time></trkpt><trkpt lat="60.1262454037" lon="30.5236087460"><ele>74.64</ele><time>2026-08-20T13:15:10Z</time></trkpt><trkpt lat="60.1262071822" lon="30.5236245878"><ele>74.64</ele><time>2026-08-20T13:15:29Z</time></trkpt><trkpt lat="60.1261863112" lon="30.5236735381"><ele>74.64</ele><time>2026-08-20T13:15:44Z</time></trkpt><trkpt lat="60.1262092777" lon="30.5236299522"><ele>75.12</ele><time>2026-08-20T13:15:57Z</time></trkpt><trkpt lat="60.1262537017" lon="30.5233836081"><ele>75.12</ele><time>2026-08-20T13:16:10Z</time></trkpt><trkpt lat="60.1262938511" lon="30.5231614877"><ele>75.12</ele><time>2026-08-20T13:16:22Z</time></trkpt><trkpt lat="60.1262907498" lon="30.5231004674"><ele>75.12</ele><time>2026-08-20T13:16:25Z</time></trkpt><trkpt lat="60.1262965333" lon="30.5230488349"><ele>75.12</ele><time>2026-08-20T13:16:27Z</time></trkpt><trkpt lat="60.1263141353" lon="30.5229399540"><ele>75.12</ele><time>2026-08-20T13:16:33Z</time></trkpt><trkpt lat="60.1263204217" lon="30.5228984635"><ele>75.12</ele><time>2026-08-20T13:16:35Z</time></trkpt><trkpt lat="60.1263540331" lon="30.5227554683"><ele>75.60</ele><time>2026-08-20T13:16:43Z</time></trkpt><trkpt lat="60.1263848785" lon="30.5225323420"><ele>75.60</ele><time>2026-08-20T13:16:57Z</time></trkpt><trkpt lat="60.1264426298" lon="30.5223442521"><ele>75.60</ele><time>2026-08-20T13:17:09Z</time></trkpt><trkpt lat="60.1264976989" lon="30.5221547373"><ele>75.60</ele><time>2026-08-20T13:17:21Z</time></trkpt><trkpt lat="60.1265192404" lon="30.5220547412"><ele>75.60</ele><time>2026-08-20T13:17:26Z</time></trkpt><trkpt lat="60.1265730523" lon="30.5217993446"><ele>76.08</ele><time>2026-08-20T13:17:38Z</time></trkpt><trkpt lat="60.1265744772" lon="30.5217527412"><ele>76.08</ele><time>2026-08-20T13:17:40Z</time></trkpt><trkpt lat="60.1265797578" lon="30.5214887112"><ele>76.08</ele><time>2026-08-20T13:17:52Z</time></trkpt><trkpt lat="60.1265817694" lon="30.5213119369"><ele>76.08</ele><time>2026-08-20T13:18:05Z</time></trkpt><trkpt lat="60.1265199110" lon="30.5211296305"><ele>76.08</ele><time>2026-08-20T13:18:18Z</time></trkpt><trkpt lat="60.1264681108" lon="30.5209962744"><ele>76.08</ele><time>2026-08-20T13:18:29Z</time></trkpt><trkpt lat="60.1263957750" lon="30.5208156444"><ele>76.56</ele><time>2026-08-20T13:18:41Z</time></trkpt><trkpt lat="60.1263857167" lon="30.5207304005"><ele>76.56</ele><time>2026-08-20T13:18:51Z</time></trkpt><trkpt lat="60.1263541169" lon="30.5205936916"><ele>76.56</ele><time>2026-08-20T13:19:02Z</time></trkpt><trkpt lat="60.1262806077" lon="30.5203719903"><ele>76.56</ele><time>2026-08-20T13:19:15Z</time></trkpt><trkpt lat="60.1261959504" lon="30.5201590061"><ele>76.56</ele><time>2026-08-20T13:19:28Z</time></trkpt><trkpt lat="60.1261334214" lon="30.5200024322"><ele>76.56</ele><time>2026-08-20T13:19:39Z</time></trkpt><trkpt lat="60.1260418072" lon="30.5196821596"><ele>76.56</ele><time>2026-08-20T13:19:50Z</time></trkpt><trkpt lat="60.1259672083" lon="30.5194871128"><ele>76.56</ele><time>2026-08-20T13:19:59Z</time></trkpt><trkpt lat="60.1258681342" lon="30.5192782357"><ele>76.08</ele><time>2026-08-20T13:20:11Z</time></trkpt><trkpt lat="60.1258139033" lon="30.5190894753"><ele>76.08</ele><time>2026-08-20T13:20:20Z</time></trkpt><trkpt lat="60.1258130651" lon="30.5190624017"><ele>76.08</ele><time>2026-08-20T13:20:23Z</time></trkpt><trkpt lat="60.1257947087" lon="30.5189589690"><ele>76.08</ele><time>2026-08-20T13:20:28Z</time></trkpt><trkpt lat="60.1258078683" lon="30.5189298838"><ele>76.08</ele><time>2026-08-20T13:20:30Z</time></trkpt><trkpt lat="60.1257821359" lon="30.5188550334"><ele>76.08</ele><time>2026-08-20T13:20:34Z</time></trkpt><trkpt lat="60.1257496141" lon="30.5187297240"><ele>76.08</ele><time>2026-08-20T13:20:41Z</time></trkpt><trkpt lat="60.1256940421" lon="30.5185955297"><ele>76.08</ele><time>2026-08-20T13:20:51Z</time></trkpt><trkpt lat="60.1256771106" lon="30.5184738245"><ele>76.08</ele><time>2026-08-20T13:20:55Z</time></trkpt><trkpt lat="60.1256237179" lon="30.5183864851"><ele>76.08</ele><time>2026-08-20T13:21:00Z</time></trkpt><trkpt lat="60.1255777851" lon="30.5182326771"><ele>76.08</ele><time>2026-08-20T13:21:09Z</time></trkpt><trkpt lat="60.1255713310" lon="30.5182076152"><ele>76.08</ele><time>2026-08-20T13:21:12Z</time></trkpt><trkpt lat="60.1255635358" lon="30.5181626882"><ele>75.60</ele><time>2026-08-20T13:21:23Z</time></trkpt><trkpt lat="60.1255719177" lon="30.5181427393"><ele>75.60</ele><time>2026-08-20T13:21:25Z</time></trkpt><trkpt lat="60.1255304273" lon="30.5181131512"><ele>75.60</ele><time>2026-08-20T13:21:28Z</time></trkpt><trkpt lat="60.1255077962" lon="30.5179865845"><ele>75.60</ele><time>2026-08-20T13:21:34Z</time></trkpt><trkpt lat="60.1254338678" lon="30.5178459361"><ele>75.60</ele><time>2026-08-20T13:21:46Z</time></trkpt><trkpt lat="60.1254247315" lon="30.5177626200"><ele>75.60</ele><time>2026-08-20T13:21:57Z</time></trkpt><trkpt lat="60.1253931317" lon="30.5175983347"><ele>75.60</ele><time>2026-08-20T13:22:09Z</time></trkpt><trkpt lat="60.1253700815" lon="30.5174094904"><ele>75.60</ele><time>2026-08-20T13:22:18Z</time></trkpt><trkpt lat="60.1253645495" lon="30.5173247494"><ele>75.60</ele><time>2026-08-20T13:22:22Z</time></trkpt><trkpt lat="60.1253314409" lon="30.5172048882"><ele>75.60</ele><time>2026-08-20T13:22:28Z</time></trkpt><trkpt lat="60.1253404096" lon="30.5170535110"><ele>75.60</ele><time>2026-08-20T13:22:35Z</time></trkpt><trkpt lat="60.1253558323" lon="30.5169209093"><ele>75.12</ele><time>2026-08-20T13:22:42Z</time></trkpt><trkpt lat="60.1253821515" lon="30.5167409498"><ele>75.12</ele><time>2026-08-20T13:22:52Z</time></trkpt><trkpt lat="60.1253463607" lon="30.5164996348"><ele>75.12</ele><time>2026-08-20T13:23:04Z</time></trkpt><trkpt lat="60.1252890285" lon="30.5164815299"><ele>75.12</ele><time>2026-08-20T13:23:14Z</time></trkpt><trkpt lat="60.1252737734" lon="30.5164842959"><ele>75.12</ele><time>2026-08-20T13:23:23Z</time></trkpt><trkpt lat="60.1252723485" lon="30.5164835416"><ele>75.12</ele><time>2026-08-20T13:23:37Z</time></trkpt><trkpt lat="60.1252675708" lon="30.5164738186"><ele>75.12</ele><time>2026-08-20T13:24:00Z</time></trkpt><trkpt lat="60.1252820715" lon="30.5164718069"><ele>75.12</ele><time>2026-08-20T13:24:18Z</time></trkpt><trkpt lat="60.1252849214" lon="30.5164684542"><ele>75.12</ele><time>2026-08-20T13:24:42Z</time></trkpt><trkpt lat="60.1252877712" lon="30.5164538696"><ele>75.12</ele><time>2026-08-20T13:25:04Z</time></trkpt><trkpt lat="60.1252886094" lon="30.5164415482"><ele>75.12</ele><time>2026-08-20T13:25:31Z</time></trkpt><trkpt lat="60.1253206283" lon="30.5164468288"><ele>75.12</ele><time>2026-08-20T13:25:47Z</time></trkpt><trkpt lat="60.1253279205" lon="30.5164433084"><ele>75.12</ele><time>2026-08-20T13:26:01Z</time></trkpt><trkpt lat="60.1253219694" lon="30.5164509360"><ele>75.12</ele><time>2026-08-20T13:26:25Z</time></trkpt><trkpt lat="60.1253103185" lon="30.5164359324"><ele>75.12</ele><time>2026-08-20T13:26:37Z</time></trkpt><trkpt lat="60.1253153477" lon="30.5164544564"><ele>75.12</ele><time>2026-08-20T13:26:48Z</time></trkpt><trkpt lat="60.1253162697" lon="30.5164621677"><ele>75.12</ele><time>2026-08-20T13:27:09Z</time></trkpt></trkseg></trk></gpx>